<?xml version='1.0' encoding='UTF-8'?><gpx version="1.1" creator="JPX - https://github.com/jenetics/jpx" xmlns="http://www.topografix.com/GPX/1/1"><trk><trkseg><trkpt lat="44.9031346" lon="7.2390668"><ele>503.0</ele><time>2026-04-21T14:12:29.933Z</time></trkpt><trkpt lat="44.9032036" lon="7.2390452"><ele>502.99999999999994</ele><time>2026-04-21T14:12:30.931Z</time></trkpt><trkpt lat="44.9032881" lon="7.2390242"><ele>502.99999999999994</ele><time>2026-04-21T14:12:31.932Z</time></trkpt><trkpt lat="44.9033898" lon="7.2390053"><ele>503.0</ele><time>2026-04-21T14:12:32.932Z</time></trkpt><trkpt lat="44.903504" lon="7.2389884"><ele>503.0</ele><time>2026-04-21T14:12:33.932Z</time></trkpt><trkpt lat="44.9036321" lon="7.2389735"><ele>507.5</ele><time>2026-04-21T14:12:34.932Z</time></trkpt><trkpt lat="44.9037685" lon="7.2389613"><ele>512.0</ele><time>2026-04-21T14:12:35.933Z</time></trkpt><trkpt lat="44.9039158" lon="7.2389443"><ele>516.5</ele><time>2026-04-21T14:12:36.932Z</time></trkpt><trkpt lat="44.9040664" lon="7.2389274"><ele>521.0</ele><time>2026-04-21T14:12:37.932Z</time></trkpt><trkpt lat="44.9042226" lon="7.2389092"><ele>522.3333333333333</ele><time>2026-04-21T14:12:38.931Z</time></trkpt><trkpt lat="44.904386" lon="7.2389081"><ele>523.6666666666666</ele><time>2026-04-21T14:12:39.933Z</time></trkpt><trkpt lat="44.9045453" lon="7.23892"><ele>525.0</ele><time>2026-04-21T14:12:40.932Z</time></trkpt><trkpt lat="44.904695" lon="7.2389515"><ele>522.75</ele><time>2026-04-21T14:12:41.933Z</time></trkpt><trkpt lat="44.9048303" lon="7.2389894"><ele>520.5</ele><time>2026-04-21T14:12:42.931Z</time></trkpt><trkpt lat="44.9049484" lon="7.2390316"><ele>518.25</ele><time>2026-04-21T14:12:43.933Z</time></trkpt><trkpt lat="44.9050499" lon="7.239069"><ele>516.0</ele><time>2026-04-21T14:12:44.932Z</time></trkpt><trkpt lat="44.9051373" lon="7.2390826"><ele>516.0</ele><time>2026-04-21T14:12:45.932Z</time></trkpt><trkpt lat="44.9052222" lon="7.2390632"><ele>516.0</ele><time>2026-04-21T14:12:46.933Z</time></trkpt><trkpt lat="44.9052751" lon="7.2389682"><ele>516.0</ele><time>2026-04-21T14:12:47.933Z</time></trkpt><trkpt lat="44.9053" lon="7.2388558"><ele>516.0</ele><time>2026-04-21T14:12:48.933Z</time></trkpt><trkpt lat="44.9052788" lon="7.2387294"><ele>516.0</ele><time>2026-04-21T14:12:49.932Z</time></trkpt><trkpt lat="44.9052239" lon="7.238631"><ele>516.0</ele><time>2026-04-21T14:12:50.932Z</time></trkpt><trkpt lat="44.9051148" lon="7.2385771"><ele>518.25</ele><time>2026-04-21T14:12:51.932Z</time></trkpt><trkpt lat="44.9049894" lon="7.2385458"><ele>520.5</ele><time>2026-04-21T14:12:52.932Z</time></trkpt><trkpt lat="44.9048498" lon="7.2385008"><ele>522.75</ele><time>2026-04-21T14:12:53.932Z</time></trkpt><trkpt lat="44.9046991" lon="7.2384551"><ele>525.0</ele><time>2026-04-21T14:12:54.932Z</time></trkpt><trkpt lat="44.9045428" lon="7.2383963"><ele>525.0</ele><time>2026-04-21T14:12:55.932Z</time></trkpt><trkpt lat="44.9043837" lon="7.2383434"><ele>525.0</ele><time>2026-04-21T14:12:56.933Z</time></trkpt><trkpt lat="44.9042254" lon="7.2382877"><ele>525.0</ele><time>2026-04-21T14:12:57.932Z</time></trkpt><trkpt lat="44.9040818" lon="7.2382382"><ele>524.0</ele><time>2026-04-21T14:12:58.933Z</time></trkpt><trkpt lat="44.9039547" lon="7.2381816"><ele>523.0</ele><time>2026-04-21T14:12:59.931Z</time></trkpt><trkpt lat="44.9038481" lon="7.238108"><ele>522.0</ele><time>2026-04-21T14:13:00.933Z</time></trkpt><trkpt lat="44.9037512" lon="7.2380372"><ele>521.0</ele><time>2026-04-21T14:13:01.933Z</time></trkpt><trkpt lat="44.9036644" lon="7.2379439"><ele>524.25</ele><time>2026-04-21T14:13:02.931Z</time></trkpt><trkpt lat="44.9035746" lon="7.2378383"><ele>527.5</ele><time>2026-04-21T14:13:03.931Z</time></trkpt><trkpt lat="44.903471" lon="7.2376944"><ele>530.75</ele><time>2026-04-21T14:13:04.932Z</time></trkpt><trkpt lat="44.903343" lon="7.2375447"><ele>534.0</ele><time>2026-04-21T14:13:05.931Z</time></trkpt><trkpt lat="44.9032113" lon="7.2373796"><ele>540.0</ele><time>2026-04-21T14:13:06.931Z</time></trkpt><trkpt lat="44.9030778" lon="7.2371843"><ele>546.0</ele><time>2026-04-21T14:13:07.932Z</time></trkpt><trkpt lat="44.9029305" lon="7.2369768"><ele>552.0</ele><time>2026-04-21T14:13:08.933Z</time></trkpt><trkpt lat="44.9027961" lon="7.2367795"><ele>552.0</ele><time>2026-04-21T14:13:09.933Z</time></trkpt><trkpt lat="44.9026693" lon="7.2365727"><ele>552.0</ele><time>2026-04-21T14:13:10.933Z</time></trkpt><trkpt lat="44.9025533" lon="7.2363532"><ele>552.0</ele><time>2026-04-21T14:13:11.933Z</time></trkpt><trkpt lat="44.9024456" lon="7.23611"><ele>551.6666666666666</ele><time>2026-04-21T14:13:12.933Z</time></trkpt><trkpt lat="44.9023388" lon="7.2358538"><ele>551.3333333333333</ele><time>2026-04-21T14:13:13.932Z</time></trkpt><trkpt lat="44.9022234" lon="7.2355888"><ele>551.0</ele><time>2026-04-21T14:13:14.932Z</time></trkpt><trkpt lat="44.9021077" lon="7.2353139"><ele>556.5</ele><time>2026-04-21T14:13:15.931Z</time></trkpt><trkpt lat="44.901993" lon="7.2350353"><ele>562.0</ele><time>2026-04-21T14:13:16.933Z</time></trkpt><trkpt lat="44.901885" lon="7.2347548"><ele>560.3333333333334</ele><time>2026-04-21T14:13:17.933Z</time></trkpt><trkpt lat="44.90179" lon="7.2344725"><ele>558.6666666666666</ele><time>2026-04-21T14:13:18.931Z</time></trkpt><trkpt lat="44.9017087" lon="7.2341978"><ele>557.0</ele><time>2026-04-21T14:13:19.933Z</time></trkpt><trkpt lat="44.9016289" lon="7.233945"><ele>561.3333333333333</ele><time>2026-04-21T14:13:20.933Z</time></trkpt><trkpt lat="44.9015574" lon="7.2337249"><ele>565.6666666666666</ele><time>2026-04-21T14:13:21.931Z</time></trkpt><trkpt lat="44.9014948" lon="7.2335321"><ele>570.0</ele><time>2026-04-21T14:13:22.934Z</time></trkpt><trkpt lat="44.9014526" lon="7.2333579"><ele>570.0</ele><time>2026-04-21T14:13:23.932Z</time></trkpt><trkpt lat="44.9014455" lon="7.2331825"><ele>570.0</ele><time>2026-04-21T14:13:24.931Z</time></trkpt><trkpt lat="44.9014694" lon="7.2329901"><ele>570.0</ele><time>2026-04-21T14:13:25.933Z</time></trkpt><trkpt lat="44.9015244" lon="7.23279"><ele>570.0</ele><time>2026-04-21T14:13:26.932Z</time></trkpt><trkpt lat="44.901591" lon="7.2325756"><ele>570.3333333333334</ele><time>2026-04-21T14:13:27.933Z</time></trkpt><trkpt lat="44.901641" lon="7.2323391"><ele>570.6666666666667</ele><time>2026-04-21T14:13:28.932Z</time></trkpt><trkpt lat="44.9016604" lon="7.2321169"><ele>571.0</ele><time>2026-04-21T14:13:29.932Z</time></trkpt><trkpt lat="44.9016765" lon="7.231912"><ele>569.2</ele><time>2026-04-21T14:13:30.932Z</time></trkpt><trkpt lat="44.9017173" lon="7.2317555"><ele>567.4000000000001</ele><time>2026-04-21T14:13:31.931Z</time></trkpt><trkpt lat="44.9017925" lon="7.2316438"><ele>565.6</ele><time>2026-04-21T14:13:32.932Z</time></trkpt><trkpt lat="44.9018868" lon="7.2315721"><ele>563.8000000000001</ele><time>2026-04-21T14:13:33.931Z</time></trkpt><trkpt lat="44.9019688" lon="7.2314895"><ele>562.0</ele><time>2026-04-21T14:13:34.93Z</time></trkpt><trkpt lat="44.902027" lon="7.2313665"><ele>572.25</ele><time>2026-04-21T14:13:35.931Z</time></trkpt><trkpt lat="44.9020575" lon="7.2311984"><ele>582.5</ele><time>2026-04-21T14:13:36.933Z</time></trkpt><trkpt lat="44.9020609" lon="7.2310074"><ele>592.75</ele><time>2026-04-21T14:13:37.933Z</time></trkpt><trkpt lat="44.9020487" lon="7.2307838"><ele>603.0</ele><time>2026-04-21T14:13:38.931Z</time></trkpt><trkpt lat="44.9020351" lon="7.2305589"><ele>603.75</ele><time>2026-04-21T14:13:39.932Z</time></trkpt><trkpt lat="44.9020324" lon="7.2303554"><ele>604.5</ele><time>2026-04-21T14:13:40.933Z</time></trkpt><trkpt lat="44.9020688" lon="7.2301968"><ele>605.25</ele><time>2026-04-21T14:13:41.931Z</time></trkpt><trkpt lat="44.9021063" lon="7.2300466"><ele>606.0</ele><time>2026-04-21T14:13:42.933Z</time></trkpt><trkpt lat="44.9021748" lon="7.2299362"><ele>606.0</ele><time>2026-04-21T14:13:43.932Z</time></trkpt><trkpt lat="44.9022658" lon="7.2298661"><ele>606.0</ele><time>2026-04-21T14:13:44.932Z</time></trkpt><trkpt lat="44.9023036" lon="7.2297504"><ele>606.0</ele><time>2026-04-21T14:13:45.933Z</time></trkpt><trkpt lat="44.9022952" lon="7.2296186"><ele>606.0</ele><time>2026-04-21T14:13:46.931Z</time></trkpt><trkpt lat="44.902229" lon="7.2295183"><ele>606.0</ele><time>2026-04-21T14:13:47.933Z</time></trkpt><trkpt lat="44.902142" lon="7.229437"><ele>608.0</ele><time>2026-04-21T14:13:48.933Z</time></trkpt><trkpt lat="44.9020551" lon="7.2293431"><ele>610.0</ele><time>2026-04-21T14:13:49.931Z</time></trkpt><trkpt lat="44.9019766" lon="7.229231"><ele>612.0</ele><time>2026-04-21T14:13:50.931Z</time></trkpt><trkpt lat="44.9019427" lon="7.2290834"><ele>614.0</ele><time>2026-04-21T14:13:51.932Z</time></trkpt><trkpt lat="44.9019647" lon="7.2288779"><ele>618.0</ele><time>2026-04-21T14:13:52.933Z</time></trkpt><trkpt lat="44.9019712" lon="7.2286734"><ele>622.0</ele><time>2026-04-21T14:13:53.933Z</time></trkpt><trkpt lat="44.9019907" lon="7.2284383"><ele>626.0</ele><time>2026-04-21T14:13:54.931Z</time></trkpt><trkpt lat="44.9020055" lon="7.2281805"><ele>625.3333333333333</ele><time>2026-04-21T14:13:55.932Z</time></trkpt><trkpt lat="44.9020099" lon="7.2279029"><ele>624.6666666666666</ele><time>2026-04-21T14:13:56.933Z</time></trkpt><trkpt lat="44.9019875" lon="7.2276122"><ele>624.0</ele><time>2026-04-21T14:13:57.932Z</time></trkpt><trkpt lat="44.9019523" lon="7.2273074"><ele>623.3333333333334</ele><time>2026-04-21T14:13:58.932Z</time></trkpt><trkpt lat="44.9019082" lon="7.2270117"><ele>622.6666666666667</ele><time>2026-04-21T14:13:59.933Z</time></trkpt><trkpt lat="44.9018638" lon="7.2267394"><ele>622.0</ele><time>2026-04-21T14:14:00.932Z</time></trkpt><trkpt lat="44.9018112" lon="7.2265054"><ele>614.0</ele><time>2026-04-21T14:14:01.932Z</time></trkpt><trkpt lat="44.901741" lon="7.2262969"><ele>606.0</ele><time>2026-04-21T14:14:02.933Z</time></trkpt><trkpt lat="44.9016778" lon="7.2261084"><ele>598.0</ele><time>2026-04-21T14:14:03.931Z</time></trkpt><trkpt lat="44.901647" lon="7.225934"><ele>590.0</ele><time>2026-04-21T14:14:04.932Z</time></trkpt><trkpt lat="44.90163" lon="7.225754"><ele>591.3333333333333</ele><time>2026-04-21T14:14:05.931Z</time></trkpt><trkpt lat="44.9016957" lon="7.2255571"><ele>592.6666666666666</ele><time>2026-04-21T14:14:06.931Z</time></trkpt><trkpt lat="44.9017252" lon="7.2253539"><ele>594.0</ele><time>2026-04-21T14:14:07.933Z</time></trkpt><trkpt lat="44.9017396" lon="7.2251269"><ele>594.0</ele><time>2026-04-21T14:14:08.932Z</time></trkpt><trkpt lat="44.9017395" lon="7.2248826"><ele>594.0</ele><time>2026-04-21T14:14:09.932Z</time></trkpt><trkpt lat="44.9017266" lon="7.2246315"><ele>594.0</ele><time>2026-04-21T14:14:10.932Z</time></trkpt><trkpt lat="44.901716" lon="7.2243871"><ele>594.6666666666666</ele><time>2026-04-21T14:14:11.933Z</time></trkpt><trkpt lat="44.9017106" lon="7.2241579"><ele>595.3333333333333</ele><time>2026-04-21T14:14:12.931Z</time></trkpt><trkpt lat="44.9016984" lon="7.2239426"><ele>596.0</ele><time>2026-04-21T14:14:13.931Z</time></trkpt><trkpt lat="44.9016584" lon="7.2237366"><ele>598.25</ele><time>2026-04-21T14:14:14.932Z</time></trkpt><trkpt lat="44.9015891" lon="7.2235352"><ele>600.5</ele><time>2026-04-21T14:14:15.933Z</time></trkpt><trkpt lat="44.9015153" lon="7.2233586"><ele>602.75</ele><time>2026-04-21T14:14:16.932Z</time></trkpt><trkpt lat="44.9014534" lon="7.2231737"><ele>605.0</ele><time>2026-04-21T14:14:17.932Z</time></trkpt><trkpt lat="44.901405" lon="7.2229692"><ele>605.3333333333333</ele><time>2026-04-21T14:14:18.931Z</time></trkpt><trkpt lat="44.9013881" lon="7.222735"><ele>605.6666666666666</ele><time>2026-04-21T14:14:19.932Z</time></trkpt><trkpt lat="44.9013818" lon="7.2224915"><ele>606.0</ele><time>2026-04-21T14:14:20.931Z</time></trkpt><trkpt lat="44.9013696" lon="7.2222372"><ele>606.0</ele><time>2026-04-21T14:14:21.93Z</time></trkpt><trkpt lat="44.9013702" lon="7.2219964"><ele>606.0</ele><time>2026-04-21T14:14:22.931Z</time></trkpt><trkpt lat="44.9013944" lon="7.2217535"><ele>606.0</ele><time>2026-04-21T14:14:23.933Z</time></trkpt><trkpt lat="44.9014423" lon="7.2215144"><ele>605.3333333333334</ele><time>2026-04-21T14:14:24.932Z</time></trkpt><trkpt lat="44.901511" lon="7.2212759"><ele>604.6666666666667</ele><time>2026-04-21T14:14:25.933Z</time></trkpt><trkpt lat="44.9015981" lon="7.2210362"><ele>604.0</ele><time>2026-04-21T14:14:26.932Z</time></trkpt><trkpt lat="44.9016978" lon="7.2207974"><ele>610.3333333333334</ele><time>2026-04-21T14:14:27.932Z</time></trkpt><trkpt lat="44.9018132" lon="7.2205724"><ele>616.6666666666666</ele><time>2026-04-21T14:14:28.932Z</time></trkpt><trkpt lat="44.9019506" lon="7.2203597"><ele>623.0</ele><time>2026-04-21T14:14:29.931Z</time></trkpt><trkpt lat="44.9020969" lon="7.2201458"><ele>623.0</ele><time>2026-04-21T14:14:30.932Z</time></trkpt><trkpt lat="44.902231" lon="7.2199041"><ele>623.0</ele><time>2026-04-21T14:14:31.932Z</time></trkpt><trkpt lat="44.9023444" lon="7.2196232"><ele>623.0</ele><time>2026-04-21T14:14:32.931Z</time></trkpt><trkpt lat="44.9024418" lon="7.2193043"><ele>617.5</ele><time>2026-04-21T14:14:33.932Z</time></trkpt><trkpt lat="44.9025202" lon="7.2189754"><ele>612.0</ele><time>2026-04-21T14:14:34.932Z</time></trkpt><trkpt lat="44.9025853" lon="7.2186533"><ele>634.0</ele><time>2026-04-21T14:14:35.933Z</time></trkpt><trkpt lat="44.9026293" lon="7.2183347"><ele>656.0</ele><time>2026-04-21T14:14:36.931Z</time></trkpt><trkpt lat="44.9026663" lon="7.2180244"><ele>656.6666666666666</ele><time>2026-04-21T14:14:37.932Z</time></trkpt><trkpt lat="44.9027084" lon="7.2177238"><ele>657.3333333333334</ele><time>2026-04-21T14:14:38.931Z</time></trkpt><trkpt lat="44.9027422" lon="7.2174327"><ele>658.0</ele><time>2026-04-21T14:14:39.932Z</time></trkpt><trkpt lat="44.9027675" lon="7.2171714"><ele>659.3333333333334</ele><time>2026-04-21T14:14:40.932Z</time></trkpt><trkpt lat="44.9027721" lon="7.2169075"><ele>660.6666666666666</ele><time>2026-04-21T14:14:41.932Z</time></trkpt><trkpt lat="44.9027372" lon="7.2166419"><ele>662.0</ele><time>2026-04-21T14:14:42.933Z</time></trkpt><trkpt lat="44.9026981" lon="7.2163947"><ele>662.0</ele><time>2026-04-21T14:14:43.93Z</time></trkpt><trkpt lat="44.9026748" lon="7.2161576"><ele>662.0</ele><time>2026-04-21T14:14:44.932Z</time></trkpt><trkpt lat="44.9026758" lon="7.215923"><ele>662.0</ele><time>2026-04-21T14:14:45.93Z</time></trkpt><trkpt lat="44.9026927" lon="7.2156614"><ele>662.0</ele><time>2026-04-21T14:14:46.93Z</time></trkpt><trkpt lat="44.9027207" lon="7.2153883"><ele>662.0</ele><time>2026-04-21T14:14:47.931Z</time></trkpt><trkpt lat="44.9027597" lon="7.215099"><ele>662.0</ele><time>2026-04-21T14:14:48.931Z</time></trkpt><trkpt lat="44.9027923" lon="7.2148275"><ele>660.6666666666666</ele><time>2026-04-21T14:14:49.932Z</time></trkpt><trkpt lat="44.9028425" lon="7.2145615"><ele>659.3333333333334</ele><time>2026-04-21T14:14:50.931Z</time></trkpt><trkpt lat="44.9029064" lon="7.2143088"><ele>658.0</ele><time>2026-04-21T14:14:51.931Z</time></trkpt><trkpt lat="44.9029676" lon="7.2140783"><ele>656.3333333333334</ele><time>2026-04-21T14:14:52.931Z</time></trkpt><trkpt lat="44.9030179" lon="7.2138563"><ele>654.6666666666666</ele><time>2026-04-21T14:14:53.931Z</time></trkpt><trkpt lat="44.9030657" lon="7.213648"><ele>653.0</ele><time>2026-04-21T14:14:54.931Z</time></trkpt><trkpt lat="44.9031001" lon="7.2134443"><ele>653.0</ele><time>2026-04-21T14:14:55.932Z</time></trkpt><trkpt lat="44.9031227" lon="7.2132425"><ele>653.0</ele><time>2026-04-21T14:14:56.931Z</time></trkpt><trkpt lat="44.903142" lon="7.213033"><ele>653.0</ele><time>2026-04-21T14:14:57.932Z</time></trkpt><trkpt lat="44.9031499" lon="7.2128181"><ele>653.0</ele><time>2026-04-21T14:14:58.932Z</time></trkpt><trkpt lat="44.9031466" lon="7.2125985"><ele>652.3333333333333</ele><time>2026-04-21T14:14:59.932Z</time></trkpt><trkpt lat="44.9031415" lon="7.2123759"><ele>651.6666666666666</ele><time>2026-04-21T14:15:00.933Z</time></trkpt><trkpt lat="44.9031296" lon="7.2121411"><ele>651.0</ele><time>2026-04-21T14:15:01.932Z</time></trkpt><trkpt lat="44.9031201" lon="7.2119148"><ele>651.3333333333334</ele><time>2026-04-21T14:15:02.931Z</time></trkpt><trkpt lat="44.9031129" lon="7.2116836"><ele>651.6666666666667</ele><time>2026-04-21T14:15:03.933Z</time></trkpt><trkpt lat="44.9031035" lon="7.2114492"><ele>652.0</ele><time>2026-04-21T14:15:04.932Z</time></trkpt><trkpt lat="44.9030927" lon="7.2112094"><ele>652.0</ele><time>2026-04-21T14:15:05.932Z</time></trkpt><trkpt lat="44.9030832" lon="7.2109725"><ele>652.0</ele><time>2026-04-21T14:15:06.933Z</time></trkpt><trkpt lat="44.9030718" lon="7.2107342"><ele>652.0</ele><time>2026-04-21T14:15:07.932Z</time></trkpt><trkpt lat="44.90306" lon="7.2104954"><ele>653.0</ele><time>2026-04-21T14:15:08.933Z</time></trkpt><trkpt lat="44.903049" lon="7.2102541"><ele>654.0</ele><time>2026-04-21T14:15:09.932Z</time></trkpt><trkpt lat="44.9030385" lon="7.2100066"><ele>655.0</ele><time>2026-04-21T14:15:10.932Z</time></trkpt><trkpt lat="44.9030284" lon="7.2097608"><ele>658.3333333333334</ele><time>2026-04-21T14:15:11.933Z</time></trkpt><trkpt lat="44.9030138" lon="7.2095036"><ele>661.6666666666666</ele><time>2026-04-21T14:15:12.932Z</time></trkpt><trkpt lat="44.9030013" lon="7.2092513"><ele>665.0</ele><time>2026-04-21T14:15:13.932Z</time></trkpt><trkpt lat="44.90299" lon="7.2089936"><ele>669.0</ele><time>2026-04-21T14:15:14.932Z</time></trkpt><trkpt lat="44.9029851" lon="7.2087233"><ele>673.0</ele><time>2026-04-21T14:15:15.932Z</time></trkpt><trkpt lat="44.9029759" lon="7.2084517"><ele>677.0</ele><time>2026-04-21T14:15:16.931Z</time></trkpt><trkpt lat="44.9029644" lon="7.2081807"><ele>679.3333333333333</ele><time>2026-04-21T14:15:17.932Z</time></trkpt><trkpt lat="44.9029517" lon="7.2079138"><ele>681.6666666666666</ele><time>2026-04-21T14:15:18.931Z</time></trkpt><trkpt lat="44.9029383" lon="7.2076727"><ele>684.0</ele><time>2026-04-21T14:15:19.93Z</time></trkpt><trkpt lat="44.9029163" lon="7.2074499"><ele>691.3333333333334</ele><time>2026-04-21T14:15:20.932Z</time></trkpt><trkpt lat="44.9028646" lon="7.2072274"><ele>698.6666666666667</ele><time>2026-04-21T14:15:21.932Z</time></trkpt><trkpt lat="44.9027764" lon="7.2070021"><ele>706.0</ele><time>2026-04-21T14:15:22.933Z</time></trkpt><trkpt lat="44.9026751" lon="7.206793"><ele>702.5</ele><time>2026-04-21T14:15:23.932Z</time></trkpt><trkpt lat="44.9025808" lon="7.2066185"><ele>699.0</ele><time>2026-04-21T14:15:24.931Z</time></trkpt><trkpt lat="44.9025004" lon="7.2064778"><ele>695.5</ele><time>2026-04-21T14:15:25.932Z</time></trkpt><trkpt lat="44.9024403" lon="7.2063552"><ele>692.0</ele><time>2026-04-21T14:15:26.933Z</time></trkpt><trkpt lat="44.9024039" lon="7.2062444"><ele>692.0</ele><time>2026-04-21T14:15:27.931Z</time></trkpt><trkpt lat="44.9024123" lon="7.2061433"><ele>692.0</ele><time>2026-04-21T14:15:28.933Z</time></trkpt><trkpt lat="44.902466" lon="7.2060703"><ele>692.0</ele><time>2026-04-21T14:15:29.931Z</time></trkpt><trkpt lat="44.9025439" lon="7.2060453"><ele>692.0</ele><time>2026-04-21T14:15:30.932Z</time></trkpt><trkpt lat="44.9026471" lon="7.2060901"><ele>692.0</ele><time>2026-04-21T14:15:31.932Z</time></trkpt><trkpt lat="44.9027562" lon="7.2061725"><ele>696.6666666666666</ele><time>2026-04-21T14:15:32.931Z</time></trkpt><trkpt lat="44.9028692" lon="7.2062914"><ele>701.3333333333334</ele><time>2026-04-21T14:15:33.933Z</time></trkpt><trkpt lat="44.9029802" lon="7.2064389"><ele>706.0</ele><time>2026-04-21T14:15:34.932Z</time></trkpt><trkpt lat="44.9031006" lon="7.2066016"><ele>706.0</ele><time>2026-04-21T14:15:35.932Z</time></trkpt><trkpt lat="44.9032316" lon="7.2067845"><ele>706.0</ele><time>2026-04-21T14:15:36.933Z</time></trkpt><trkpt lat="44.9033698" lon="7.2069771"><ele>706.0</ele><time>2026-04-21T14:15:37.932Z</time></trkpt><trkpt lat="44.9035135" lon="7.2071728"><ele>717.6666666666667</ele><time>2026-04-21T14:15:38.931Z</time></trkpt><trkpt lat="44.9036402" lon="7.2073816"><ele>729.3333333333334</ele><time>2026-04-21T14:15:39.931Z</time></trkpt><trkpt lat="44.9037442" lon="7.2076096"><ele>741.0</ele><time>2026-04-21T14:15:40.93Z</time></trkpt><trkpt lat="44.9038347" lon="7.2078595"><ele>741.0</ele><time>2026-04-21T14:15:41.931Z</time></trkpt><trkpt lat="44.9038974" lon="7.2081244"><ele>741.0</ele><time>2026-04-21T14:15:42.931Z</time></trkpt><trkpt lat="44.9039533" lon="7.2083688"><ele>741.0</ele><time>2026-04-21T14:15:43.932Z</time></trkpt><trkpt lat="44.903999" lon="7.2085899"><ele>736.75</ele><time>2026-04-21T14:15:44.931Z</time></trkpt><trkpt lat="44.9040421" lon="7.2087819"><ele>732.5</ele><time>2026-04-21T14:15:45.931Z</time></trkpt><trkpt lat="44.9040913" lon="7.208944"><ele>728.25</ele><time>2026-04-21T14:15:46.932Z</time></trkpt><trkpt lat="44.9041642" lon="7.2090733"><ele>724.0</ele><time>2026-04-21T14:15:47.933Z</time></trkpt><trkpt lat="44.9042666" lon="7.2091684"><ele>724.0</ele><time>2026-04-21T14:15:48.931Z</time></trkpt><trkpt lat="44.9044034" lon="7.2092335"><ele>724.0</ele><time>2026-04-21T14:15:49.933Z</time></trkpt><trkpt lat="44.9045502" lon="7.2092822"><ele>724.0</ele><time>2026-04-21T14:15:50.931Z</time></trkpt><trkpt lat="44.904709" lon="7.209335"><ele>724.0</ele><time>2026-04-21T14:15:51.931Z</time></trkpt><trkpt lat="44.9048736" lon="7.2093838"><ele>724.0</ele><time>2026-04-21T14:15:52.931Z</time></trkpt><trkpt lat="44.905047" lon="7.2094172"><ele>724.0</ele><time>2026-04-21T14:15:53.932Z</time></trkpt><trkpt lat="44.9052246" lon="7.2094206"><ele>726.5</ele><time>2026-04-21T14:15:54.932Z</time></trkpt><trkpt lat="44.9053793" lon="7.2094141"><ele>729.0</ele><time>2026-04-21T14:15:55.932Z</time></trkpt><trkpt lat="44.9055142" lon="7.2094324"><ele>731.5</ele><time>2026-04-21T14:15:56.932Z</time></trkpt><trkpt lat="44.9056371" lon="7.2094783"><ele>734.0</ele><time>2026-04-21T14:15:57.932Z</time></trkpt><trkpt lat="44.9057381" lon="7.20955"><ele>734.0</ele><time>2026-04-21T14:15:58.932Z</time></trkpt><trkpt lat="44.9058193" lon="7.209613"><ele>734.0</ele><time>2026-04-21T14:15:59.931Z</time></trkpt><trkpt lat="44.9058978" lon="7.209638"><ele>734.0</ele><time>2026-04-21T14:16:00.933Z</time></trkpt><trkpt lat="44.9059567" lon="7.2095966"><ele>734.0</ele><time>2026-04-21T14:16:01.932Z</time></trkpt><trkpt lat="44.9059238" lon="7.2094474"><ele>734.0</ele><time>2026-04-21T14:16:03.931Z</time></trkpt><trkpt lat="44.9058435" lon="7.2093895"><ele>734.0</ele><time>2026-04-21T14:16:04.933Z</time></trkpt><trkpt lat="44.9057529" lon="7.2093585"><ele>734.0</ele><time>2026-04-21T14:16:05.933Z</time></trkpt><trkpt lat="44.9056639" lon="7.2093246"><ele>734.0</ele><time>2026-04-21T14:16:06.932Z</time></trkpt><trkpt lat="44.9055843" lon="7.2092776"><ele>734.0</ele><time>2026-04-21T14:16:07.931Z</time></trkpt><trkpt lat="44.905513" lon="7.209236"><ele>734.0</ele><time>2026-04-21T14:16:08.932Z</time></trkpt><trkpt lat="44.9054216" lon="7.2091938"><ele>734.0</ele><time>2026-04-21T14:16:10.932Z</time></trkpt><trkpt lat="44.905328" lon="7.2091887"><ele>734.0</ele><time>2026-04-21T14:16:19.932Z</time></trkpt><trkpt lat="44.9052137" lon="7.2091539"><ele>734.0</ele><time>2026-04-21T14:16:21.933Z</time></trkpt><trkpt lat="44.9051378" lon="7.2091299"><ele>734.0</ele><time>2026-04-21T14:16:22.933Z</time></trkpt><trkpt lat="44.9050428" lon="7.2090895"><ele>734.0</ele><time>2026-04-21T14:16:23.931Z</time></trkpt><trkpt lat="44.9049392" lon="7.209023"><ele>734.0</ele><time>2026-04-21T14:16:24.933Z</time></trkpt><trkpt lat="44.9048295" lon="7.2089219"><ele>734.0</ele><time>2026-04-21T14:16:25.931Z</time></trkpt><trkpt lat="44.9047202" lon="7.2088111"><ele>741.25</ele><time>2026-04-21T14:16:26.933Z</time></trkpt><trkpt lat="44.9046155" lon="7.2086984"><ele>748.5</ele><time>2026-04-21T14:16:27.933Z</time></trkpt><trkpt lat="44.9045316" lon="7.2085872"><ele>755.75</ele><time>2026-04-21T14:16:28.931Z</time></trkpt><trkpt lat="44.9044513" lon="7.2084565"><ele>763.0</ele><time>2026-04-21T14:16:29.93Z</time></trkpt><trkpt lat="44.9043919" lon="7.2083019"><ele>771.75</ele><time>2026-04-21T14:16:30.931Z</time></trkpt><trkpt lat="44.9043464" lon="7.2081305"><ele>780.5</ele><time>2026-04-21T14:16:31.933Z</time></trkpt><trkpt lat="44.9043259" lon="7.2079475"><ele>789.25</ele><time>2026-04-21T14:16:32.932Z</time></trkpt><trkpt lat="44.9043096" lon="7.2077409"><ele>798.0</ele><time>2026-04-21T14:16:33.931Z</time></trkpt><trkpt lat="44.9042804" lon="7.2075288"><ele>787.3333333333334</ele><time>2026-04-21T14:16:34.931Z</time></trkpt><trkpt lat="44.9042216" lon="7.2073145"><ele>776.6666666666667</ele><time>2026-04-21T14:16:35.931Z</time></trkpt><trkpt lat="44.9041544" lon="7.207111"><ele>766.0</ele><time>2026-04-21T14:16:36.93Z</time></trkpt><trkpt lat="44.9040879" lon="7.2069217"><ele>766.0</ele><time>2026-04-21T14:16:37.933Z</time></trkpt><trkpt lat="44.9040455" lon="7.2067511"><ele>766.0</ele><time>2026-04-21T14:16:38.931Z</time></trkpt><trkpt lat="44.9040222" lon="7.2065576"><ele>766.0</ele><time>2026-04-21T14:16:39.931Z</time></trkpt><trkpt lat="44.9039882" lon="7.2063837"><ele>766.0</ele><time>2026-04-21T14:16:40.932Z</time></trkpt><trkpt lat="44.903918" lon="7.2062428"><ele>773.5</ele><time>2026-04-21T14:16:41.93Z</time></trkpt><trkpt lat="44.9038286" lon="7.2061186"><ele>781.0</ele><time>2026-04-21T14:16:42.931Z</time></trkpt><trkpt lat="44.9037511" lon="7.2059893"><ele>788.5</ele><time>2026-04-21T14:16:43.93Z</time></trkpt><trkpt lat="44.9036907" lon="7.2058193"><ele>796.0</ele><time>2026-04-21T14:16:44.931Z</time></trkpt><trkpt lat="44.903641" lon="7.2056053"><ele>790.0</ele><time>2026-04-21T14:16:45.932Z</time></trkpt><trkpt lat="44.9035957" lon="7.205397"><ele>784.0</ele><time>2026-04-21T14:16:46.932Z</time></trkpt><trkpt lat="44.9035459" lon="7.2052223"><ele>778.0</ele><time>2026-04-21T14:16:47.931Z</time></trkpt><trkpt lat="44.9034639" lon="7.2050764"><ele>772.0</ele><time>2026-04-21T14:16:48.932Z</time></trkpt><trkpt lat="44.9033579" lon="7.2049435"><ele>784.6666666666666</ele><time>2026-04-21T14:16:49.931Z</time></trkpt><trkpt lat="44.9032333" lon="7.2048063"><ele>797.3333333333333</ele><time>2026-04-21T14:16:50.93Z</time></trkpt><trkpt lat="44.9031026" lon="7.204635"><ele>810.0</ele><time>2026-04-21T14:16:51.93Z</time></trkpt><trkpt lat="44.9029756" lon="7.2044638"><ele>810.0</ele><time>2026-04-21T14:16:52.931Z</time></trkpt><trkpt lat="44.9028836" lon="7.2043055"><ele>810.0</ele><time>2026-04-21T14:16:53.931Z</time></trkpt><trkpt lat="44.9028174" lon="7.204142"><ele>810.0</ele><time>2026-04-21T14:16:54.932Z</time></trkpt><trkpt lat="44.9027737" lon="7.203949"><ele>810.0</ele><time>2026-04-21T14:16:55.933Z</time></trkpt><trkpt lat="44.9027569" lon="7.2037373"><ele>809.0</ele><time>2026-04-21T14:16:56.933Z</time></trkpt><trkpt lat="44.902753" lon="7.2035241"><ele>808.0</ele><time>2026-04-21T14:16:57.933Z</time></trkpt><trkpt lat="44.9027438" lon="7.2033123"><ele>807.0</ele><time>2026-04-21T14:16:58.931Z</time></trkpt><trkpt lat="44.9027249" lon="7.2031161"><ele>806.0</ele><time>2026-04-21T14:16:59.932Z</time></trkpt><trkpt lat="44.9027076" lon="7.2029392"><ele>806.0</ele><time>2026-04-21T14:17:00.932Z</time></trkpt><trkpt lat="44.9027114" lon="7.2027734"><ele>806.0</ele><time>2026-04-21T14:17:01.931Z</time></trkpt><trkpt lat="44.902781" lon="7.202613"><ele>806.0</ele><time>2026-04-21T14:17:02.931Z</time></trkpt><trkpt lat="44.9028554" lon="7.2024764"><ele>806.0</ele><time>2026-04-21T14:17:03.93Z</time></trkpt><trkpt lat="44.9029636" lon="7.2023173"><ele>796.0</ele><time>2026-04-21T14:17:04.931Z</time></trkpt><trkpt lat="44.9030928" lon="7.202159"><ele>786.0</ele><time>2026-04-21T14:17:05.932Z</time></trkpt><trkpt lat="44.9032331" lon="7.2019812"><ele>776.0</ele><time>2026-04-21T14:17:06.931Z</time></trkpt><trkpt lat="44.9033824" lon="7.2017889"><ele>784.6666666666667</ele><time>2026-04-21T14:17:07.931Z</time></trkpt><trkpt lat="44.9035232" lon="7.2015741"><ele>793.3333333333333</ele><time>2026-04-21T14:17:08.931Z</time></trkpt><trkpt lat="44.903638" lon="7.2013647"><ele>802.0</ele><time>2026-04-21T14:17:09.932Z</time></trkpt><trkpt lat="44.9037546" lon="7.2011756"><ele>802.0</ele><time>2026-04-21T14:17:10.93Z</time></trkpt><trkpt lat="44.9038698" lon="7.2010249"><ele>802.0</ele><time>2026-04-21T14:17:11.93Z</time></trkpt><trkpt lat="44.9039778" lon="7.2008911"><ele>802.0</ele><time>2026-04-21T14:17:12.932Z</time></trkpt><trkpt lat="44.9040623" lon="7.2007239"><ele>802.0</ele><time>2026-04-21T14:17:13.932Z</time></trkpt><trkpt lat="44.9041278" lon="7.2005369"><ele>794.0</ele><time>2026-04-21T14:17:14.93Z</time></trkpt><trkpt lat="44.904194" lon="7.2003588"><ele>786.0</ele><time>2026-04-21T14:17:15.931Z</time></trkpt><trkpt lat="44.9042935" lon="7.2001906"><ele>778.0</ele><time>2026-04-21T14:17:16.931Z</time></trkpt><trkpt lat="44.9044094" lon="7.2000232"><ele>790.0</ele><time>2026-04-21T14:17:17.932Z</time></trkpt><trkpt lat="44.9045229" lon="7.1998403"><ele>802.0</ele><time>2026-04-21T14:17:18.931Z</time></trkpt><trkpt lat="44.9046317" lon="7.1996412"><ele>814.0</ele><time>2026-04-21T14:17:19.931Z</time></trkpt><trkpt lat="44.9047305" lon="7.199457"><ele>814.0</ele><time>2026-04-21T14:17:20.931Z</time></trkpt><trkpt lat="44.9048451" lon="7.1992825"><ele>814.0</ele><time>2026-04-21T14:17:21.932Z</time></trkpt><trkpt lat="44.9049789" lon="7.1990794"><ele>814.0</ele><time>2026-04-21T14:17:22.932Z</time></trkpt><trkpt lat="44.9050923" lon="7.1988874"><ele>820.25</ele><time>2026-04-21T14:17:23.932Z</time></trkpt><trkpt lat="44.9052135" lon="7.198728"><ele>826.5</ele><time>2026-04-21T14:17:24.932Z</time></trkpt><trkpt lat="44.9053147" lon="7.1985845"><ele>832.75</ele><time>2026-04-21T14:17:25.932Z</time></trkpt><trkpt lat="44.9053951" lon="7.1984556"><ele>839.0</ele><time>2026-04-21T14:17:26.931Z</time></trkpt><trkpt lat="44.9054551" lon="7.1983087"><ele>839.25</ele><time>2026-04-21T14:17:27.931Z</time></trkpt><trkpt lat="44.9054796" lon="7.198119"><ele>839.5</ele><time>2026-04-21T14:17:28.932Z</time></trkpt><trkpt lat="44.9054782" lon="7.1979243"><ele>839.75</ele><time>2026-04-21T14:17:29.933Z</time></trkpt><trkpt lat="44.9054532" lon="7.1977122"><ele>840.0</ele><time>2026-04-21T14:17:30.932Z</time></trkpt><trkpt lat="44.9054315" lon="7.1974986"><ele>846.6666666666667</ele><time>2026-04-21T14:17:31.931Z</time></trkpt><trkpt lat="44.9054182" lon="7.1972941"><ele>853.3333333333334</ele><time>2026-04-21T14:17:32.932Z</time></trkpt><trkpt lat="44.9054014" lon="7.19708"><ele>860.0</ele><time>2026-04-21T14:17:33.932Z</time></trkpt><trkpt lat="44.9053771" lon="7.1968645"><ele>860.0</ele><time>2026-04-21T14:17:34.931Z</time></trkpt><trkpt lat="44.9053505" lon="7.1966447"><ele>860.0</ele><time>2026-04-21T14:17:35.931Z</time></trkpt><trkpt lat="44.9053185" lon="7.196432"><ele>860.0</ele><time>2026-04-21T14:17:36.931Z</time></trkpt><trkpt lat="44.9052765" lon="7.1962331"><ele>865.4</ele><time>2026-04-21T14:17:37.932Z</time></trkpt><trkpt lat="44.9052298" lon="7.1960539"><ele>870.8</ele><time>2026-04-21T14:17:38.93Z</time></trkpt><trkpt lat="44.9051868" lon="7.1959027"><ele>876.2</ele><time>2026-04-21T14:17:39.932Z</time></trkpt><trkpt lat="44.9051472" lon="7.1957774"><ele>881.6</ele><time>2026-04-21T14:17:40.933Z</time></trkpt><trkpt lat="44.9051027" lon="7.1956719"><ele>887.0</ele><time>2026-04-21T14:17:41.93Z</time></trkpt><trkpt lat="44.9050822" lon="7.1955868"><ele>887.0</ele><time>2026-04-21T14:17:42.932Z</time></trkpt><trkpt lat="44.9051333" lon="7.1954913"><ele>887.0</ele><time>2026-04-21T14:17:44.932Z</time></trkpt><trkpt lat="44.905201" lon="7.1956246"><ele>887.0</ele><time>2026-04-21T14:17:46.932Z</time></trkpt><trkpt lat="44.9052211" lon="7.1957677"><ele>887.0</ele><time>2026-04-21T14:17:47.932Z</time></trkpt><trkpt lat="44.9052634" lon="7.1959401"><ele>887.0</ele><time>2026-04-21T14:17:48.931Z</time></trkpt><trkpt lat="44.9053204" lon="7.1961089"><ele>887.0</ele><time>2026-04-21T14:17:49.931Z</time></trkpt><trkpt lat="44.9053973" lon="7.1963018"><ele>887.0</ele><time>2026-04-21T14:17:50.932Z</time></trkpt><trkpt lat="44.9054739" lon="7.1965094"><ele>887.0</ele><time>2026-04-21T14:17:51.931Z</time></trkpt><trkpt lat="44.9055545" lon="7.196734"><ele>878.0</ele><time>2026-04-21T14:17:52.932Z</time></trkpt><trkpt lat="44.9056347" lon="7.1969336"><ele>869.0</ele><time>2026-04-21T14:17:53.931Z</time></trkpt><trkpt lat="44.9057217" lon="7.1971185"><ele>860.0</ele><time>2026-04-21T14:17:54.932Z</time></trkpt><trkpt lat="44.9058154" lon="7.1972979"><ele>853.3333333333334</ele><time>2026-04-21T14:17:55.931Z</time></trkpt><trkpt lat="44.9059045" lon="7.1974985"><ele>846.6666666666667</ele><time>2026-04-21T14:17:56.932Z</time></trkpt><trkpt lat="44.9059811" lon="7.1977041"><ele>840.0</ele><time>2026-04-21T14:17:57.932Z</time></trkpt><trkpt lat="44.9060472" lon="7.197892"><ele>851.0</ele><time>2026-04-21T14:17:58.932Z</time></trkpt><trkpt lat="44.9061047" lon="7.1980579"><ele>862.0</ele><time>2026-04-21T14:17:59.931Z</time></trkpt><trkpt lat="44.9061325" lon="7.1982097"><ele>873.0</ele><time>2026-04-21T14:18:00.931Z</time></trkpt><trkpt lat="44.9061278" lon="7.198354"><ele>884.0</ele><time>2026-04-21T14:18:01.932Z</time></trkpt><trkpt lat="44.9060722" lon="7.198487"><ele>884.0</ele><time>2026-04-21T14:18:02.932Z</time></trkpt><trkpt lat="44.905986" lon="7.1986035"><ele>884.0</ele><time>2026-04-21T14:18:03.931Z</time></trkpt><trkpt lat="44.905895" lon="7.1987076"><ele>884.0</ele><time>2026-04-21T14:18:04.932Z</time></trkpt><trkpt lat="44.9058284" lon="7.1988481"><ele>884.0</ele><time>2026-04-21T14:18:05.932Z</time></trkpt><trkpt lat="44.9057862" lon="7.1990084"><ele>878.0</ele><time>2026-04-21T14:18:06.932Z</time></trkpt><trkpt lat="44.9057718" lon="7.1992014"><ele>872.0</ele><time>2026-04-21T14:18:07.932Z</time></trkpt><trkpt lat="44.9057518" lon="7.1993968"><ele>866.0</ele><time>2026-04-21T14:18:08.931Z</time></trkpt><trkpt lat="44.9057071" lon="7.1995907"><ele>860.0</ele><time>2026-04-21T14:18:09.93Z</time></trkpt><trkpt lat="44.905643" lon="7.1997738"><ele>866.75</ele><time>2026-04-21T14:18:10.932Z</time></trkpt><trkpt lat="44.9055609" lon="7.1999326"><ele>873.5</ele><time>2026-04-21T14:18:11.931Z</time></trkpt><trkpt lat="44.9054503" lon="7.200005"><ele>880.25</ele><time>2026-04-21T14:18:12.931Z</time></trkpt><trkpt lat="44.9053641" lon="7.2001071"><ele>887.0</ele><time>2026-04-21T14:18:13.932Z</time></trkpt><trkpt lat="44.9052841" lon="7.2002161"><ele>887.0</ele><time>2026-04-21T14:18:14.932Z</time></trkpt><trkpt lat="44.9052686" lon="7.2004001"><ele>887.0</ele><time>2026-04-21T14:18:15.931Z</time></trkpt><trkpt lat="44.9052459" lon="7.2006071"><ele>887.0</ele><time>2026-04-21T14:18:16.93Z</time></trkpt><trkpt lat="44.9052337" lon="7.2008214"><ele>887.0</ele><time>2026-04-21T14:18:17.931Z</time></trkpt><trkpt lat="44.9052171" lon="7.2010585"><ele>893.0</ele><time>2026-04-21T14:18:18.93Z</time></trkpt><trkpt lat="44.9052013" lon="7.2013029"><ele>899.0</ele><time>2026-04-21T14:18:19.932Z</time></trkpt><trkpt lat="44.9051715" lon="7.2015436"><ele>905.0</ele><time>2026-04-21T14:18:20.93Z</time></trkpt><trkpt lat="44.9051115" lon="7.201781"><ele>903.0</ele><time>2026-04-21T14:18:21.93Z</time></trkpt><trkpt lat="44.9050302" lon="7.2020109"><ele>901.0</ele><time>2026-04-21T14:18:22.931Z</time></trkpt><trkpt lat="44.9049398" lon="7.2022356"><ele>899.0</ele><time>2026-04-21T14:18:23.931Z</time></trkpt><trkpt lat="44.9048334" lon="7.2024262"><ele>899.0</ele><time>2026-04-21T14:18:24.931Z</time></trkpt><trkpt lat="44.904711" lon="7.2025916"><ele>899.0</ele><time>2026-04-21T14:18:25.932Z</time></trkpt><trkpt lat="44.9046075" lon="7.2027391"><ele>899.0</ele><time>2026-04-21T14:18:26.932Z</time></trkpt><trkpt lat="44.9045164" lon="7.2028858"><ele>899.0</ele><time>2026-04-21T14:18:27.931Z</time></trkpt><trkpt lat="44.9044559" lon="7.2030448"><ele>899.0</ele><time>2026-04-21T14:18:28.931Z</time></trkpt><trkpt lat="44.904428" lon="7.2032203"><ele>899.0</ele><time>2026-04-21T14:18:29.93Z</time></trkpt><trkpt lat="44.9044274" lon="7.2033772"><ele>899.0</ele><time>2026-04-21T14:18:30.931Z</time></trkpt><trkpt lat="44.9044324" lon="7.2035199"><ele>902.0</ele><time>2026-04-21T14:18:31.931Z</time></trkpt><trkpt lat="44.9044995" lon="7.2036515"><ele>905.0</ele><time>2026-04-21T14:18:32.93Z</time></trkpt><trkpt lat="44.904582" lon="7.2037894"><ele>908.0</ele><time>2026-04-21T14:18:33.931Z</time></trkpt><trkpt lat="44.9046871" lon="7.2039248"><ele>911.0</ele><time>2026-04-21T14:18:34.931Z</time></trkpt><trkpt lat="44.9048037" lon="7.2040704"><ele>911.0</ele><time>2026-04-21T14:18:35.932Z</time></trkpt><trkpt lat="44.9049263" lon="7.2042359"><ele>911.0</ele><time>2026-04-21T14:18:36.932Z</time></trkpt><trkpt lat="44.9050445" lon="7.2044044"><ele>911.0</ele><time>2026-04-21T14:18:37.932Z</time></trkpt><trkpt lat="44.9051638" lon="7.204545"><ele>912.0</ele><time>2026-04-21T14:18:38.931Z</time></trkpt><trkpt lat="44.905297" lon="7.2046549"><ele>913.0</ele><time>2026-04-21T14:18:39.93Z</time></trkpt><trkpt lat="44.9054365" lon="7.2047414"><ele>914.0</ele><time>2026-04-21T14:18:40.932Z</time></trkpt><trkpt lat="44.9055619" lon="7.2048278"><ele>915.0</ele><time>2026-04-21T14:18:41.932Z</time></trkpt><trkpt lat="44.9056569" lon="7.2049234"><ele>915.0</ele><time>2026-04-21T14:18:42.932Z</time></trkpt><trkpt lat="44.905721" lon="7.2050384"><ele>915.0</ele><time>2026-04-21T14:18:43.931Z</time></trkpt><trkpt lat="44.905768" lon="7.2051468"><ele>915.0</ele><time>2026-04-21T14:18:44.93Z</time></trkpt><trkpt lat="44.9058231" lon="7.205218"><ele>915.0</ele><time>2026-04-21T14:18:45.932Z</time></trkpt><trkpt lat="44.9059298" lon="7.2051863"><ele>915.0</ele><time>2026-04-21T14:18:47.932Z</time></trkpt><trkpt lat="44.9058843" lon="7.2050171"><ele>915.0</ele><time>2026-04-21T14:18:49.931Z</time></trkpt><trkpt lat="44.9058148" lon="7.2049158"><ele>915.0</ele><time>2026-04-21T14:18:50.93Z</time></trkpt><trkpt lat="44.9057056" lon="7.2047721"><ele>915.0</ele><time>2026-04-21T14:18:51.93Z</time></trkpt><trkpt lat="44.9055777" lon="7.2046361"><ele>915.0</ele><time>2026-04-21T14:18:52.931Z</time></trkpt><trkpt lat="44.9054502" lon="7.204513"><ele>924.25</ele><time>2026-04-21T14:18:53.932Z</time></trkpt><trkpt lat="44.9053335" lon="7.2044012"><ele>933.5</ele><time>2026-04-21T14:18:54.932Z</time></trkpt><trkpt lat="44.9052468" lon="7.2042813"><ele>942.75</ele><time>2026-04-21T14:18:55.932Z</time></trkpt><trkpt lat="44.9051651" lon="7.204107"><ele>952.0</ele><time>2026-04-21T14:18:56.931Z</time></trkpt><trkpt lat="44.9050938" lon="7.2039063"><ele>942.5</ele><time>2026-04-21T14:18:57.93Z</time></trkpt><trkpt lat="44.9050371" lon="7.2037112"><ele>933.0</ele><time>2026-04-21T14:18:58.932Z</time></trkpt><trkpt lat="44.9050023" lon="7.2035448"><ele>923.5</ele><time>2026-04-21T14:18:59.932Z</time></trkpt><trkpt lat="44.9050036" lon="7.2033803"><ele>914.0</ele><time>2026-04-21T14:19:00.931Z</time></trkpt><trkpt lat="44.9050423" lon="7.2032001"><ele>922.5</ele><time>2026-04-21T14:19:01.931Z</time></trkpt><trkpt lat="44.9051183" lon="7.2030659"><ele>931.0</ele><time>2026-04-21T14:19:02.931Z</time></trkpt><trkpt lat="44.9052258" lon="7.2029589"><ele>939.5</ele><time>2026-04-21T14:19:03.931Z</time></trkpt><trkpt lat="44.9053686" lon="7.202828"><ele>948.0</ele><time>2026-04-21T14:19:04.931Z</time></trkpt><trkpt lat="44.9054867" lon="7.2026492"><ele>948.0</ele><time>2026-04-21T14:19:05.931Z</time></trkpt><trkpt lat="44.9056153" lon="7.2024524"><ele>948.0</ele><time>2026-04-21T14:19:06.931Z</time></trkpt><trkpt lat="44.9057419" lon="7.2022292"><ele>948.0</ele><time>2026-04-21T14:19:07.931Z</time></trkpt><trkpt lat="44.9058749" lon="7.2020011"><ele>954.3333333333333</ele><time>2026-04-21T14:19:08.93Z</time></trkpt><trkpt lat="44.9059931" lon="7.2017737"><ele>960.6666666666666</ele><time>2026-04-21T14:19:09.929Z</time></trkpt><trkpt lat="44.9061173" lon="7.2015314"><ele>967.0</ele><time>2026-04-21T14:19:10.931Z</time></trkpt><trkpt lat="44.9062353" lon="7.2012635"><ele>967.0</ele><time>2026-04-21T14:19:11.93Z</time></trkpt><trkpt lat="44.9063554" lon="7.2010215"><ele>967.0</ele><time>2026-04-21T14:19:12.932Z</time></trkpt><trkpt lat="44.9064661" lon="7.2008008"><ele>967.0</ele><time>2026-04-21T14:19:13.931Z</time></trkpt><trkpt lat="44.9065818" lon="7.2005881"><ele>957.6666666666666</ele><time>2026-04-21T14:19:14.932Z</time></trkpt><trkpt lat="44.9066881" lon="7.2003871"><ele>948.3333333333333</ele><time>2026-04-21T14:19:15.93Z</time></trkpt><trkpt lat="44.9067906" lon="7.2002068"><ele>939.0</ele><time>2026-04-21T14:19:16.932Z</time></trkpt><trkpt lat="44.9068535" lon="7.2000155"><ele>948.0</ele><time>2026-04-21T14:19:17.931Z</time></trkpt><trkpt lat="44.9068995" lon="7.1998079"><ele>957.0</ele><time>2026-04-21T14:19:18.932Z</time></trkpt><trkpt lat="44.9069288" lon="7.199616"><ele>966.0</ele><time>2026-04-21T14:19:19.931Z</time></trkpt><trkpt lat="44.9069587" lon="7.1994356"><ele>975.0</ele><time>2026-04-21T14:19:20.93Z</time></trkpt><trkpt lat="44.9070436" lon="7.1992995"><ele>975.0</ele><time>2026-04-21T14:19:21.931Z</time></trkpt><trkpt lat="44.9071274" lon="7.1991988"><ele>975.0</ele><time>2026-04-21T14:19:22.932Z</time></trkpt><trkpt lat="44.9072506" lon="7.1991105"><ele>975.0</ele><time>2026-04-21T14:19:23.93Z</time></trkpt><trkpt lat="44.9073932" lon="7.1990413"><ele>975.0</ele><time>2026-04-21T14:19:24.931Z</time></trkpt><trkpt lat="44.9075334" lon="7.1989782"><ele>975.75</ele><time>2026-04-21T14:19:25.932Z</time></trkpt><trkpt lat="44.9076659" lon="7.198934"><ele>976.5</ele><time>2026-04-21T14:19:26.93Z</time></trkpt><trkpt lat="44.9078018" lon="7.1989131"><ele>977.25</ele><time>2026-04-21T14:19:27.932Z</time></trkpt><trkpt lat="44.9079487" lon="7.1989355"><ele>978.0</ele><time>2026-04-21T14:19:28.931Z</time></trkpt><trkpt lat="44.9080743" lon="7.1989649"><ele>978.0</ele><time>2026-04-21T14:19:29.93Z</time></trkpt><trkpt lat="44.9081957" lon="7.198992"><ele>978.0</ele><time>2026-04-21T14:19:30.93Z</time></trkpt><trkpt lat="44.9082847" lon="7.1989438"><ele>978.0</ele><time>2026-04-21T14:19:31.931Z</time></trkpt><trkpt lat="44.9083618" lon="7.1988803"><ele>978.0</ele><time>2026-04-21T14:19:32.932Z</time></trkpt><trkpt lat="44.9084285" lon="7.198794"><ele>978.0</ele><time>2026-04-21T14:19:33.932Z</time></trkpt><trkpt lat="44.9084479" lon="7.1986332"><ele>980.6666666666667</ele><time>2026-04-21T14:19:34.932Z</time></trkpt><trkpt lat="44.9084273" lon="7.1984424"><ele>983.3333333333334</ele><time>2026-04-21T14:19:35.93Z</time></trkpt><trkpt lat="44.9084169" lon="7.1982292"><ele>986.0</ele><time>2026-04-21T14:19:36.931Z</time></trkpt><trkpt lat="44.9084057" lon="7.1980003"><ele>986.0</ele><time>2026-04-21T14:19:37.932Z</time></trkpt><trkpt lat="44.9083939" lon="7.1977456"><ele>986.0</ele><time>2026-04-21T14:19:38.931Z</time></trkpt><trkpt lat="44.908361" lon="7.1974813"><ele>986.0</ele><time>2026-04-21T14:19:39.932Z</time></trkpt><trkpt lat="44.9083064" lon="7.197222"><ele>990.0</ele><time>2026-04-21T14:19:40.931Z</time></trkpt><trkpt lat="44.9082597" lon="7.1969823"><ele>994.0</ele><time>2026-04-21T14:19:41.93Z</time></trkpt><trkpt lat="44.9082266" lon="7.1967543"><ele>998.0</ele><time>2026-04-21T14:19:42.93Z</time></trkpt><trkpt lat="44.9082081" lon="7.1965195"><ele>999.0</ele><time>2026-04-21T14:19:43.931Z</time></trkpt><trkpt lat="44.9082011" lon="7.196282"><ele>1000.0</ele><time>2026-04-21T14:19:44.932Z</time></trkpt><trkpt lat="44.9081957" lon="7.1960507"><ele>1001.0</ele><time>2026-04-21T14:19:45.931Z</time></trkpt><trkpt lat="44.9081888" lon="7.1958467"><ele>999.0</ele><time>2026-04-21T14:19:46.931Z</time></trkpt><trkpt lat="44.9081868" lon="7.1956636"><ele>996.9999999999999</ele><time>2026-04-21T14:19:47.929Z</time></trkpt><trkpt lat="44.9082063" lon="7.1955014"><ele>994.9999999999999</ele><time>2026-04-21T14:19:48.931Z</time></trkpt><trkpt lat="44.9082465" lon="7.1953661"><ele>993.0</ele><time>2026-04-21T14:19:49.931Z</time></trkpt><trkpt lat="44.9083153" lon="7.195268"><ele>991.0</ele><time>2026-04-21T14:19:50.931Z</time></trkpt><trkpt lat="44.9084165" lon="7.1951921"><ele>1002.3333333333333</ele><time>2026-04-21T14:19:51.932Z</time></trkpt><trkpt lat="44.9085437" lon="7.1951129"><ele>1013.6666666666667</ele><time>2026-04-21T14:19:52.931Z</time></trkpt><trkpt lat="44.908687" lon="7.1950142"><ele>1025.0</ele><time>2026-04-21T14:19:53.931Z</time></trkpt><trkpt lat="44.9088315" lon="7.1948834"><ele>1024.5</ele><time>2026-04-21T14:19:54.932Z</time></trkpt><trkpt lat="44.9089628" lon="7.1947636"><ele>1024.0</ele><time>2026-04-21T14:19:55.93Z</time></trkpt><trkpt lat="44.909094" lon="7.194671"><ele>1023.5</ele><time>2026-04-21T14:19:56.931Z</time></trkpt><trkpt lat="44.9092258" lon="7.1946105"><ele>1023.0</ele><time>2026-04-21T14:19:57.932Z</time></trkpt><trkpt lat="44.9093387" lon="7.1945609"><ele>1031.0</ele><time>2026-04-21T14:19:58.931Z</time></trkpt><trkpt lat="44.9094259" lon="7.1944958"><ele>1039.0</ele><time>2026-04-21T14:19:59.93Z</time></trkpt><trkpt lat="44.909491" lon="7.1944122"><ele>1047.0</ele><time>2026-04-21T14:20:00.932Z</time></trkpt><trkpt lat="44.9094817" lon="7.1942318"><ele>1055.0</ele><time>2026-04-21T14:20:01.932Z</time></trkpt><trkpt lat="44.9094768" lon="7.1940562"><ele>1063.0</ele><time>2026-04-21T14:20:02.931Z</time></trkpt><trkpt lat="44.9094386" lon="7.1938774"><ele>1065.5</ele><time>2026-04-21T14:20:03.93Z</time></trkpt><trkpt lat="44.9093578" lon="7.1937148"><ele>1068.0</ele><time>2026-04-21T14:20:04.932Z</time></trkpt><trkpt lat="44.909259" lon="7.1935736"><ele>1070.5</ele><time>2026-04-21T14:20:05.931Z</time></trkpt><trkpt lat="44.9091351" lon="7.1934326"><ele>1073.0</ele><time>2026-04-21T14:20:06.931Z</time></trkpt><trkpt lat="44.9090048" lon="7.1932697"><ele>1069.6666666666667</ele><time>2026-04-21T14:20:07.931Z</time></trkpt><trkpt lat="44.9088513" lon="7.1930959"><ele>1066.3333333333333</ele><time>2026-04-21T14:20:08.932Z</time></trkpt><trkpt lat="44.9086783" lon="7.1929385"><ele>1063.0</ele><time>2026-04-21T14:20:09.932Z</time></trkpt><trkpt lat="44.9084997" lon="7.1928019"><ele>1057.3333333333333</ele><time>2026-04-21T14:20:10.93Z</time></trkpt><trkpt lat="44.9083323" lon="7.1926923"><ele>1051.6666666666667</ele><time>2026-04-21T14:20:11.931Z</time></trkpt><trkpt lat="44.9081762" lon="7.1926045"><ele>1046.0</ele><time>2026-04-21T14:20:12.932Z</time></trkpt><trkpt lat="44.9080348" lon="7.192534"><ele>1046.0</ele><time>2026-04-21T14:20:13.932Z</time></trkpt><trkpt lat="44.9079023" lon="7.1924907"><ele>1046.0</ele><time>2026-04-21T14:20:14.93Z</time></trkpt><trkpt lat="44.9077734" lon="7.1924362"><ele>1046.0</ele><time>2026-04-21T14:20:15.932Z</time></trkpt><trkpt lat="44.907646" lon="7.1923582"><ele>1046.0</ele><time>2026-04-21T14:20:16.929Z</time></trkpt><trkpt lat="44.9075256" lon="7.1922464"><ele>1045.2</ele><time>2026-04-21T14:20:17.931Z</time></trkpt><trkpt lat="44.9074338" lon="7.1921419"><ele>1044.3999999999999</ele><time>2026-04-21T14:20:18.93Z</time></trkpt><trkpt lat="44.9073928" lon="7.1920524"><ele>1043.6</ele><time>2026-04-21T14:20:19.932Z</time></trkpt><trkpt lat="44.9073808" lon="7.1919637"><ele>1042.8</ele><time>2026-04-21T14:20:20.932Z</time></trkpt><trkpt lat="44.9074156" lon="7.1918536"><ele>1042.0</ele><time>2026-04-21T14:20:21.93Z</time></trkpt><trkpt lat="44.9074511" lon="7.1917011"><ele>1042.0</ele><time>2026-04-21T14:20:22.931Z</time></trkpt><trkpt lat="44.9074928" lon="7.1915241"><ele>1042.0</ele><time>2026-04-21T14:20:23.93Z</time></trkpt><trkpt lat="44.9075396" lon="7.1913179"><ele>1042.0</ele><time>2026-04-21T14:20:24.931Z</time></trkpt><trkpt lat="44.9075891" lon="7.1911169"><ele>1042.0</ele><time>2026-04-21T14:20:25.932Z</time></trkpt><trkpt lat="44.9076504" lon="7.1909186"><ele>1050.6666666666665</ele><time>2026-04-21T14:20:26.932Z</time></trkpt><trkpt lat="44.9077508" lon="7.1907189"><ele>1059.3333333333333</ele><time>2026-04-21T14:20:27.931Z</time></trkpt><trkpt lat="44.9078326" lon="7.1905029"><ele>1068.0</ele><time>2026-04-21T14:20:28.931Z</time></trkpt><trkpt lat="44.9079149" lon="7.1902691"><ele>1068.0</ele><time>2026-04-21T14:20:29.929Z</time></trkpt><trkpt lat="44.9080013" lon="7.1900138"><ele>1068.0</ele><time>2026-04-21T14:20:30.93Z</time></trkpt><trkpt lat="44.9080916" lon="7.1897465"><ele>1068.0</ele><time>2026-04-21T14:20:31.931Z</time></trkpt><trkpt lat="44.9081703" lon="7.1895045"><ele>1066.0</ele><time>2026-04-21T14:20:32.93Z</time></trkpt><trkpt lat="44.9082415" lon="7.1892893"><ele>1064.0</ele><time>2026-04-21T14:20:33.93Z</time></trkpt><trkpt lat="44.9083121" lon="7.1890943"><ele>1062.0</ele><time>2026-04-21T14:20:34.931Z</time></trkpt><trkpt lat="44.9083774" lon="7.1889207"><ele>1068.5</ele><time>2026-04-21T14:20:35.93Z</time></trkpt><trkpt lat="44.9084537" lon="7.1887558"><ele>1075.0</ele><time>2026-04-21T14:20:36.931Z</time></trkpt><trkpt lat="44.908543" lon="7.1886001"><ele>1081.5</ele><time>2026-04-21T14:20:37.931Z</time></trkpt><trkpt lat="44.9086617" lon="7.1884353"><ele>1088.0</ele><time>2026-04-21T14:20:38.931Z</time></trkpt><trkpt lat="44.9087647" lon="7.1882775"><ele>1087.5</ele><time>2026-04-21T14:20:39.932Z</time></trkpt><trkpt lat="44.9088466" lon="7.1881177"><ele>1087.0</ele><time>2026-04-21T14:20:40.929Z</time></trkpt><trkpt lat="44.9089042" lon="7.1879456"><ele>1086.5</ele><time>2026-04-21T14:20:41.929Z</time></trkpt><trkpt lat="44.9089318" lon="7.1877665"><ele>1086.0</ele><time>2026-04-21T14:20:42.931Z</time></trkpt><trkpt lat="44.9089255" lon="7.1875836"><ele>1086.0</ele><time>2026-04-21T14:20:43.93Z</time></trkpt><trkpt lat="44.9089031" lon="7.1874153"><ele>1086.0</ele><time>2026-04-21T14:20:44.931Z</time></trkpt><trkpt lat="44.9088923" lon="7.1872614"><ele>1086.0</ele><time>2026-04-21T14:20:45.93Z</time></trkpt><trkpt lat="44.9089019" lon="7.1871246"><ele>1086.0</ele><time>2026-04-21T14:20:46.931Z</time></trkpt><trkpt lat="44.9089229" lon="7.1870038"><ele>1086.0</ele><time>2026-04-21T14:20:47.931Z</time></trkpt><trkpt lat="44.908953" lon="7.1869078"><ele>1086.0</ele><time>2026-04-21T14:20:48.931Z</time></trkpt><trkpt lat="44.9090627" lon="7.1868786"><ele>1086.0</ele><time>2026-04-21T14:20:50.931Z</time></trkpt><trkpt lat="44.9090958" lon="7.1869609"><ele>1086.0</ele><time>2026-04-21T14:20:51.932Z</time></trkpt><trkpt lat="44.9091245" lon="7.187078"><ele>1086.0</ele><time>2026-04-21T14:20:52.931Z</time></trkpt><trkpt lat="44.9091326" lon="7.1872596"><ele>1086.0</ele><time>2026-04-21T14:20:53.93Z</time></trkpt><trkpt lat="44.9091512" lon="7.1874629"><ele>1086.0</ele><time>2026-04-21T14:20:54.929Z</time></trkpt><trkpt lat="44.9091636" lon="7.1876915"><ele>1086.0</ele><time>2026-04-21T14:20:55.932Z</time></trkpt><trkpt lat="44.9091562" lon="7.1879053"><ele>1086.0</ele><time>2026-04-21T14:20:56.932Z</time></trkpt><trkpt lat="44.9091528" lon="7.1881064"><ele>1086.5</ele><time>2026-04-21T14:20:57.929Z</time></trkpt><trkpt lat="44.9091654" lon="7.1883117"><ele>1087.0</ele><time>2026-04-21T14:20:58.93Z</time></trkpt><trkpt lat="44.9091778" lon="7.1885191"><ele>1087.5</ele><time>2026-04-21T14:20:59.93Z</time></trkpt><trkpt lat="44.9091784" lon="7.1887326"><ele>1088.0</ele><time>2026-04-21T14:21:00.931Z</time></trkpt><trkpt lat="44.9091566" lon="7.1889482"><ele>1089.25</ele><time>2026-04-21T14:21:01.931Z</time></trkpt><trkpt lat="44.9091407" lon="7.1891522"><ele>1090.5</ele><time>2026-04-21T14:21:02.931Z</time></trkpt><trkpt lat="44.9091252" lon="7.189347"><ele>1091.75</ele><time>2026-04-21T14:21:03.929Z</time></trkpt><trkpt lat="44.9091185" lon="7.1895333"><ele>1093.0</ele><time>2026-04-21T14:21:04.93Z</time></trkpt><trkpt lat="44.9091324" lon="7.1897169"><ele>1092.5</ele><time>2026-04-21T14:21:05.93Z</time></trkpt><trkpt lat="44.9091743" lon="7.1898858"><ele>1092.0</ele><time>2026-04-21T14:21:06.93Z</time></trkpt><trkpt lat="44.9092101" lon="7.1900591"><ele>1091.5</ele><time>2026-04-21T14:21:07.93Z</time></trkpt><trkpt lat="44.9092338" lon="7.1902451"><ele>1091.0</ele><time>2026-04-21T14:21:08.93Z</time></trkpt><trkpt lat="44.9092369" lon="7.1904378"><ele>1091.0</ele><time>2026-04-21T14:21:09.931Z</time></trkpt><trkpt lat="44.9092299" lon="7.1906377"><ele>1091.0</ele><time>2026-04-21T14:21:10.93Z</time></trkpt><trkpt lat="44.9092338" lon="7.1908262"><ele>1091.0</ele><time>2026-04-21T14:21:11.931Z</time></trkpt><trkpt lat="44.9092678" lon="7.1909957"><ele>1091.0</ele><time>2026-04-21T14:21:12.93Z</time></trkpt><trkpt lat="44.9093255" lon="7.1911293"><ele>1094.75</ele><time>2026-04-21T14:21:13.93Z</time></trkpt><trkpt lat="44.9094008" lon="7.1912409"><ele>1098.5</ele><time>2026-04-21T14:21:14.931Z</time></trkpt><trkpt lat="44.9095121" lon="7.1913295"><ele>1102.25</ele><time>2026-04-21T14:21:15.931Z</time></trkpt><trkpt lat="44.9096397" lon="7.1914255"><ele>1106.0</ele><time>2026-04-21T14:21:16.93Z</time></trkpt><trkpt lat="44.9097777" lon="7.1915249"><ele>1106.0</ele><time>2026-04-21T14:21:17.932Z</time></trkpt><trkpt lat="44.9099251" lon="7.1916389"><ele>1106.0</ele><time>2026-04-21T14:21:18.932Z</time></trkpt><trkpt lat="44.9100754" lon="7.1917502"><ele>1106.0</ele><time>2026-04-21T14:21:19.931Z</time></trkpt><trkpt lat="44.9102277" lon="7.1918682"><ele>1116.6666666666667</ele><time>2026-04-21T14:21:20.932Z</time></trkpt><trkpt lat="44.9103794" lon="7.1919887"><ele>1127.3333333333333</ele><time>2026-04-21T14:21:21.931Z</time></trkpt><trkpt lat="44.9105298" lon="7.1921178"><ele>1138.0</ele><time>2026-04-21T14:21:22.93Z</time></trkpt><trkpt lat="44.9106756" lon="7.1922389"><ele>1143.0</ele><time>2026-04-21T14:21:23.932Z</time></trkpt><trkpt lat="44.9108124" lon="7.1923646"><ele>1148.0</ele><time>2026-04-21T14:21:24.931Z</time></trkpt><trkpt lat="44.9109442" lon="7.1924959"><ele>1153.0</ele><time>2026-04-21T14:21:25.931Z</time></trkpt><trkpt lat="44.9110612" lon="7.1926402"><ele>1153.0</ele><time>2026-04-21T14:21:26.93Z</time></trkpt><trkpt lat="44.9111713" lon="7.1927824"><ele>1153.0</ele><time>2026-04-21T14:21:27.93Z</time></trkpt><trkpt lat="44.9112691" lon="7.1929147"><ele>1153.0</ele><time>2026-04-21T14:21:28.931Z</time></trkpt><trkpt lat="44.9113529" lon="7.1930414"><ele>1153.0</ele><time>2026-04-21T14:21:29.931Z</time></trkpt><trkpt lat="44.9114246" lon="7.1931432"><ele>1150.8333333333333</ele><time>2026-04-21T14:21:30.932Z</time></trkpt><trkpt lat="44.9114777" lon="7.1932287"><ele>1148.6666666666665</ele><time>2026-04-21T14:21:31.931Z</time></trkpt><trkpt lat="44.9115018" lon="7.1933302"><ele>1146.5</ele><time>2026-04-21T14:21:32.93Z</time></trkpt><trkpt lat="44.9114909" lon="7.1934404"><ele>1144.3333333333333</ele><time>2026-04-21T14:21:33.93Z</time></trkpt><trkpt lat="44.9114649" lon="7.1935592"><ele>1142.1666666666667</ele><time>2026-04-21T14:21:34.931Z</time></trkpt><trkpt lat="44.9114485" lon="7.193721"><ele>1140.0</ele><time>2026-04-21T14:21:35.932Z</time></trkpt><trkpt lat="44.9114343" lon="7.1939062"><ele>1139.25</ele><time>2026-04-21T14:21:36.931Z</time></trkpt><trkpt lat="44.9114153" lon="7.1940855"><ele>1138.5</ele><time>2026-04-21T14:21:37.931Z</time></trkpt><trkpt lat="44.9113929" lon="7.1942545"><ele>1137.75</ele><time>2026-04-21T14:21:38.932Z</time></trkpt><trkpt lat="44.9113683" lon="7.1944181"><ele>1137.0</ele><time>2026-04-21T14:21:39.932Z</time></trkpt><trkpt lat="44.9113217" lon="7.1945721"><ele>1137.0</ele><time>2026-04-21T14:21:40.93Z</time></trkpt><trkpt lat="44.9112506" lon="7.1946817"><ele>1137.0</ele><time>2026-04-21T14:21:41.931Z</time></trkpt><trkpt lat="44.9111799" lon="7.1947881"><ele>1137.0</ele><time>2026-04-21T14:21:42.931Z</time></trkpt><trkpt lat="44.9111118" lon="7.1949177"><ele>1137.0</ele><time>2026-04-21T14:21:43.93Z</time></trkpt><trkpt lat="44.9110549" lon="7.1950753"><ele>1137.0</ele><time>2026-04-21T14:21:44.932Z</time></trkpt><trkpt lat="44.9110079" lon="7.195226"><ele>1136.75</ele><time>2026-04-21T14:21:45.932Z</time></trkpt><trkpt lat="44.9109787" lon="7.1953823"><ele>1136.5</ele><time>2026-04-21T14:21:46.931Z</time></trkpt><trkpt lat="44.9109677" lon="7.1955463"><ele>1136.25</ele><time>2026-04-21T14:21:47.93Z</time></trkpt><trkpt lat="44.9109633" lon="7.1957191"><ele>1136.0</ele><time>2026-04-21T14:21:48.932Z</time></trkpt><trkpt lat="44.9109638" lon="7.1958796"><ele>1135.6</ele><time>2026-04-21T14:21:49.932Z</time></trkpt><trkpt lat="44.9109551" lon="7.1960191"><ele>1135.1999999999998</ele><time>2026-04-21T14:21:50.931Z</time></trkpt><trkpt lat="44.9109619" lon="7.1961468"><ele>1134.8000000000002</ele><time>2026-04-21T14:21:51.931Z</time></trkpt><trkpt lat="44.910995" lon="7.1962546"><ele>1134.4</ele><time>2026-04-21T14:21:52.931Z</time></trkpt><trkpt lat="44.9110611" lon="7.1963478"><ele>1134.0</ele><time>2026-04-21T14:21:53.929Z</time></trkpt><trkpt lat="44.9111491" lon="7.1963866"><ele>1134.0</ele><time>2026-04-21T14:21:54.932Z</time></trkpt><trkpt lat="44.9112403" lon="7.1963902"><ele>1134.0</ele><time>2026-04-21T14:21:55.929Z</time></trkpt><trkpt lat="44.911333" lon="7.1964058"><ele>1134.0</ele><time>2026-04-21T14:21:56.931Z</time></trkpt><trkpt lat="44.9114237" lon="7.1964584"><ele>1134.0</ele><time>2026-04-21T14:21:57.932Z</time></trkpt><trkpt lat="44.9115172" lon="7.1965458"><ele>1134.0</ele><time>2026-04-21T14:21:58.932Z</time></trkpt><trkpt lat="44.9116153" lon="7.1966301"><ele>1132.4</ele><time>2026-04-21T14:21:59.93Z</time></trkpt><trkpt lat="44.9117181" lon="7.1966926"><ele>1130.8000000000002</ele><time>2026-04-21T14:22:00.93Z</time></trkpt><trkpt lat="44.9118208" lon="7.1967476"><ele>1129.1999999999998</ele><time>2026-04-21T14:22:01.931Z</time></trkpt><trkpt lat="44.9118888" lon="7.1968269"><ele>1127.6</ele><time>2026-04-21T14:22:02.93Z</time></trkpt><trkpt lat="44.9119532" lon="7.1969217"><ele>1126.0</ele><time>2026-04-21T14:22:03.931Z</time></trkpt><trkpt lat="44.9120247" lon="7.197011"><ele>1129.1666666666665</ele><time>2026-04-21T14:22:04.929Z</time></trkpt><trkpt lat="44.9120967" lon="7.1970893"><ele>1132.3333333333333</ele><time>2026-04-21T14:22:05.931Z</time></trkpt><trkpt lat="44.912152" lon="7.1971792"><ele>1135.5</ele><time>2026-04-21T14:22:06.93Z</time></trkpt><trkpt lat="44.9121989" lon="7.1972697"><ele>1138.6666666666667</ele><time>2026-04-21T14:22:07.932Z</time></trkpt><trkpt lat="44.9121985" lon="7.1974044"><ele>1141.8333333333335</ele><time>2026-04-21T14:22:08.93Z</time></trkpt><trkpt lat="44.9122052" lon="7.1975421"><ele>1145.0</ele><time>2026-04-21T14:22:09.931Z</time></trkpt><trkpt lat="44.9122311" lon="7.1976794"><ele>1145.0</ele><time>2026-04-21T14:22:10.929Z</time></trkpt><trkpt lat="44.9122607" lon="7.1977993"><ele>1145.0</ele><time>2026-04-21T14:22:11.931Z</time></trkpt><trkpt lat="44.9123015" lon="7.1979004"><ele>1145.0</ele><time>2026-04-21T14:22:12.931Z</time></trkpt><trkpt lat="44.9123573" lon="7.1979732"><ele>1145.0</ele><time>2026-04-21T14:22:13.93Z</time></trkpt><trkpt lat="44.9124293" lon="7.1980239"><ele>1145.0</ele><time>2026-04-21T14:22:14.931Z</time></trkpt><trkpt lat="44.9125155" lon="7.1980713"><ele>1145.0</ele><time>2026-04-21T14:22:15.931Z</time></trkpt><trkpt lat="44.9125979" lon="7.1981356"><ele>1145.1666666666667</ele><time>2026-04-21T14:22:16.931Z</time></trkpt><trkpt lat="44.9126673" lon="7.1982195"><ele>1145.3333333333335</ele><time>2026-04-21T14:22:17.931Z</time></trkpt><trkpt lat="44.9127292" lon="7.198294"><ele>1145.5</ele><time>2026-04-21T14:22:18.931Z</time></trkpt><trkpt lat="44.9127834" lon="7.1983575"><ele>1145.6666666666667</ele><time>2026-04-21T14:22:19.93Z</time></trkpt><trkpt lat="44.912889" lon="7.1983573"><ele>1145.8333333333333</ele><time>2026-04-21T14:22:21.931Z</time></trkpt><trkpt lat="44.9129608" lon="7.1982638"><ele>1146.0</ele><time>2026-04-21T14:22:23.932Z</time></trkpt><trkpt lat="44.9129137" lon="7.1981527"><ele>1149.0</ele><time>2026-04-21T14:22:25.932Z</time></trkpt><trkpt lat="44.912862" lon="7.1980901"><ele>1152.0</ele><time>2026-04-21T14:22:26.929Z</time></trkpt><trkpt lat="44.9128172" lon="7.1979775"><ele>1155.0</ele><time>2026-04-21T14:22:27.93Z</time></trkpt><trkpt lat="44.9127781" lon="7.1978562"><ele>1158.0</ele><time>2026-04-21T14:22:28.93Z</time></trkpt><trkpt lat="44.9127617" lon="7.1977623"><ele>1161.0</ele><time>2026-04-21T14:22:29.93Z</time></trkpt><trkpt lat="44.9127595" lon="7.1976218"><ele>1164.0</ele><time>2026-04-21T14:22:31.932Z</time></trkpt><trkpt lat="44.9128435" lon="7.1976005"><ele>1164.0</ele><time>2026-04-21T14:22:33.931Z</time></trkpt><trkpt lat="44.912896" lon="7.1976559"><ele>1164.0</ele><time>2026-04-21T14:22:34.93Z</time></trkpt><trkpt lat="44.9129631" lon="7.1976993"><ele>1164.0</ele><time>2026-04-21T14:22:35.931Z</time></trkpt><trkpt lat="44.9130422" lon="7.1977197"><ele>1164.0</ele><time>2026-04-21T14:22:36.931Z</time></trkpt><trkpt lat="44.9131085" lon="7.1977275"><ele>1164.0</ele><time>2026-04-21T14:22:37.932Z</time></trkpt><trkpt lat="44.9132001" lon="7.1977295"><ele>1164.0</ele><time>2026-04-21T14:22:38.931Z</time></trkpt><trkpt lat="44.9133091" lon="7.1977301"><ele>1167.0</ele><time>2026-04-21T14:22:39.931Z</time></trkpt><trkpt lat="44.9134324" lon="7.1977358"><ele>1170.0</ele><time>2026-04-21T14:22:40.93Z</time></trkpt><trkpt lat="44.9135267" lon="7.1977462"><ele>1173.0</ele><time>2026-04-21T14:22:41.93Z</time></trkpt><trkpt lat="44.9136112" lon="7.1977388"><ele>1176.0</ele><time>2026-04-21T14:22:42.929Z</time></trkpt><trkpt lat="44.9136841" lon="7.1976997"><ele>1179.0</ele><time>2026-04-21T14:22:43.931Z</time></trkpt><trkpt lat="44.9137287" lon="7.1976306"><ele>1182.0</ele><time>2026-04-21T14:22:44.931Z</time></trkpt><trkpt lat="44.9137441" lon="7.1975286"><ele>1182.0</ele><time>2026-04-21T14:22:45.929Z</time></trkpt><trkpt lat="44.9137388" lon="7.1973983"><ele>1182.0</ele><time>2026-04-21T14:22:46.93Z</time></trkpt><trkpt lat="44.9137247" lon="7.1972476"><ele>1182.0</ele><time>2026-04-21T14:22:47.932Z</time></trkpt><trkpt lat="44.9137034" lon="7.1970638"><ele>1182.0</ele><time>2026-04-21T14:22:48.93Z</time></trkpt><trkpt lat="44.9136841" lon="7.1968805"><ele>1185.5</ele><time>2026-04-21T14:22:49.93Z</time></trkpt><trkpt lat="44.9136664" lon="7.1967243"><ele>1189.0</ele><time>2026-04-21T14:22:50.929Z</time></trkpt><trkpt lat="44.9136418" lon="7.1965947"><ele>1192.5</ele><time>2026-04-21T14:22:51.93Z</time></trkpt><trkpt lat="44.9136216" lon="7.1964875"><ele>1196.0</ele><time>2026-04-21T14:22:52.929Z</time></trkpt><trkpt lat="44.9136141" lon="7.1963816"><ele>1199.5</ele><time>2026-04-21T14:22:54.931Z</time></trkpt><trkpt lat="44.9136942" lon="7.1964225"><ele>1203.0</ele><time>2026-04-21T14:22:57.932Z</time></trkpt><trkpt lat="44.9137576" lon="7.1965623"><ele>1203.0</ele><time>2026-04-21T14:22:59.931Z</time></trkpt><trkpt lat="44.9138475" lon="7.1966903"><ele>1203.0</ele><time>2026-04-21T14:23:01.931Z</time></trkpt><trkpt lat="44.913948" lon="7.1967862"><ele>1203.0</ele><time>2026-04-21T14:23:03.93Z</time></trkpt><trkpt lat="44.9140156" lon="7.196796"><ele>1203.0</ele><time>2026-04-21T14:23:04.931Z</time></trkpt><trkpt lat="44.914102" lon="7.196782"><ele>1203.0</ele><time>2026-04-21T14:23:05.929Z</time></trkpt><trkpt lat="44.9142028" lon="7.1967539"><ele>1207.0</ele><time>2026-04-21T14:23:06.93Z</time></trkpt><trkpt lat="44.9143081" lon="7.1967313"><ele>1211.0</ele><time>2026-04-21T14:23:07.929Z</time></trkpt><trkpt lat="44.9144048" lon="7.1967194"><ele>1215.0</ele><time>2026-04-21T14:23:08.93Z</time></trkpt><trkpt lat="44.914494" lon="7.196722"><ele>1219.0</ele><time>2026-04-21T14:23:09.929Z</time></trkpt><trkpt lat="44.9145991" lon="7.1967504"><ele>1223.0</ele><time>2026-04-21T14:23:11.93Z</time></trkpt><trkpt lat="44.9146697" lon="7.1966884"><ele>1223.0</ele><time>2026-04-21T14:23:13.93Z</time></trkpt><trkpt lat="44.9146203" lon="7.1965767"><ele>1223.0</ele><time>2026-04-21T14:23:15.929Z</time></trkpt><trkpt lat="44.914567" lon="7.1965258"><ele>1223.0</ele><time>2026-04-21T14:23:16.931Z</time></trkpt><trkpt lat="44.9144944" lon="7.196483"><ele>1223.0</ele><time>2026-04-21T14:23:17.931Z</time></trkpt><trkpt lat="44.9144202" lon="7.1964412"><ele>1223.0</ele><time>2026-04-21T14:23:18.931Z</time></trkpt><trkpt lat="44.9143595" lon="7.1964006"><ele>1223.0</ele><time>2026-04-21T14:23:19.929Z</time></trkpt><trkpt lat="44.9142909" lon="7.1963441"><ele>1221.5</ele><time>2026-04-21T14:23:20.931Z</time></trkpt><trkpt lat="44.9142309" lon="7.1962663"><ele>1220.0</ele><time>2026-04-21T14:23:21.931Z</time></trkpt><trkpt lat="44.9141808" lon="7.1961807"><ele>1218.5</ele><time>2026-04-21T14:23:22.93Z</time></trkpt><trkpt lat="44.9141514" lon="7.1960758"><ele>1217.0</ele><time>2026-04-21T14:23:23.93Z</time></trkpt><trkpt lat="44.9141588" lon="7.1959531"><ele>1215.5</ele><time>2026-04-21T14:23:24.93Z</time></trkpt><trkpt lat="44.9141812" lon="7.1958352"><ele>1214.0</ele><time>2026-04-21T14:23:25.929Z</time></trkpt><trkpt lat="44.9142343" lon="7.1957093"><ele>1221.25</ele><time>2026-04-21T14:23:26.931Z</time></trkpt><trkpt lat="44.9142893" lon="7.1955723"><ele>1228.5</ele><time>2026-04-21T14:23:27.93Z</time></trkpt><trkpt lat="44.9143595" lon="7.195409"><ele>1235.75</ele><time>2026-04-21T14:23:28.93Z</time></trkpt><trkpt lat="44.9144199" lon="7.1952198"><ele>1243.0</ele><time>2026-04-21T14:23:29.929Z</time></trkpt><trkpt lat="44.9144676" lon="7.1950311"><ele>1243.0</ele><time>2026-04-21T14:23:30.93Z</time></trkpt><trkpt lat="44.9145119" lon="7.1948556"><ele>1243.0</ele><time>2026-04-21T14:23:31.931Z</time></trkpt><trkpt lat="44.9145386" lon="7.1947028"><ele>1243.0</ele><time>2026-04-21T14:23:32.93Z</time></trkpt><trkpt lat="44.9145469" lon="7.1945877"><ele>1243.0</ele><time>2026-04-21T14:23:33.931Z</time></trkpt><trkpt lat="44.9145527" lon="7.1944847"><ele>1243.0</ele><time>2026-04-21T14:23:34.931Z</time></trkpt><trkpt lat="44.9145688" lon="7.1943589"><ele>1243.0</ele><time>2026-04-21T14:23:36.93Z</time></trkpt><trkpt lat="44.9146394" lon="7.1943403"><ele>1243.0</ele><time>2026-04-21T14:23:38.931Z</time></trkpt><trkpt lat="44.914668" lon="7.1944329"><ele>1243.0</ele><time>2026-04-21T14:23:39.93Z</time></trkpt><trkpt lat="44.9146966" lon="7.1945344"><ele>1243.0</ele><time>2026-04-21T14:23:40.93Z</time></trkpt><trkpt lat="44.9147378" lon="7.1946628"><ele>1243.0</ele><time>2026-04-21T14:23:41.93Z</time></trkpt><trkpt lat="44.9147835" lon="7.1947895"><ele>1243.0</ele><time>2026-04-21T14:23:42.931Z</time></trkpt><trkpt lat="44.9148208" lon="7.1949234"><ele>1243.0</ele><time>2026-04-21T14:23:43.931Z</time></trkpt><trkpt lat="44.9148243" lon="7.1950803"><ele>1243.0</ele><time>2026-04-21T14:23:44.93Z</time></trkpt><trkpt lat="44.9148159" lon="7.1952429"><ele>1243.0</ele><time>2026-04-21T14:23:45.931Z</time></trkpt><trkpt lat="44.914795" lon="7.1953849"><ele>1243.0</ele><time>2026-04-21T14:23:46.931Z</time></trkpt><trkpt lat="44.9147751" lon="7.1955062"><ele>1243.0</ele><time>2026-04-21T14:23:47.93Z</time></trkpt><trkpt lat="44.9147627" lon="7.1956132"><ele>1243.0</ele><time>2026-04-21T14:23:48.93Z</time></trkpt><trkpt lat="44.914775" lon="7.1957717"><ele>1243.0</ele><time>2026-04-21T14:23:50.931Z</time></trkpt><trkpt lat="44.9148411" lon="7.1958304"><ele>1243.0</ele><time>2026-04-21T14:23:52.929Z</time></trkpt><trkpt lat="44.9149292" lon="7.195758"><ele>1243.0</ele><time>2026-04-21T14:23:54.93Z</time></trkpt><trkpt lat="44.9150096" lon="7.1956013"><ele>1243.0</ele><time>2026-04-21T14:23:56.931Z</time></trkpt><trkpt lat="44.9150624" lon="7.1954892"><ele>1247.3333333333333</ele><time>2026-04-21T14:23:57.931Z</time></trkpt><trkpt lat="44.9151174" lon="7.1953632"><ele>1251.6666666666665</ele><time>2026-04-21T14:23:58.931Z</time></trkpt><trkpt lat="44.9151754" lon="7.1952485"><ele>1256.0</ele><time>2026-04-21T14:23:59.93Z</time></trkpt><trkpt lat="44.9152142" lon="7.1951548"><ele>1260.3333333333333</ele><time>2026-04-21T14:24:00.931Z</time></trkpt><trkpt lat="44.9152518" lon="7.1950828"><ele>1264.6666666666667</ele><time>2026-04-21T14:24:01.931Z</time></trkpt><trkpt lat="44.9153314" lon="7.195051"><ele>1269.0</ele><time>2026-04-21T14:24:03.93Z</time></trkpt><trkpt lat="44.9153707" lon="7.1951803"><ele>1269.0</ele><time>2026-04-21T14:24:05.929Z</time></trkpt><trkpt lat="44.9153731" lon="7.1952789"><ele>1269.0</ele><time>2026-04-21T14:24:06.929Z</time></trkpt><trkpt lat="44.9153882" lon="7.1954007"><ele>1269.0</ele><time>2026-04-21T14:24:07.93Z</time></trkpt><trkpt lat="44.9154229" lon="7.1955183"><ele>1269.0</ele><time>2026-04-21T14:24:08.929Z</time></trkpt><trkpt lat="44.9154711" lon="7.1956032"><ele>1269.0</ele><time>2026-04-21T14:24:09.929Z</time></trkpt><trkpt lat="44.9155659" lon="7.1956491"><ele>1269.0</ele><time>2026-04-21T14:24:11.931Z</time></trkpt><trkpt lat="44.9156197" lon="7.1955092"><ele>1269.0</ele><time>2026-04-21T14:24:13.93Z</time></trkpt><trkpt lat="44.9156494" lon="7.1954228"><ele>1269.0</ele><time>2026-04-21T14:24:14.93Z</time></trkpt><trkpt lat="44.9157127" lon="7.195365"><ele>1269.0</ele><time>2026-04-21T14:24:15.929Z</time></trkpt><trkpt lat="44.9158036" lon="7.1953244"><ele>1269.0</ele><time>2026-04-21T14:24:16.929Z</time></trkpt><trkpt lat="44.91589" lon="7.1952889"><ele>1269.0</ele><time>2026-04-21T14:24:17.93Z</time></trkpt><trkpt lat="44.9159654" lon="7.1952449"><ele>1269.0</ele><time>2026-04-21T14:24:18.931Z</time></trkpt><trkpt lat="44.9160264" lon="7.1951795"><ele>1273.8000000000002</ele><time>2026-04-21T14:24:19.93Z</time></trkpt><trkpt lat="44.9160703" lon="7.1950931"><ele>1278.6000000000001</ele><time>2026-04-21T14:24:20.931Z</time></trkpt><trkpt lat="44.9160999" lon="7.194975"><ele>1283.4</ele><time>2026-04-21T14:24:21.929Z</time></trkpt><trkpt lat="44.9161167" lon="7.1948283"><ele>1288.2</ele><time>2026-04-21T14:24:22.931Z</time></trkpt><trkpt lat="44.9161269" lon="7.1946707"><ele>1293.0</ele><time>2026-04-21T14:24:23.929Z</time></trkpt><trkpt lat="44.9161342" lon="7.1945239"><ele>1293.1666666666667</ele><time>2026-04-21T14:24:24.931Z</time></trkpt><trkpt lat="44.9161447" lon="7.1943937"><ele>1293.3333333333333</ele><time>2026-04-21T14:24:25.93Z</time></trkpt><trkpt lat="44.9161571" lon="7.1942773"><ele>1293.5</ele><time>2026-04-21T14:24:26.93Z</time></trkpt><trkpt lat="44.9161914" lon="7.1941849"><ele>1293.6666666666665</ele><time>2026-04-21T14:24:27.931Z</time></trkpt><trkpt lat="44.916255" lon="7.1940932"><ele>1293.8333333333333</ele><time>2026-04-21T14:24:28.929Z</time></trkpt><trkpt lat="44.9163186" lon="7.1939911"><ele>1294.0</ele><time>2026-04-21T14:24:29.931Z</time></trkpt><trkpt lat="44.916385" lon="7.193877"><ele>1294.0</ele><time>2026-04-21T14:24:30.931Z</time></trkpt><trkpt lat="44.9164526" lon="7.1937506"><ele>1294.0</ele><time>2026-04-21T14:24:31.931Z</time></trkpt><trkpt lat="44.9165285" lon="7.1936213"><ele>1294.0</ele><time>2026-04-21T14:24:32.931Z</time></trkpt><trkpt lat="44.9166029" lon="7.193492"><ele>1294.0</ele><time>2026-04-21T14:24:33.93Z</time></trkpt><trkpt lat="44.916674" lon="7.1933681"><ele>1294.0</ele><time>2026-04-21T14:24:34.931Z</time></trkpt><trkpt lat="44.9167353" lon="7.1932505"><ele>1294.0</ele><time>2026-04-21T14:24:35.93Z</time></trkpt><trkpt lat="44.9167949" lon="7.1931496"><ele>1294.0</ele><time>2026-04-21T14:24:36.93Z</time></trkpt><trkpt lat="44.916836" lon="7.1930669"><ele>1294.0</ele><time>2026-04-21T14:24:37.93Z</time></trkpt><trkpt lat="44.9168759" lon="7.1929934"><ele>1294.0</ele><time>2026-04-21T14:24:38.93Z</time></trkpt><trkpt lat="44.9169172" lon="7.192921"><ele>1294.0</ele><time>2026-04-21T14:24:39.931Z</time></trkpt><trkpt lat="44.9169762" lon="7.1928848"><ele>1297.3333333333333</ele><time>2026-04-21T14:24:40.93Z</time></trkpt><trkpt lat="44.9170757" lon="7.1928691"><ele>1300.6666666666665</ele><time>2026-04-21T14:24:42.931Z</time></trkpt><trkpt lat="44.9170955" lon="7.1929674"><ele>1304.0</ele><time>2026-04-21T14:24:44.929Z</time></trkpt><trkpt lat="44.9170219" lon="7.1930775"><ele>1307.3333333333333</ele><time>2026-04-21T14:24:46.929Z</time></trkpt><trkpt lat="44.9170156" lon="7.1931749"><ele>1310.6666666666667</ele><time>2026-04-21T14:24:47.931Z</time></trkpt><trkpt lat="44.9170306" lon="7.1932912"><ele>1314.0</ele><time>2026-04-21T14:24:48.93Z</time></trkpt><trkpt lat="44.9170386" lon="7.1934197"><ele>1315.1666666666667</ele><time>2026-04-21T14:24:49.93Z</time></trkpt><trkpt lat="44.9170519" lon="7.1935264"><ele>1316.3333333333333</ele><time>2026-04-21T14:24:50.931Z</time></trkpt><trkpt lat="44.91708" lon="7.193624"><ele>1317.5</ele><time>2026-04-21T14:24:51.93Z</time></trkpt><trkpt lat="44.9171246" lon="7.1937064"><ele>1318.6666666666665</ele><time>2026-04-21T14:24:52.929Z</time></trkpt><trkpt lat="44.9171885" lon="7.1937858"><ele>1319.8333333333333</ele><time>2026-04-21T14:24:53.93Z</time></trkpt><trkpt lat="44.9172521" lon="7.1938687"><ele>1321.0</ele><time>2026-04-21T14:24:54.93Z</time></trkpt><trkpt lat="44.9172933" lon="7.1939711"><ele>1321.6666666666665</ele><time>2026-04-21T14:24:55.929Z</time></trkpt><trkpt lat="44.9173053" lon="7.1940831"><ele>1322.3333333333333</ele><time>2026-04-21T14:24:56.929Z</time></trkpt><trkpt lat="44.9173102" lon="7.1942038"><ele>1323.0</ele><time>2026-04-21T14:24:57.93Z</time></trkpt><trkpt lat="44.9173329" lon="7.1943109"><ele>1323.6666666666667</ele><time>2026-04-21T14:24:58.93Z</time></trkpt><trkpt lat="44.9173728" lon="7.1943891"><ele>1324.3333333333335</ele><time>2026-04-21T14:24:59.931Z</time></trkpt><trkpt lat="44.917459" lon="7.1944028"><ele>1325.0</ele><time>2026-04-21T14:25:01.93Z</time></trkpt><trkpt lat="44.9175112" lon="7.1942375"><ele>1325.0</ele><time>2026-04-21T14:25:03.929Z</time></trkpt><trkpt lat="44.9175534" lon="7.194139"><ele>1325.0</ele><time>2026-04-21T14:25:04.93Z</time></trkpt><trkpt lat="44.9176154" lon="7.1940296"><ele>1325.0</ele><time>2026-04-21T14:25:05.93Z</time></trkpt><trkpt lat="44.9176676" lon="7.1939239"><ele>1325.0</ele><time>2026-04-21T14:25:06.931Z</time></trkpt><trkpt lat="44.9177085" lon="7.1938274"><ele>1325.0</ele><time>2026-04-21T14:25:07.93Z</time></trkpt><trkpt lat="44.9177471" lon="7.1937356"><ele>1325.0</ele><time>2026-04-21T14:25:08.93Z</time></trkpt><trkpt lat="44.9177657" lon="7.1936324"><ele>1327.2857142857144</ele><time>2026-04-21T14:25:09.929Z</time></trkpt><trkpt lat="44.9177926" lon="7.193519"><ele>1329.5714285714284</ele><time>2026-04-21T14:25:10.931Z</time></trkpt><trkpt lat="44.9178173" lon="7.1934078"><ele>1331.857142857143</ele><time>2026-04-21T14:25:11.93Z</time></trkpt><trkpt lat="44.9178474" lon="7.1933221"><ele>1334.1428571428573</ele><time>2026-04-21T14:25:12.93Z</time></trkpt><trkpt lat="44.9178966" lon="7.1932573"><ele>1336.4285714285716</ele><time>2026-04-21T14:25:13.931Z</time></trkpt><trkpt lat="44.9179608" lon="7.1932111"><ele>1338.7142857142858</ele><time>2026-04-21T14:25:14.93Z</time></trkpt><trkpt lat="44.91803" lon="7.1931906"><ele>1341.0</ele><time>2026-04-21T14:25:15.931Z</time></trkpt><trkpt lat="44.918111" lon="7.1932083"><ele>1341.0</ele><time>2026-04-21T14:25:16.93Z</time></trkpt><trkpt lat="44.9181812" lon="7.193231"><ele>1341.0</ele><time>2026-04-21T14:25:17.931Z</time></trkpt><trkpt lat="44.918251" lon="7.193262"><ele>1341.0</ele><time>2026-04-21T14:25:18.93Z</time></trkpt><trkpt lat="44.9183223" lon="7.1932959"><ele>1341.0</ele><time>2026-04-21T14:25:19.93Z</time></trkpt><trkpt lat="44.9184296" lon="7.193381"><ele>1341.0</ele><time>2026-04-21T14:25:21.931Z</time></trkpt><trkpt lat="44.9184637" lon="7.1934912"><ele>1341.0</ele><time>2026-04-21T14:25:23.931Z</time></trkpt><trkpt lat="44.9184385" lon="7.193573"><ele>1341.0</ele><time>2026-04-21T14:25:24.93Z</time></trkpt><trkpt lat="44.9183862" lon="7.1936636"><ele>1341.0</ele><time>2026-04-21T14:25:25.929Z</time></trkpt><trkpt lat="44.9183484" lon="7.1937651"><ele>1341.0</ele><time>2026-04-21T14:25:26.928Z</time></trkpt><trkpt lat="44.9183259" lon="7.1938617"><ele>1341.0</ele><time>2026-04-21T14:25:27.928Z</time></trkpt><trkpt lat="44.9183278" lon="7.1939531"><ele>1341.0</ele><time>2026-04-21T14:25:28.93Z</time></trkpt><trkpt lat="44.9183517" lon="7.1940447"><ele>1341.0</ele><time>2026-04-21T14:25:29.931Z</time></trkpt><trkpt lat="44.9184701" lon="7.1941459"><ele>1343.1666666666667</ele><time>2026-04-21T14:25:31.931Z</time></trkpt><trkpt lat="44.9185441" lon="7.1941618"><ele>1345.3333333333333</ele><time>2026-04-21T14:25:32.93Z</time></trkpt><trkpt lat="44.9186164" lon="7.1941583"><ele>1347.5</ele><time>2026-04-21T14:25:33.931Z</time></trkpt><trkpt lat="44.9186941" lon="7.1941363"><ele>1349.6666666666665</ele><time>2026-04-21T14:25:34.928Z</time></trkpt><trkpt lat="44.9187674" lon="7.1941113"><ele>1351.8333333333333</ele><time>2026-04-21T14:25:35.93Z</time></trkpt><trkpt lat="44.9188517" lon="7.1941001"><ele>1354.0</ele><time>2026-04-21T14:25:36.93Z</time></trkpt><trkpt lat="44.9189301" lon="7.1940905"><ele>1354.0</ele><time>2026-04-21T14:25:37.93Z</time></trkpt><trkpt lat="44.9189963" lon="7.194089"><ele>1354.0</ele><time>2026-04-21T14:25:38.928Z</time></trkpt><trkpt lat="44.9190621" lon="7.1940877"><ele>1354.0</ele><time>2026-04-21T14:25:39.929Z</time></trkpt><trkpt lat="44.9191737" lon="7.1940947"><ele>1354.0</ele><time>2026-04-21T14:25:41.931Z</time></trkpt><trkpt lat="44.9192331" lon="7.1941314"><ele>1354.0</ele><time>2026-04-21T14:25:43.93Z</time></trkpt><trkpt lat="44.919303" lon="7.1940779"><ele>1354.0</ele><time>2026-04-21T14:27:52.93Z</time></trkpt><trkpt lat="44.9193643" lon="7.1939892"><ele>1357.0</ele><time>2026-04-21T14:27:54.93Z</time></trkpt><trkpt lat="44.9194364" lon="7.1938843"><ele>1360.0</ele><time>2026-04-21T14:27:56.929Z</time></trkpt><trkpt lat="44.9195051" lon="7.1937867"><ele>1363.0</ele><time>2026-04-21T14:27:58.929Z</time></trkpt><trkpt lat="44.9195746" lon="7.193678"><ele>1366.0</ele><time>2026-04-21T14:28:00.929Z</time></trkpt><trkpt lat="44.9196171" lon="7.1936081"><ele>1369.0</ele><time>2026-04-21T14:28:01.929Z</time></trkpt><trkpt lat="44.9196628" lon="7.1935459"><ele>1372.0</ele><time>2026-04-21T14:28:02.928Z</time></trkpt><trkpt lat="44.919721" lon="7.1934022"><ele>1372.0</ele><time>2026-04-21T14:28:04.928Z</time></trkpt><trkpt lat="44.9197358" lon="7.1933003"><ele>1372.0</ele><time>2026-04-21T14:28:05.931Z</time></trkpt><trkpt lat="44.9197438" lon="7.1931929"><ele>1372.0</ele><time>2026-04-21T14:28:06.931Z</time></trkpt><trkpt lat="44.919744" lon="7.1930946"><ele>1372.0</ele><time>2026-04-21T14:28:07.93Z</time></trkpt><trkpt lat="44.9197341" lon="7.1929862"><ele>1372.0</ele><time>2026-04-21T14:28:08.929Z</time></trkpt><trkpt lat="44.9197196" lon="7.1928812"><ele>1372.0</ele><time>2026-04-21T14:28:09.928Z</time></trkpt><trkpt lat="44.9196971" lon="7.1927873"><ele>1372.0</ele><time>2026-04-21T14:28:10.929Z</time></trkpt><trkpt lat="44.9196687" lon="7.192684"><ele>1373.6666666666665</ele><time>2026-04-21T14:28:11.929Z</time></trkpt><trkpt lat="44.9196422" lon="7.1925771"><ele>1375.3333333333333</ele><time>2026-04-21T14:28:12.931Z</time></trkpt><trkpt lat="44.9196135" lon="7.1924962"><ele>1377.0</ele><time>2026-04-21T14:28:13.929Z</time></trkpt><trkpt lat="44.9195952" lon="7.1923996"><ele>1378.6666666666667</ele><time>2026-04-21T14:28:14.93Z</time></trkpt><trkpt lat="44.9196029" lon="7.1922079"><ele>1380.3333333333335</ele><time>2026-04-21T14:28:16.931Z</time></trkpt><trkpt lat="44.9196231" lon="7.1921166"><ele>1382.0</ele><time>2026-04-21T14:28:17.931Z</time></trkpt><trkpt lat="44.9196647" lon="7.1920298"><ele>1383.3333333333335</ele><time>2026-04-21T14:28:18.93Z</time></trkpt><trkpt lat="44.9197047" lon="7.1919486"><ele>1384.6666666666667</ele><time>2026-04-21T14:28:19.929Z</time></trkpt><trkpt lat="44.9197369" lon="7.1918633"><ele>1386.0</ele><time>2026-04-21T14:28:20.929Z</time></trkpt><trkpt lat="44.9197174" lon="7.1917514"><ele>1387.3333333333333</ele><time>2026-04-21T14:28:21.93Z</time></trkpt><trkpt lat="44.9196979" lon="7.1916443"><ele>1388.6666666666665</ele><time>2026-04-21T14:28:22.931Z</time></trkpt><trkpt lat="44.919679" lon="7.1915508"><ele>1390.0</ele><time>2026-04-21T14:28:23.931Z</time></trkpt><trkpt lat="44.919643" lon="7.1913874"><ele>1392.3333333333333</ele><time>2026-04-21T14:28:25.928Z</time></trkpt><trkpt lat="44.9196806" lon="7.1912989"><ele>1394.6666666666665</ele><time>2026-04-21T14:28:26.93Z</time></trkpt><trkpt lat="44.9197146" lon="7.1911981"><ele>1397.0</ele><time>2026-04-21T14:28:27.93Z</time></trkpt><trkpt lat="44.9197356" lon="7.191112"><ele>1399.3333333333333</ele><time>2026-04-21T14:28:28.929Z</time></trkpt><trkpt lat="44.9197209" lon="7.1910189"><ele>1401.6666666666667</ele><time>2026-04-21T14:28:29.931Z</time></trkpt><trkpt lat="44.9196433" lon="7.1908961"><ele>1404.0</ele><time>2026-04-21T14:28:31.929Z</time></trkpt><trkpt lat="44.9195242" lon="7.1908298"><ele>1404.0</ele><time>2026-04-21T14:28:33.93Z</time></trkpt><trkpt lat="44.9194707" lon="7.1907668"><ele>1404.0</ele><time>2026-04-21T14:28:34.928Z</time></trkpt><trkpt lat="44.919409" lon="7.19069"><ele>1404.0</ele><time>2026-04-21T14:28:35.93Z</time></trkpt><trkpt lat="44.9193622" lon="7.1906141"><ele>1404.0</ele><time>2026-04-21T14:28:36.93Z</time></trkpt><trkpt lat="44.9193275" lon="7.1905304"><ele>1404.0</ele><time>2026-04-21T14:28:37.928Z</time></trkpt><trkpt lat="44.9192798" lon="7.190439"><ele>1404.0</ele><time>2026-04-21T14:28:38.93Z</time></trkpt><trkpt lat="44.9192202" lon="7.190359"><ele>1403.8333333333333</ele><time>2026-04-21T14:28:39.93Z</time></trkpt><trkpt lat="44.9191494" lon="7.1902891"><ele>1403.6666666666667</ele><time>2026-04-21T14:28:40.931Z</time></trkpt><trkpt lat="44.9190671" lon="7.1902543"><ele>1403.5</ele><time>2026-04-21T14:28:41.929Z</time></trkpt><trkpt lat="44.9189874" lon="7.1902203"><ele>1403.3333333333335</ele><time>2026-04-21T14:28:42.929Z</time></trkpt><trkpt lat="44.9189069" lon="7.1901978"><ele>1403.1666666666667</ele><time>2026-04-21T14:28:43.93Z</time></trkpt><trkpt lat="44.9188342" lon="7.1901668"><ele>1403.0</ele><time>2026-04-21T14:28:44.928Z</time></trkpt><trkpt lat="44.9187732" lon="7.1901326"><ele>1403.0</ele><time>2026-04-21T14:28:45.929Z</time></trkpt><trkpt lat="44.9186988" lon="7.1900206"><ele>1403.0</ele><time>2026-04-21T14:28:47.929Z</time></trkpt><trkpt lat="44.9186807" lon="7.1898761"><ele>1403.0</ele><time>2026-04-21T14:28:49.929Z</time></trkpt><trkpt lat="44.9186915" lon="7.1897768"><ele>1403.0</ele><time>2026-04-21T14:28:50.929Z</time></trkpt><trkpt lat="44.9187005" lon="7.1896744"><ele>1403.0</ele><time>2026-04-21T14:28:51.929Z</time></trkpt><trkpt lat="44.9187029" lon="7.1895552"><ele>1403.0</ele><time>2026-04-21T14:28:52.93Z</time></trkpt><trkpt lat="44.9186991" lon="7.1894388"><ele>1404.7142857142856</ele><time>2026-04-21T14:28:53.93Z</time></trkpt><trkpt lat="44.9186812" lon="7.189328"><ele>1406.4285714285713</ele><time>2026-04-21T14:28:54.93Z</time></trkpt><trkpt lat="44.9186656" lon="7.1892118"><ele>1408.142857142857</ele><time>2026-04-21T14:28:55.93Z</time></trkpt><trkpt lat="44.9186713" lon="7.1891137"><ele>1409.8571428571427</ele><time>2026-04-21T14:28:56.93Z</time></trkpt><trkpt lat="44.9186909" lon="7.189026"><ele>1411.5714285714284</ele><time>2026-04-21T14:28:57.929Z</time></trkpt><trkpt lat="44.9187258" lon="7.1889466"><ele>1413.2857142857142</ele><time>2026-04-21T14:28:58.929Z</time></trkpt><trkpt lat="44.9187651" lon="7.1888722"><ele>1415.0</ele><time>2026-04-21T14:28:59.928Z</time></trkpt><trkpt lat="44.9188112" lon="7.188811"><ele>1415.0</ele><time>2026-04-21T14:29:00.93Z</time></trkpt><trkpt lat="44.9188727" lon="7.1887414"><ele>1415.0</ele><time>2026-04-21T14:29:01.93Z</time></trkpt><trkpt lat="44.9189463" lon="7.1886821"><ele>1415.0</ele><time>2026-04-21T14:29:02.93Z</time></trkpt><trkpt lat="44.9190172" lon="7.1886378"><ele>1415.0</ele><time>2026-04-21T14:29:03.928Z</time></trkpt><trkpt lat="44.91909" lon="7.1885988"><ele>1415.0</ele><time>2026-04-21T14:29:04.929Z</time></trkpt><trkpt lat="44.9191494" lon="7.1885631"><ele>1415.0</ele><time>2026-04-21T14:29:05.929Z</time></trkpt><trkpt lat="44.9192695" lon="7.1885899"><ele>1416.8333333333335</ele><time>2026-04-21T14:29:07.93Z</time></trkpt><trkpt lat="44.9193304" lon="7.1886401"><ele>1418.6666666666667</ele><time>2026-04-21T14:29:08.929Z</time></trkpt><trkpt lat="44.9193831" lon="7.1887036"><ele>1420.5</ele><time>2026-04-21T14:29:09.93Z</time></trkpt><trkpt lat="44.919465" lon="7.1888211"><ele>1422.3333333333333</ele><time>2026-04-21T14:29:11.928Z</time></trkpt><trkpt lat="44.9195069" lon="7.1888983"><ele>1424.1666666666665</ele><time>2026-04-21T14:29:12.929Z</time></trkpt><trkpt lat="44.9195498" lon="7.1889767"><ele>1426.0</ele><time>2026-04-21T14:29:13.931Z</time></trkpt><trkpt lat="44.9195953" lon="7.1890486"><ele>1426.0</ele><time>2026-04-21T14:29:14.93Z</time></trkpt><trkpt lat="44.9196429" lon="7.1891159"><ele>1426.0</ele><time>2026-04-21T14:29:15.929Z</time></trkpt><trkpt lat="44.9197252" lon="7.1892356"><ele>1426.0</ele><time>2026-04-21T14:29:17.93Z</time></trkpt><trkpt lat="44.9197921" lon="7.1892443"><ele>1426.0</ele><time>2026-04-21T14:29:19.929Z</time></trkpt><trkpt lat="44.9198112" lon="7.1891147"><ele>1426.0</ele><time>2026-04-21T14:29:22.93Z</time></trkpt><trkpt lat="44.9198372" lon="7.1889953"><ele>1426.0</ele><time>2026-04-21T14:29:24.929Z</time></trkpt><trkpt lat="44.9199282" lon="7.188885"><ele>1426.8333333333333</ele><time>2026-04-21T14:29:26.93Z</time></trkpt><trkpt lat="44.9199924" lon="7.1887442"><ele>1427.6666666666665</ele><time>2026-04-21T14:29:28.93Z</time></trkpt><trkpt lat="44.92002" lon="7.1886637"><ele>1428.5</ele><time>2026-04-21T14:29:29.929Z</time></trkpt><trkpt lat="44.9200462" lon="7.1885685"><ele>1429.3333333333333</ele><time>2026-04-21T14:29:30.929Z</time></trkpt><trkpt lat="44.9200715" lon="7.1884533"><ele>1430.1666666666667</ele><time>2026-04-21T14:29:31.929Z</time></trkpt><trkpt lat="44.9201069" lon="7.1883167"><ele>1431.0</ele><time>2026-04-21T14:29:32.929Z</time></trkpt><trkpt lat="44.9201379" lon="7.1881999"><ele>1434.0</ele><time>2026-04-21T14:29:33.929Z</time></trkpt><trkpt lat="44.9201625" lon="7.1880918"><ele>1437.0</ele><time>2026-04-21T14:29:34.928Z</time></trkpt><trkpt lat="44.9201824" lon="7.187981"><ele>1440.0</ele><time>2026-04-21T14:29:35.93Z</time></trkpt><trkpt lat="44.9202011" lon="7.1878882"><ele>1443.0</ele><time>2026-04-21T14:29:36.929Z</time></trkpt><trkpt lat="44.9202177" lon="7.1877525"><ele>1446.0</ele><time>2026-04-21T14:29:38.928Z</time></trkpt><trkpt lat="44.9202667" lon="7.1876931"><ele>1449.0</ele><time>2026-04-21T14:29:40.929Z</time></trkpt><trkpt lat="44.9203252" lon="7.1877433"><ele>1449.0</ele><time>2026-04-21T14:29:42.928Z</time></trkpt><trkpt lat="44.9203434" lon="7.1878848"><ele>1449.0</ele><time>2026-04-21T14:29:44.93Z</time></trkpt><trkpt lat="44.9203652" lon="7.1879781"><ele>1449.0</ele><time>2026-04-21T14:29:45.929Z</time></trkpt><trkpt lat="44.9203845" lon="7.188063"><ele>1449.0</ele><time>2026-04-21T14:29:46.928Z</time></trkpt><trkpt lat="44.9204416" lon="7.1882259"><ele>1449.0</ele><time>2026-04-21T14:29:48.929Z</time></trkpt><trkpt lat="44.9204886" lon="7.1883178"><ele>1449.0</ele><time>2026-04-21T14:29:49.929Z</time></trkpt><trkpt lat="44.9205353" lon="7.1884008"><ele>1448.6</ele><time>2026-04-21T14:29:50.929Z</time></trkpt><trkpt lat="44.9205841" lon="7.1884635"><ele>1448.2</ele><time>2026-04-21T14:29:51.929Z</time></trkpt><trkpt lat="44.9206848" lon="7.1885565"><ele>1447.8</ele><time>2026-04-21T14:29:53.928Z</time></trkpt><trkpt lat="44.920797" lon="7.1886316"><ele>1447.3999999999999</ele><time>2026-04-21T14:29:55.93Z</time></trkpt><trkpt lat="44.9208558" lon="7.1886841"><ele>1447.0</ele><time>2026-04-21T14:29:56.93Z</time></trkpt><trkpt lat="44.9209043" lon="7.1887612"><ele>1449.5714285714284</ele><time>2026-04-21T14:29:57.928Z</time></trkpt><trkpt lat="44.9209428" lon="7.1888464"><ele>1452.1428571428573</ele><time>2026-04-21T14:29:58.929Z</time></trkpt><trkpt lat="44.920981" lon="7.1889324"><ele>1454.7142857142858</ele><time>2026-04-21T14:29:59.929Z</time></trkpt><trkpt lat="44.921027" lon="7.189014"><ele>1457.2857142857142</ele><time>2026-04-21T14:30:00.929Z</time></trkpt><trkpt lat="44.9210736" lon="7.189094"><ele>1459.8571428571427</ele><time>2026-04-21T14:30:01.929Z</time></trkpt><trkpt lat="44.9211298" lon="7.189159"><ele>1462.4285714285716</ele><time>2026-04-21T14:30:02.93Z</time></trkpt><trkpt lat="44.9211881" lon="7.189234"><ele>1465.0</ele><time>2026-04-21T14:30:03.929Z</time></trkpt><trkpt lat="44.9212487" lon="7.1893167"><ele>1465.0</ele><time>2026-04-21T14:30:04.929Z</time></trkpt><trkpt lat="44.9212856" lon="7.1894122"><ele>1465.0</ele><time>2026-04-21T14:30:05.93Z</time></trkpt><trkpt lat="44.9213183" lon="7.1895043"><ele>1465.0</ele><time>2026-04-21T14:30:06.928Z</time></trkpt><trkpt lat="44.9213468" lon="7.1895919"><ele>1465.0</ele><time>2026-04-21T14:30:07.929Z</time></trkpt><trkpt lat="44.9214009" lon="7.1897487"><ele>1465.0</ele><time>2026-04-21T14:30:09.93Z</time></trkpt><trkpt lat="44.9214974" lon="7.189846"><ele>1464.0</ele><time>2026-04-21T14:30:11.929Z</time></trkpt><trkpt lat="44.921558" lon="7.1898726"><ele>1463.0</ele><time>2026-04-21T14:30:12.929Z</time></trkpt><trkpt lat="44.9216235" lon="7.1898982"><ele>1462.0</ele><time>2026-04-21T14:30:13.929Z</time></trkpt><trkpt lat="44.9216971" lon="7.1899353"><ele>1461.0</ele><time>2026-04-21T14:30:14.929Z</time></trkpt><trkpt lat="44.9217622" lon="7.1899842"><ele>1460.0</ele><time>2026-04-21T14:30:15.928Z</time></trkpt><trkpt lat="44.9218265" lon="7.1900489"><ele>1459.0</ele><time>2026-04-21T14:30:16.929Z</time></trkpt><trkpt lat="44.921886" lon="7.1901167"><ele>1458.0</ele><time>2026-04-21T14:30:17.928Z</time></trkpt><trkpt lat="44.92194" lon="7.1901812"><ele>1462.0</ele><time>2026-04-21T14:30:18.929Z</time></trkpt><trkpt lat="44.9220317" lon="7.1902717"><ele>1466.0</ele><time>2026-04-21T14:30:20.93Z</time></trkpt><trkpt lat="44.9221179" lon="7.1902567"><ele>1470.0</ele><time>2026-04-21T14:30:22.928Z</time></trkpt><trkpt lat="44.9221776" lon="7.1901198"><ele>1474.0</ele><time>2026-04-21T14:30:24.928Z</time></trkpt><trkpt lat="44.9221968" lon="7.190031"><ele>1478.0</ele><time>2026-04-21T14:30:25.928Z</time></trkpt><trkpt lat="44.9222127" lon="7.1899369"><ele>1482.0</ele><time>2026-04-21T14:30:26.929Z</time></trkpt><trkpt lat="44.9222311" lon="7.1898374"><ele>1482.4285714285713</ele><time>2026-04-21T14:30:27.929Z</time></trkpt><trkpt lat="44.9222313" lon="7.1897371"><ele>1482.857142857143</ele><time>2026-04-21T14:30:28.93Z</time></trkpt><trkpt lat="44.9222265" lon="7.1896396"><ele>1483.2857142857142</ele><time>2026-04-21T14:30:29.929Z</time></trkpt><trkpt lat="44.9222033" lon="7.1895519"><ele>1483.7142857142858</ele><time>2026-04-21T14:30:30.928Z</time></trkpt><trkpt lat="44.9221597" lon="7.1894794"><ele>1484.1428571428573</ele><time>2026-04-21T14:30:31.929Z</time></trkpt><trkpt lat="44.922113" lon="7.1894095"><ele>1484.5714285714287</ele><time>2026-04-21T14:30:32.928Z</time></trkpt><trkpt lat="44.9220705" lon="7.1893376"><ele>1485.0</ele><time>2026-04-21T14:30:33.929Z</time></trkpt><trkpt lat="44.9220404" lon="7.1891675"><ele>1485.0</ele><time>2026-04-21T14:30:35.928Z</time></trkpt><trkpt lat="44.9220553" lon="7.1890634"><ele>1485.0</ele><time>2026-04-21T14:30:36.93Z</time></trkpt><trkpt lat="44.9220733" lon="7.1889636"><ele>1485.0</ele><time>2026-04-21T14:30:37.93Z</time></trkpt><trkpt lat="44.9221263" lon="7.1888551"><ele>1485.0</ele><time>2026-04-21T14:30:38.929Z</time></trkpt><trkpt lat="44.9221693" lon="7.1887721"><ele>1485.0</ele><time>2026-04-21T14:30:39.93Z</time></trkpt><trkpt lat="44.9222086" lon="7.1886937"><ele>1485.0</ele><time>2026-04-21T14:30:40.93Z</time></trkpt><trkpt lat="44.9222712" lon="7.188548"><ele>1485.5714285714287</ele><time>2026-04-21T14:30:42.93Z</time></trkpt><trkpt lat="44.9222839" lon="7.1884598"><ele>1486.1428571428573</ele><time>2026-04-21T14:30:43.928Z</time></trkpt><trkpt lat="44.9222644" lon="7.1883658"><ele>1486.7142857142858</ele><time>2026-04-21T14:30:44.928Z</time></trkpt><trkpt lat="44.9222293" lon="7.1882828"><ele>1487.2857142857142</ele><time>2026-04-21T14:30:45.928Z</time></trkpt><trkpt lat="44.9221795" lon="7.1882117"><ele>1487.857142857143</ele><time>2026-04-21T14:30:46.929Z</time></trkpt><trkpt lat="44.9221221" lon="7.1881514"><ele>1488.4285714285713</ele><time>2026-04-21T14:30:47.93Z</time></trkpt><trkpt lat="44.9220626" lon="7.1880738"><ele>1489.0</ele><time>2026-04-21T14:30:48.929Z</time></trkpt><trkpt lat="44.9220248" lon="7.1879043"><ele>1490.857142857143</ele><time>2026-04-21T14:30:50.93Z</time></trkpt><trkpt lat="44.9220257" lon="7.1878037"><ele>1492.7142857142858</ele><time>2026-04-21T14:30:51.928Z</time></trkpt><trkpt lat="44.9220416" lon="7.187691"><ele>1494.5714285714287</ele><time>2026-04-21T14:30:52.929Z</time></trkpt><trkpt lat="44.9220643" lon="7.1875874"><ele>1496.4285714285716</ele><time>2026-04-21T14:30:53.929Z</time></trkpt><trkpt lat="44.9220945" lon="7.1875056"><ele>1498.2857142857142</ele><time>2026-04-21T14:30:54.929Z</time></trkpt><trkpt lat="44.9221407" lon="7.1874226"><ele>1500.1428571428573</ele><time>2026-04-21T14:30:55.93Z</time></trkpt><trkpt lat="44.9221943" lon="7.187347"><ele>1502.0</ele><time>2026-04-21T14:30:56.929Z</time></trkpt><trkpt lat="44.9222606" lon="7.1872772"><ele>1502.1666666666667</ele><time>2026-04-21T14:30:57.929Z</time></trkpt><trkpt lat="44.9223254" lon="7.1872077"><ele>1502.3333333333335</ele><time>2026-04-21T14:30:58.928Z</time></trkpt><trkpt lat="44.9223698" lon="7.1871374"><ele>1502.5</ele><time>2026-04-21T14:30:59.929Z</time></trkpt><trkpt lat="44.9224323" lon="7.1869775"><ele>1502.6666666666667</ele><time>2026-04-21T14:31:01.928Z</time></trkpt><trkpt lat="44.92246" lon="7.1868871"><ele>1502.8333333333333</ele><time>2026-04-21T14:31:02.929Z</time></trkpt><trkpt lat="44.9224736" lon="7.1867868"><ele>1503.0</ele><time>2026-04-21T14:31:03.93Z</time></trkpt><trkpt lat="44.9224874" lon="7.1866974"><ele>1503.0</ele><time>2026-04-21T14:31:04.929Z</time></trkpt><trkpt lat="44.9225236" lon="7.1865808"><ele>1503.0</ele><time>2026-04-21T14:31:05.93Z</time></trkpt><trkpt lat="44.9225638" lon="7.1864672"><ele>1503.0</ele><time>2026-04-21T14:31:06.932Z</time></trkpt><trkpt lat="44.9226009" lon="7.1863662"><ele>1503.0</ele><time>2026-04-21T14:31:07.928Z</time></trkpt><trkpt lat="44.9226356" lon="7.1862639"><ele>1503.0</ele><time>2026-04-21T14:31:08.93Z</time></trkpt><trkpt lat="44.9226635" lon="7.1861715"><ele>1503.0</ele><time>2026-04-21T14:31:09.929Z</time></trkpt><trkpt lat="44.922689" lon="7.1860764"><ele>1507.5</ele><time>2026-04-21T14:31:10.93Z</time></trkpt><trkpt lat="44.922719" lon="7.1859936"><ele>1512.0</ele><time>2026-04-21T14:31:11.93Z</time></trkpt><trkpt lat="44.9227422" lon="7.1859022"><ele>1516.5</ele><time>2026-04-21T14:31:12.928Z</time></trkpt><trkpt lat="44.9227603" lon="7.1857927"><ele>1521.0</ele><time>2026-04-21T14:31:13.93Z</time></trkpt><trkpt lat="44.9227709" lon="7.1856784"><ele>1525.5</ele><time>2026-04-21T14:31:14.928Z</time></trkpt><trkpt lat="44.9227811" lon="7.185554"><ele>1530.0</ele><time>2026-04-21T14:31:15.929Z</time></trkpt><trkpt lat="44.9227877" lon="7.1854407"><ele>1530.2857142857144</ele><time>2026-04-21T14:31:16.928Z</time></trkpt><trkpt lat="44.9227945" lon="7.1853251"><ele>1530.5714285714287</ele><time>2026-04-21T14:31:17.929Z</time></trkpt><trkpt lat="44.9227962" lon="7.1852221"><ele>1530.857142857143</ele><time>2026-04-21T14:31:18.929Z</time></trkpt><trkpt lat="44.9227862" lon="7.185127"><ele>1531.1428571428573</ele><time>2026-04-21T14:31:19.929Z</time></trkpt><trkpt lat="44.9227756" lon="7.1850366"><ele>1531.4285714285713</ele><time>2026-04-21T14:31:20.93Z</time></trkpt><trkpt lat="44.9227602" lon="7.1849379"><ele>1531.7142857142858</ele><time>2026-04-21T14:31:21.928Z</time></trkpt><trkpt lat="44.9227412" lon="7.1848459"><ele>1532.0</ele><time>2026-04-21T14:31:22.929Z</time></trkpt><trkpt lat="44.9227209" lon="7.1847549"><ele>1532.8333333333335</ele><time>2026-04-21T14:31:23.928Z</time></trkpt><trkpt lat="44.9226879" lon="7.1846631"><ele>1533.6666666666667</ele><time>2026-04-21T14:31:24.93Z</time></trkpt><trkpt lat="44.9226404" lon="7.1845735"><ele>1534.5</ele><time>2026-04-21T14:31:25.929Z</time></trkpt><trkpt lat="44.9225787" lon="7.1844917"><ele>1535.3333333333335</ele><time>2026-04-21T14:31:26.928Z</time></trkpt><trkpt lat="44.9225096" lon="7.1844283"><ele>1536.1666666666667</ele><time>2026-04-21T14:31:27.928Z</time></trkpt><trkpt lat="44.9224482" lon="7.1843545"><ele>1537.0</ele><time>2026-04-21T14:31:28.927Z</time></trkpt><trkpt lat="44.9223933" lon="7.1842669"><ele>1535.8333333333335</ele><time>2026-04-21T14:31:29.928Z</time></trkpt><trkpt lat="44.9223485" lon="7.1841675"><ele>1534.6666666666667</ele><time>2026-04-21T14:31:30.929Z</time></trkpt><trkpt lat="44.9223044" lon="7.1840628"><ele>1533.5</ele><time>2026-04-21T14:31:31.929Z</time></trkpt><trkpt lat="44.9222554" lon="7.1839631"><ele>1532.3333333333335</ele><time>2026-04-21T14:31:32.928Z</time></trkpt><trkpt lat="44.9222114" lon="7.1838774"><ele>1531.1666666666667</ele><time>2026-04-21T14:31:33.929Z</time></trkpt><trkpt lat="44.9221704" lon="7.1837924"><ele>1530.0</ele><time>2026-04-21T14:31:34.929Z</time></trkpt><trkpt lat="44.9221324" lon="7.1836946"><ele>1530.0</ele><time>2026-04-21T14:31:35.927Z</time></trkpt><trkpt lat="44.9221076" lon="7.1836027"><ele>1530.0</ele><time>2026-04-21T14:31:36.93Z</time></trkpt><trkpt lat="44.9220849" lon="7.1835002"><ele>1530.0</ele><time>2026-04-21T14:31:37.929Z</time></trkpt><trkpt lat="44.9220695" lon="7.1833928"><ele>1530.0</ele><time>2026-04-21T14:31:38.929Z</time></trkpt><trkpt lat="44.9220551" lon="7.1832812"><ele>1530.0</ele><time>2026-04-21T14:31:39.928Z</time></trkpt><trkpt lat="44.9220479" lon="7.1831738"><ele>1530.0</ele><time>2026-04-21T14:31:40.929Z</time></trkpt><trkpt lat="44.9220376" lon="7.1830616"><ele>1531.5</ele><time>2026-04-21T14:31:41.929Z</time></trkpt><trkpt lat="44.9220255" lon="7.1829521"><ele>1533.0</ele><time>2026-04-21T14:31:42.927Z</time></trkpt><trkpt lat="44.92201" lon="7.1828433"><ele>1534.5</ele><time>2026-04-21T14:31:43.928Z</time></trkpt><trkpt lat="44.9219875" lon="7.1827421"><ele>1536.0</ele><time>2026-04-21T14:31:44.928Z</time></trkpt><trkpt lat="44.9219698" lon="7.1826418"><ele>1537.5</ele><time>2026-04-21T14:31:45.93Z</time></trkpt><trkpt lat="44.921947" lon="7.1825481"><ele>1539.0</ele><time>2026-04-21T14:31:46.927Z</time></trkpt><trkpt lat="44.9219134" lon="7.1824439"><ele>1540.3333333333333</ele><time>2026-04-21T14:31:47.929Z</time></trkpt><trkpt lat="44.9218742" lon="7.182339"><ele>1541.6666666666665</ele><time>2026-04-21T14:31:48.928Z</time></trkpt><trkpt lat="44.9218346" lon="7.1822442"><ele>1543.0</ele><time>2026-04-21T14:31:49.927Z</time></trkpt><trkpt lat="44.9218093" lon="7.1821456"><ele>1544.3333333333333</ele><time>2026-04-21T14:31:50.928Z</time></trkpt><trkpt lat="44.9217898" lon="7.182052"><ele>1545.6666666666665</ele><time>2026-04-21T14:31:51.928Z</time></trkpt><trkpt lat="44.9217777" lon="7.1818792"><ele>1547.0</ele><time>2026-04-21T14:31:53.928Z</time></trkpt><trkpt lat="44.9217709" lon="7.1817765"><ele>1546.9999999999998</ele><time>2026-04-21T14:31:54.929Z</time></trkpt><trkpt lat="44.9217599" lon="7.1816615"><ele>1547.0</ele><time>2026-04-21T14:31:55.928Z</time></trkpt><trkpt lat="44.9217577" lon="7.1815537"><ele>1547.0</ele><time>2026-04-21T14:31:56.928Z</time></trkpt><trkpt lat="44.9217565" lon="7.1814403"><ele>1547.0</ele><time>2026-04-21T14:31:57.929Z</time></trkpt><trkpt lat="44.9217613" lon="7.1813306"><ele>1546.9999999999998</ele><time>2026-04-21T14:31:58.927Z</time></trkpt><trkpt lat="44.9217643" lon="7.1812272"><ele>1547.0</ele><time>2026-04-21T14:31:59.928Z</time></trkpt><trkpt lat="44.9217646" lon="7.1811247"><ele>1547.6666666666665</ele><time>2026-04-21T14:32:00.929Z</time></trkpt><trkpt lat="44.9217715" lon="7.181013"><ele>1548.3333333333333</ele><time>2026-04-21T14:32:01.928Z</time></trkpt><trkpt lat="44.9217915" lon="7.1808954"><ele>1549.0</ele><time>2026-04-21T14:32:02.927Z</time></trkpt><trkpt lat="44.9218044" lon="7.1807879"><ele>1549.6666666666665</ele><time>2026-04-21T14:32:03.929Z</time></trkpt><trkpt lat="44.9218147" lon="7.1806789"><ele>1550.3333333333333</ele><time>2026-04-21T14:32:04.93Z</time></trkpt><trkpt lat="44.921818" lon="7.1805682"><ele>1551.0</ele><time>2026-04-21T14:32:05.928Z</time></trkpt><trkpt lat="44.9218285" lon="7.1804614"><ele>1552.1666666666667</ele><time>2026-04-21T14:32:06.928Z</time></trkpt><trkpt lat="44.9218571" lon="7.1803361"><ele>1553.3333333333335</ele><time>2026-04-21T14:32:07.928Z</time></trkpt><trkpt lat="44.9218865" lon="7.1802213"><ele>1554.5</ele><time>2026-04-21T14:32:08.929Z</time></trkpt><trkpt lat="44.921914" lon="7.1801031"><ele>1555.6666666666667</ele><time>2026-04-21T14:32:09.929Z</time></trkpt><trkpt lat="44.9219336" lon="7.1799883"><ele>1556.8333333333335</ele><time>2026-04-21T14:32:10.929Z</time></trkpt><trkpt lat="44.9219494" lon="7.1798677"><ele>1558.0</ele><time>2026-04-21T14:32:11.928Z</time></trkpt><trkpt lat="44.9219563" lon="7.1797571"><ele>1559.6666666666667</ele><time>2026-04-21T14:32:12.929Z</time></trkpt><trkpt lat="44.9219513" lon="7.1796549"><ele>1561.3333333333335</ele><time>2026-04-21T14:32:13.93Z</time></trkpt><trkpt lat="44.9219317" lon="7.1795431"><ele>1563.0</ele><time>2026-04-21T14:32:14.929Z</time></trkpt><trkpt lat="44.9219058" lon="7.1794105"><ele>1564.6666666666665</ele><time>2026-04-21T14:32:15.929Z</time></trkpt><trkpt lat="44.9218878" lon="7.1792858"><ele>1566.3333333333333</ele><time>2026-04-21T14:32:16.929Z</time></trkpt><trkpt lat="44.9218697" lon="7.1791798"><ele>1568.0</ele><time>2026-04-21T14:32:17.929Z</time></trkpt><trkpt lat="44.9218403" lon="7.1790733"><ele>1570.1666666666665</ele><time>2026-04-21T14:32:18.929Z</time></trkpt><trkpt lat="44.9218097" lon="7.1789782"><ele>1572.3333333333333</ele><time>2026-04-21T14:32:19.929Z</time></trkpt><trkpt lat="44.9217767" lon="7.1788794"><ele>1574.5</ele><time>2026-04-21T14:32:20.929Z</time></trkpt><trkpt lat="44.9217475" lon="7.1787851"><ele>1576.6666666666665</ele><time>2026-04-21T14:32:21.929Z</time></trkpt><trkpt lat="44.9217422" lon="7.1786828"><ele>1578.8333333333333</ele><time>2026-04-21T14:32:22.929Z</time></trkpt><trkpt lat="44.9217386" lon="7.1785699"><ele>1581.0</ele><time>2026-04-21T14:32:23.927Z</time></trkpt><trkpt lat="44.9217297" lon="7.1784619"><ele>1578.5</ele><time>2026-04-21T14:32:24.929Z</time></trkpt><trkpt lat="44.9217208" lon="7.1783657"><ele>1576.0</ele><time>2026-04-21T14:32:25.929Z</time></trkpt><trkpt lat="44.9216964" lon="7.1782732"><ele>1573.5</ele><time>2026-04-21T14:32:26.927Z</time></trkpt><trkpt lat="44.9216544" lon="7.1781814"><ele>1571.0</ele><time>2026-04-21T14:32:27.929Z</time></trkpt><trkpt lat="44.9216111" lon="7.1780803"><ele>1568.5</ele><time>2026-04-21T14:32:28.928Z</time></trkpt><trkpt lat="44.9215791" lon="7.1779685"><ele>1566.0</ele><time>2026-04-21T14:32:29.93Z</time></trkpt><trkpt lat="44.9215576" lon="7.1778654"><ele>1566.0</ele><time>2026-04-21T14:32:30.928Z</time></trkpt><trkpt lat="44.921541" lon="7.1777599"><ele>1566.0</ele><time>2026-04-21T14:32:31.927Z</time></trkpt><trkpt lat="44.9215354" lon="7.1776526"><ele>1566.0</ele><time>2026-04-21T14:32:32.93Z</time></trkpt><trkpt lat="44.9215397" lon="7.1775429"><ele>1566.0</ele><time>2026-04-21T14:32:33.928Z</time></trkpt><trkpt lat="44.9215304" lon="7.1774388"><ele>1566.0</ele><time>2026-04-21T14:32:34.928Z</time></trkpt><trkpt lat="44.9215088" lon="7.1773395"><ele>1566.0</ele><time>2026-04-21T14:32:35.927Z</time></trkpt><trkpt lat="44.9214856" lon="7.1772542"><ele>1566.0</ele><time>2026-04-21T14:32:36.93Z</time></trkpt><trkpt lat="44.9214663" lon="7.1771671"><ele>1568.2857142857142</ele><time>2026-04-21T14:32:37.927Z</time></trkpt><trkpt lat="44.9214378" lon="7.177081"><ele>1570.5714285714287</ele><time>2026-04-21T14:32:38.929Z</time></trkpt><trkpt lat="44.9214127" lon="7.1769901"><ele>1572.857142857143</ele><time>2026-04-21T14:32:39.929Z</time></trkpt><trkpt lat="44.9213859" lon="7.1768997"><ele>1575.142857142857</ele><time>2026-04-21T14:32:40.929Z</time></trkpt><trkpt lat="44.9213458" lon="7.1768235"><ele>1577.4285714285716</ele><time>2026-04-21T14:32:41.928Z</time></trkpt><trkpt lat="44.9212986" lon="7.176747"><ele>1579.7142857142858</ele><time>2026-04-21T14:32:42.928Z</time></trkpt><trkpt lat="44.9212573" lon="7.1766625"><ele>1582.0</ele><time>2026-04-21T14:32:43.928Z</time></trkpt><trkpt lat="44.921218" lon="7.1765857"><ele>1584.0000000000002</ele><time>2026-04-21T14:32:44.928Z</time></trkpt><trkpt lat="44.9211506" lon="7.176434"><ele>1586.0</ele><time>2026-04-21T14:32:46.928Z</time></trkpt><trkpt lat="44.9211109" lon="7.1763452"><ele>1588.0</ele><time>2026-04-21T14:32:47.928Z</time></trkpt><trkpt lat="44.9210751" lon="7.1762503"><ele>1590.0</ele><time>2026-04-21T14:32:48.928Z</time></trkpt><trkpt lat="44.9210341" lon="7.1761619"><ele>1592.0000000000002</ele><time>2026-04-21T14:32:49.928Z</time></trkpt><trkpt lat="44.9209956" lon="7.1760776"><ele>1594.0</ele><time>2026-04-21T14:32:50.928Z</time></trkpt><trkpt lat="44.9209537" lon="7.1759977"><ele>1594.0000000000002</ele><time>2026-04-21T14:32:51.928Z</time></trkpt><trkpt lat="44.9209082" lon="7.1759036"><ele>1594.0</ele><time>2026-04-21T14:32:52.928Z</time></trkpt><trkpt lat="44.9208679" lon="7.1758119"><ele>1594.0</ele><time>2026-04-21T14:32:53.93Z</time></trkpt><trkpt lat="44.9208169" lon="7.1757174"><ele>1594.0</ele><time>2026-04-21T14:32:54.929Z</time></trkpt><trkpt lat="44.9207698" lon="7.1756212"><ele>1594.0000000000002</ele><time>2026-04-21T14:32:55.928Z</time></trkpt><trkpt lat="44.9207256" lon="7.1755312"><ele>1594.0</ele><time>2026-04-21T14:32:56.929Z</time></trkpt><trkpt lat="44.9206845" lon="7.1754627"><ele>1594.1666666666667</ele><time>2026-04-21T14:32:57.929Z</time></trkpt><trkpt lat="44.9206224" lon="7.1753565"><ele>1594.3333333333335</ele><time>2026-04-21T14:32:59.93Z</time></trkpt><trkpt lat="44.9206356" lon="7.1752641"><ele>1594.5</ele><time>2026-04-21T14:33:01.928Z</time></trkpt><trkpt lat="44.9207374" lon="7.1753103"><ele>1594.6666666666665</ele><time>2026-04-21T14:33:03.929Z</time></trkpt><trkpt lat="44.9207937" lon="7.1753706"><ele>1594.8333333333333</ele><time>2026-04-21T14:33:04.929Z</time></trkpt><trkpt lat="44.9208604" lon="7.175434"><ele>1595.0</ele><time>2026-04-21T14:33:05.928Z</time></trkpt><trkpt lat="44.9209264" lon="7.1755069"><ele>1594.8333333333333</ele><time>2026-04-21T14:33:06.929Z</time></trkpt><trkpt lat="44.9209808" lon="7.1755746"><ele>1594.6666666666665</ele><time>2026-04-21T14:33:07.928Z</time></trkpt><trkpt lat="44.9210347" lon="7.1756386"><ele>1594.5</ele><time>2026-04-21T14:33:08.929Z</time></trkpt><trkpt lat="44.9210884" lon="7.1756977"><ele>1594.3333333333335</ele><time>2026-04-21T14:33:09.928Z</time></trkpt><trkpt lat="44.9211439" lon="7.1757437"><ele>1594.1666666666667</ele><time>2026-04-21T14:33:10.929Z</time></trkpt><trkpt lat="44.9212451" lon="7.1758313"><ele>1594.0</ele><time>2026-04-21T14:33:12.929Z</time></trkpt><trkpt lat="44.9213068" lon="7.1758864"><ele>1594.0000000000002</ele><time>2026-04-21T14:33:13.929Z</time></trkpt><trkpt lat="44.9213699" lon="7.1759393"><ele>1594.0</ele><time>2026-04-21T14:33:14.927Z</time></trkpt><trkpt lat="44.9214312" lon="7.1759958"><ele>1594.0</ele><time>2026-04-21T14:33:15.929Z</time></trkpt><trkpt lat="44.9214932" lon="7.1760545"><ele>1594.0</ele><time>2026-04-21T14:33:16.929Z</time></trkpt><trkpt lat="44.9215587" lon="7.1761207"><ele>1594.0000000000002</ele><time>2026-04-21T14:33:17.929Z</time></trkpt><trkpt lat="44.9216221" lon="7.1761866"><ele>1594.0</ele><time>2026-04-21T14:33:18.93Z</time></trkpt><trkpt lat="44.921681" lon="7.1762464"><ele>1593.0</ele><time>2026-04-21T14:33:19.928Z</time></trkpt><trkpt lat="44.9217399" lon="7.1763023"><ele>1592.0</ele><time>2026-04-21T14:33:20.929Z</time></trkpt><trkpt lat="44.9218024" lon="7.1763447"><ele>1591.0</ele><time>2026-04-21T14:33:21.929Z</time></trkpt><trkpt lat="44.9218645" lon="7.1763763"><ele>1590.0</ele><time>2026-04-21T14:33:22.927Z</time></trkpt><trkpt lat="44.9219249" lon="7.1764051"><ele>1589.0</ele><time>2026-04-21T14:33:23.929Z</time></trkpt><trkpt lat="44.9220032" lon="7.1764622"><ele>1588.0</ele><time>2026-04-21T14:33:25.928Z</time></trkpt><trkpt lat="44.9220703" lon="7.1765286"><ele>1587.0</ele><time>2026-04-21T14:33:27.929Z</time></trkpt><trkpt lat="44.9221253" lon="7.1765912"><ele>1587.0</ele><time>2026-04-21T14:33:29.929Z</time></trkpt><trkpt lat="44.922183" lon="7.1766553"><ele>1587.0</ele><time>2026-04-21T14:33:31.929Z</time></trkpt><trkpt lat="44.9222335" lon="7.1767561"><ele>1587.0</ele><time>2026-04-21T14:33:33.928Z</time></trkpt><trkpt lat="44.9222789" lon="7.1768704"><ele>1587.0</ele><time>2026-04-21T14:33:35.929Z</time></trkpt><trkpt lat="44.9223299" lon="7.176997"><ele>1587.0</ele><time>2026-04-21T14:33:37.928Z</time></trkpt><trkpt lat="44.9223847" lon="7.1771032"><ele>1587.0</ele><time>2026-04-21T14:33:39.929Z</time></trkpt><trkpt lat="44.922452" lon="7.177191"><ele>1587.0</ele><time>2026-04-21T14:33:41.929Z</time></trkpt><trkpt lat="44.9225192" lon="7.177288"><ele>1587.0</ele><time>2026-04-21T14:33:43.929Z</time></trkpt><trkpt lat="44.9225738" lon="7.1773831"><ele>1587.0</ele><time>2026-04-21T14:33:45.929Z</time></trkpt><trkpt lat="44.9226077" lon="7.177494"><ele>1587.0</ele><time>2026-04-21T14:33:48.93Z</time></trkpt><trkpt lat="44.9226465" lon="7.1775979"><ele>1587.0</ele><time>2026-04-21T14:33:51.927Z</time></trkpt><trkpt lat="44.9226497" lon="7.1777174"><ele>1587.0</ele><time>2026-04-21T14:33:55.929Z</time></trkpt><trkpt lat="44.9225651" lon="7.1777034"><ele>1587.0</ele><time>2026-04-21T14:33:59.929Z</time></trkpt><trkpt lat="44.9225104" lon="7.177645"><ele>1587.0</ele><time>2026-04-21T14:34:08.93Z</time></trkpt><trkpt lat="44.9225495" lon="7.177542"><ele>1587.0</ele><time>2026-04-21T14:34:12.928Z</time></trkpt><trkpt lat="44.9225747" lon="7.1774461"><ele>1587.0</ele><time>2026-04-21T14:34:15.93Z</time></trkpt><trkpt lat="44.9225434" lon="7.1773458"><ele>1587.0</ele><time>2026-04-21T14:34:18.928Z</time></trkpt><trkpt lat="44.9224996" lon="7.1772447"><ele>1587.0</ele><time>2026-04-21T14:34:20.928Z</time></trkpt><trkpt lat="44.9224469" lon="7.1771488"><ele>1587.0</ele><time>2026-04-21T14:34:22.929Z</time></trkpt><trkpt lat="44.9223862" lon="7.1770794"><ele>1587.0</ele><time>2026-04-21T14:34:24.928Z</time></trkpt><trkpt lat="44.9223401" lon="7.1770064"><ele>1587.0</ele><time>2026-04-21T14:34:26.929Z</time></trkpt><trkpt lat="44.9222963" lon="7.1769102"><ele>1587.0</ele><time>2026-04-21T14:34:28.928Z</time></trkpt><trkpt lat="44.9222632" lon="7.1768119"><ele>1587.0</ele><time>2026-04-21T14:34:30.928Z</time></trkpt><trkpt lat="44.9222313" lon="7.176725"><ele>1587.0</ele><time>2026-04-21T14:34:32.928Z</time></trkpt><trkpt lat="44.922183" lon="7.1766496"><ele>1587.0</ele><time>2026-04-21T14:34:34.929Z</time></trkpt><trkpt lat="44.9221342" lon="7.1765845"><ele>1587.0</ele><time>2026-04-21T14:34:36.927Z</time></trkpt><trkpt lat="44.9221194" lon="7.1764836"><ele>1587.0</ele><time>2026-04-21T14:34:38.928Z</time></trkpt><trkpt lat="44.9220289" lon="7.1764455"><ele>1587.0</ele><time>2026-04-21T14:36:35.928Z</time></trkpt><trkpt lat="44.9220404" lon="7.1765367"><ele>1587.0</ele><time>2026-04-21T14:36:38.928Z</time></trkpt><trkpt lat="44.9221157" lon="7.1765081"><ele>1586.0</ele><time>2026-04-21T14:36:41.928Z</time></trkpt><trkpt lat="44.9221868" lon="7.1764342"><ele>1585.0</ele><time>2026-04-21T14:36:44.928Z</time></trkpt><trkpt lat="44.9222665" lon="7.1764492"><ele>1584.0</ele><time>2026-04-21T14:36:46.928Z</time></trkpt><trkpt lat="44.9223455" lon="7.1764651"><ele>1583.0</ele><time>2026-04-21T14:36:48.928Z</time></trkpt><trkpt lat="44.922431" lon="7.1764726"><ele>1582.0</ele><time>2026-04-21T14:36:50.928Z</time></trkpt><trkpt lat="44.9225219" lon="7.1764821"><ele>1581.0</ele><time>2026-04-21T14:36:52.927Z</time></trkpt><trkpt lat="44.9226177" lon="7.1764979"><ele>1580.0</ele><time>2026-04-21T14:36:54.929Z</time></trkpt><trkpt lat="44.9227166" lon="7.1765239"><ele>1579.0</ele><time>2026-04-21T14:36:56.927Z</time></trkpt><trkpt lat="44.9228265" lon="7.1765631"><ele>1578.0</ele><time>2026-04-21T14:36:58.928Z</time></trkpt><trkpt lat="44.9229426" lon="7.1766022"><ele>1577.0</ele><time>2026-04-21T14:37:00.928Z</time></trkpt><trkpt lat="44.9230556" lon="7.1766327"><ele>1576.0</ele><time>2026-04-21T14:37:02.929Z</time></trkpt><trkpt lat="44.9231582" lon="7.1766637"><ele>1576.0</ele><time>2026-04-21T14:37:04.928Z</time></trkpt><trkpt lat="44.9232578" lon="7.1767121"><ele>1576.0</ele><time>2026-04-21T14:37:06.928Z</time></trkpt><trkpt lat="44.923361" lon="7.1767878"><ele>1576.0</ele><time>2026-04-21T14:37:08.927Z</time></trkpt><trkpt lat="44.9234648" lon="7.1768726"><ele>1576.0</ele><time>2026-04-21T14:37:10.928Z</time></trkpt><trkpt lat="44.9235711" lon="7.1769589"><ele>1572.0</ele><time>2026-04-21T14:37:12.928Z</time></trkpt><trkpt lat="44.9236736" lon="7.1770326"><ele>1568.0</ele><time>2026-04-21T14:37:14.928Z</time></trkpt><trkpt lat="44.9237698" lon="7.1771011"><ele>1564.0</ele><time>2026-04-21T14:37:16.928Z</time></trkpt><trkpt lat="44.9238547" lon="7.177161"><ele>1560.0</ele><time>2026-04-21T14:37:18.929Z</time></trkpt><trkpt lat="44.9239304" lon="7.1772145"><ele>1556.0</ele><time>2026-04-21T14:37:20.929Z</time></trkpt><trkpt lat="44.9239929" lon="7.1772485"><ele>1556.0</ele><time>2026-04-21T14:37:22.927Z</time></trkpt><trkpt lat="44.9240497" lon="7.1771759"><ele>1556.0</ele><time>2026-04-21T14:37:25.927Z</time></trkpt><trkpt lat="44.9240117" lon="7.1770804"><ele>1556.0</ele><time>2026-04-21T14:37:27.929Z</time></trkpt><trkpt lat="44.9239359" lon="7.1769891"><ele>1556.0</ele><time>2026-04-21T14:37:29.928Z</time></trkpt><trkpt lat="44.923863" lon="7.17689"><ele>1556.0</ele><time>2026-04-21T14:37:31.927Z</time></trkpt><trkpt lat="44.9237924" lon="7.1767732"><ele>1556.0</ele><time>2026-04-21T14:37:33.927Z</time></trkpt><trkpt lat="44.9237191" lon="7.1766572"><ele>1556.0</ele><time>2026-04-21T14:37:35.928Z</time></trkpt><trkpt lat="44.9236525" lon="7.1765232"><ele>1556.0</ele><time>2026-04-21T14:37:37.928Z</time></trkpt><trkpt lat="44.9236098" lon="7.1763621"><ele>1556.0</ele><time>2026-04-21T14:37:39.928Z</time></trkpt><trkpt lat="44.9235832" lon="7.1762022"><ele>1553.4</ele><time>2026-04-21T14:37:41.928Z</time></trkpt><trkpt lat="44.9235506" lon="7.176048"><ele>1550.8</ele><time>2026-04-21T14:37:43.927Z</time></trkpt><trkpt lat="44.9235003" lon="7.1759177"><ele>1548.2</ele><time>2026-04-21T14:37:45.928Z</time></trkpt><trkpt lat="44.9234334" lon="7.175791"><ele>1545.6000000000001</ele><time>2026-04-21T14:37:47.928Z</time></trkpt><trkpt lat="44.9233549" lon="7.1756785"><ele>1543.0</ele><time>2026-04-21T14:37:49.928Z</time></trkpt><trkpt lat="44.9232693" lon="7.1755695"><ele>1543.0000000000002</ele><time>2026-04-21T14:37:51.929Z</time></trkpt><trkpt lat="44.9231929" lon="7.1754647"><ele>1543.0</ele><time>2026-04-21T14:37:53.927Z</time></trkpt><trkpt lat="44.9231308" lon="7.1753704"><ele>1543.0</ele><time>2026-04-21T14:37:55.928Z</time></trkpt><trkpt lat="44.9230758" lon="7.1752978"><ele>1543.0</ele><time>2026-04-21T14:37:57.928Z</time></trkpt><trkpt lat="44.9230193" lon="7.1752044"><ele>1543.0000000000002</ele><time>2026-04-21T14:38:00.927Z</time></trkpt><trkpt lat="44.9230584" lon="7.1751221"><ele>1543.0</ele><time>2026-04-21T14:38:03.927Z</time></trkpt><trkpt lat="44.9231419" lon="7.1752104"><ele>1543.0000000000002</ele><time>2026-04-21T14:38:06.928Z</time></trkpt><trkpt lat="44.923208" lon="7.1752883"><ele>1543.0</ele><time>2026-04-21T14:38:08.929Z</time></trkpt><trkpt lat="44.9232996" lon="7.1753576"><ele>1543.0</ele><time>2026-04-21T14:38:10.929Z</time></trkpt><trkpt lat="44.9233601" lon="7.1753945"><ele>1543.0</ele><time>2026-04-21T14:38:11.929Z</time></trkpt><trkpt lat="44.9234171" lon="7.1754331"><ele>1543.0000000000002</ele><time>2026-04-21T14:38:12.929Z</time></trkpt><trkpt lat="44.9235271" lon="7.1755017"><ele>1543.0</ele><time>2026-04-21T14:38:14.928Z</time></trkpt><trkpt lat="44.9236328" lon="7.1755745"><ele>1541.0</ele><time>2026-04-21T14:38:16.928Z</time></trkpt><trkpt lat="44.9237465" lon="7.1756652"><ele>1539.0</ele><time>2026-04-21T14:38:18.929Z</time></trkpt><trkpt lat="44.9237968" lon="7.175721"><ele>1537.0</ele><time>2026-04-21T14:38:19.927Z</time></trkpt><trkpt lat="44.9238456" lon="7.1757797"><ele>1535.0</ele><time>2026-04-21T14:38:20.928Z</time></trkpt><trkpt lat="44.9239395" lon="7.1758961"><ele>1533.0</ele><time>2026-04-21T14:38:22.928Z</time></trkpt><trkpt lat="44.9240376" lon="7.1759959"><ele>1533.0</ele><time>2026-04-21T14:38:24.929Z</time></trkpt><trkpt lat="44.9241405" lon="7.1760864"><ele>1533.0</ele><time>2026-04-21T14:38:26.929Z</time></trkpt><trkpt lat="44.9242474" lon="7.1761832"><ele>1533.0</ele><time>2026-04-21T14:38:28.928Z</time></trkpt><trkpt lat="44.9243495" lon="7.1762719"><ele>1533.0</ele><time>2026-04-21T14:38:30.928Z</time></trkpt><trkpt lat="44.9244552" lon="7.1763479"><ele>1529.1666666666667</ele><time>2026-04-21T14:38:32.928Z</time></trkpt><trkpt lat="44.9245167" lon="7.1763673"><ele>1525.3333333333333</ele><time>2026-04-21T14:38:33.929Z</time></trkpt><trkpt lat="44.9245822" lon="7.1763735"><ele>1521.5</ele><time>2026-04-21T14:38:34.928Z</time></trkpt><trkpt lat="44.9246563" lon="7.1763718"><ele>1517.6666666666665</ele><time>2026-04-21T14:38:35.927Z</time></trkpt><trkpt lat="44.924726" lon="7.1763695"><ele>1513.8333333333333</ele><time>2026-04-21T14:38:36.928Z</time></trkpt><trkpt lat="44.9248549" lon="7.1763979"><ele>1510.0</ele><time>2026-04-21T14:38:38.927Z</time></trkpt><trkpt lat="44.9249179" lon="7.1764174"><ele>1510.0</ele><time>2026-04-21T14:38:39.928Z</time></trkpt><trkpt lat="44.9250294" lon="7.1764675"><ele>1510.0</ele><time>2026-04-21T14:38:41.928Z</time></trkpt><trkpt lat="44.9251339" lon="7.1765414"><ele>1510.0</ele><time>2026-04-21T14:38:43.928Z</time></trkpt><trkpt lat="44.9251884" lon="7.1765958"><ele>1510.0</ele><time>2026-04-21T14:38:44.928Z</time></trkpt><trkpt lat="44.9252967" lon="7.176695"><ele>1510.0</ele><time>2026-04-21T14:38:46.928Z</time></trkpt><trkpt lat="44.9253541" lon="7.1767456"><ele>1510.2857142857142</ele><time>2026-04-21T14:38:47.929Z</time></trkpt><trkpt lat="44.9254149" lon="7.1767977"><ele>1510.5714285714287</ele><time>2026-04-21T14:38:48.929Z</time></trkpt><trkpt lat="44.9254784" lon="7.1768481"><ele>1510.857142857143</ele><time>2026-04-21T14:38:49.929Z</time></trkpt><trkpt lat="44.9255373" lon="7.1769043"><ele>1511.142857142857</ele><time>2026-04-21T14:38:50.929Z</time></trkpt><trkpt lat="44.9256001" lon="7.176959"><ele>1511.4285714285716</ele><time>2026-04-21T14:38:51.929Z</time></trkpt><trkpt lat="44.9256645" lon="7.1770005"><ele>1511.7142857142858</ele><time>2026-04-21T14:38:52.929Z</time></trkpt><trkpt lat="44.9257265" lon="7.1770373"><ele>1512.0</ele><time>2026-04-21T14:38:53.929Z</time></trkpt><trkpt lat="44.9257868" lon="7.1770741"><ele>1512.0</ele><time>2026-04-21T14:38:54.928Z</time></trkpt><trkpt lat="44.9258633" lon="7.177107"><ele>1512.0</ele><time>2026-04-21T14:38:55.928Z</time></trkpt><trkpt lat="44.9259279" lon="7.1771446"><ele>1512.0</ele><time>2026-04-21T14:38:56.928Z</time></trkpt><trkpt lat="44.9259961" lon="7.1771988"><ele>1512.0</ele><time>2026-04-21T14:38:57.928Z</time></trkpt><trkpt lat="44.9260626" lon="7.1772507"><ele>1512.0</ele><time>2026-04-21T14:38:58.928Z</time></trkpt><trkpt lat="44.9261307" lon="7.1773019"><ele>1512.0</ele><time>2026-04-21T14:38:59.929Z</time></trkpt><trkpt lat="44.9261947" lon="7.1773574"><ele>1511.5</ele><time>2026-04-21T14:39:00.927Z</time></trkpt><trkpt lat="44.9262576" lon="7.1774161"><ele>1511.0</ele><time>2026-04-21T14:39:01.928Z</time></trkpt><trkpt lat="44.9263182" lon="7.1774709"><ele>1510.5</ele><time>2026-04-21T14:39:02.928Z</time></trkpt><trkpt lat="44.926383" lon="7.1775218"><ele>1510.0</ele><time>2026-04-21T14:39:03.928Z</time></trkpt><trkpt lat="44.9264977" lon="7.1775955"><ele>1509.5</ele><time>2026-04-21T14:39:05.928Z</time></trkpt><trkpt lat="44.9265605" lon="7.1776283"><ele>1509.0</ele><time>2026-04-21T14:39:06.929Z</time></trkpt><trkpt lat="44.9266165" lon="7.1776704"><ele>1504.5</ele><time>2026-04-21T14:39:07.929Z</time></trkpt><trkpt lat="44.9267295" lon="7.1777579"><ele>1500.0</ele><time>2026-04-21T14:39:09.929Z</time></trkpt><trkpt lat="44.9267866" lon="7.177799"><ele>1495.5</ele><time>2026-04-21T14:39:10.928Z</time></trkpt><trkpt lat="44.9268552" lon="7.1778401"><ele>1491.0</ele><time>2026-04-21T14:39:11.928Z</time></trkpt><trkpt lat="44.9269262" lon="7.1778866"><ele>1486.5</ele><time>2026-04-21T14:39:12.928Z</time></trkpt><trkpt lat="44.9270094" lon="7.177919"><ele>1482.0</ele><time>2026-04-21T14:39:13.929Z</time></trkpt><trkpt lat="44.9270867" lon="7.1779505"><ele>1482.0</ele><time>2026-04-21T14:39:14.928Z</time></trkpt><trkpt lat="44.9271686" lon="7.1779789"><ele>1482.0</ele><time>2026-04-21T14:39:15.928Z</time></trkpt><trkpt lat="44.927242" lon="7.1780062"><ele>1482.0</ele><time>2026-04-21T14:39:16.929Z</time></trkpt><trkpt lat="44.9273152" lon="7.1780271"><ele>1482.0</ele><time>2026-04-21T14:39:17.928Z</time></trkpt><trkpt lat="44.9273796" lon="7.1780586"><ele>1482.0</ele><time>2026-04-21T14:39:18.928Z</time></trkpt><trkpt lat="44.9274413" lon="7.1780899"><ele>1482.0</ele><time>2026-04-21T14:39:19.928Z</time></trkpt><trkpt lat="44.9275083" lon="7.1781223"><ele>1482.0</ele><time>2026-04-21T14:39:20.929Z</time></trkpt><trkpt lat="44.927574" lon="7.1781701"><ele>1482.5</ele><time>2026-04-21T14:39:21.928Z</time></trkpt><trkpt lat="44.9276441" lon="7.1782146"><ele>1483.0</ele><time>2026-04-21T14:39:22.929Z</time></trkpt><trkpt lat="44.9277132" lon="7.1782603"><ele>1483.5</ele><time>2026-04-21T14:39:23.928Z</time></trkpt><trkpt lat="44.9277777" lon="7.1783017"><ele>1484.0</ele><time>2026-04-21T14:39:24.928Z</time></trkpt><trkpt lat="44.9278992" lon="7.1783582"><ele>1484.5</ele><time>2026-04-21T14:39:26.929Z</time></trkpt><trkpt lat="44.9279613" lon="7.1783769"><ele>1485.0</ele><time>2026-04-21T14:39:27.928Z</time></trkpt><trkpt lat="44.928033" lon="7.1784064"><ele>1485.0</ele><time>2026-04-21T14:39:28.929Z</time></trkpt><trkpt lat="44.9281022" lon="7.1784324"><ele>1485.0</ele><time>2026-04-21T14:39:29.929Z</time></trkpt><trkpt lat="44.9281654" lon="7.1784615"><ele>1485.0</ele><time>2026-04-21T14:39:30.928Z</time></trkpt><trkpt lat="44.9282574" lon="7.1785069"><ele>1485.0</ele><time>2026-04-21T14:39:32.928Z</time></trkpt><trkpt lat="44.928357" lon="7.1785778"><ele>1485.0</ele><time>2026-04-21T14:39:34.926Z</time></trkpt><trkpt lat="44.9284573" lon="7.1786448"><ele>1482.25</ele><time>2026-04-21T14:39:36.927Z</time></trkpt><trkpt lat="44.9285663" lon="7.178708"><ele>1479.5</ele><time>2026-04-21T14:39:38.927Z</time></trkpt><trkpt lat="44.9286825" lon="7.1787386"><ele>1476.75</ele><time>2026-04-21T14:39:40.928Z</time></trkpt><trkpt lat="44.928806" lon="7.1787202"><ele>1474.0</ele><time>2026-04-21T14:39:42.927Z</time></trkpt><trkpt lat="44.9289289" lon="7.1786877"><ele>1474.0</ele><time>2026-04-21T14:39:44.928Z</time></trkpt><trkpt lat="44.9290141" lon="7.1786658"><ele>1474.0</ele><time>2026-04-21T14:39:46.927Z</time></trkpt><trkpt lat="44.9291259" lon="7.1786701"><ele>1474.0</ele><time>2026-04-21T14:39:48.927Z</time></trkpt><trkpt lat="44.9292271" lon="7.178685"><ele>1474.0</ele><time>2026-04-21T14:39:50.928Z</time></trkpt><trkpt lat="44.9293271" lon="7.1787275"><ele>1474.0</ele><time>2026-04-21T14:39:52.928Z</time></trkpt><trkpt lat="44.9293888" lon="7.1787591"><ele>1471.3333333333333</ele><time>2026-04-21T14:39:53.927Z</time></trkpt><trkpt lat="44.9294746" lon="7.1788004"><ele>1468.6666666666665</ele><time>2026-04-21T14:39:55.928Z</time></trkpt><trkpt lat="44.9295452" lon="7.1788552"><ele>1466.0</ele><time>2026-04-21T14:39:57.927Z</time></trkpt><trkpt lat="44.9296175" lon="7.1788926"><ele>1463.3333333333333</ele><time>2026-04-21T14:39:59.927Z</time></trkpt><trkpt lat="44.9296914" lon="7.1788317"><ele>1460.6666666666667</ele><time>2026-04-21T14:40:02.928Z</time></trkpt><trkpt lat="44.9296546" lon="7.1787343"><ele>1458.0</ele><time>2026-04-21T14:40:04.926Z</time></trkpt><trkpt lat="44.9295791" lon="7.1786428"><ele>1458.0</ele><time>2026-04-21T14:40:06.927Z</time></trkpt><trkpt lat="44.9295105" lon="7.1785306"><ele>1458.0</ele><time>2026-04-21T14:40:08.927Z</time></trkpt><trkpt lat="44.9294549" lon="7.1784126"><ele>1458.0</ele><time>2026-04-21T14:40:10.928Z</time></trkpt><trkpt lat="44.9293954" lon="7.1782907"><ele>1458.0</ele><time>2026-04-21T14:40:12.928Z</time></trkpt><trkpt lat="44.9293307" lon="7.1781608"><ele>1458.0</ele><time>2026-04-21T14:40:14.927Z</time></trkpt><trkpt lat="44.9292673" lon="7.1780244"><ele>1457.0</ele><time>2026-04-21T14:40:16.928Z</time></trkpt><trkpt lat="44.929198" lon="7.1778896"><ele>1456.0</ele><time>2026-04-21T14:40:18.928Z</time></trkpt><trkpt lat="44.9291195" lon="7.1777628"><ele>1455.0</ele><time>2026-04-21T14:40:20.927Z</time></trkpt><trkpt lat="44.9290301" lon="7.1776876"><ele>1454.0</ele><time>2026-04-21T14:40:22.927Z</time></trkpt><trkpt lat="44.9289411" lon="7.1775918"><ele>1454.0</ele><time>2026-04-21T14:40:24.927Z</time></trkpt><trkpt lat="44.9288559" lon="7.177508"><ele>1454.0</ele><time>2026-04-21T14:40:26.927Z</time></trkpt><trkpt lat="44.9287679" lon="7.1774166"><ele>1454.0</ele><time>2026-04-21T14:40:28.927Z</time></trkpt><trkpt lat="44.9286981" lon="7.1773126"><ele>1454.0</ele><time>2026-04-21T14:40:30.925Z</time></trkpt><trkpt lat="44.9286242" lon="7.1772191"><ele>1454.0</ele><time>2026-04-21T14:40:32.926Z</time></trkpt><trkpt lat="44.9285463" lon="7.1771498"><ele>1453.0</ele><time>2026-04-21T14:40:34.928Z</time></trkpt><trkpt lat="44.92847" lon="7.1771051"><ele>1452.0</ele><time>2026-04-21T14:40:36.928Z</time></trkpt><trkpt lat="44.9284023" lon="7.1770699"><ele>1451.0</ele><time>2026-04-21T14:40:38.927Z</time></trkpt><trkpt lat="44.928328" lon="7.1770193"><ele>1450.0</ele><time>2026-04-21T14:40:41.927Z</time></trkpt><trkpt lat="44.9283858" lon="7.1769683"><ele>1449.0</ele><time>2026-04-21T14:41:04.926Z</time></trkpt><trkpt lat="44.9284649" lon="7.1769646"><ele>1448.0</ele><time>2026-04-21T14:41:06.927Z</time></trkpt><trkpt lat="44.9285562" lon="7.176959"><ele>1445.4</ele><time>2026-04-21T14:41:08.928Z</time></trkpt><trkpt lat="44.9286665" lon="7.1769491"><ele>1442.8000000000002</ele><time>2026-04-21T14:41:10.927Z</time></trkpt><trkpt lat="44.9287747" lon="7.1769682"><ele>1440.2</ele><time>2026-04-21T14:41:12.926Z</time></trkpt><trkpt lat="44.9288693" lon="7.177005"><ele>1437.6</ele><time>2026-04-21T14:41:14.927Z</time></trkpt><trkpt lat="44.9289616" lon="7.177046"><ele>1435.0</ele><time>2026-04-21T14:41:16.928Z</time></trkpt><trkpt lat="44.9290671" lon="7.1770754"><ele>1435.0</ele><time>2026-04-21T14:41:18.927Z</time></trkpt><trkpt lat="44.9291822" lon="7.1770951"><ele>1435.0</ele><time>2026-04-21T14:41:20.928Z</time></trkpt><trkpt lat="44.9292447" lon="7.1771105"><ele>1435.0</ele><time>2026-04-21T14:41:21.927Z</time></trkpt><trkpt lat="44.9293557" lon="7.177149"><ele>1435.0</ele><time>2026-04-21T14:41:23.928Z</time></trkpt><trkpt lat="44.9294681" lon="7.1772155"><ele>1435.0</ele><time>2026-04-21T14:41:25.926Z</time></trkpt><trkpt lat="44.9295797" lon="7.1772892"><ele>1435.1666666666665</ele><time>2026-04-21T14:41:27.926Z</time></trkpt><trkpt lat="44.9297002" lon="7.1773291"><ele>1435.3333333333333</ele><time>2026-04-21T14:41:29.927Z</time></trkpt><trkpt lat="44.9297648" lon="7.1773392"><ele>1435.5</ele><time>2026-04-21T14:41:30.927Z</time></trkpt><trkpt lat="44.9298339" lon="7.1773481"><ele>1435.6666666666667</ele><time>2026-04-21T14:41:31.928Z</time></trkpt><trkpt lat="44.9298999" lon="7.1773527"><ele>1435.8333333333335</ele><time>2026-04-21T14:41:32.927Z</time></trkpt><trkpt lat="44.9299682" lon="7.177361"><ele>1436.0</ele><time>2026-04-21T14:41:33.928Z</time></trkpt><trkpt lat="44.9300371" lon="7.177368"><ele>1433.6</ele><time>2026-04-21T14:41:34.927Z</time></trkpt><trkpt lat="44.9301078" lon="7.1773775"><ele>1431.1999999999998</ele><time>2026-04-21T14:41:35.928Z</time></trkpt><trkpt lat="44.9302433" lon="7.1773885"><ele>1428.8000000000002</ele><time>2026-04-21T14:41:37.927Z</time></trkpt><trkpt lat="44.9303771" lon="7.1774138"><ele>1426.4</ele><time>2026-04-21T14:41:39.927Z</time></trkpt><trkpt lat="44.9304431" lon="7.1774207"><ele>1424.0</ele><time>2026-04-21T14:41:40.927Z</time></trkpt><trkpt lat="44.9305133" lon="7.1774102"><ele>1424.0</ele><time>2026-04-21T14:41:41.927Z</time></trkpt><trkpt lat="44.9305875" lon="7.1773911"><ele>1424.0</ele><time>2026-04-21T14:41:42.927Z</time></trkpt><trkpt lat="44.9306529" lon="7.177365"><ele>1424.0</ele><time>2026-04-21T14:41:43.926Z</time></trkpt><trkpt lat="44.9307301" lon="7.1773666"><ele>1424.0</ele><time>2026-04-21T14:41:44.926Z</time></trkpt><trkpt lat="44.9308007" lon="7.1773723"><ele>1424.0</ele><time>2026-04-21T14:41:45.926Z</time></trkpt><trkpt lat="44.9308667" lon="7.1773876"><ele>1424.0</ele><time>2026-04-21T14:41:46.927Z</time></trkpt><trkpt lat="44.9309764" lon="7.1774618"><ele>1422.4</ele><time>2026-04-21T14:41:48.927Z</time></trkpt><trkpt lat="44.9310872" lon="7.1775202"><ele>1420.8000000000002</ele><time>2026-04-21T14:41:50.928Z</time></trkpt><trkpt lat="44.9311864" lon="7.1775135"><ele>1419.1999999999998</ele><time>2026-04-21T14:41:52.928Z</time></trkpt><trkpt lat="44.9312844" lon="7.1775072"><ele>1417.6</ele><time>2026-04-21T14:41:54.926Z</time></trkpt><trkpt lat="44.9313598" lon="7.1774402"><ele>1416.0</ele><time>2026-04-21T14:41:57.927Z</time></trkpt><trkpt lat="44.9313333" lon="7.1773461"><ele>1413.0</ele><time>2026-04-21T14:41:59.927Z</time></trkpt><trkpt lat="44.9312537" lon="7.177266"><ele>1410.0</ele><time>2026-04-21T14:42:01.927Z</time></trkpt><trkpt lat="44.9311625" lon="7.1772652"><ele>1407.0</ele><time>2026-04-21T14:42:03.928Z</time></trkpt><trkpt lat="44.9310589" lon="7.1772261"><ele>1404.0</ele><time>2026-04-21T14:42:05.928Z</time></trkpt><trkpt lat="44.9310168" lon="7.1771523"><ele>1401.0</ele><time>2026-04-21T14:42:06.926Z</time></trkpt><trkpt lat="44.9309652" lon="7.1769782"><ele>1401.0</ele><time>2026-04-21T14:42:08.928Z</time></trkpt><trkpt lat="44.9309313" lon="7.1768907"><ele>1401.0</ele><time>2026-04-21T14:42:09.928Z</time></trkpt><trkpt lat="44.9308529" lon="7.176754"><ele>1401.0</ele><time>2026-04-21T14:42:11.928Z</time></trkpt><trkpt lat="44.9307956" lon="7.1766963"><ele>1401.0</ele><time>2026-04-21T14:42:12.926Z</time></trkpt><trkpt lat="44.9307357" lon="7.1766422"><ele>1401.0</ele><time>2026-04-21T14:42:13.927Z</time></trkpt><trkpt lat="44.9306734" lon="7.1765833"><ele>1401.0</ele><time>2026-04-21T14:42:14.927Z</time></trkpt><trkpt lat="44.9306072" lon="7.1765278"><ele>1399.1666666666667</ele><time>2026-04-21T14:42:15.927Z</time></trkpt><trkpt lat="44.9305475" lon="7.1764711"><ele>1397.3333333333333</ele><time>2026-04-21T14:42:16.927Z</time></trkpt><trkpt lat="44.9304768" lon="7.1764101"><ele>1395.5</ele><time>2026-04-21T14:42:17.927Z</time></trkpt><trkpt lat="44.9304121" lon="7.1763445"><ele>1393.6666666666665</ele><time>2026-04-21T14:42:18.927Z</time></trkpt><trkpt lat="44.9303447" lon="7.1762716"><ele>1391.8333333333333</ele><time>2026-04-21T14:42:19.926Z</time></trkpt><trkpt lat="44.9302928" lon="7.1761918"><ele>1390.0</ele><time>2026-04-21T14:42:20.926Z</time></trkpt><trkpt lat="44.9302365" lon="7.1761147"><ele>1390.0</ele><time>2026-04-21T14:42:21.927Z</time></trkpt><trkpt lat="44.9301866" lon="7.1760399"><ele>1390.0</ele><time>2026-04-21T14:42:22.926Z</time></trkpt><trkpt lat="44.9301389" lon="7.1759636"><ele>1390.0</ele><time>2026-04-21T14:42:23.927Z</time></trkpt><trkpt lat="44.930076" lon="7.1758184"><ele>1390.0</ele><time>2026-04-21T14:42:25.927Z</time></trkpt><trkpt lat="44.9299888" lon="7.1756823"><ele>1390.0</ele><time>2026-04-21T14:42:27.927Z</time></trkpt><trkpt lat="44.9299516" lon="7.1756082"><ele>1389.5</ele><time>2026-04-21T14:42:28.928Z</time></trkpt><trkpt lat="44.9299023" lon="7.1754348"><ele>1389.0</ele><time>2026-04-21T14:42:30.926Z</time></trkpt><trkpt lat="44.9298715" lon="7.175331"><ele>1388.5</ele><time>2026-04-21T14:42:31.927Z</time></trkpt><trkpt lat="44.9298346" lon="7.1752336"><ele>1388.0</ele><time>2026-04-21T14:42:32.927Z</time></trkpt><trkpt lat="44.9297929" lon="7.1751393"><ele>1387.5</ele><time>2026-04-21T14:42:33.927Z</time></trkpt><trkpt lat="44.9297452" lon="7.1750563"><ele>1387.0</ele><time>2026-04-21T14:42:34.927Z</time></trkpt><trkpt lat="44.9296942" lon="7.1749797"><ele>1387.0</ele><time>2026-04-21T14:42:35.928Z</time></trkpt><trkpt lat="44.9296398" lon="7.1749127"><ele>1387.0</ele><time>2026-04-21T14:42:36.928Z</time></trkpt><trkpt lat="44.9295881" lon="7.1748373"><ele>1387.0</ele><time>2026-04-21T14:42:37.928Z</time></trkpt><trkpt lat="44.9295384" lon="7.174767"><ele>1387.0</ele><time>2026-04-21T14:42:38.927Z</time></trkpt><trkpt lat="44.9294864" lon="7.174691"><ele>1387.0</ele><time>2026-04-21T14:42:39.927Z</time></trkpt><trkpt lat="44.9294293" lon="7.1746068"><ele>1387.0</ele><time>2026-04-21T14:42:40.926Z</time></trkpt><trkpt lat="44.9293729" lon="7.1745286"><ele>1385.5</ele><time>2026-04-21T14:42:41.927Z</time></trkpt><trkpt lat="44.9293121" lon="7.1744442"><ele>1384.0</ele><time>2026-04-21T14:42:42.927Z</time></trkpt><trkpt lat="44.9292536" lon="7.1743582"><ele>1382.5</ele><time>2026-04-21T14:42:43.928Z</time></trkpt><trkpt lat="44.9291963" lon="7.1742802"><ele>1381.0</ele><time>2026-04-21T14:42:44.928Z</time></trkpt><trkpt lat="44.9291304" lon="7.174215"><ele>1379.5</ele><time>2026-04-21T14:42:45.928Z</time></trkpt><trkpt lat="44.9290609" lon="7.1741659"><ele>1378.0</ele><time>2026-04-21T14:42:46.928Z</time></trkpt><trkpt lat="44.9289921" lon="7.1741003"><ele>1374.6000000000001</ele><time>2026-04-21T14:42:47.928Z</time></trkpt><trkpt lat="44.9289262" lon="7.1740088"><ele>1371.2</ele><time>2026-04-21T14:42:48.928Z</time></trkpt><trkpt lat="44.9288517" lon="7.1739051"><ele>1367.8</ele><time>2026-04-21T14:42:49.928Z</time></trkpt><trkpt lat="44.9287962" lon="7.1738059"><ele>1364.4</ele><time>2026-04-21T14:42:50.928Z</time></trkpt><trkpt lat="44.9287374" lon="7.1737064"><ele>1361.0</ele><time>2026-04-21T14:42:51.928Z</time></trkpt><trkpt lat="44.9286846" lon="7.1736277"><ele>1361.0</ele><time>2026-04-21T14:42:52.927Z</time></trkpt><trkpt lat="44.9286149" lon="7.173559"><ele>1361.0</ele><time>2026-04-21T14:42:53.927Z</time></trkpt><trkpt lat="44.9285439" lon="7.1735041"><ele>1361.0</ele><time>2026-04-21T14:42:54.928Z</time></trkpt><trkpt lat="44.9284684" lon="7.1734588"><ele>1361.0</ele><time>2026-04-21T14:42:55.928Z</time></trkpt><trkpt lat="44.9283862" lon="7.1734114"><ele>1361.0</ele><time>2026-04-21T14:42:56.927Z</time></trkpt><trkpt lat="44.9283114" lon="7.1733534"><ele>1361.0</ele><time>2026-04-21T14:42:57.928Z</time></trkpt><trkpt lat="44.9282412" lon="7.1732928"><ele>1360.7142857142856</ele><time>2026-04-21T14:42:58.927Z</time></trkpt><trkpt lat="44.9281723" lon="7.1732473"><ele>1360.4285714285713</ele><time>2026-04-21T14:42:59.928Z</time></trkpt><trkpt lat="44.9281083" lon="7.1732058"><ele>1360.142857142857</ele><time>2026-04-21T14:43:00.927Z</time></trkpt><trkpt lat="44.9280725" lon="7.1731198"><ele>1359.8571428571427</ele><time>2026-04-21T14:43:01.926Z</time></trkpt><trkpt lat="44.928035" lon="7.1730246"><ele>1359.5714285714284</ele><time>2026-04-21T14:43:02.927Z</time></trkpt><trkpt lat="44.9280039" lon="7.1729202"><ele>1359.2857142857142</ele><time>2026-04-21T14:43:03.927Z</time></trkpt><trkpt lat="44.9279837" lon="7.1728281"><ele>1359.0</ele><time>2026-04-21T14:43:04.927Z</time></trkpt><trkpt lat="44.92794" lon="7.1727064"><ele>1359.0</ele><time>2026-04-21T14:43:05.927Z</time></trkpt><trkpt lat="44.9278896" lon="7.1725883"><ele>1359.0</ele><time>2026-04-21T14:43:06.927Z</time></trkpt><trkpt lat="44.9278322" lon="7.1724531"><ele>1359.0</ele><time>2026-04-21T14:43:07.928Z</time></trkpt><trkpt lat="44.9277704" lon="7.1723307"><ele>1359.0</ele><time>2026-04-21T14:43:08.928Z</time></trkpt><trkpt lat="44.9277093" lon="7.1722145"><ele>1359.0</ele><time>2026-04-21T14:43:09.926Z</time></trkpt><trkpt lat="44.9276519" lon="7.1721143"><ele>1358.4</ele><time>2026-04-21T14:43:10.927Z</time></trkpt><trkpt lat="44.9276102" lon="7.1720144"><ele>1357.8000000000002</ele><time>2026-04-21T14:43:11.926Z</time></trkpt><trkpt lat="44.9275507" lon="7.1719062"><ele>1357.1999999999998</ele><time>2026-04-21T14:43:12.927Z</time></trkpt><trkpt lat="44.927504" lon="7.1717975"><ele>1356.6</ele><time>2026-04-21T14:43:13.928Z</time></trkpt><trkpt lat="44.9274646" lon="7.1716865"><ele>1356.0</ele><time>2026-04-21T14:43:14.927Z</time></trkpt><trkpt lat="44.9274459" lon="7.1715528"><ele>1354.1666666666667</ele><time>2026-04-21T14:43:15.927Z</time></trkpt><trkpt lat="44.9274313" lon="7.1714494"><ele>1352.3333333333333</ele><time>2026-04-21T14:43:16.927Z</time></trkpt><trkpt lat="44.927399" lon="7.1713441"><ele>1350.5</ele><time>2026-04-21T14:43:17.927Z</time></trkpt><trkpt lat="44.9273586" lon="7.1712475"><ele>1348.6666666666665</ele><time>2026-04-21T14:43:18.927Z</time></trkpt><trkpt lat="44.9273296" lon="7.1711475"><ele>1346.8333333333333</ele><time>2026-04-21T14:43:19.927Z</time></trkpt><trkpt lat="44.9272913" lon="7.1710586"><ele>1345.0</ele><time>2026-04-21T14:43:20.927Z</time></trkpt><trkpt lat="44.9272553" lon="7.1709705"><ele>1345.0</ele><time>2026-04-21T14:43:21.928Z</time></trkpt><trkpt lat="44.9272162" lon="7.1708949"><ele>1345.0</ele><time>2026-04-21T14:43:22.927Z</time></trkpt><trkpt lat="44.9271647" lon="7.1708112"><ele>1345.0</ele><time>2026-04-21T14:43:23.927Z</time></trkpt><trkpt lat="44.9271114" lon="7.1707362"><ele>1345.0</ele><time>2026-04-21T14:43:24.928Z</time></trkpt><trkpt lat="44.9270533" lon="7.1706476"><ele>1345.0</ele><time>2026-04-21T14:43:25.928Z</time></trkpt><trkpt lat="44.926992" lon="7.1705604"><ele>1345.0</ele><time>2026-04-21T14:43:26.927Z</time></trkpt><trkpt lat="44.9269345" lon="7.170487"><ele>1344.3333333333333</ele><time>2026-04-21T14:43:27.927Z</time></trkpt><trkpt lat="44.9268683" lon="7.1703997"><ele>1343.6666666666665</ele><time>2026-04-21T14:43:28.927Z</time></trkpt><trkpt lat="44.9268134" lon="7.1703072"><ele>1343.0</ele><time>2026-04-21T14:43:29.927Z</time></trkpt><trkpt lat="44.9267566" lon="7.1702285"><ele>1342.3333333333333</ele><time>2026-04-21T14:43:30.927Z</time></trkpt><trkpt lat="44.9266956" lon="7.1701448"><ele>1341.6666666666667</ele><time>2026-04-21T14:43:31.928Z</time></trkpt><trkpt lat="44.9266429" lon="7.1700583"><ele>1341.0</ele><time>2026-04-21T14:43:32.926Z</time></trkpt><trkpt lat="44.9265918" lon="7.1699653"><ele>1341.0</ele><time>2026-04-21T14:43:33.926Z</time></trkpt><trkpt lat="44.926547" lon="7.1698694"><ele>1341.0</ele><time>2026-04-21T14:43:34.927Z</time></trkpt><trkpt lat="44.9265115" lon="7.1697898"><ele>1341.0</ele><time>2026-04-21T14:43:35.927Z</time></trkpt><trkpt lat="44.926483" lon="7.1696708"><ele>1341.0</ele><time>2026-04-21T14:43:36.927Z</time></trkpt><trkpt lat="44.9264641" lon="7.1695806"><ele>1341.0</ele><time>2026-04-21T14:43:37.928Z</time></trkpt><trkpt lat="44.926442" lon="7.1694643"><ele>1341.0</ele><time>2026-04-21T14:43:38.928Z</time></trkpt><trkpt lat="44.9264097" lon="7.1693302"><ele>1339.1428571428573</ele><time>2026-04-21T14:43:39.927Z</time></trkpt><trkpt lat="44.9263825" lon="7.1692251"><ele>1337.2857142857142</ele><time>2026-04-21T14:43:40.927Z</time></trkpt><trkpt lat="44.9263571" lon="7.1691253"><ele>1335.4285714285716</ele><time>2026-04-21T14:43:41.928Z</time></trkpt><trkpt lat="44.9263457" lon="7.1690287"><ele>1333.5714285714287</ele><time>2026-04-21T14:43:42.928Z</time></trkpt><trkpt lat="44.9263471" lon="7.1689353"><ele>1331.7142857142858</ele><time>2026-04-21T14:43:43.927Z</time></trkpt><trkpt lat="44.9263419" lon="7.1688307"><ele>1329.857142857143</ele><time>2026-04-21T14:43:44.926Z</time></trkpt><trkpt lat="44.9263204" lon="7.1687325"><ele>1328.0</ele><time>2026-04-21T14:43:45.927Z</time></trkpt><trkpt lat="44.9262811" lon="7.1686102"><ele>1325.6666666666667</ele><time>2026-04-21T14:43:46.928Z</time></trkpt><trkpt lat="44.9262426" lon="7.1684937"><ele>1323.3333333333335</ele><time>2026-04-21T14:43:47.928Z</time></trkpt><trkpt lat="44.9262152" lon="7.1683754"><ele>1321.0</ele><time>2026-04-21T14:43:48.926Z</time></trkpt><trkpt lat="44.9261935" lon="7.1682568"><ele>1318.6666666666667</ele><time>2026-04-21T14:43:49.927Z</time></trkpt><trkpt lat="44.9261781" lon="7.1681541"><ele>1316.3333333333333</ele><time>2026-04-21T14:43:50.927Z</time></trkpt><trkpt lat="44.9261485" lon="7.1680531"><ele>1314.0</ele><time>2026-04-21T14:43:51.927Z</time></trkpt><trkpt lat="44.9261135" lon="7.1679508"><ele>1311.8333333333333</ele><time>2026-04-21T14:43:52.926Z</time></trkpt><trkpt lat="44.9260785" lon="7.1678478"><ele>1309.6666666666667</ele><time>2026-04-21T14:43:53.927Z</time></trkpt><trkpt lat="44.9260477" lon="7.1677465"><ele>1307.5</ele><time>2026-04-21T14:43:54.927Z</time></trkpt><trkpt lat="44.9260229" lon="7.1676346"><ele>1305.3333333333335</ele><time>2026-04-21T14:43:55.927Z</time></trkpt><trkpt lat="44.9260049" lon="7.1675302"><ele>1303.1666666666667</ele><time>2026-04-21T14:43:56.928Z</time></trkpt><trkpt lat="44.926035" lon="7.1673965"><ele>1301.0</ele><time>2026-04-21T14:43:57.928Z</time></trkpt><trkpt lat="44.9260594" lon="7.1672809"><ele>1299.1999999999998</ele><time>2026-04-21T14:43:58.928Z</time></trkpt><trkpt lat="44.9260817" lon="7.1671523"><ele>1297.3999999999999</ele><time>2026-04-21T14:43:59.926Z</time></trkpt><trkpt lat="44.9261107" lon="7.1670346"><ele>1295.6</ele><time>2026-04-21T14:44:00.926Z</time></trkpt><trkpt lat="44.9261283" lon="7.1668986"><ele>1293.8</ele><time>2026-04-21T14:44:01.927Z</time></trkpt><trkpt lat="44.9261455" lon="7.1667741"><ele>1292.0</ele><time>2026-04-21T14:44:02.927Z</time></trkpt><trkpt lat="44.9261495" lon="7.1666527"><ele>1291.6</ele><time>2026-04-21T14:44:03.928Z</time></trkpt><trkpt lat="44.9261587" lon="7.1665164"><ele>1291.1999999999998</ele><time>2026-04-21T14:44:04.927Z</time></trkpt><trkpt lat="44.9261617" lon="7.166393"><ele>1290.8</ele><time>2026-04-21T14:44:05.927Z</time></trkpt><trkpt lat="44.9261864" lon="7.1662647"><ele>1290.4</ele><time>2026-04-21T14:44:06.927Z</time></trkpt><trkpt lat="44.9261975" lon="7.1661443"><ele>1290.0</ele><time>2026-04-21T14:44:07.927Z</time></trkpt><trkpt lat="44.9262136" lon="7.1660126"><ele>1290.0</ele><time>2026-04-21T14:44:08.927Z</time></trkpt><trkpt lat="44.9262142" lon="7.1658836"><ele>1290.0</ele><time>2026-04-21T14:44:09.928Z</time></trkpt><trkpt lat="44.9262129" lon="7.1657495"><ele>1290.0</ele><time>2026-04-21T14:44:10.927Z</time></trkpt><trkpt lat="44.9262219" lon="7.1656275"><ele>1290.0</ele><time>2026-04-21T14:44:11.926Z</time></trkpt><trkpt lat="44.9262456" lon="7.1654853"><ele>1290.0</ele><time>2026-04-21T14:44:12.928Z</time></trkpt><trkpt lat="44.9262703" lon="7.1653734"><ele>1290.2</ele><time>2026-04-21T14:44:13.927Z</time></trkpt><trkpt lat="44.9263048" lon="7.1652436"><ele>1290.4</ele><time>2026-04-21T14:44:14.927Z</time></trkpt><trkpt lat="44.9263241" lon="7.165116"><ele>1290.6</ele><time>2026-04-21T14:44:15.927Z</time></trkpt><trkpt lat="44.92635" lon="7.164993"><ele>1290.8</ele><time>2026-04-21T14:44:16.927Z</time></trkpt><trkpt lat="44.9263755" lon="7.1648597"><ele>1291.0</ele><time>2026-04-21T14:44:17.927Z</time></trkpt><trkpt lat="44.9263981" lon="7.1647404"><ele>1290.1999999999998</ele><time>2026-04-21T14:44:18.927Z</time></trkpt><trkpt lat="44.9264266" lon="7.1646242"><ele>1289.3999999999999</ele><time>2026-04-21T14:44:19.926Z</time></trkpt><trkpt lat="44.9264481" lon="7.1645038"><ele>1288.6</ele><time>2026-04-21T14:44:20.926Z</time></trkpt><trkpt lat="44.9264762" lon="7.1643801"><ele>1287.8</ele><time>2026-04-21T14:44:21.927Z</time></trkpt><trkpt lat="44.9264964" lon="7.1642438"><ele>1287.0</ele><time>2026-04-21T14:44:22.927Z</time></trkpt><trkpt lat="44.9265013" lon="7.164115"><ele>1285.6666666666667</ele><time>2026-04-21T14:44:23.927Z</time></trkpt><trkpt lat="44.9265091" lon="7.1639854"><ele>1284.3333333333333</ele><time>2026-04-21T14:44:24.927Z</time></trkpt><trkpt lat="44.9265211" lon="7.1638694"><ele>1283.0</ele><time>2026-04-21T14:44:25.927Z</time></trkpt><trkpt lat="44.9265308" lon="7.1637527"><ele>1281.6666666666665</ele><time>2026-04-21T14:44:26.926Z</time></trkpt><trkpt lat="44.9265449" lon="7.163631"><ele>1280.3333333333333</ele><time>2026-04-21T14:44:27.925Z</time></trkpt><trkpt lat="44.9265536" lon="7.1635281"><ele>1279.0</ele><time>2026-04-21T14:44:28.926Z</time></trkpt><trkpt lat="44.9265679" lon="7.1634241"><ele>1279.0</ele><time>2026-04-21T14:44:29.926Z</time></trkpt><trkpt lat="44.9265777" lon="7.1632397"><ele>1279.0</ele><time>2026-04-21T14:44:31.926Z</time></trkpt><trkpt lat="44.9265688" lon="7.1631415"><ele>1279.0</ele><time>2026-04-21T14:44:32.925Z</time></trkpt><trkpt lat="44.9265534" lon="7.1630438"><ele>1279.0</ele><time>2026-04-21T14:44:33.926Z</time></trkpt><trkpt lat="44.9265374" lon="7.1629506"><ele>1279.0</ele><time>2026-04-21T14:44:34.925Z</time></trkpt><trkpt lat="44.9265159" lon="7.1628457"><ele>1279.0</ele><time>2026-04-21T14:44:35.925Z</time></trkpt><trkpt lat="44.926487" lon="7.1627445"><ele>1276.8333333333333</ele><time>2026-04-21T14:44:36.925Z</time></trkpt><trkpt lat="44.926454" lon="7.1626431"><ele>1274.6666666666665</ele><time>2026-04-21T14:44:37.926Z</time></trkpt><trkpt lat="44.9264256" lon="7.162549"><ele>1272.5</ele><time>2026-04-21T14:44:38.926Z</time></trkpt><trkpt lat="44.9263746" lon="7.1624332"><ele>1270.3333333333333</ele><time>2026-04-21T14:44:39.927Z</time></trkpt><trkpt lat="44.9263432" lon="7.1623177"><ele>1268.1666666666667</ele><time>2026-04-21T14:44:40.925Z</time></trkpt><trkpt lat="44.926307" lon="7.1622182"><ele>1266.0</ele><time>2026-04-21T14:44:41.926Z</time></trkpt><trkpt lat="44.9262699" lon="7.1621097"><ele>1263.1666666666667</ele><time>2026-04-21T14:44:42.926Z</time></trkpt><trkpt lat="44.9262348" lon="7.1619986"><ele>1260.3333333333333</ele><time>2026-04-21T14:44:43.926Z</time></trkpt><trkpt lat="44.9262068" lon="7.1618919"><ele>1257.5</ele><time>2026-04-21T14:44:44.927Z</time></trkpt><trkpt lat="44.9261859" lon="7.1617913"><ele>1254.6666666666665</ele><time>2026-04-21T14:44:45.926Z</time></trkpt><trkpt lat="44.926181" lon="7.1617017"><ele>1251.8333333333333</ele><time>2026-04-21T14:44:46.926Z</time></trkpt><trkpt lat="44.9261528" lon="7.1615455"><ele>1249.0</ele><time>2026-04-21T14:44:48.927Z</time></trkpt><trkpt lat="44.9261314" lon="7.1614029"><ele>1246.0</ele><time>2026-04-21T14:44:50.926Z</time></trkpt><trkpt lat="44.9260891" lon="7.1612748"><ele>1243.0</ele><time>2026-04-21T14:44:52.927Z</time></trkpt><trkpt lat="44.9260715" lon="7.1611763"><ele>1240.0</ele><time>2026-04-21T14:44:54.926Z</time></trkpt><trkpt lat="44.9261264" lon="7.1611191"><ele>1237.0</ele><time>2026-04-21T14:44:56.927Z</time></trkpt><trkpt lat="44.926192" lon="7.1611883"><ele>1234.0</ele><time>2026-04-21T14:44:58.926Z</time></trkpt><trkpt lat="44.9262764" lon="7.1613087"><ele>1231.0</ele><time>2026-04-21T14:45:00.926Z</time></trkpt><trkpt lat="44.9263486" lon="7.1613986"><ele>1231.0</ele><time>2026-04-21T14:45:02.926Z</time></trkpt><trkpt lat="44.9264334" lon="7.1615309"><ele>1231.0</ele><time>2026-04-21T14:45:04.926Z</time></trkpt><trkpt lat="44.9264808" lon="7.1615974"><ele>1231.0</ele><time>2026-04-21T14:45:05.927Z</time></trkpt><trkpt lat="44.9265461" lon="7.1616513"><ele>1231.0</ele><time>2026-04-21T14:45:06.926Z</time></trkpt><trkpt lat="44.9266165" lon="7.1616994"><ele>1231.0</ele><time>2026-04-21T14:45:07.925Z</time></trkpt><trkpt lat="44.9266921" lon="7.1617386"><ele>1231.0</ele><time>2026-04-21T14:45:08.927Z</time></trkpt><trkpt lat="44.9267658" lon="7.1617924"><ele>1230.5</ele><time>2026-04-21T14:45:09.925Z</time></trkpt><trkpt lat="44.9268399" lon="7.1618464"><ele>1230.0</ele><time>2026-04-21T14:45:10.926Z</time></trkpt><trkpt lat="44.9269124" lon="7.1619052"><ele>1229.5</ele><time>2026-04-21T14:45:11.927Z</time></trkpt><trkpt lat="44.9269731" lon="7.1619489"><ele>1229.0</ele><time>2026-04-21T14:45:12.926Z</time></trkpt><trkpt lat="44.9270308" lon="7.1619853"><ele>1228.5</ele><time>2026-04-21T14:45:13.926Z</time></trkpt><trkpt lat="44.9271345" lon="7.1620707"><ele>1228.0</ele><time>2026-04-21T14:45:15.927Z</time></trkpt><trkpt lat="44.9271952" lon="7.1621107"><ele>1228.0</ele><time>2026-04-21T14:45:16.926Z</time></trkpt><trkpt lat="44.9272448" lon="7.1621678"><ele>1228.0</ele><time>2026-04-21T14:45:17.927Z</time></trkpt><trkpt lat="44.9273052" lon="7.1622093"><ele>1228.0</ele><time>2026-04-21T14:45:18.925Z</time></trkpt><trkpt lat="44.9273639" lon="7.1622628"><ele>1228.0</ele><time>2026-04-21T14:45:19.925Z</time></trkpt><trkpt lat="44.9274237" lon="7.1623119"><ele>1228.0</ele><time>2026-04-21T14:45:20.925Z</time></trkpt><trkpt lat="44.9275338" lon="7.1624331"><ele>1228.0</ele><time>2026-04-21T14:45:22.926Z</time></trkpt><trkpt lat="44.9275824" lon="7.1625149"><ele>1225.0</ele><time>2026-04-21T14:45:23.926Z</time></trkpt><trkpt lat="44.9276208" lon="7.1626082"><ele>1222.0</ele><time>2026-04-21T14:45:24.926Z</time></trkpt><trkpt lat="44.9276658" lon="7.1626928"><ele>1219.0</ele><time>2026-04-21T14:45:25.927Z</time></trkpt><trkpt lat="44.9277076" lon="7.1627755"><ele>1216.0</ele><time>2026-04-21T14:45:26.926Z</time></trkpt><trkpt lat="44.9277438" lon="7.1628596"><ele>1213.0</ele><time>2026-04-21T14:45:27.926Z</time></trkpt><trkpt lat="44.927772" lon="7.1629469"><ele>1210.0</ele><time>2026-04-21T14:45:28.925Z</time></trkpt><trkpt lat="44.9277987" lon="7.1631056"><ele>1210.0</ele><time>2026-04-21T14:45:30.925Z</time></trkpt><trkpt lat="44.9277772" lon="7.163232"><ele>1210.0</ele><time>2026-04-21T14:45:32.925Z</time></trkpt><trkpt lat="44.9278055" lon="7.1633348"><ele>1210.0</ele><time>2026-04-21T14:45:34.925Z</time></trkpt><trkpt lat="44.927873" lon="7.1633238"><ele>1210.0</ele><time>2026-04-21T14:45:36.927Z</time></trkpt><trkpt lat="44.9279074" lon="7.1632341"><ele>1210.0</ele><time>2026-04-21T14:45:38.926Z</time></trkpt><trkpt lat="44.9279181" lon="7.1630608"><ele>1210.0</ele><time>2026-04-21T14:45:40.926Z</time></trkpt><trkpt lat="44.92796" lon="7.1628726"><ele>1210.0</ele><time>2026-04-21T14:45:42.926Z</time></trkpt><trkpt lat="44.927973" lon="7.1627653"><ele>1210.0</ele><time>2026-04-21T14:45:43.925Z</time></trkpt><trkpt lat="44.9280024" lon="7.1626714"><ele>1210.0</ele><time>2026-04-21T14:45:44.927Z</time></trkpt><trkpt lat="44.9280119" lon="7.1625771"><ele>1210.0</ele><time>2026-04-21T14:45:45.926Z</time></trkpt><trkpt lat="44.9280422" lon="7.1624219"><ele>1210.0</ele><time>2026-04-21T14:45:47.926Z</time></trkpt><trkpt lat="44.9280598" lon="7.1622507"><ele>1208.8333333333333</ele><time>2026-04-21T14:45:49.925Z</time></trkpt><trkpt lat="44.9280369" lon="7.162147"><ele>1207.6666666666665</ele><time>2026-04-21T14:45:50.926Z</time></trkpt><trkpt lat="44.9280357" lon="7.1620566"><ele>1206.5</ele><time>2026-04-21T14:45:51.927Z</time></trkpt><trkpt lat="44.9280217" lon="7.1619584"><ele>1205.3333333333333</ele><time>2026-04-21T14:45:52.926Z</time></trkpt><trkpt lat="44.9280216" lon="7.1617764"><ele>1204.1666666666667</ele><time>2026-04-21T14:45:54.926Z</time></trkpt><trkpt lat="44.9280227" lon="7.1616828"><ele>1203.0</ele><time>2026-04-21T14:45:55.926Z</time></trkpt><trkpt lat="44.9280138" lon="7.1615879"><ele>1200.5</ele><time>2026-04-21T14:45:56.926Z</time></trkpt><trkpt lat="44.9279994" lon="7.1614928"><ele>1198.0</ele><time>2026-04-21T14:45:57.927Z</time></trkpt><trkpt lat="44.9279815" lon="7.1613996"><ele>1195.5</ele><time>2026-04-21T14:45:58.926Z</time></trkpt><trkpt lat="44.9279599" lon="7.1613056"><ele>1193.0</ele><time>2026-04-21T14:45:59.926Z</time></trkpt><trkpt lat="44.9279351" lon="7.1612171"><ele>1190.5</ele><time>2026-04-21T14:46:00.927Z</time></trkpt><trkpt lat="44.9278813" lon="7.161079"><ele>1188.0</ele><time>2026-04-21T14:46:02.927Z</time></trkpt><trkpt lat="44.9278116" lon="7.160973"><ele>1188.0</ele><time>2026-04-21T14:46:04.926Z</time></trkpt><trkpt lat="44.9277315" lon="7.1608952"><ele>1188.0</ele><time>2026-04-21T14:46:06.926Z</time></trkpt><trkpt lat="44.9277271" lon="7.1607839"><ele>1188.0</ele><time>2026-04-21T14:46:08.927Z</time></trkpt><trkpt lat="44.9278172" lon="7.1607872"><ele>1188.0</ele><time>2026-04-21T14:46:10.927Z</time></trkpt><trkpt lat="44.9279145" lon="7.1608665"><ele>1188.0</ele><time>2026-04-21T14:46:12.926Z</time></trkpt><trkpt lat="44.9279789" lon="7.1609145"><ele>1188.0</ele><time>2026-04-21T14:46:13.926Z</time></trkpt><trkpt lat="44.9280442" lon="7.1609651"><ele>1188.0</ele><time>2026-04-21T14:46:14.925Z</time></trkpt><trkpt lat="44.9281066" lon="7.1610083"><ele>1188.0</ele><time>2026-04-21T14:46:15.925Z</time></trkpt><trkpt lat="44.9281628" lon="7.1610639"><ele>1188.0</ele><time>2026-04-21T14:46:16.927Z</time></trkpt><trkpt lat="44.928217" lon="7.161131"><ele>1188.0</ele><time>2026-04-21T14:46:17.927Z</time></trkpt><trkpt lat="44.9282661" lon="7.1612098"><ele>1188.0</ele><time>2026-04-21T14:46:18.927Z</time></trkpt><trkpt lat="44.9283058" lon="7.1613039"><ele>1188.0</ele><time>2026-04-21T14:46:19.926Z</time></trkpt><trkpt lat="44.9283417" lon="7.1614033"><ele>1188.0</ele><time>2026-04-21T14:46:20.925Z</time></trkpt><trkpt lat="44.9283788" lon="7.1615033"><ele>1188.0</ele><time>2026-04-21T14:46:21.926Z</time></trkpt><trkpt lat="44.928419" lon="7.1615998"><ele>1188.0</ele><time>2026-04-21T14:46:22.926Z</time></trkpt><trkpt lat="44.9284616" lon="7.1616938"><ele>1188.0</ele><time>2026-04-21T14:46:23.927Z</time></trkpt><trkpt lat="44.9285028" lon="7.1617894"><ele>1188.0</ele><time>2026-04-21T14:46:24.927Z</time></trkpt><trkpt lat="44.9285395" lon="7.1618887"><ele>1188.0</ele><time>2026-04-21T14:46:25.925Z</time></trkpt><trkpt lat="44.9285703" lon="7.1619815"><ele>1187.0</ele><time>2026-04-21T14:46:26.927Z</time></trkpt><trkpt lat="44.9286012" lon="7.1620828"><ele>1186.0</ele><time>2026-04-21T14:46:27.926Z</time></trkpt><trkpt lat="44.9286399" lon="7.1621816"><ele>1185.0</ele><time>2026-04-21T14:46:28.927Z</time></trkpt><trkpt lat="44.9286727" lon="7.162283"><ele>1184.0</ele><time>2026-04-21T14:46:29.925Z</time></trkpt><trkpt lat="44.9287005" lon="7.1623785"><ele>1183.0</ele><time>2026-04-21T14:46:30.926Z</time></trkpt><trkpt lat="44.9287291" lon="7.1624752"><ele>1182.0</ele><time>2026-04-21T14:46:31.927Z</time></trkpt><trkpt lat="44.9286923" lon="7.1625613"><ele>1182.0</ele><time>2026-04-21T14:46:32.926Z</time></trkpt><trkpt lat="44.9286834" lon="7.1627075"><ele>1182.0</ele><time>2026-04-21T14:46:34.927Z</time></trkpt><trkpt lat="44.9287484" lon="7.1627458"><ele>1182.0</ele><time>2026-04-21T14:46:36.926Z</time></trkpt><trkpt lat="44.9288078" lon="7.1626452"><ele>1182.0</ele><time>2026-04-21T14:46:38.927Z</time></trkpt><trkpt lat="44.9288619" lon="7.1624798"><ele>1182.0</ele><time>2026-04-21T14:46:40.925Z</time></trkpt><trkpt lat="44.9288852" lon="7.162386"><ele>1181.0</ele><time>2026-04-21T14:46:41.927Z</time></trkpt><trkpt lat="44.9289053" lon="7.1622869"><ele>1180.0</ele><time>2026-04-21T14:46:42.926Z</time></trkpt><trkpt lat="44.9289211" lon="7.1621838"><ele>1179.0</ele><time>2026-04-21T14:46:43.926Z</time></trkpt><trkpt lat="44.9289416" lon="7.1620673"><ele>1178.0</ele><time>2026-04-21T14:46:44.925Z</time></trkpt><trkpt lat="44.9289673" lon="7.1619611"><ele>1177.0</ele><time>2026-04-21T14:46:45.927Z</time></trkpt><trkpt lat="44.928984" lon="7.1618511"><ele>1176.0</ele><time>2026-04-21T14:46:46.926Z</time></trkpt><trkpt lat="44.928998" lon="7.1617333"><ele>1176.0</ele><time>2026-04-21T14:46:47.926Z</time></trkpt><trkpt lat="44.9290053" lon="7.1616246"><ele>1176.0</ele><time>2026-04-21T14:46:48.927Z</time></trkpt><trkpt lat="44.929022" lon="7.1615322"><ele>1176.0</ele><time>2026-04-21T14:46:49.926Z</time></trkpt><trkpt lat="44.9290257" lon="7.1614128"><ele>1176.0</ele><time>2026-04-21T14:46:50.925Z</time></trkpt><trkpt lat="44.9290113" lon="7.1613069"><ele>1176.0</ele><time>2026-04-21T14:46:51.927Z</time></trkpt><trkpt lat="44.9289907" lon="7.1612016"><ele>1176.0</ele><time>2026-04-21T14:46:52.926Z</time></trkpt><trkpt lat="44.9289777" lon="7.1611005"><ele>1175.0</ele><time>2026-04-21T14:46:53.927Z</time></trkpt><trkpt lat="44.9289608" lon="7.1609897"><ele>1174.0</ele><time>2026-04-21T14:46:54.927Z</time></trkpt><trkpt lat="44.9289437" lon="7.1608709"><ele>1173.0</ele><time>2026-04-21T14:46:55.927Z</time></trkpt><trkpt lat="44.9289325" lon="7.1607547"><ele>1172.0</ele><time>2026-04-21T14:46:56.926Z</time></trkpt><trkpt lat="44.9289392" lon="7.1606399"><ele>1171.0</ele><time>2026-04-21T14:46:57.926Z</time></trkpt><trkpt lat="44.9289334" lon="7.1605363"><ele>1170.0</ele><time>2026-04-21T14:46:58.926Z</time></trkpt><trkpt lat="44.9289299" lon="7.1604279"><ele>1169.4285714285716</ele><time>2026-04-21T14:46:59.925Z</time></trkpt><trkpt lat="44.9289538" lon="7.1603338"><ele>1168.857142857143</ele><time>2026-04-21T14:47:00.925Z</time></trkpt><trkpt lat="44.928989" lon="7.1602372"><ele>1168.2857142857142</ele><time>2026-04-21T14:47:01.926Z</time></trkpt><trkpt lat="44.9290501" lon="7.1601828"><ele>1167.7142857142858</ele><time>2026-04-21T14:47:02.927Z</time></trkpt><trkpt lat="44.929135" lon="7.1601525"><ele>1167.142857142857</ele><time>2026-04-21T14:47:03.927Z</time></trkpt><trkpt lat="44.9291913" lon="7.1600974"><ele>1166.5714285714287</ele><time>2026-04-21T14:47:04.927Z</time></trkpt><trkpt lat="44.929241" lon="7.1600326"><ele>1166.0</ele><time>2026-04-21T14:47:05.927Z</time></trkpt><trkpt lat="44.9292801" lon="7.1599462"><ele>1162.0</ele><time>2026-04-21T14:47:06.926Z</time></trkpt><trkpt lat="44.9293147" lon="7.1598421"><ele>1158.0</ele><time>2026-04-21T14:47:07.926Z</time></trkpt><trkpt lat="44.9293454" lon="7.1597398"><ele>1154.0</ele><time>2026-04-21T14:47:08.927Z</time></trkpt><trkpt lat="44.9293798" lon="7.1596422"><ele>1150.0</ele><time>2026-04-21T14:47:09.925Z</time></trkpt><trkpt lat="44.929403" lon="7.1595446"><ele>1146.0</ele><time>2026-04-21T14:47:10.926Z</time></trkpt><trkpt lat="44.9294092" lon="7.1594425"><ele>1142.0</ele><time>2026-04-21T14:47:11.926Z</time></trkpt><trkpt lat="44.9294086" lon="7.1593417"><ele>1142.0</ele><time>2026-04-21T14:47:12.926Z</time></trkpt><trkpt lat="44.9293943" lon="7.1592446"><ele>1142.0</ele><time>2026-04-21T14:47:13.926Z</time></trkpt><trkpt lat="44.9293719" lon="7.1591575"><ele>1142.0</ele><time>2026-04-21T14:47:14.926Z</time></trkpt><trkpt lat="44.929303" lon="7.1590393"><ele>1142.0</ele><time>2026-04-21T14:47:16.927Z</time></trkpt><trkpt lat="44.9292521" lon="7.1589618"><ele>1142.0</ele><time>2026-04-21T14:47:18.925Z</time></trkpt><trkpt lat="44.929255" lon="7.158853"><ele>1142.0</ele><time>2026-04-21T14:47:20.927Z</time></trkpt><trkpt lat="44.9293307" lon="7.1588136"><ele>1142.0</ele><time>2026-04-21T14:47:22.926Z</time></trkpt><trkpt lat="44.9294321" lon="7.1588502"><ele>1142.0</ele><time>2026-04-21T14:47:24.927Z</time></trkpt><trkpt lat="44.9295361" lon="7.1589446"><ele>1142.0</ele><time>2026-04-21T14:47:26.927Z</time></trkpt><trkpt lat="44.9295715" lon="7.1590318"><ele>1142.0</ele><time>2026-04-21T14:47:27.926Z</time></trkpt><trkpt lat="44.929594" lon="7.1591464"><ele>1142.0</ele><time>2026-04-21T14:47:28.927Z</time></trkpt><trkpt lat="44.9296138" lon="7.1592656"><ele>1142.0</ele><time>2026-04-21T14:47:29.927Z</time></trkpt><trkpt lat="44.9296337" lon="7.159381"><ele>1142.0</ele><time>2026-04-21T14:47:30.927Z</time></trkpt><trkpt lat="44.9296476" lon="7.1594926"><ele>1142.0</ele><time>2026-04-21T14:47:31.927Z</time></trkpt><trkpt lat="44.9296589" lon="7.1595857"><ele>1142.0</ele><time>2026-04-21T14:47:32.926Z</time></trkpt><trkpt lat="44.9296607" lon="7.1597442"><ele>1142.0</ele><time>2026-04-21T14:47:34.926Z</time></trkpt><trkpt lat="44.9296608" lon="7.1598706"><ele>1142.0</ele><time>2026-04-21T14:47:36.925Z</time></trkpt><trkpt lat="44.9297451" lon="7.1598662"><ele>1142.0</ele><time>2026-04-21T14:47:39.926Z</time></trkpt><trkpt lat="44.9297839" lon="7.1597468"><ele>1142.0</ele><time>2026-04-21T14:47:41.927Z</time></trkpt><trkpt lat="44.9298142" lon="7.1596493"><ele>1142.0</ele><time>2026-04-21T14:47:42.926Z</time></trkpt><trkpt lat="44.9298416" lon="7.1595417"><ele>1142.0</ele><time>2026-04-21T14:47:43.927Z</time></trkpt><trkpt lat="44.9298734" lon="7.1594019"><ele>1142.0</ele><time>2026-04-21T14:47:44.925Z</time></trkpt><trkpt lat="44.9298909" lon="7.1592587"><ele>1142.0</ele><time>2026-04-21T14:47:45.925Z</time></trkpt><trkpt lat="44.929911" lon="7.1591273"><ele>1142.0</ele><time>2026-04-21T14:47:46.927Z</time></trkpt><trkpt lat="44.9299365" lon="7.1590028"><ele>1142.0</ele><time>2026-04-21T14:47:47.926Z</time></trkpt><trkpt lat="44.9299739" lon="7.1588874"><ele>1142.0</ele><time>2026-04-21T14:47:48.926Z</time></trkpt><trkpt lat="44.9300177" lon="7.1587699"><ele>1142.0</ele><time>2026-04-21T14:47:49.925Z</time></trkpt><trkpt lat="44.9300459" lon="7.1586355"><ele>1140.5</ele><time>2026-04-21T14:47:50.927Z</time></trkpt><trkpt lat="44.9300554" lon="7.1584848"><ele>1139.0</ele><time>2026-04-21T14:47:51.927Z</time></trkpt><trkpt lat="44.9300543" lon="7.1583269"><ele>1137.5</ele><time>2026-04-21T14:47:52.926Z</time></trkpt><trkpt lat="44.9300425" lon="7.1581625"><ele>1136.0</ele><time>2026-04-21T14:47:53.926Z</time></trkpt><trkpt lat="44.9300239" lon="7.1579987"><ele>1133.5</ele><time>2026-04-21T14:47:54.926Z</time></trkpt><trkpt lat="44.9300079" lon="7.1578291"><ele>1131.0</ele><time>2026-04-21T14:47:55.927Z</time></trkpt><trkpt lat="44.9300055" lon="7.1576525"><ele>1128.5</ele><time>2026-04-21T14:47:56.927Z</time></trkpt><trkpt lat="44.930017" lon="7.1574719"><ele>1126.0</ele><time>2026-04-21T14:47:57.927Z</time></trkpt><trkpt lat="44.9300343" lon="7.157303"><ele>1123.8</ele><time>2026-04-21T14:47:58.927Z</time></trkpt><trkpt lat="44.9300578" lon="7.1571495"><ele>1121.6</ele><time>2026-04-21T14:47:59.926Z</time></trkpt><trkpt lat="44.9300781" lon="7.157023"><ele>1119.4</ele><time>2026-04-21T14:48:00.926Z</time></trkpt><trkpt lat="44.9300877" lon="7.1569055"><ele>1117.2</ele><time>2026-04-21T14:48:01.926Z</time></trkpt><trkpt lat="44.9300795" lon="7.1568016"><ele>1115.0</ele><time>2026-04-21T14:48:02.926Z</time></trkpt><trkpt lat="44.9300395" lon="7.1566761"><ele>1115.0</ele><time>2026-04-21T14:48:04.925Z</time></trkpt><trkpt lat="44.9299671" lon="7.1566178"><ele>1115.0</ele><time>2026-04-21T14:48:06.927Z</time></trkpt><trkpt lat="44.9298874" lon="7.1566235"><ele>1115.0</ele><time>2026-04-21T14:48:08.927Z</time></trkpt><trkpt lat="44.929797" lon="7.1567008"><ele>1115.0</ele><time>2026-04-21T14:48:10.927Z</time></trkpt><trkpt lat="44.9297415" lon="7.156753"><ele>1115.0</ele><time>2026-04-21T14:48:11.926Z</time></trkpt><trkpt lat="44.9296845" lon="7.1568075"><ele>1115.0</ele><time>2026-04-21T14:48:12.925Z</time></trkpt><trkpt lat="44.9296232" lon="7.1568747"><ele>1115.0</ele><time>2026-04-21T14:48:13.927Z</time></trkpt><trkpt lat="44.9295638" lon="7.1569447"><ele>1115.0</ele><time>2026-04-21T14:48:14.927Z</time></trkpt><trkpt lat="44.9294993" lon="7.1570129"><ele>1115.0</ele><time>2026-04-21T14:48:15.927Z</time></trkpt><trkpt lat="44.9294297" lon="7.1570736"><ele>1115.0</ele><time>2026-04-21T14:48:16.926Z</time></trkpt><trkpt lat="44.929356" lon="7.1571212"><ele>1115.0</ele><time>2026-04-21T14:48:17.925Z</time></trkpt><trkpt lat="44.9292842" lon="7.1571634"><ele>1115.0</ele><time>2026-04-21T14:48:18.925Z</time></trkpt><trkpt lat="44.9292111" lon="7.1571997"><ele>1113.6</ele><time>2026-04-21T14:48:19.926Z</time></trkpt><trkpt lat="44.9291354" lon="7.157235"><ele>1112.2</ele><time>2026-04-21T14:48:20.926Z</time></trkpt><trkpt lat="44.9290568" lon="7.1572765"><ele>1110.8</ele><time>2026-04-21T14:48:21.926Z</time></trkpt><trkpt lat="44.9289756" lon="7.1573349"><ele>1109.4</ele><time>2026-04-21T14:48:22.926Z</time></trkpt><trkpt lat="44.9288711" lon="7.1574146"><ele>1108.0</ele><time>2026-04-21T14:48:23.926Z</time></trkpt><trkpt lat="44.9287897" lon="7.1574819"><ele>1109.1666666666665</ele><time>2026-04-21T14:48:24.926Z</time></trkpt><trkpt lat="44.9287161" lon="7.1575448"><ele>1110.3333333333333</ele><time>2026-04-21T14:48:25.926Z</time></trkpt><trkpt lat="44.9286461" lon="7.1575985"><ele>1111.5</ele><time>2026-04-21T14:48:26.926Z</time></trkpt><trkpt lat="44.9285706" lon="7.1576167"><ele>1112.6666666666667</ele><time>2026-04-21T14:48:27.927Z</time></trkpt><trkpt lat="44.9284891" lon="7.1576041"><ele>1113.8333333333335</ele><time>2026-04-21T14:48:28.927Z</time></trkpt><trkpt lat="44.9284122" lon="7.1575551"><ele>1115.0</ele><time>2026-04-21T14:48:29.926Z</time></trkpt><trkpt lat="44.9283513" lon="7.1574937"><ele>1115.0</ele><time>2026-04-21T14:48:30.926Z</time></trkpt><trkpt lat="44.9282858" lon="7.1574482"><ele>1115.0</ele><time>2026-04-21T14:48:31.925Z</time></trkpt><trkpt lat="44.9282145" lon="7.1574206"><ele>1115.0</ele><time>2026-04-21T14:48:32.925Z</time></trkpt><trkpt lat="44.9281473" lon="7.1574209"><ele>1115.0</ele><time>2026-04-21T14:48:33.926Z</time></trkpt><trkpt lat="44.9280549" lon="7.1573583"><ele>1115.0</ele><time>2026-04-21T14:48:35.927Z</time></trkpt><trkpt lat="44.9280824" lon="7.1572658"><ele>1115.0</ele><time>2026-04-21T14:48:37.926Z</time></trkpt><trkpt lat="44.928174" lon="7.1572291"><ele>1113.6</ele><time>2026-04-21T14:48:39.926Z</time></trkpt><trkpt lat="44.9282444" lon="7.1572306"><ele>1112.2</ele><time>2026-04-21T14:48:40.926Z</time></trkpt><trkpt lat="44.9283259" lon="7.1572492"><ele>1110.8</ele><time>2026-04-21T14:48:41.926Z</time></trkpt><trkpt lat="44.9284194" lon="7.1572623"><ele>1109.4</ele><time>2026-04-21T14:48:42.926Z</time></trkpt><trkpt lat="44.9285136" lon="7.1572327"><ele>1108.0</ele><time>2026-04-21T14:48:43.926Z</time></trkpt><trkpt lat="44.9286079" lon="7.1571591"><ele>1108.0</ele><time>2026-04-21T14:48:44.926Z</time></trkpt><trkpt lat="44.9287049" lon="7.1570623"><ele>1108.0</ele><time>2026-04-21T14:48:45.926Z</time></trkpt><trkpt lat="44.9288139" lon="7.1569516"><ele>1108.0</ele><time>2026-04-21T14:48:46.926Z</time></trkpt><trkpt lat="44.9289293" lon="7.1568202"><ele>1108.0</ele><time>2026-04-21T14:48:47.925Z</time></trkpt><trkpt lat="44.9290558" lon="7.1566599"><ele>1104.3333333333333</ele><time>2026-04-21T14:48:48.927Z</time></trkpt><trkpt lat="44.9291762" lon="7.1564975"><ele>1100.6666666666667</ele><time>2026-04-21T14:48:49.927Z</time></trkpt><trkpt lat="44.9292861" lon="7.1563352"><ele>1097.0</ele><time>2026-04-21T14:48:50.927Z</time></trkpt><trkpt lat="44.9293856" lon="7.1561656"><ele>1097.0</ele><time>2026-04-21T14:48:51.927Z</time></trkpt><trkpt lat="44.9294702" lon="7.1560025"><ele>1097.0</ele><time>2026-04-21T14:48:52.927Z</time></trkpt><trkpt lat="44.9295416" lon="7.1558652"><ele>1097.0</ele><time>2026-04-21T14:48:53.927Z</time></trkpt><trkpt lat="44.9296112" lon="7.1557459"><ele>1097.0</ele><time>2026-04-21T14:48:54.926Z</time></trkpt><trkpt lat="44.9296828" lon="7.1556452"><ele>1092.8</ele><time>2026-04-21T14:48:55.927Z</time></trkpt><trkpt lat="44.9297689" lon="7.1555581"><ele>1088.6</ele><time>2026-04-21T14:48:56.926Z</time></trkpt><trkpt lat="44.9298582" lon="7.1554801"><ele>1084.3999999999999</ele><time>2026-04-21T14:48:57.926Z</time></trkpt><trkpt lat="44.929947" lon="7.1554085"><ele>1080.2</ele><time>2026-04-21T14:48:58.926Z</time></trkpt><trkpt lat="44.9300446" lon="7.1553579"><ele>1076.0</ele><time>2026-04-21T14:48:59.925Z</time></trkpt><trkpt lat="44.9301646" lon="7.15533"><ele>1074.5</ele><time>2026-04-21T14:49:00.925Z</time></trkpt><trkpt lat="44.9302935" lon="7.1553117"><ele>1073.0</ele><time>2026-04-21T14:49:01.925Z</time></trkpt><trkpt lat="44.9304175" lon="7.1552967"><ele>1071.5</ele><time>2026-04-21T14:49:02.926Z</time></trkpt><trkpt lat="44.9305312" lon="7.1552842"><ele>1070.0</ele><time>2026-04-21T14:49:03.926Z</time></trkpt><trkpt lat="44.930636" lon="7.1553004"><ele>1070.0</ele><time>2026-04-21T14:49:04.926Z</time></trkpt><trkpt lat="44.9307364" lon="7.1553543"><ele>1070.0</ele><time>2026-04-21T14:49:05.927Z</time></trkpt><trkpt lat="44.9308425" lon="7.1554045"><ele>1070.0</ele><time>2026-04-21T14:49:06.927Z</time></trkpt><trkpt lat="44.9309297" lon="7.1554167"><ele>1070.0</ele><time>2026-04-21T14:49:07.927Z</time></trkpt><trkpt lat="44.9310048" lon="7.1554221"><ele>1070.0</ele><time>2026-04-21T14:49:08.926Z</time></trkpt><trkpt lat="44.9310727" lon="7.1554236"><ele>1068.5</ele><time>2026-04-21T14:49:09.926Z</time></trkpt><trkpt lat="44.9311826" lon="7.1554415"><ele>1067.0</ele><time>2026-04-21T14:49:11.925Z</time></trkpt><trkpt lat="44.9312664" lon="7.1554358"><ele>1065.5</ele><time>2026-04-21T14:49:13.926Z</time></trkpt><trkpt lat="44.9312815" lon="7.1553284"><ele>1064.0</ele><time>2026-04-21T14:49:16.925Z</time></trkpt><trkpt lat="44.931201" lon="7.1552924"><ele>1062.5</ele><time>2026-04-21T14:49:18.927Z</time></trkpt><trkpt lat="44.9311288" lon="7.1552625"><ele>1061.0</ele><time>2026-04-21T14:49:19.927Z</time></trkpt><trkpt lat="44.9310417" lon="7.1552119"><ele>1061.0</ele><time>2026-04-21T14:49:20.925Z</time></trkpt><trkpt lat="44.9309471" lon="7.1551351"><ele>1061.0</ele><time>2026-04-21T14:49:21.926Z</time></trkpt><trkpt lat="44.9308559" lon="7.1550348"><ele>1061.0</ele><time>2026-04-21T14:49:22.925Z</time></trkpt><trkpt lat="44.9307667" lon="7.1549325"><ele>1061.0</ele><time>2026-04-21T14:49:23.925Z</time></trkpt><trkpt lat="44.9306883" lon="7.1548184"><ele>1059.0</ele><time>2026-04-21T14:49:24.926Z</time></trkpt><trkpt lat="44.930611" lon="7.1547113"><ele>1057.0</ele><time>2026-04-21T14:49:25.926Z</time></trkpt><trkpt lat="44.9305338" lon="7.1546145"><ele>1055.0</ele><time>2026-04-21T14:49:26.926Z</time></trkpt><trkpt lat="44.9304518" lon="7.1545138"><ele>1053.0</ele><time>2026-04-21T14:49:27.926Z</time></trkpt><trkpt lat="44.9303528" lon="7.1544254"><ele>1051.0</ele><time>2026-04-21T14:49:28.926Z</time></trkpt><trkpt lat="44.9302468" lon="7.1543497"><ele>1051.0</ele><time>2026-04-21T14:49:29.925Z</time></trkpt><trkpt lat="44.930143" lon="7.154279"><ele>1051.0</ele><time>2026-04-21T14:49:30.924Z</time></trkpt><trkpt lat="44.9300358" lon="7.1542165"><ele>1051.0</ele><time>2026-04-21T14:49:31.926Z</time></trkpt><trkpt lat="44.9299237" lon="7.154175"><ele>1051.0</ele><time>2026-04-21T14:49:32.926Z</time></trkpt><trkpt lat="44.9298071" lon="7.1541629"><ele>1051.3999999999999</ele><time>2026-04-21T14:49:33.926Z</time></trkpt><trkpt lat="44.9296898" lon="7.1541653"><ele>1051.8</ele><time>2026-04-21T14:49:34.925Z</time></trkpt><trkpt lat="44.9295826" lon="7.1541879"><ele>1052.1999999999998</ele><time>2026-04-21T14:49:35.925Z</time></trkpt><trkpt lat="44.9294803" lon="7.1542211"><ele>1052.6</ele><time>2026-04-21T14:49:36.924Z</time></trkpt><trkpt lat="44.9293858" lon="7.1542567"><ele>1053.0</ele><time>2026-04-21T14:49:37.925Z</time></trkpt><trkpt lat="44.9292941" lon="7.1542948"><ele>1052.0</ele><time>2026-04-21T14:49:38.925Z</time></trkpt><trkpt lat="44.9292106" lon="7.1543213"><ele>1051.0</ele><time>2026-04-21T14:49:39.925Z</time></trkpt><trkpt lat="44.9291424" lon="7.1543378"><ele>1050.0</ele><time>2026-04-21T14:49:40.925Z</time></trkpt><trkpt lat="44.9290312" lon="7.1542982"><ele>1049.0</ele><time>2026-04-21T14:49:42.926Z</time></trkpt><trkpt lat="44.9290134" lon="7.1541523"><ele>1048.0</ele><time>2026-04-21T14:49:44.925Z</time></trkpt><trkpt lat="44.9290499" lon="7.1540566"><ele>1043.0</ele><time>2026-04-21T14:49:45.925Z</time></trkpt><trkpt lat="44.929147" lon="7.1539772"><ele>1038.0</ele><time>2026-04-21T14:49:46.924Z</time></trkpt><trkpt lat="44.9292715" lon="7.1538841"><ele>1033.0</ele><time>2026-04-21T14:49:47.925Z</time></trkpt><trkpt lat="44.9293899" lon="7.1537876"><ele>1028.0</ele><time>2026-04-21T14:49:48.924Z</time></trkpt><trkpt lat="44.9294991" lon="7.1537166"><ele>1028.0</ele><time>2026-04-21T14:49:49.925Z</time></trkpt><trkpt lat="44.9295964" lon="7.15366"><ele>1028.0</ele><time>2026-04-21T14:49:50.925Z</time></trkpt><trkpt lat="44.9296788" lon="7.1536146"><ele>1028.0</ele><time>2026-04-21T14:49:51.926Z</time></trkpt><trkpt lat="44.9297411" lon="7.1535739"><ele>1028.0</ele><time>2026-04-21T14:49:52.925Z</time></trkpt><trkpt lat="44.9298038" lon="7.1534665"><ele>1028.0</ele><time>2026-04-21T14:49:54.926Z</time></trkpt><trkpt lat="44.9297245" lon="7.1533555"><ele>1028.0</ele><time>2026-04-21T14:49:56.926Z</time></trkpt><trkpt lat="44.9296549" lon="7.1533508"><ele>1028.0</ele><time>2026-04-21T14:49:57.925Z</time></trkpt><trkpt lat="44.9295837" lon="7.1533682"><ele>1028.0</ele><time>2026-04-21T14:49:58.925Z</time></trkpt><trkpt lat="44.9294778" lon="7.153402"><ele>1028.0</ele><time>2026-04-21T14:49:59.925Z</time></trkpt><trkpt lat="44.9293519" lon="7.1534468"><ele>1028.0</ele><time>2026-04-21T14:50:00.926Z</time></trkpt><trkpt lat="44.9292083" lon="7.1534655"><ele>1026.3333333333335</ele><time>2026-04-21T14:50:01.925Z</time></trkpt><trkpt lat="44.929032" lon="7.1535496"><ele>1024.6666666666667</ele><time>2026-04-21T14:50:02.925Z</time></trkpt><trkpt lat="44.9288678" lon="7.1536134"><ele>1023.0</ele><time>2026-04-21T14:50:03.924Z</time></trkpt><trkpt lat="44.9287088" lon="7.1536639"><ele>1023.0</ele><time>2026-04-21T14:50:04.925Z</time></trkpt><trkpt lat="44.9285477" lon="7.1536989"><ele>1023.0</ele><time>2026-04-21T14:50:05.924Z</time></trkpt><trkpt lat="44.9283966" lon="7.1537193"><ele>1023.0</ele><time>2026-04-21T14:50:06.926Z</time></trkpt><trkpt lat="44.9282441" lon="7.1537354"><ele>1019.25</ele><time>2026-04-21T14:50:07.925Z</time></trkpt><trkpt lat="44.9280984" lon="7.153761"><ele>1015.5</ele><time>2026-04-21T14:50:08.925Z</time></trkpt><trkpt lat="44.9279603" lon="7.1537973"><ele>1011.75</ele><time>2026-04-21T14:50:09.925Z</time></trkpt><trkpt lat="44.9278357" lon="7.153835"><ele>1008.0</ele><time>2026-04-21T14:50:10.925Z</time></trkpt><trkpt lat="44.9277305" lon="7.1538506"><ele>1008.0</ele><time>2026-04-21T14:50:11.925Z</time></trkpt><trkpt lat="44.9276373" lon="7.1538468"><ele>1008.0</ele><time>2026-04-21T14:50:12.926Z</time></trkpt><trkpt lat="44.9275647" lon="7.1538331"><ele>1008.0</ele><time>2026-04-21T14:50:13.926Z</time></trkpt><trkpt lat="44.9274969" lon="7.1537979"><ele>1008.0</ele><time>2026-04-21T14:50:14.926Z</time></trkpt><trkpt lat="44.92746" lon="7.1536605"><ele>1008.0</ele><time>2026-04-21T14:50:16.924Z</time></trkpt><trkpt lat="44.9275671" lon="7.1535755"><ele>1008.0</ele><time>2026-04-21T14:50:18.924Z</time></trkpt><trkpt lat="44.9276629" lon="7.1535597"><ele>1008.0</ele><time>2026-04-21T14:50:19.924Z</time></trkpt><trkpt lat="44.9277749" lon="7.1535235"><ele>1008.0</ele><time>2026-04-21T14:50:20.925Z</time></trkpt><trkpt lat="44.9278956" lon="7.1534458"><ele>1008.0</ele><time>2026-04-21T14:50:21.926Z</time></trkpt><trkpt lat="44.928022" lon="7.1533358"><ele>1008.0</ele><time>2026-04-21T14:50:22.925Z</time></trkpt><trkpt lat="44.9281398" lon="7.1532299"><ele>1008.0</ele><time>2026-04-21T14:50:23.924Z</time></trkpt><trkpt lat="44.9282501" lon="7.1531264"><ele>1008.0</ele><time>2026-04-21T14:50:24.926Z</time></trkpt><trkpt lat="44.9283478" lon="7.1530084"><ele>1008.0</ele><time>2026-04-21T14:50:25.925Z</time></trkpt><trkpt lat="44.9284253" lon="7.1528665"><ele>1005.75</ele><time>2026-04-21T14:50:26.924Z</time></trkpt><trkpt lat="44.9284993" lon="7.1527194"><ele>1003.5</ele><time>2026-04-21T14:50:27.926Z</time></trkpt><trkpt lat="44.9285641" lon="7.1525941"><ele>1001.25</ele><time>2026-04-21T14:50:28.925Z</time></trkpt><trkpt lat="44.9286434" lon="7.1524971"><ele>999.0</ele><time>2026-04-21T14:50:29.925Z</time></trkpt><trkpt lat="44.9287607" lon="7.1524275"><ele>992.0</ele><time>2026-04-21T14:50:30.925Z</time></trkpt><trkpt lat="44.9289106" lon="7.1523511"><ele>985.0</ele><time>2026-04-21T14:50:31.926Z</time></trkpt><trkpt lat="44.929049" lon="7.1522754"><ele>978.0</ele><time>2026-04-21T14:50:32.925Z</time></trkpt><trkpt lat="44.9291701" lon="7.1522112"><ele>971.0</ele><time>2026-04-21T14:50:33.924Z</time></trkpt><trkpt lat="44.9292927" lon="7.1521684"><ele>971.0</ele><time>2026-04-21T14:50:34.926Z</time></trkpt><trkpt lat="44.9294173" lon="7.1521502"><ele>971.0</ele><time>2026-04-21T14:50:35.926Z</time></trkpt><trkpt lat="44.9295517" lon="7.1521572"><ele>971.0</ele><time>2026-04-21T14:50:36.926Z</time></trkpt><trkpt lat="44.9296867" lon="7.1521822"><ele>971.0</ele><time>2026-04-21T14:50:37.925Z</time></trkpt><trkpt lat="44.9298183" lon="7.1522095"><ele>971.0</ele><time>2026-04-21T14:50:38.926Z</time></trkpt><trkpt lat="44.9299434" lon="7.1522457"><ele>971.0</ele><time>2026-04-21T14:50:39.925Z</time></trkpt><trkpt lat="44.9300646" lon="7.1522891"><ele>971.0</ele><time>2026-04-21T14:50:40.925Z</time></trkpt><trkpt lat="44.9301844" lon="7.1523174"><ele>971.0</ele><time>2026-04-21T14:50:41.926Z</time></trkpt><trkpt lat="44.9303125" lon="7.1523251"><ele>973.5999999999999</ele><time>2026-04-21T14:50:42.924Z</time></trkpt><trkpt lat="44.9304185" lon="7.1523164"><ele>976.1999999999999</ele><time>2026-04-21T14:50:43.925Z</time></trkpt><trkpt lat="44.9305088" lon="7.152312"><ele>978.8000000000001</ele><time>2026-04-21T14:50:44.926Z</time></trkpt><trkpt lat="44.9305771" lon="7.1523072"><ele>981.4000000000001</ele><time>2026-04-21T14:50:45.926Z</time></trkpt><trkpt lat="44.9306781" lon="7.1522748"><ele>984.0</ele><time>2026-04-21T14:50:47.925Z</time></trkpt><trkpt lat="44.9306718" lon="7.1521443"><ele>984.0</ele><time>2026-04-21T14:50:49.926Z</time></trkpt><trkpt lat="44.9306144" lon="7.1520991"><ele>984.0000000000001</ele><time>2026-04-21T14:50:50.925Z</time></trkpt><trkpt lat="44.9305258" lon="7.1520751"><ele>984.0000000000001</ele><time>2026-04-21T14:50:51.925Z</time></trkpt><trkpt lat="44.9304232" lon="7.1520485"><ele>984.0</ele><time>2026-04-21T14:50:52.926Z</time></trkpt><trkpt lat="44.9302961" lon="7.1520091"><ele>984.0</ele><time>2026-04-21T14:50:53.926Z</time></trkpt><trkpt lat="44.9301597" lon="7.1519551"><ele>980.75</ele><time>2026-04-21T14:50:54.925Z</time></trkpt><trkpt lat="44.9300289" lon="7.1518707"><ele>977.5</ele><time>2026-04-21T14:50:55.926Z</time></trkpt><trkpt lat="44.929904" lon="7.1517728"><ele>974.25</ele><time>2026-04-21T14:50:56.926Z</time></trkpt><trkpt lat="44.9297877" lon="7.1516563"><ele>971.0</ele><time>2026-04-21T14:50:57.926Z</time></trkpt><trkpt lat="44.9296716" lon="7.1515437"><ele>965.5</ele><time>2026-04-21T14:50:58.924Z</time></trkpt><trkpt lat="44.9295525" lon="7.1514484"><ele>960.0</ele><time>2026-04-21T14:50:59.925Z</time></trkpt><trkpt lat="44.9294427" lon="7.1513749"><ele>954.5</ele><time>2026-04-21T14:51:00.926Z</time></trkpt><trkpt lat="44.9293367" lon="7.1513219"><ele>949.0</ele><time>2026-04-21T14:51:01.925Z</time></trkpt><trkpt lat="44.9292129" lon="7.151317"><ele>948.3333333333333</ele><time>2026-04-21T14:51:02.924Z</time></trkpt><trkpt lat="44.9290577" lon="7.1513533"><ele>947.6666666666667</ele><time>2026-04-21T14:51:03.925Z</time></trkpt><trkpt lat="44.9288807" lon="7.1513856"><ele>947.0</ele><time>2026-04-21T14:51:04.926Z</time></trkpt><trkpt lat="44.9287049" lon="7.1513829"><ele>947.0</ele><time>2026-04-21T14:51:05.925Z</time></trkpt><trkpt lat="44.9285404" lon="7.1513612"><ele>947.0</ele><time>2026-04-21T14:51:06.926Z</time></trkpt><trkpt lat="44.9283834" lon="7.1513285"><ele>947.0</ele><time>2026-04-21T14:51:07.925Z</time></trkpt><trkpt lat="44.9282312" lon="7.15129"><ele>947.3333333333334</ele><time>2026-04-21T14:51:08.925Z</time></trkpt><trkpt lat="44.9280666" lon="7.1512629"><ele>947.6666666666667</ele><time>2026-04-21T14:51:09.925Z</time></trkpt><trkpt lat="44.9278989" lon="7.1512531"><ele>948.0</ele><time>2026-04-21T14:51:10.926Z</time></trkpt><trkpt lat="44.9277272" lon="7.1512475"><ele>948.0</ele><time>2026-04-21T14:51:11.925Z</time></trkpt><trkpt lat="44.9275619" lon="7.1512392"><ele>948.0</ele><time>2026-04-21T14:51:12.926Z</time></trkpt><trkpt lat="44.9274003" lon="7.1512286"><ele>948.0</ele><time>2026-04-21T14:51:13.925Z</time></trkpt><trkpt lat="44.9272469" lon="7.1512137"><ele>947.25</ele><time>2026-04-21T14:51:14.924Z</time></trkpt><trkpt lat="44.9271077" lon="7.1512009"><ele>946.5</ele><time>2026-04-21T14:51:15.925Z</time></trkpt><trkpt lat="44.9269815" lon="7.1512156"><ele>945.75</ele><time>2026-04-21T14:51:16.926Z</time></trkpt><trkpt lat="44.9268732" lon="7.1512483"><ele>945.0</ele><time>2026-04-21T14:51:17.925Z</time></trkpt><trkpt lat="44.9267842" lon="7.1512886"><ele>945.0</ele><time>2026-04-21T14:51:18.925Z</time></trkpt><trkpt lat="44.926704" lon="7.1513096"><ele>945.0</ele><time>2026-04-21T14:51:19.925Z</time></trkpt><trkpt lat="44.9266372" lon="7.1512786"><ele>945.0</ele><time>2026-04-21T14:51:20.925Z</time></trkpt><trkpt lat="44.9265709" lon="7.1512483"><ele>945.0</ele><time>2026-04-21T14:51:21.925Z</time></trkpt><trkpt lat="44.9266604" lon="7.151114"><ele>945.0</ele><time>2026-04-21T14:51:22.926Z</time></trkpt><trkpt lat="44.9267098" lon="7.1510232"><ele>945.0</ele><time>2026-04-21T14:51:23.925Z</time></trkpt><trkpt lat="44.9268451" lon="7.1510045"><ele>945.0</ele><time>2026-04-21T14:51:24.925Z</time></trkpt><trkpt lat="44.9269596" lon="7.150937"><ele>945.0</ele><time>2026-04-21T14:51:25.926Z</time></trkpt><trkpt lat="44.9271322" lon="7.1508594"><ele>945.0</ele><time>2026-04-21T14:51:26.925Z</time></trkpt><trkpt lat="44.9272872" lon="7.1507532"><ele>937.6666666666667</ele><time>2026-04-21T14:51:27.925Z</time></trkpt><trkpt lat="44.9274327" lon="7.1506269"><ele>930.3333333333334</ele><time>2026-04-21T14:51:28.926Z</time></trkpt><trkpt lat="44.9275784" lon="7.1505136"><ele>923.0</ele><time>2026-04-21T14:51:29.925Z</time></trkpt><trkpt lat="44.9277226" lon="7.1504296"><ele>923.0</ele><time>2026-04-21T14:51:30.926Z</time></trkpt><trkpt lat="44.9278788" lon="7.1503816"><ele>923.0</ele><time>2026-04-21T14:51:31.925Z</time></trkpt><trkpt lat="44.9280389" lon="7.1503455"><ele>923.0</ele><time>2026-04-21T14:51:32.925Z</time></trkpt><trkpt lat="44.9281904" lon="7.1503138"><ele>923.0</ele><time>2026-04-21T14:51:33.925Z</time></trkpt><trkpt lat="44.9283579" lon="7.1502838"><ele>923.0</ele><time>2026-04-21T14:51:34.926Z</time></trkpt><trkpt lat="44.9285142" lon="7.1502228"><ele>923.0</ele><time>2026-04-21T14:51:35.924Z</time></trkpt><trkpt lat="44.9286582" lon="7.1501369"><ele>923.0</ele><time>2026-04-21T14:51:36.925Z</time></trkpt><trkpt lat="44.9287988" lon="7.1500612"><ele>923.0</ele><time>2026-04-21T14:51:37.925Z</time></trkpt><trkpt lat="44.9289368" lon="7.1499832"><ele>923.0</ele><time>2026-04-21T14:51:38.925Z</time></trkpt><trkpt lat="44.9290519" lon="7.1498972"><ele>923.0</ele><time>2026-04-21T14:51:39.924Z</time></trkpt><trkpt lat="44.9291587" lon="7.1498315"><ele>918.75</ele><time>2026-04-21T14:51:40.926Z</time></trkpt><trkpt lat="44.9292837" lon="7.1498243"><ele>914.5</ele><time>2026-04-21T14:51:41.924Z</time></trkpt><trkpt lat="44.9293952" lon="7.1498352"><ele>910.25</ele><time>2026-04-21T14:51:42.926Z</time></trkpt><trkpt lat="44.9295099" lon="7.1498483"><ele>906.0</ele><time>2026-04-21T14:51:43.925Z</time></trkpt><trkpt lat="44.9296256" lon="7.1498088"><ele>906.0</ele><time>2026-04-21T14:51:44.926Z</time></trkpt><trkpt lat="44.9297357" lon="7.1497407"><ele>906.0</ele><time>2026-04-21T14:51:45.925Z</time></trkpt><trkpt lat="44.9298402" lon="7.1496364"><ele>906.0</ele><time>2026-04-21T14:51:46.925Z</time></trkpt><trkpt lat="44.9299475" lon="7.149538"><ele>906.0</ele><time>2026-04-21T14:51:47.925Z</time></trkpt><trkpt lat="44.9300479" lon="7.1494242"><ele>906.0</ele><time>2026-04-21T14:51:48.926Z</time></trkpt><trkpt lat="44.930147" lon="7.1492961"><ele>906.0</ele><time>2026-04-21T14:51:49.925Z</time></trkpt><trkpt lat="44.9302244" lon="7.1491486"><ele>906.0</ele><time>2026-04-21T14:51:50.926Z</time></trkpt><trkpt lat="44.9302878" lon="7.1489938"><ele>906.0</ele><time>2026-04-21T14:51:51.925Z</time></trkpt><trkpt lat="44.9303304" lon="7.1488354"><ele>906.0</ele><time>2026-04-21T14:51:52.926Z</time></trkpt><trkpt lat="44.930365" lon="7.1486705"><ele>906.0</ele><time>2026-04-21T14:51:53.925Z</time></trkpt><trkpt lat="44.9303973" lon="7.1485081"><ele>906.0</ele><time>2026-04-21T14:51:54.926Z</time></trkpt><trkpt lat="44.9304214" lon="7.1483493"><ele>906.0</ele><time>2026-04-21T14:51:55.924Z</time></trkpt><trkpt lat="44.9304308" lon="7.1482074"><ele>901.1999999999999</ele><time>2026-04-21T14:51:56.926Z</time></trkpt><trkpt lat="44.9304349" lon="7.1480685"><ele>896.3999999999999</ele><time>2026-04-21T14:51:57.925Z</time></trkpt><trkpt lat="44.9304732" lon="7.1479424"><ele>891.6</ele><time>2026-04-21T14:51:58.925Z</time></trkpt><trkpt lat="44.9305391" lon="7.1478393"><ele>886.8</ele><time>2026-04-21T14:51:59.926Z</time></trkpt><trkpt lat="44.9306416" lon="7.1477665"><ele>882.0</ele><time>2026-04-21T14:52:00.925Z</time></trkpt><trkpt lat="44.9307605" lon="7.147712"><ele>882.0</ele><time>2026-04-21T14:52:01.925Z</time></trkpt><trkpt lat="44.9308742" lon="7.147641"><ele>882.0</ele><time>2026-04-21T14:52:02.925Z</time></trkpt><trkpt lat="44.9309793" lon="7.1475712"><ele>882.0</ele><time>2026-04-21T14:52:03.925Z</time></trkpt><trkpt lat="44.931092" lon="7.1475498"><ele>882.0</ele><time>2026-04-21T14:52:04.924Z</time></trkpt><trkpt lat="44.9312091" lon="7.1475845"><ele>881.25</ele><time>2026-04-21T14:52:05.926Z</time></trkpt><trkpt lat="44.931325" lon="7.1476526"><ele>880.5</ele><time>2026-04-21T14:52:06.925Z</time></trkpt><trkpt lat="44.9314452" lon="7.1476955"><ele>879.75</ele><time>2026-04-21T14:52:07.926Z</time></trkpt><trkpt lat="44.9315716" lon="7.1476852"><ele>879.0</ele><time>2026-04-21T14:52:08.924Z</time></trkpt><trkpt lat="44.9317165" lon="7.1476678"><ele>877.25</ele><time>2026-04-21T14:52:09.925Z</time></trkpt><trkpt lat="44.9318501" lon="7.1476312"><ele>875.5</ele><time>2026-04-21T14:52:10.926Z</time></trkpt><trkpt lat="44.9319673" lon="7.1476041"><ele>873.75</ele><time>2026-04-21T14:52:11.925Z</time></trkpt><trkpt lat="44.9320921" lon="7.1476007"><ele>872.0</ele><time>2026-04-21T14:52:12.925Z</time></trkpt><trkpt lat="44.9322163" lon="7.1475947"><ele>872.0</ele><time>2026-04-21T14:52:13.925Z</time></trkpt><trkpt lat="44.9323515" lon="7.1475383"><ele>872.0</ele><time>2026-04-21T14:52:14.926Z</time></trkpt><trkpt lat="44.9324893" lon="7.147464"><ele>872.0</ele><time>2026-04-21T14:52:15.924Z</time></trkpt><trkpt lat="44.9326336" lon="7.1473789"><ele>872.0</ele><time>2026-04-21T14:52:16.925Z</time></trkpt><trkpt lat="44.9327777" lon="7.1472865"><ele>867.3333333333334</ele><time>2026-04-21T14:52:17.925Z</time></trkpt><trkpt lat="44.9329191" lon="7.1471888"><ele>862.6666666666667</ele><time>2026-04-21T14:52:18.925Z</time></trkpt><trkpt lat="44.9330598" lon="7.1470908"><ele>858.0</ele><time>2026-04-21T14:52:19.925Z</time></trkpt><trkpt lat="44.9331962" lon="7.1469907"><ele>858.0</ele><time>2026-04-21T14:52:20.926Z</time></trkpt><trkpt lat="44.9333228" lon="7.1468847"><ele>858.0</ele><time>2026-04-21T14:52:21.925Z</time></trkpt><trkpt lat="44.933442" lon="7.1467604"><ele>858.0</ele><time>2026-04-21T14:52:22.925Z</time></trkpt><trkpt lat="44.9335482" lon="7.1466147"><ele>858.0</ele><time>2026-04-21T14:52:23.924Z</time></trkpt><trkpt lat="44.9336389" lon="7.146435"><ele>859.6666666666667</ele><time>2026-04-21T14:52:24.925Z</time></trkpt><trkpt lat="44.9337235" lon="7.1462279"><ele>861.3333333333334</ele><time>2026-04-21T14:52:25.924Z</time></trkpt><trkpt lat="44.9337994" lon="7.1459999"><ele>863.0</ele><time>2026-04-21T14:52:26.925Z</time></trkpt><trkpt lat="44.9338653" lon="7.1457682"><ele>857.6666666666667</ele><time>2026-04-21T14:52:27.925Z</time></trkpt><trkpt lat="44.9339168" lon="7.1455523"><ele>852.3333333333333</ele><time>2026-04-21T14:52:28.925Z</time></trkpt><trkpt lat="44.9339655" lon="7.145349"><ele>847.0</ele><time>2026-04-21T14:52:29.925Z</time></trkpt><trkpt lat="44.9340263" lon="7.1451589"><ele>847.0</ele><time>2026-04-21T14:52:30.925Z</time></trkpt><trkpt lat="44.9340999" lon="7.1449865"><ele>847.0</ele><time>2026-04-21T14:52:31.926Z</time></trkpt><trkpt lat="44.9341799" lon="7.1448327"><ele>847.0</ele><time>2026-04-21T14:52:32.924Z</time></trkpt><trkpt lat="44.9342684" lon="7.1446913"><ele>847.0</ele><time>2026-04-21T14:52:33.925Z</time></trkpt><trkpt lat="44.9343611" lon="7.144563"><ele>843.25</ele><time>2026-04-21T14:52:34.926Z</time></trkpt><trkpt lat="44.9344503" lon="7.1444324"><ele>839.5</ele><time>2026-04-21T14:52:35.925Z</time></trkpt><trkpt lat="44.9345375" lon="7.1443114"><ele>835.75</ele><time>2026-04-21T14:52:36.925Z</time></trkpt><trkpt lat="44.9346405" lon="7.1442101"><ele>832.0</ele><time>2026-04-21T14:52:37.925Z</time></trkpt><trkpt lat="44.9347471" lon="7.1441143"><ele>829.0</ele><time>2026-04-21T14:52:38.924Z</time></trkpt><trkpt lat="44.9348547" lon="7.144031"><ele>826.0</ele><time>2026-04-21T14:52:39.926Z</time></trkpt><trkpt lat="44.9349596" lon="7.1439344"><ele>823.0</ele><time>2026-04-21T14:52:40.925Z</time></trkpt><trkpt lat="44.9350601" lon="7.1438538"><ele>820.0</ele><time>2026-04-21T14:52:41.925Z</time></trkpt><trkpt lat="44.9351443" lon="7.1437991"><ele>820.0</ele><time>2026-04-21T14:52:42.924Z</time></trkpt><trkpt lat="44.9352145" lon="7.1437525"><ele>820.0</ele><time>2026-04-21T14:52:43.925Z</time></trkpt><trkpt lat="44.9353001" lon="7.1436515"><ele>820.0</ele><time>2026-04-21T14:52:45.924Z</time></trkpt><trkpt lat="44.9352303" lon="7.1435339"><ele>820.0</ele><time>2026-04-21T14:52:47.926Z</time></trkpt><trkpt lat="44.9351397" lon="7.1435044"><ele>820.0</ele><time>2026-04-21T14:52:48.925Z</time></trkpt><trkpt lat="44.9350343" lon="7.143473"><ele>820.0</ele><time>2026-04-21T14:52:49.924Z</time></trkpt><trkpt lat="44.9349104" lon="7.143447"><ele>820.0</ele><time>2026-04-21T14:52:50.925Z</time></trkpt><trkpt lat="44.934781" lon="7.1434406"><ele>820.0</ele><time>2026-04-21T14:52:51.925Z</time></trkpt><trkpt lat="44.9346552" lon="7.1434348"><ele>820.0</ele><time>2026-04-21T14:52:52.926Z</time></trkpt><trkpt lat="44.9345413" lon="7.1434271"><ele>819.9999999999999</ele><time>2026-04-21T14:52:53.926Z</time></trkpt><trkpt lat="44.9344441" lon="7.1434181"><ele>820.0</ele><time>2026-04-21T14:52:54.925Z</time></trkpt><trkpt lat="44.9343561" lon="7.1434097"><ele>820.0</ele><time>2026-04-21T14:52:55.925Z</time></trkpt><trkpt lat="44.934269" lon="7.1434082"><ele>820.0</ele><time>2026-04-21T14:52:56.926Z</time></trkpt><trkpt lat="44.9341884" lon="7.1434124"><ele>819.9999999999999</ele><time>2026-04-21T14:52:57.924Z</time></trkpt><trkpt lat="44.9341118" lon="7.1434423"><ele>820.0</ele><time>2026-04-21T14:52:58.926Z</time></trkpt><trkpt lat="44.93404" lon="7.1434882"><ele>818.9999999999999</ele><time>2026-04-21T14:52:59.925Z</time></trkpt><trkpt lat="44.9339685" lon="7.1435196"><ele>818.0</ele><time>2026-04-21T14:53:00.925Z</time></trkpt><trkpt lat="44.9339039" lon="7.1435116"><ele>817.0</ele><time>2026-04-21T14:53:01.925Z</time></trkpt><trkpt lat="44.93385" lon="7.1433619"><ele>816.0</ele><time>2026-04-21T14:53:03.924Z</time></trkpt><trkpt lat="44.93388" lon="7.1432656"><ele>814.9999999999999</ele><time>2026-04-21T14:53:04.926Z</time></trkpt><trkpt lat="44.9339458" lon="7.1431846"><ele>814.0</ele><time>2026-04-21T14:53:05.926Z</time></trkpt><trkpt lat="44.9340384" lon="7.1431298"><ele>809.75</ele><time>2026-04-21T14:53:06.926Z</time></trkpt><trkpt lat="44.9341492" lon="7.1430814"><ele>805.5</ele><time>2026-04-21T14:53:07.925Z</time></trkpt><trkpt lat="44.9342716" lon="7.1430117"><ele>801.25</ele><time>2026-04-21T14:53:08.926Z</time></trkpt><trkpt lat="44.9343989" lon="7.1429329"><ele>797.0</ele><time>2026-04-21T14:53:09.924Z</time></trkpt><trkpt lat="44.9345246" lon="7.1428462"><ele>797.0</ele><time>2026-04-21T14:53:10.925Z</time></trkpt><trkpt lat="44.9346511" lon="7.1427508"><ele>797.0</ele><time>2026-04-21T14:53:11.925Z</time></trkpt><trkpt lat="44.9347741" lon="7.1426725"><ele>797.0</ele><time>2026-04-21T14:53:12.926Z</time></trkpt><trkpt lat="44.9348858" lon="7.1426192"><ele>797.0</ele><time>2026-04-21T14:53:13.925Z</time></trkpt><trkpt lat="44.9349909" lon="7.1425883"><ele>794.6666666666667</ele><time>2026-04-21T14:53:14.924Z</time></trkpt><trkpt lat="44.9350834" lon="7.1425884"><ele>792.3333333333334</ele><time>2026-04-21T14:53:15.925Z</time></trkpt><trkpt lat="44.9351619" lon="7.1425811"><ele>790.0</ele><time>2026-04-21T14:53:16.926Z</time></trkpt><trkpt lat="44.9352153" lon="7.1425263"><ele>787.6666666666667</ele><time>2026-04-21T14:53:17.924Z</time></trkpt><trkpt lat="44.9352193" lon="7.1423922"><ele>785.3333333333334</ele><time>2026-04-21T14:53:19.924Z</time></trkpt><trkpt lat="44.9351583" lon="7.1423519"><ele>783.0</ele><time>2026-04-21T14:53:20.925Z</time></trkpt><trkpt lat="44.9350734" lon="7.1423404"><ele>785.8</ele><time>2026-04-21T14:53:21.925Z</time></trkpt><trkpt lat="44.9349726" lon="7.1423638"><ele>788.5999999999999</ele><time>2026-04-21T14:53:22.926Z</time></trkpt><trkpt lat="44.9348773" lon="7.1423849"><ele>791.4000000000001</ele><time>2026-04-21T14:53:23.926Z</time></trkpt><trkpt lat="44.934787" lon="7.1424274"><ele>794.2</ele><time>2026-04-21T14:53:24.926Z</time></trkpt><trkpt lat="44.9347083" lon="7.1424992"><ele>797.0</ele><time>2026-04-21T14:53:25.924Z</time></trkpt><trkpt lat="44.9346321" lon="7.1425436"><ele>797.0000000000001</ele><time>2026-04-21T14:53:26.924Z</time></trkpt><trkpt lat="44.9345612" lon="7.1425433"><ele>797.0</ele><time>2026-04-21T14:53:27.926Z</time></trkpt><trkpt lat="44.9345232" lon="7.142417"><ele>797.0</ele><time>2026-04-21T14:53:29.925Z</time></trkpt><trkpt lat="44.9345676" lon="7.1423466"><ele>797.0</ele><time>2026-04-21T14:53:30.925Z</time></trkpt><trkpt lat="44.9346412" lon="7.1422939"><ele>797.0000000000001</ele><time>2026-04-21T14:53:31.924Z</time></trkpt><trkpt lat="44.9347362" lon="7.1422579"><ele>797.0</ele><time>2026-04-21T14:53:32.926Z</time></trkpt><trkpt lat="44.9348527" lon="7.1422196"><ele>786.6666666666667</ele><time>2026-04-21T14:53:33.925Z</time></trkpt><trkpt lat="44.9349892" lon="7.1421933"><ele>776.3333333333334</ele><time>2026-04-21T14:53:34.926Z</time></trkpt><trkpt lat="44.9351457" lon="7.1421687"><ele>766.0</ele><time>2026-04-21T14:53:35.926Z</time></trkpt><trkpt lat="44.93531" lon="7.142166"><ele>763.75</ele><time>2026-04-21T14:53:36.926Z</time></trkpt><trkpt lat="44.9354615" lon="7.1421796"><ele>761.5</ele><time>2026-04-21T14:53:37.925Z</time></trkpt><trkpt lat="44.9356018" lon="7.1421958"><ele>759.25</ele><time>2026-04-21T14:53:38.926Z</time></trkpt><trkpt lat="44.9357347" lon="7.1422251"><ele>757.0</ele><time>2026-04-21T14:53:39.925Z</time></trkpt><trkpt lat="44.935832" lon="7.1422679"><ele>757.0</ele><time>2026-04-21T14:53:40.924Z</time></trkpt><trkpt lat="44.9359125" lon="7.142327"><ele>757.0</ele><time>2026-04-21T14:53:41.927Z</time></trkpt><trkpt lat="44.9359759" lon="7.1423819"><ele>757.0</ele><time>2026-04-21T14:53:42.925Z</time></trkpt><trkpt lat="44.9360631" lon="7.14234"><ele>757.0</ele><time>2026-04-21T14:53:44.925Z</time></trkpt><trkpt lat="44.9360093" lon="7.142211"><ele>757.0</ele><time>2026-04-21T14:53:46.925Z</time></trkpt><trkpt lat="44.9359332" lon="7.1421582"><ele>757.0</ele><time>2026-04-21T14:53:47.925Z</time></trkpt><trkpt lat="44.9358364" lon="7.1421077"><ele>757.0</ele><time>2026-04-21T14:53:48.924Z</time></trkpt><trkpt lat="44.9357349" lon="7.1420664"><ele>757.0</ele><time>2026-04-21T14:53:49.925Z</time></trkpt><trkpt lat="44.9355911" lon="7.1420004"><ele>757.0</ele><time>2026-04-21T14:53:50.926Z</time></trkpt><trkpt lat="44.9354567" lon="7.1419335"><ele>757.0</ele><time>2026-04-21T14:53:51.925Z</time></trkpt><trkpt lat="44.9353189" lon="7.1418607"><ele>757.0</ele><time>2026-04-21T14:53:52.925Z</time></trkpt><trkpt lat="44.9351784" lon="7.1417899"><ele>757.0</ele><time>2026-04-21T14:53:53.926Z</time></trkpt><trkpt lat="44.9350459" lon="7.1417214"><ele>757.0</ele><time>2026-04-21T14:53:54.926Z</time></trkpt><trkpt lat="44.9349078" lon="7.1416611"><ele>757.0</ele><time>2026-04-21T14:53:55.923Z</time></trkpt><trkpt lat="44.9347709" lon="7.141654"><ele>759.25</ele><time>2026-04-21T14:53:56.924Z</time></trkpt><trkpt lat="44.9346323" lon="7.1416417"><ele>761.5</ele><time>2026-04-21T14:53:57.925Z</time></trkpt><trkpt lat="44.9344945" lon="7.1416319"><ele>763.75</ele><time>2026-04-21T14:53:58.925Z</time></trkpt><trkpt lat="44.9343717" lon="7.1416134"><ele>766.0</ele><time>2026-04-21T14:53:59.924Z</time></trkpt><trkpt lat="44.9342587" lon="7.1415977"><ele>766.5999999999999</ele><time>2026-04-21T14:54:00.925Z</time></trkpt><trkpt lat="44.9341536" lon="7.1415944"><ele>767.2</ele><time>2026-04-21T14:54:01.924Z</time></trkpt><trkpt lat="44.9340588" lon="7.1416047"><ele>767.8</ele><time>2026-04-21T14:54:02.924Z</time></trkpt><trkpt lat="44.9339765" lon="7.1416237"><ele>768.4000000000001</ele><time>2026-04-21T14:54:03.924Z</time></trkpt><trkpt lat="44.9339072" lon="7.14165"><ele>769.0</ele><time>2026-04-21T14:54:04.925Z</time></trkpt><trkpt lat="44.9338014" lon="7.1416714"><ele>769.0</ele><time>2026-04-21T14:54:06.925Z</time></trkpt><trkpt lat="44.9337523" lon="7.1415786"><ele>769.0</ele><time>2026-04-21T14:54:08.924Z</time></trkpt><trkpt lat="44.9338446" lon="7.1414563"><ele>769.0</ele><time>2026-04-21T14:54:10.923Z</time></trkpt><trkpt lat="44.9339161" lon="7.1414096"><ele>769.0</ele><time>2026-04-21T14:54:11.924Z</time></trkpt><trkpt lat="44.9340249" lon="7.1413869"><ele>769.0</ele><time>2026-04-21T14:54:12.924Z</time></trkpt><trkpt lat="44.9341602" lon="7.1413792"><ele>762.6666666666666</ele><time>2026-04-21T14:54:13.925Z</time></trkpt><trkpt lat="44.9342996" lon="7.1413646"><ele>756.3333333333333</ele><time>2026-04-21T14:54:14.924Z</time></trkpt><trkpt lat="44.9344628" lon="7.1413552"><ele>750.0</ele><time>2026-04-21T14:54:15.924Z</time></trkpt><trkpt lat="44.9346159" lon="7.1413507"><ele>750.0</ele><time>2026-04-21T14:54:16.924Z</time></trkpt><trkpt lat="44.9347685" lon="7.1413489"><ele>750.0</ele><time>2026-04-21T14:54:17.925Z</time></trkpt><trkpt lat="44.9349179" lon="7.1413416"><ele>750.0</ele><time>2026-04-21T14:54:18.923Z</time></trkpt><trkpt lat="44.9350662" lon="7.1413348"><ele>746.25</ele><time>2026-04-21T14:54:19.924Z</time></trkpt><trkpt lat="44.9352087" lon="7.1413144"><ele>742.5</ele><time>2026-04-21T14:54:20.925Z</time></trkpt><trkpt lat="44.9353518" lon="7.1412841"><ele>738.75</ele><time>2026-04-21T14:54:21.923Z</time></trkpt><trkpt lat="44.9354733" lon="7.1412514"><ele>735.0</ele><time>2026-04-21T14:54:22.925Z</time></trkpt><trkpt lat="44.9355878" lon="7.141218"><ele>735.0</ele><time>2026-04-21T14:54:23.925Z</time></trkpt><trkpt lat="44.9356965" lon="7.1411785"><ele>735.0</ele><time>2026-04-21T14:54:24.924Z</time></trkpt><trkpt lat="44.9357827" lon="7.1411177"><ele>735.0</ele><time>2026-04-21T14:54:25.924Z</time></trkpt><trkpt lat="44.9358427" lon="7.1410467"><ele>735.0</ele><time>2026-04-21T14:54:26.924Z</time></trkpt><trkpt lat="44.9358754" lon="7.1409455"><ele>735.0</ele><time>2026-04-21T14:54:27.925Z</time></trkpt><trkpt lat="44.9358919" lon="7.1408175"><ele>734.4</ele><time>2026-04-21T14:54:28.925Z</time></trkpt><trkpt lat="44.9359016" lon="7.1406828"><ele>733.8</ele><time>2026-04-21T14:54:29.924Z</time></trkpt><trkpt lat="44.9359073" lon="7.1405514"><ele>733.2</ele><time>2026-04-21T14:54:30.924Z</time></trkpt><trkpt lat="44.9359048" lon="7.140423"><ele>732.6</ele><time>2026-04-21T14:54:31.923Z</time></trkpt><trkpt lat="44.9358909" lon="7.1402946"><ele>732.0</ele><time>2026-04-21T14:54:32.924Z</time></trkpt><trkpt lat="44.9358677" lon="7.1401682"><ele>732.0</ele><time>2026-04-21T14:54:33.924Z</time></trkpt><trkpt lat="44.9358367" lon="7.1400425"><ele>732.0</ele><time>2026-04-21T14:54:34.923Z</time></trkpt><trkpt lat="44.9358037" lon="7.1399186"><ele>732.0</ele><time>2026-04-21T14:54:35.924Z</time></trkpt><trkpt lat="44.9357731" lon="7.1398053"><ele>732.0</ele><time>2026-04-21T14:54:36.924Z</time></trkpt><trkpt lat="44.9357487" lon="7.139696"><ele>732.0</ele><time>2026-04-21T14:54:37.925Z</time></trkpt><trkpt lat="44.9357418" lon="7.1395859"><ele>732.0</ele><time>2026-04-21T14:54:38.925Z</time></trkpt><trkpt lat="44.9357547" lon="7.1394796"><ele>731.5</ele><time>2026-04-21T14:54:39.925Z</time></trkpt><trkpt lat="44.9357829" lon="7.1393762"><ele>731.0</ele><time>2026-04-21T14:54:40.924Z</time></trkpt><trkpt lat="44.9358233" lon="7.1392827"><ele>730.5</ele><time>2026-04-21T14:54:41.923Z</time></trkpt><trkpt lat="44.9358697" lon="7.1392063"><ele>730.0</ele><time>2026-04-21T14:54:42.925Z</time></trkpt><trkpt lat="44.9359126" lon="7.1391391"><ele>729.5</ele><time>2026-04-21T14:54:43.923Z</time></trkpt><trkpt lat="44.9359801" lon="7.1390429"><ele>729.0</ele><time>2026-04-21T14:54:45.924Z</time></trkpt><trkpt lat="44.9360108" lon="7.1389355"><ele>734.25</ele><time>2026-04-21T14:54:47.924Z</time></trkpt><trkpt lat="44.9359541" lon="7.1387624"><ele>739.5</ele><time>2026-04-21T14:54:49.924Z</time></trkpt><trkpt lat="44.9358855" lon="7.1386632"><ele>744.75</ele><time>2026-04-21T14:54:50.924Z</time></trkpt><trkpt lat="44.935813" lon="7.1385488"><ele>750.0</ele><time>2026-04-21T14:54:51.924Z</time></trkpt><trkpt lat="44.9357336" lon="7.1384257"><ele>750.0</ele><time>2026-04-21T14:54:52.924Z</time></trkpt><trkpt lat="44.9356469" lon="7.1382958"><ele>750.0</ele><time>2026-04-21T14:54:53.924Z</time></trkpt><trkpt lat="44.9355563" lon="7.1381581"><ele>750.0</ele><time>2026-04-21T14:54:54.924Z</time></trkpt><trkpt lat="44.9354686" lon="7.1380053"><ele>750.0</ele><time>2026-04-21T14:54:55.924Z</time></trkpt><trkpt lat="44.935386" lon="7.1378345"><ele>759.0</ele><time>2026-04-21T14:54:56.925Z</time></trkpt><trkpt lat="44.93531" lon="7.1376422"><ele>768.0</ele><time>2026-04-21T14:54:57.923Z</time></trkpt><trkpt lat="44.9352362" lon="7.1374329"><ele>777.0</ele><time>2026-04-21T14:54:58.925Z</time></trkpt><trkpt lat="44.9351624" lon="7.1372153"><ele>771.0</ele><time>2026-04-21T14:54:59.924Z</time></trkpt><trkpt lat="44.9350864" lon="7.1369863"><ele>765.0</ele><time>2026-04-21T14:55:00.923Z</time></trkpt><trkpt lat="44.9350062" lon="7.1367515"><ele>759.0</ele><time>2026-04-21T14:55:01.925Z</time></trkpt><trkpt lat="44.9349238" lon="7.1365072"><ele>759.0</ele><time>2026-04-21T14:55:02.923Z</time></trkpt><trkpt lat="44.9348482" lon="7.136254"><ele>759.0</ele><time>2026-04-21T14:55:03.925Z</time></trkpt><trkpt lat="44.9347783" lon="7.1359853"><ele>759.0</ele><time>2026-04-21T14:55:04.923Z</time></trkpt><trkpt lat="44.9347102" lon="7.1357087"><ele>766.3333333333333</ele><time>2026-04-21T14:55:05.924Z</time></trkpt><trkpt lat="44.9346464" lon="7.135425"><ele>773.6666666666666</ele><time>2026-04-21T14:55:06.923Z</time></trkpt><trkpt lat="44.934606" lon="7.1351279"><ele>781.0</ele><time>2026-04-21T14:55:07.924Z</time></trkpt><trkpt lat="44.9345706" lon="7.1348181"><ele>781.6666666666666</ele><time>2026-04-21T14:55:08.923Z</time></trkpt><trkpt lat="44.9345245" lon="7.1345312"><ele>782.3333333333333</ele><time>2026-04-21T14:55:09.925Z</time></trkpt><trkpt lat="44.9344968" lon="7.1342609"><ele>783.0</ele><time>2026-04-21T14:55:10.924Z</time></trkpt><trkpt lat="44.9344701" lon="7.1340098"><ele>783.0</ele><time>2026-04-21T14:55:11.923Z</time></trkpt><trkpt lat="44.9344214" lon="7.1337643"><ele>783.0</ele><time>2026-04-21T14:55:12.925Z</time></trkpt><trkpt lat="44.934364" lon="7.1335243"><ele>783.0</ele><time>2026-04-21T14:55:13.924Z</time></trkpt><trkpt lat="44.9343303" lon="7.1332677"><ele>785.3333333333333</ele><time>2026-04-21T14:55:14.924Z</time></trkpt><trkpt lat="44.9343221" lon="7.1329886"><ele>787.6666666666666</ele><time>2026-04-21T14:55:15.925Z</time></trkpt><trkpt lat="44.9343246" lon="7.1326934"><ele>790.0</ele><time>2026-04-21T14:55:16.923Z</time></trkpt><trkpt lat="44.9343269" lon="7.1323898"><ele>790.0</ele><time>2026-04-21T14:55:17.924Z</time></trkpt><trkpt lat="44.9343165" lon="7.1320885"><ele>790.0</ele><time>2026-04-21T14:55:18.923Z</time></trkpt><trkpt lat="44.934293" lon="7.1318"><ele>790.0</ele><time>2026-04-21T14:55:19.925Z</time></trkpt><trkpt lat="44.9342624" lon="7.1315291"><ele>790.0</ele><time>2026-04-21T14:55:20.923Z</time></trkpt><trkpt lat="44.9342341" lon="7.1312678"><ele>790.0</ele><time>2026-04-21T14:55:21.925Z</time></trkpt><trkpt lat="44.9342142" lon="7.1310219"><ele>790.0</ele><time>2026-04-21T14:55:22.924Z</time></trkpt><trkpt lat="44.934207" lon="7.1307847"><ele>786.3333333333333</ele><time>2026-04-21T14:55:23.924Z</time></trkpt><trkpt lat="44.9342207" lon="7.1305489"><ele>782.6666666666667</ele><time>2026-04-21T14:55:24.925Z</time></trkpt><trkpt lat="44.9342538" lon="7.1303104"><ele>779.0</ele><time>2026-04-21T14:55:25.923Z</time></trkpt><trkpt lat="44.9343085" lon="7.130074"><ele>770.3333333333334</ele><time>2026-04-21T14:55:26.925Z</time></trkpt><trkpt lat="44.9343835" lon="7.1298508"><ele>761.6666666666667</ele><time>2026-04-21T14:55:27.924Z</time></trkpt><trkpt lat="44.9344866" lon="7.1296324"><ele>753.0</ele><time>2026-04-21T14:55:28.925Z</time></trkpt><trkpt lat="44.934619" lon="7.1294121"><ele>753.0</ele><time>2026-04-21T14:55:29.925Z</time></trkpt><trkpt lat="44.9347711" lon="7.1291842"><ele>753.0</ele><time>2026-04-21T14:55:30.924Z</time></trkpt><trkpt lat="44.9349359" lon="7.1289427"><ele>756.5</ele><time>2026-04-21T14:55:31.924Z</time></trkpt><trkpt lat="44.9351081" lon="7.128687"><ele>760.0</ele><time>2026-04-21T14:55:32.924Z</time></trkpt><trkpt lat="44.9352763" lon="7.1284508"><ele>760.0</ele><time>2026-04-21T14:55:33.924Z</time></trkpt><trkpt lat="44.9354476" lon="7.1282431"><ele>760.0</ele><time>2026-04-21T14:55:34.925Z</time></trkpt><trkpt lat="44.9356361" lon="7.1280682"><ele>764.0</ele><time>2026-04-21T14:55:35.923Z</time></trkpt><trkpt lat="44.9358458" lon="7.1279294"><ele>768.0</ele><time>2026-04-21T14:55:36.924Z</time></trkpt><trkpt lat="44.9360694" lon="7.1278311"><ele>768.0</ele><time>2026-04-21T14:55:37.923Z</time></trkpt><trkpt lat="44.9362708" lon="7.127756"><ele>768.0</ele><time>2026-04-21T14:55:38.924Z</time></trkpt><trkpt lat="44.9364465" lon="7.127681"><ele>768.0</ele><time>2026-04-21T14:55:39.924Z</time></trkpt><trkpt lat="44.9366027" lon="7.127612"><ele>767.0</ele><time>2026-04-21T14:55:40.924Z</time></trkpt><trkpt lat="44.9367427" lon="7.127505"><ele>766.0</ele><time>2026-04-21T14:55:41.923Z</time></trkpt><trkpt lat="44.9368784" lon="7.1273546"><ele>765.0</ele><time>2026-04-21T14:55:42.924Z</time></trkpt><trkpt lat="44.9370203" lon="7.1272041"><ele>765.0</ele><time>2026-04-21T14:55:43.924Z</time></trkpt><trkpt lat="44.9371632" lon="7.1270934"><ele>765.0</ele><time>2026-04-21T14:55:44.924Z</time></trkpt><trkpt lat="44.9373215" lon="7.1269964"><ele>765.0</ele><time>2026-04-21T14:55:45.925Z</time></trkpt><trkpt lat="44.9374785" lon="7.1269092"><ele>766.6</ele><time>2026-04-21T14:55:46.925Z</time></trkpt><trkpt lat="44.9376093" lon="7.1268292"><ele>768.2</ele><time>2026-04-21T14:55:47.923Z</time></trkpt><trkpt lat="44.9377225" lon="7.1267562"><ele>769.8</ele><time>2026-04-21T14:55:48.924Z</time></trkpt><trkpt lat="44.9378088" lon="7.1266989"><ele>771.4</ele><time>2026-04-21T14:55:49.924Z</time></trkpt><trkpt lat="44.9378726" lon="7.1266539"><ele>773.0</ele><time>2026-04-21T14:55:50.924Z</time></trkpt><trkpt lat="44.9378919" lon="7.12653"><ele>773.0</ele><time>2026-04-21T14:55:52.923Z</time></trkpt><trkpt lat="44.9378224" lon="7.1263722"><ele>773.0</ele><time>2026-04-21T14:55:54.925Z</time></trkpt><trkpt lat="44.9377731" lon="7.12626"><ele>773.0</ele><time>2026-04-21T14:55:55.924Z</time></trkpt><trkpt lat="44.9377294" lon="7.1261251"><ele>773.0</ele><time>2026-04-21T14:55:56.924Z</time></trkpt><trkpt lat="44.9376976" lon="7.1259739"><ele>773.0</ele><time>2026-04-21T14:55:57.924Z</time></trkpt><trkpt lat="44.9376934" lon="7.1258088"><ele>772.75</ele><time>2026-04-21T14:55:58.923Z</time></trkpt><trkpt lat="44.9377133" lon="7.1256399"><ele>772.5</ele><time>2026-04-21T14:55:59.924Z</time></trkpt><trkpt lat="44.9377451" lon="7.1254617"><ele>772.25</ele><time>2026-04-21T14:56:00.925Z</time></trkpt><trkpt lat="44.9377767" lon="7.1252845"><ele>772.0</ele><time>2026-04-21T14:56:01.925Z</time></trkpt><trkpt lat="44.9378088" lon="7.1251036"><ele>772.0</ele><time>2026-04-21T14:56:02.923Z</time></trkpt><trkpt lat="44.9378368" lon="7.124923"><ele>772.0</ele><time>2026-04-21T14:56:03.925Z</time></trkpt><trkpt lat="44.9378552" lon="7.124756"><ele>772.0</ele><time>2026-04-21T14:56:04.925Z</time></trkpt><trkpt lat="44.9378508" lon="7.1246092"><ele>772.0</ele><time>2026-04-21T14:56:05.925Z</time></trkpt><trkpt lat="44.9378137" lon="7.1244679"><ele>772.0</ele><time>2026-04-21T14:56:06.925Z</time></trkpt><trkpt lat="44.937749" lon="7.1243251"><ele>772.0</ele><time>2026-04-21T14:56:07.924Z</time></trkpt><trkpt lat="44.9376777" lon="7.1241671"><ele>772.0</ele><time>2026-04-21T14:56:08.925Z</time></trkpt><trkpt lat="44.9375949" lon="7.1239949"><ele>772.0</ele><time>2026-04-21T14:56:09.925Z</time></trkpt><trkpt lat="44.9375077" lon="7.1238241"><ele>773.5</ele><time>2026-04-21T14:56:10.924Z</time></trkpt><trkpt lat="44.9374209" lon="7.1236703"><ele>775.0</ele><time>2026-04-21T14:56:11.924Z</time></trkpt><trkpt lat="44.9373355" lon="7.1235432"><ele>776.5</ele><time>2026-04-21T14:56:12.923Z</time></trkpt><trkpt lat="44.9372383" lon="7.1234647"><ele>778.0</ele><time>2026-04-21T14:56:13.923Z</time></trkpt><trkpt lat="44.9371294" lon="7.1234595"><ele>778.0</ele><time>2026-04-21T14:56:14.923Z</time></trkpt><trkpt lat="44.9370056" lon="7.123509"><ele>778.0</ele><time>2026-04-21T14:56:15.925Z</time></trkpt><trkpt lat="44.9368534" lon="7.123558"><ele>778.0</ele><time>2026-04-21T14:56:16.924Z</time></trkpt><trkpt lat="44.9366968" lon="7.1236118"><ele>778.0</ele><time>2026-04-21T14:56:17.924Z</time></trkpt><trkpt lat="44.9365197" lon="7.123664"><ele>783.6666666666666</ele><time>2026-04-21T14:56:18.924Z</time></trkpt><trkpt lat="44.9363356" lon="7.1237024"><ele>789.3333333333333</ele><time>2026-04-21T14:56:19.925Z</time></trkpt><trkpt lat="44.936155" lon="7.1237169"><ele>795.0</ele><time>2026-04-21T14:56:20.924Z</time></trkpt><trkpt lat="44.9359915" lon="7.1237143"><ele>799.6666666666667</ele><time>2026-04-21T14:56:21.924Z</time></trkpt><trkpt lat="44.9358427" lon="7.1237187"><ele>804.3333333333334</ele><time>2026-04-21T14:56:22.923Z</time></trkpt><trkpt lat="44.9356944" lon="7.1237658"><ele>809.0</ele><time>2026-04-21T14:56:23.925Z</time></trkpt><trkpt lat="44.9355461" lon="7.1238254"><ele>809.0</ele><time>2026-04-21T14:56:24.923Z</time></trkpt><trkpt lat="44.9354203" lon="7.1238901"><ele>809.0</ele><time>2026-04-21T14:56:25.924Z</time></trkpt><trkpt lat="44.9353026" lon="7.1239132"><ele>809.0</ele><time>2026-04-21T14:56:26.924Z</time></trkpt><trkpt lat="44.9351808" lon="7.1238851"><ele>809.0</ele><time>2026-04-21T14:56:27.924Z</time></trkpt><trkpt lat="44.9350492" lon="7.1238307"><ele>810.25</ele><time>2026-04-21T14:56:28.923Z</time></trkpt><trkpt lat="44.9349074" lon="7.1237759"><ele>811.5</ele><time>2026-04-21T14:56:29.924Z</time></trkpt><trkpt lat="44.9347757" lon="7.123688"><ele>812.75</ele><time>2026-04-21T14:56:30.924Z</time></trkpt><trkpt lat="44.9346552" lon="7.1235671"><ele>814.0</ele><time>2026-04-21T14:56:31.924Z</time></trkpt><trkpt lat="44.9345559" lon="7.1234586"><ele>813.9999999999999</ele><time>2026-04-21T14:56:32.924Z</time></trkpt><trkpt lat="44.9344705" lon="7.1233743"><ele>814.0</ele><time>2026-04-21T14:56:33.925Z</time></trkpt><trkpt lat="44.9343958" lon="7.1233292"><ele>814.0</ele><time>2026-04-21T14:56:34.924Z</time></trkpt><trkpt lat="44.9343277" lon="7.123342"><ele>814.0</ele><time>2026-04-21T14:56:35.924Z</time></trkpt><trkpt lat="44.9342746" lon="7.1234041"><ele>813.9999999999999</ele><time>2026-04-21T14:56:36.925Z</time></trkpt><trkpt lat="44.9342472" lon="7.1235003"><ele>814.0</ele><time>2026-04-21T14:56:37.924Z</time></trkpt><trkpt lat="44.9342626" lon="7.1236061"><ele>814.0</ele><time>2026-04-21T14:56:38.923Z</time></trkpt><trkpt lat="44.9343126" lon="7.1237002"><ele>814.0</ele><time>2026-04-21T14:56:39.923Z</time></trkpt><trkpt lat="44.9343728" lon="7.1237959"><ele>814.0</ele><time>2026-04-21T14:56:40.925Z</time></trkpt><trkpt lat="44.9344419" lon="7.1239038"><ele>814.0</ele><time>2026-04-21T14:56:41.923Z</time></trkpt><trkpt lat="44.9345212" lon="7.124016"><ele>814.0</ele><time>2026-04-21T14:56:42.924Z</time></trkpt><trkpt lat="44.9346187" lon="7.1241022"><ele>820.0</ele><time>2026-04-21T14:56:43.923Z</time></trkpt><trkpt lat="44.9347236" lon="7.1241812"><ele>826.0</ele><time>2026-04-21T14:56:44.924Z</time></trkpt><trkpt lat="44.934832" lon="7.1242609"><ele>832.0</ele><time>2026-04-21T14:56:45.925Z</time></trkpt><trkpt lat="44.9349429" lon="7.1243339"><ele>838.0</ele><time>2026-04-21T14:56:46.925Z</time></trkpt><trkpt lat="44.935048" lon="7.1243916"><ele>836.0</ele><time>2026-04-21T14:56:47.925Z</time></trkpt><trkpt lat="44.93517" lon="7.1243699"><ele>834.0</ele><time>2026-04-21T14:56:48.924Z</time></trkpt><trkpt lat="44.9353026" lon="7.1243638"><ele>832.0</ele><time>2026-04-21T14:56:49.924Z</time></trkpt><trkpt lat="44.935451" lon="7.1243581"><ele>830.0</ele><time>2026-04-21T14:56:50.924Z</time></trkpt><trkpt lat="44.9355771" lon="7.1243478"><ele>830.0</ele><time>2026-04-21T14:56:51.924Z</time></trkpt><trkpt lat="44.9356861" lon="7.124349"><ele>830.0</ele><time>2026-04-21T14:56:52.923Z</time></trkpt><trkpt lat="44.9357771" lon="7.1243415"><ele>830.0</ele><time>2026-04-21T14:56:53.924Z</time></trkpt><trkpt lat="44.9358688" lon="7.1243479"><ele>830.0</ele><time>2026-04-21T14:56:54.925Z</time></trkpt><trkpt lat="44.9359585" lon="7.1243611"><ele>830.0</ele><time>2026-04-21T14:56:55.923Z</time></trkpt><trkpt lat="44.9360421" lon="7.1244252"><ele>827.0</ele><time>2026-04-21T14:56:56.923Z</time></trkpt><trkpt lat="44.9361572" lon="7.1244922"><ele>824.0</ele><time>2026-04-21T14:56:57.925Z</time></trkpt><trkpt lat="44.9362562" lon="7.1245417"><ele>821.0</ele><time>2026-04-21T14:56:58.923Z</time></trkpt><trkpt lat="44.9363303" lon="7.1245976"><ele>818.0</ele><time>2026-04-21T14:56:59.924Z</time></trkpt><trkpt lat="44.9363931" lon="7.124659"><ele>815.0</ele><time>2026-04-21T14:57:00.924Z</time></trkpt><trkpt lat="44.9364484" lon="7.124736"><ele>815.0</ele><time>2026-04-21T14:57:01.924Z</time></trkpt><trkpt lat="44.9365016" lon="7.1248571"><ele>815.0</ele><time>2026-04-21T14:57:02.924Z</time></trkpt><trkpt lat="44.9365292" lon="7.1249792"><ele>815.0</ele><time>2026-04-21T14:57:03.924Z</time></trkpt><trkpt lat="44.9365365" lon="7.1251102"><ele>815.0</ele><time>2026-04-21T14:57:04.925Z</time></trkpt><trkpt lat="44.9365218" lon="7.1252375"><ele>815.0</ele><time>2026-04-21T14:57:05.924Z</time></trkpt><trkpt lat="44.9364881" lon="7.1253572"><ele>819.3333333333334</ele><time>2026-04-21T14:57:06.925Z</time></trkpt><trkpt lat="44.9364199" lon="7.1254388"><ele>823.6666666666667</ele><time>2026-04-21T14:57:07.925Z</time></trkpt><trkpt lat="44.9363521" lon="7.1254977"><ele>828.0</ele><time>2026-04-21T14:57:08.923Z</time></trkpt><trkpt lat="44.9362629" lon="7.125515"><ele>832.3333333333333</ele><time>2026-04-21T14:57:09.925Z</time></trkpt><trkpt lat="44.93617" lon="7.1255305"><ele>836.6666666666666</ele><time>2026-04-21T14:57:10.925Z</time></trkpt><trkpt lat="44.936084" lon="7.1255391"><ele>841.0</ele><time>2026-04-21T14:57:11.925Z</time></trkpt><trkpt lat="44.9360101" lon="7.1255394"><ele>840.9999999999999</ele><time>2026-04-21T14:57:12.923Z</time></trkpt><trkpt lat="44.9359389" lon="7.1255393"><ele>841.0</ele><time>2026-04-21T14:57:13.925Z</time></trkpt><trkpt lat="44.9358672" lon="7.1255504"><ele>841.0</ele><time>2026-04-21T14:57:14.925Z</time></trkpt><trkpt lat="44.9357937" lon="7.1255765"><ele>841.0</ele><time>2026-04-21T14:57:15.923Z</time></trkpt><trkpt lat="44.9357205" lon="7.1255979"><ele>840.9999999999999</ele><time>2026-04-21T14:57:16.925Z</time></trkpt><trkpt lat="44.9356426" lon="7.1255842"><ele>841.0</ele><time>2026-04-21T14:57:17.924Z</time></trkpt><trkpt lat="44.9355656" lon="7.125545"><ele>844.8</ele><time>2026-04-21T14:57:18.924Z</time></trkpt><trkpt lat="44.9354992" lon="7.1255179"><ele>848.5999999999999</ele><time>2026-04-21T14:57:19.923Z</time></trkpt><trkpt lat="44.9353847" lon="7.125478"><ele>852.4</ele><time>2026-04-21T14:57:21.925Z</time></trkpt><trkpt lat="44.935263" lon="7.1254185"><ele>856.2</ele><time>2026-04-21T14:57:23.924Z</time></trkpt><trkpt lat="44.9351866" lon="7.1253925"><ele>860.0</ele><time>2026-04-21T14:57:24.924Z</time></trkpt><trkpt lat="44.9351032" lon="7.1253727"><ele>861.1666666666667</ele><time>2026-04-21T14:57:25.925Z</time></trkpt><trkpt lat="44.9350118" lon="7.1253542"><ele>862.3333333333334</ele><time>2026-04-21T14:57:26.925Z</time></trkpt><trkpt lat="44.934913" lon="7.1253332"><ele>863.5</ele><time>2026-04-21T14:57:27.924Z</time></trkpt><trkpt lat="44.9348227" lon="7.1253067"><ele>864.6666666666667</ele><time>2026-04-21T14:57:28.923Z</time></trkpt><trkpt lat="44.9347445" lon="7.1252725"><ele>865.8333333333334</ele><time>2026-04-21T14:57:29.925Z</time></trkpt><trkpt lat="44.9346757" lon="7.1252437"><ele>867.0</ele><time>2026-04-21T14:57:30.925Z</time></trkpt><trkpt lat="44.9346062" lon="7.1252147"><ele>867.0</ele><time>2026-04-21T14:57:31.924Z</time></trkpt><trkpt lat="44.9345339" lon="7.1251882"><ele>867.0</ele><time>2026-04-21T14:57:32.925Z</time></trkpt><trkpt lat="44.9344589" lon="7.1251747"><ele>867.0</ele><time>2026-04-21T14:57:33.924Z</time></trkpt><trkpt lat="44.9343782" lon="7.1251762"><ele>867.0</ele><time>2026-04-21T14:57:34.924Z</time></trkpt><trkpt lat="44.9342958" lon="7.1251758"><ele>867.0</ele><time>2026-04-21T14:57:35.924Z</time></trkpt><trkpt lat="44.9342132" lon="7.1251844"><ele>867.0</ele><time>2026-04-21T14:57:36.924Z</time></trkpt><trkpt lat="44.9341309" lon="7.1251987"><ele>868.6666666666666</ele><time>2026-04-21T14:57:37.925Z</time></trkpt><trkpt lat="44.9340514" lon="7.1252053"><ele>870.3333333333333</ele><time>2026-04-21T14:57:38.925Z</time></trkpt><trkpt lat="44.9339721" lon="7.1252074"><ele>872.0</ele><time>2026-04-21T14:57:39.924Z</time></trkpt><trkpt lat="44.9338962" lon="7.1252189"><ele>873.6666666666666</ele><time>2026-04-21T14:57:40.924Z</time></trkpt><trkpt lat="44.9338204" lon="7.1252308"><ele>875.3333333333333</ele><time>2026-04-21T14:57:41.924Z</time></trkpt><trkpt lat="44.9337415" lon="7.1252536"><ele>877.0</ele><time>2026-04-21T14:57:42.924Z</time></trkpt><trkpt lat="44.9336581" lon="7.1252896"><ele>877.0</ele><time>2026-04-21T14:57:43.924Z</time></trkpt><trkpt lat="44.9335737" lon="7.1253329"><ele>877.0</ele><time>2026-04-21T14:57:44.925Z</time></trkpt><trkpt lat="44.9334873" lon="7.1253898"><ele>877.0</ele><time>2026-04-21T14:57:45.924Z</time></trkpt><trkpt lat="44.9333972" lon="7.1254419"><ele>877.0</ele><time>2026-04-21T14:57:46.925Z</time></trkpt><trkpt lat="44.933306" lon="7.1254796"><ele>877.0</ele><time>2026-04-21T14:57:47.924Z</time></trkpt><trkpt lat="44.9332287" lon="7.1254986"><ele>878.9999999999999</ele><time>2026-04-21T14:57:48.924Z</time></trkpt><trkpt lat="44.933163" lon="7.1255184"><ele>881.0</ele><time>2026-04-21T14:57:49.925Z</time></trkpt><trkpt lat="44.9330479" lon="7.1255508"><ele>883.0</ele><time>2026-04-21T14:57:51.925Z</time></trkpt><trkpt lat="44.9329869" lon="7.1255744"><ele>885.0</ele><time>2026-04-21T14:57:52.924Z</time></trkpt><trkpt lat="44.9329212" lon="7.1256138"><ele>886.9999999999999</ele><time>2026-04-21T14:57:53.924Z</time></trkpt><trkpt lat="44.9328434" lon="7.1256292"><ele>889.0</ele><time>2026-04-21T14:57:54.924Z</time></trkpt><trkpt lat="44.9327751" lon="7.1256053"><ele>889.0</ele><time>2026-04-21T14:57:55.923Z</time></trkpt><trkpt lat="44.9327124" lon="7.125547"><ele>889.0</ele><time>2026-04-21T14:57:56.925Z</time></trkpt><trkpt lat="44.9326596" lon="7.1254637"><ele>889.0</ele><time>2026-04-21T14:57:57.925Z</time></trkpt><trkpt lat="44.9326269" lon="7.1253668"><ele>889.0</ele><time>2026-04-21T14:57:58.924Z</time></trkpt><trkpt lat="44.9326327" lon="7.1252697"><ele>889.0</ele><time>2026-04-21T14:57:59.925Z</time></trkpt><trkpt lat="44.9326656" lon="7.1251877"><ele>889.0</ele><time>2026-04-21T14:58:00.924Z</time></trkpt><trkpt lat="44.9327153" lon="7.1251255"><ele>889.0</ele><time>2026-04-21T14:58:01.923Z</time></trkpt><trkpt lat="44.9327998" lon="7.1250547"><ele>888.9999999999999</ele><time>2026-04-21T14:58:03.924Z</time></trkpt><trkpt lat="44.9328704" lon="7.1250062"><ele>889.0</ele><time>2026-04-21T14:58:05.924Z</time></trkpt><trkpt lat="44.9329338" lon="7.1249195"><ele>889.0</ele><time>2026-04-21T14:58:07.924Z</time></trkpt><trkpt lat="44.932896" lon="7.1248046"><ele>889.0</ele><time>2026-04-21T14:58:09.924Z</time></trkpt><trkpt lat="44.9327795" lon="7.1247766"><ele>888.9999999999999</ele><time>2026-04-21T14:58:11.923Z</time></trkpt><trkpt lat="44.9327114" lon="7.1247687"><ele>889.0</ele><time>2026-04-21T14:58:12.924Z</time></trkpt><trkpt lat="44.9326335" lon="7.1247487"><ele>888.8333333333333</ele><time>2026-04-21T14:58:13.924Z</time></trkpt><trkpt lat="44.9325482" lon="7.1247325"><ele>888.6666666666666</ele><time>2026-04-21T14:58:14.925Z</time></trkpt><trkpt lat="44.9324593" lon="7.1247221"><ele>888.5</ele><time>2026-04-21T14:58:15.922Z</time></trkpt><trkpt lat="44.9323656" lon="7.1247192"><ele>888.3333333333333</ele><time>2026-04-21T14:58:16.924Z</time></trkpt><trkpt lat="44.9322759" lon="7.124713"><ele>888.1666666666666</ele><time>2026-04-21T14:58:17.923Z</time></trkpt><trkpt lat="44.9321861" lon="7.1247076"><ele>888.0</ele><time>2026-04-21T14:58:18.922Z</time></trkpt><trkpt lat="44.9320941" lon="7.1246982"><ele>888.0</ele><time>2026-04-21T14:58:19.924Z</time></trkpt><trkpt lat="44.9320012" lon="7.1246777"><ele>888.0</ele><time>2026-04-21T14:58:20.923Z</time></trkpt><trkpt lat="44.931913" lon="7.1246442"><ele>888.0</ele><time>2026-04-21T14:58:21.923Z</time></trkpt><trkpt lat="44.9318325" lon="7.1246142"><ele>888.0</ele><time>2026-04-21T14:58:22.923Z</time></trkpt><trkpt lat="44.9317617" lon="7.124593"><ele>888.0</ele><time>2026-04-21T14:58:23.924Z</time></trkpt><trkpt lat="44.9316992" lon="7.1245789"><ele>888.0</ele><time>2026-04-21T14:58:24.923Z</time></trkpt><trkpt lat="44.9316347" lon="7.1245634"><ele>889.0</ele><time>2026-04-21T14:58:25.922Z</time></trkpt><trkpt lat="44.9315681" lon="7.1245527"><ele>890.0</ele><time>2026-04-21T14:58:26.924Z</time></trkpt><trkpt lat="44.9315044" lon="7.1245448"><ele>891.0</ele><time>2026-04-21T14:58:27.923Z</time></trkpt><trkpt lat="44.9314292" lon="7.1245451"><ele>892.0</ele><time>2026-04-21T14:58:28.922Z</time></trkpt><trkpt lat="44.9313521" lon="7.1245633"><ele>893.0</ele><time>2026-04-21T14:58:29.923Z</time></trkpt><trkpt lat="44.9312812" lon="7.1246027"><ele>894.0</ele><time>2026-04-21T14:58:30.923Z</time></trkpt><trkpt lat="44.9312029" lon="7.1246243"><ele>895.0</ele><time>2026-04-21T14:58:31.923Z</time></trkpt><trkpt lat="44.9311248" lon="7.1246084"><ele>894.9999999999999</ele><time>2026-04-21T14:58:32.922Z</time></trkpt><trkpt lat="44.9310508" lon="7.1245872"><ele>895.0</ele><time>2026-04-21T14:58:33.924Z</time></trkpt><trkpt lat="44.9309151" lon="7.1245525"><ele>895.0</ele><time>2026-04-21T14:58:35.923Z</time></trkpt><trkpt lat="44.9308406" lon="7.1245459"><ele>895.0</ele><time>2026-04-21T14:58:36.924Z</time></trkpt><trkpt lat="44.9307658" lon="7.1245661"><ele>894.9999999999999</ele><time>2026-04-21T14:58:37.922Z</time></trkpt><trkpt lat="44.9306893" lon="7.1245599"><ele>895.0</ele><time>2026-04-21T14:58:38.924Z</time></trkpt><trkpt lat="44.930602" lon="7.1245324"><ele>898.3333333333333</ele><time>2026-04-21T14:58:39.922Z</time></trkpt><trkpt lat="44.9305123" lon="7.1245071"><ele>901.6666666666666</ele><time>2026-04-21T14:58:40.924Z</time></trkpt><trkpt lat="44.9304283" lon="7.1244708"><ele>905.0</ele><time>2026-04-21T14:58:41.923Z</time></trkpt><trkpt lat="44.9303549" lon="7.1244374"><ele>908.3333333333333</ele><time>2026-04-21T14:58:42.924Z</time></trkpt><trkpt lat="44.9302789" lon="7.1244301"><ele>911.6666666666666</ele><time>2026-04-21T14:58:43.923Z</time></trkpt><trkpt lat="44.9302142" lon="7.1244313"><ele>915.0</ele><time>2026-04-21T14:58:44.924Z</time></trkpt><trkpt lat="44.9301044" lon="7.1243627"><ele>918.6</ele><time>2026-04-21T14:58:46.922Z</time></trkpt><trkpt lat="44.930043" lon="7.1243321"><ele>922.2</ele><time>2026-04-21T14:58:47.924Z</time></trkpt><trkpt lat="44.9299675" lon="7.1243046"><ele>925.8</ele><time>2026-04-21T14:58:48.922Z</time></trkpt><trkpt lat="44.9298612" lon="7.1242638"><ele>929.4</ele><time>2026-04-21T14:58:50.923Z</time></trkpt><trkpt lat="44.9297816" lon="7.1241547"><ele>933.0</ele><time>2026-04-21T14:58:52.922Z</time></trkpt><trkpt lat="44.9297132" lon="7.1240443"><ele>925.8</ele><time>2026-04-21T14:58:54.922Z</time></trkpt><trkpt lat="44.9296027" lon="7.1240095"><ele>918.5999999999999</ele><time>2026-04-21T14:58:56.923Z</time></trkpt><trkpt lat="44.9294841" lon="7.1239936"><ele>911.4000000000001</ele><time>2026-04-21T14:58:58.923Z</time></trkpt><trkpt lat="44.9294217" lon="7.1239388"><ele>904.2</ele><time>2026-04-21T14:58:59.924Z</time></trkpt><trkpt lat="44.92933" lon="7.1238443"><ele>897.0</ele><time>2026-04-21T14:59:01.923Z</time></trkpt><trkpt lat="44.9292657" lon="7.1238304"><ele>903.8</ele><time>2026-04-21T14:59:02.924Z</time></trkpt><trkpt lat="44.9291685" lon="7.1238227"><ele>910.6</ele><time>2026-04-21T14:59:04.923Z</time></trkpt><trkpt lat="44.9290801" lon="7.1237237"><ele>917.3999999999999</ele><time>2026-04-21T14:59:06.922Z</time></trkpt><trkpt lat="44.9290473" lon="7.1236476"><ele>924.1999999999999</ele><time>2026-04-21T14:59:07.923Z</time></trkpt><trkpt lat="44.9290077" lon="7.1235766"><ele>931.0</ele><time>2026-04-21T14:59:08.922Z</time></trkpt><trkpt lat="44.9289117" lon="7.1234507"><ele>930.9999999999999</ele><time>2026-04-21T14:59:10.923Z</time></trkpt><trkpt lat="44.9288528" lon="7.1234186"><ele>931.0</ele><time>2026-04-21T14:59:11.923Z</time></trkpt><trkpt lat="44.9287843" lon="7.123406"><ele>931.0</ele><time>2026-04-21T14:59:12.923Z</time></trkpt><trkpt lat="44.9287041" lon="7.1234096"><ele>931.0</ele><time>2026-04-21T14:59:13.923Z</time></trkpt><trkpt lat="44.9286079" lon="7.1234265"><ele>930.9999999999999</ele><time>2026-04-21T14:59:14.922Z</time></trkpt><trkpt lat="44.9285131" lon="7.1234525"><ele>931.0</ele><time>2026-04-21T14:59:15.924Z</time></trkpt><trkpt lat="44.9284211" lon="7.1234867"><ele>934.9999999999999</ele><time>2026-04-21T14:59:16.923Z</time></trkpt><trkpt lat="44.9283348" lon="7.1235143"><ele>939.0</ele><time>2026-04-21T14:59:17.923Z</time></trkpt><trkpt lat="44.928243" lon="7.1235273"><ele>943.0</ele><time>2026-04-21T14:59:18.924Z</time></trkpt><trkpt lat="44.9281552" lon="7.123532"><ele>947.0</ele><time>2026-04-21T14:59:19.923Z</time></trkpt><trkpt lat="44.9280692" lon="7.1235375"><ele>950.9999999999999</ele><time>2026-04-21T14:59:20.924Z</time></trkpt><trkpt lat="44.9279856" lon="7.1235467"><ele>955.0</ele><time>2026-04-21T14:59:21.922Z</time></trkpt><trkpt lat="44.9278976" lon="7.1235655"><ele>954.9999999999999</ele><time>2026-04-21T14:59:22.923Z</time></trkpt><trkpt lat="44.9278122" lon="7.1235843"><ele>955.0</ele><time>2026-04-21T14:59:23.924Z</time></trkpt><trkpt lat="44.9277204" lon="7.1235889"><ele>955.0</ele><time>2026-04-21T14:59:24.923Z</time></trkpt><trkpt lat="44.9276313" lon="7.1235953"><ele>955.0</ele><time>2026-04-21T14:59:25.922Z</time></trkpt><trkpt lat="44.9275415" lon="7.1236089"><ele>954.9999999999999</ele><time>2026-04-21T14:59:26.923Z</time></trkpt><trkpt lat="44.9274518" lon="7.1236298"><ele>955.0</ele><time>2026-04-21T14:59:27.924Z</time></trkpt><trkpt lat="44.9273663" lon="7.1236391"><ele>955.4999999999999</ele><time>2026-04-21T14:59:28.923Z</time></trkpt><trkpt lat="44.927293" lon="7.1236467"><ele>956.0</ele><time>2026-04-21T14:59:29.924Z</time></trkpt><trkpt lat="44.9271822" lon="7.1236988"><ele>956.5</ele><time>2026-04-21T14:59:31.923Z</time></trkpt><trkpt lat="44.9271308" lon="7.1237848"><ele>957.0</ele><time>2026-04-21T14:59:32.923Z</time></trkpt><trkpt lat="44.9270783" lon="7.1238567"><ele>957.4999999999999</ele><time>2026-04-21T14:59:33.922Z</time></trkpt><trkpt lat="44.9270071" lon="7.1239307"><ele>958.0</ele><time>2026-04-21T14:59:34.924Z</time></trkpt><trkpt lat="44.9269302" lon="7.1239727"><ele>957.9999999999999</ele><time>2026-04-21T14:59:35.923Z</time></trkpt><trkpt lat="44.9268512" lon="7.1240079"><ele>958.0</ele><time>2026-04-21T14:59:36.924Z</time></trkpt><trkpt lat="44.9267751" lon="7.1240303"><ele>958.0</ele><time>2026-04-21T14:59:37.923Z</time></trkpt><trkpt lat="44.9267075" lon="7.1240489"><ele>958.0</ele><time>2026-04-21T14:59:38.923Z</time></trkpt><trkpt lat="44.9266429" lon="7.124096"><ele>957.9999999999999</ele><time>2026-04-21T14:59:39.923Z</time></trkpt><trkpt lat="44.92659" lon="7.1241594"><ele>958.0</ele><time>2026-04-21T14:59:40.924Z</time></trkpt><trkpt lat="44.9265228" lon="7.1242155"><ele>962.8333333333333</ele><time>2026-04-21T14:59:41.923Z</time></trkpt><trkpt lat="44.9264514" lon="7.1242669"><ele>967.6666666666666</ele><time>2026-04-21T14:59:42.922Z</time></trkpt><trkpt lat="44.926376" lon="7.1243072"><ele>972.5</ele><time>2026-04-21T14:59:43.922Z</time></trkpt><trkpt lat="44.9262877" lon="7.1243221"><ele>977.3333333333333</ele><time>2026-04-21T14:59:44.924Z</time></trkpt><trkpt lat="44.9262183" lon="7.1243468"><ele>982.1666666666666</ele><time>2026-04-21T14:59:45.923Z</time></trkpt><trkpt lat="44.9261405" lon="7.1243625"><ele>987.0</ele><time>2026-04-21T14:59:46.923Z</time></trkpt><trkpt lat="44.9260655" lon="7.1243658"><ele>987.0</ele><time>2026-04-21T14:59:47.923Z</time></trkpt><trkpt lat="44.9259954" lon="7.1243599"><ele>987.0</ele><time>2026-04-21T14:59:48.923Z</time></trkpt><trkpt lat="44.9259158" lon="7.1243608"><ele>987.0</ele><time>2026-04-21T14:59:49.924Z</time></trkpt><trkpt lat="44.9258398" lon="7.1243592"><ele>987.0</ele><time>2026-04-21T14:59:50.923Z</time></trkpt><trkpt lat="44.9257616" lon="7.1243313"><ele>987.0</ele><time>2026-04-21T14:59:51.923Z</time></trkpt><trkpt lat="44.925691" lon="7.1243145"><ele>987.0</ele><time>2026-04-21T14:59:52.923Z</time></trkpt><trkpt lat="44.9256252" lon="7.1243232"><ele>987.0</ele><time>2026-04-21T14:59:53.922Z</time></trkpt><trkpt lat="44.9255314" lon="7.1243173"><ele>986.8333333333334</ele><time>2026-04-21T14:59:54.923Z</time></trkpt><trkpt lat="44.9254427" lon="7.1243359"><ele>986.6666666666667</ele><time>2026-04-21T14:59:55.923Z</time></trkpt><trkpt lat="44.9253618" lon="7.1243536"><ele>986.5</ele><time>2026-04-21T14:59:56.922Z</time></trkpt><trkpt lat="44.925284" lon="7.1243674"><ele>986.3333333333334</ele><time>2026-04-21T14:59:57.923Z</time></trkpt><trkpt lat="44.9252093" lon="7.1243762"><ele>986.1666666666667</ele><time>2026-04-21T14:59:58.923Z</time></trkpt><trkpt lat="44.9251266" lon="7.1243916"><ele>986.0</ele><time>2026-04-21T14:59:59.924Z</time></trkpt><trkpt lat="44.9250467" lon="7.1244273"><ele>986.0000000000001</ele><time>2026-04-21T15:00:00.922Z</time></trkpt><trkpt lat="44.9249691" lon="7.1244771"><ele>986.0</ele><time>2026-04-21T15:00:01.924Z</time></trkpt><trkpt lat="44.9248961" lon="7.1245158"><ele>986.0</ele><time>2026-04-21T15:00:02.922Z</time></trkpt><trkpt lat="44.9248258" lon="7.1245294"><ele>986.0</ele><time>2026-04-21T15:00:03.922Z</time></trkpt><trkpt lat="44.9247599" lon="7.1245344"><ele>986.0000000000001</ele><time>2026-04-21T15:00:04.923Z</time></trkpt><trkpt lat="44.9246943" lon="7.1245595"><ele>986.0</ele><time>2026-04-21T15:00:05.923Z</time></trkpt><trkpt lat="44.9245727" lon="7.1246634"><ele>986.0000000000001</ele><time>2026-04-21T15:00:07.923Z</time></trkpt><trkpt lat="44.924484" lon="7.1247527"><ele>986.0</ele><time>2026-04-21T15:00:08.923Z</time></trkpt><trkpt lat="44.9244137" lon="7.1248078"><ele>986.0</ele><time>2026-04-21T15:00:09.922Z</time></trkpt><trkpt lat="44.9243368" lon="7.1248409"><ele>986.0</ele><time>2026-04-21T15:00:10.922Z</time></trkpt><trkpt lat="44.9242591" lon="7.1248576"><ele>986.0000000000001</ele><time>2026-04-21T15:00:11.924Z</time></trkpt><trkpt lat="44.9241805" lon="7.1248747"><ele>986.0</ele><time>2026-04-21T15:00:12.924Z</time></trkpt><trkpt lat="44.9241014" lon="7.1249119"><ele>989.1666666666667</ele><time>2026-04-21T15:00:13.923Z</time></trkpt><trkpt lat="44.9240518" lon="7.1249736"><ele>992.3333333333334</ele><time>2026-04-21T15:00:14.923Z</time></trkpt><trkpt lat="44.9239598" lon="7.1250355"><ele>995.5</ele><time>2026-04-21T15:00:15.923Z</time></trkpt><trkpt lat="44.9238858" lon="7.125101"><ele>998.6666666666667</ele><time>2026-04-21T15:00:16.923Z</time></trkpt><trkpt lat="44.9238211" lon="7.1251746"><ele>1001.8333333333334</ele><time>2026-04-21T15:00:17.922Z</time></trkpt><trkpt lat="44.9237546" lon="7.1252534"><ele>1005.0</ele><time>2026-04-21T15:00:18.922Z</time></trkpt><trkpt lat="44.9236847" lon="7.1253387"><ele>1005.0</ele><time>2026-04-21T15:00:19.924Z</time></trkpt><trkpt lat="44.9236304" lon="7.1254084"><ele>1005.0</ele><time>2026-04-21T15:00:20.922Z</time></trkpt><trkpt lat="44.9235838" lon="7.1254766"><ele>1005.0</ele><time>2026-04-21T15:00:21.923Z</time></trkpt><trkpt lat="44.923533" lon="7.1255364"><ele>1005.0</ele><time>2026-04-21T15:00:22.922Z</time></trkpt><trkpt lat="44.9234268" lon="7.1256331"><ele>1005.0</ele><time>2026-04-21T15:00:24.924Z</time></trkpt><trkpt lat="44.9233624" lon="7.1256531"><ele>1005.0</ele><time>2026-04-21T15:00:25.924Z</time></trkpt><trkpt lat="44.9232945" lon="7.1256679"><ele>1001.8333333333334</ele><time>2026-04-21T15:00:26.923Z</time></trkpt><trkpt lat="44.9232216" lon="7.1256946"><ele>998.6666666666667</ele><time>2026-04-21T15:00:27.924Z</time></trkpt><trkpt lat="44.9231641" lon="7.12574"><ele>995.5</ele><time>2026-04-21T15:00:28.922Z</time></trkpt><trkpt lat="44.9230847" lon="7.125789"><ele>992.3333333333334</ele><time>2026-04-21T15:00:29.922Z</time></trkpt><trkpt lat="44.9230114" lon="7.12585"><ele>989.1666666666667</ele><time>2026-04-21T15:00:30.924Z</time></trkpt><trkpt lat="44.9229543" lon="7.1259037"><ele>986.0</ele><time>2026-04-21T15:00:31.923Z</time></trkpt><trkpt lat="44.9228875" lon="7.1259435"><ele>990.4285714285713</ele><time>2026-04-21T15:00:32.923Z</time></trkpt><trkpt lat="44.9228274" lon="7.1259796"><ele>994.8571428571429</ele><time>2026-04-21T15:00:33.923Z</time></trkpt><trkpt lat="44.9227621" lon="7.1260152"><ele>999.2857142857142</ele><time>2026-04-21T15:00:34.924Z</time></trkpt><trkpt lat="44.9226892" lon="7.1260309"><ele>1003.7142857142857</ele><time>2026-04-21T15:00:35.924Z</time></trkpt><trkpt lat="44.9226236" lon="7.1260317"><ele>1008.1428571428571</ele><time>2026-04-21T15:00:36.923Z</time></trkpt><trkpt lat="44.9225542" lon="7.1260026"><ele>1012.5714285714286</ele><time>2026-04-21T15:00:37.923Z</time></trkpt><trkpt lat="44.9224842" lon="7.125996"><ele>1017.0</ele><time>2026-04-21T15:00:38.922Z</time></trkpt><trkpt lat="44.9224132" lon="7.1260204"><ele>1017.0</ele><time>2026-04-21T15:00:39.924Z</time></trkpt><trkpt lat="44.9223465" lon="7.1260723"><ele>1016.9999999999999</ele><time>2026-04-21T15:00:40.923Z</time></trkpt><trkpt lat="44.9222667" lon="7.1261207"><ele>1017.0</ele><time>2026-04-21T15:00:41.923Z</time></trkpt><trkpt lat="44.9222049" lon="7.1261557"><ele>1017.0</ele><time>2026-04-21T15:00:42.924Z</time></trkpt><trkpt lat="44.9221394" lon="7.1261756"><ele>1016.9999999999999</ele><time>2026-04-21T15:00:43.923Z</time></trkpt><trkpt lat="44.92207" lon="7.1261774"><ele>1017.0</ele><time>2026-04-21T15:00:44.923Z</time></trkpt><trkpt lat="44.921993" lon="7.1261716"><ele>1017.0</ele><time>2026-04-21T15:00:45.922Z</time></trkpt><trkpt lat="44.921914" lon="7.1261783"><ele>1017.0</ele><time>2026-04-21T15:00:46.924Z</time></trkpt><trkpt lat="44.9218409" lon="7.126213"><ele>1017.0</ele><time>2026-04-21T15:00:47.922Z</time></trkpt><trkpt lat="44.9217703" lon="7.1262687"><ele>1017.0</ele><time>2026-04-21T15:00:48.922Z</time></trkpt><trkpt lat="44.9217022" lon="7.1263068"><ele>1017.0</ele><time>2026-04-21T15:00:49.924Z</time></trkpt><trkpt lat="44.9216312" lon="7.1263586"><ele>1017.0</ele><time>2026-04-21T15:00:50.923Z</time></trkpt><trkpt lat="44.9215618" lon="7.1264045"><ele>1017.0</ele><time>2026-04-21T15:00:51.923Z</time></trkpt><trkpt lat="44.9214965" lon="7.1264307"><ele>1016.2</ele><time>2026-04-21T15:00:52.922Z</time></trkpt><trkpt lat="44.9213757" lon="7.126474"><ele>1015.4000000000001</ele><time>2026-04-21T15:00:54.923Z</time></trkpt><trkpt lat="44.9213067" lon="7.1264839"><ele>1014.5999999999999</ele><time>2026-04-21T15:00:55.923Z</time></trkpt><trkpt lat="44.9211786" lon="7.1265098"><ele>1013.8</ele><time>2026-04-21T15:00:57.924Z</time></trkpt><trkpt lat="44.9211114" lon="7.1265303"><ele>1013.0</ele><time>2026-04-21T15:00:58.922Z</time></trkpt><trkpt lat="44.9210468" lon="7.1265497"><ele>1015.7142857142858</ele><time>2026-04-21T15:00:59.922Z</time></trkpt><trkpt lat="44.9209808" lon="7.1265764"><ele>1018.4285714285716</ele><time>2026-04-21T15:01:00.923Z</time></trkpt><trkpt lat="44.9209238" lon="7.1266314"><ele>1021.1428571428571</ele><time>2026-04-21T15:01:01.923Z</time></trkpt><trkpt lat="44.9208779" lon="7.1267054"><ele>1023.8571428571429</ele><time>2026-04-21T15:01:02.923Z</time></trkpt><trkpt lat="44.9208312" lon="7.1267836"><ele>1026.5714285714284</ele><time>2026-04-21T15:01:03.924Z</time></trkpt><trkpt lat="44.9207998" lon="7.1268637"><ele>1029.2857142857142</ele><time>2026-04-21T15:01:04.924Z</time></trkpt><trkpt lat="44.9207718" lon="7.1269459"><ele>1032.0</ele><time>2026-04-21T15:01:05.923Z</time></trkpt><trkpt lat="44.9207394" lon="7.1270838"><ele>1032.0</ele><time>2026-04-21T15:01:07.924Z</time></trkpt><trkpt lat="44.9207284" lon="7.1272104"><ele>1032.0</ele><time>2026-04-21T15:01:09.922Z</time></trkpt><trkpt lat="44.9207899" lon="7.1272859"><ele>1032.0</ele><time>2026-04-21T15:01:11.924Z</time></trkpt><trkpt lat="44.9208759" lon="7.1272033"><ele>1032.0</ele><time>2026-04-21T15:01:13.923Z</time></trkpt><trkpt lat="44.9208968" lon="7.1271014"><ele>1032.0</ele><time>2026-04-21T15:01:14.923Z</time></trkpt><trkpt lat="44.9209408" lon="7.1270311"><ele>1032.0</ele><time>2026-04-21T15:01:15.923Z</time></trkpt><trkpt lat="44.9210572" lon="7.1269608"><ele>1035.142857142857</ele><time>2026-04-21T15:01:17.923Z</time></trkpt><trkpt lat="44.9211221" lon="7.1269512"><ele>1038.2857142857142</ele><time>2026-04-21T15:01:18.924Z</time></trkpt><trkpt lat="44.9211886" lon="7.1269385"><ele>1041.4285714285716</ele><time>2026-04-21T15:01:19.924Z</time></trkpt><trkpt lat="44.9212568" lon="7.1269343"><ele>1044.5714285714284</ele><time>2026-04-21T15:01:20.923Z</time></trkpt><trkpt lat="44.9213201" lon="7.1269393"><ele>1047.7142857142858</ele><time>2026-04-21T15:01:21.923Z</time></trkpt><trkpt lat="44.9213894" lon="7.1269436"><ele>1050.857142857143</ele><time>2026-04-21T15:01:22.923Z</time></trkpt><trkpt lat="44.9214662" lon="7.1269522"><ele>1054.0</ele><time>2026-04-21T15:01:23.924Z</time></trkpt><trkpt lat="44.9215383" lon="7.1269726"><ele>1054.0</ele><time>2026-04-21T15:01:24.923Z</time></trkpt><trkpt lat="44.9216177" lon="7.1270718"><ele>1054.0</ele><time>2026-04-21T15:01:26.923Z</time></trkpt><trkpt lat="44.9216609" lon="7.1271402"><ele>1054.0</ele><time>2026-04-21T15:01:27.924Z</time></trkpt><trkpt lat="44.9217163" lon="7.1271928"><ele>1054.0</ele><time>2026-04-21T15:01:28.924Z</time></trkpt><trkpt lat="44.9218317" lon="7.1271383"><ele>1054.0</ele><time>2026-04-21T15:01:30.923Z</time></trkpt><trkpt lat="44.9219113" lon="7.1270154"><ele>1055.3333333333333</ele><time>2026-04-21T15:01:32.922Z</time></trkpt><trkpt lat="44.9220206" lon="7.1269235"><ele>1056.6666666666665</ele><time>2026-04-21T15:01:34.923Z</time></trkpt><trkpt lat="44.9220905" lon="7.1268917"><ele>1058.0</ele><time>2026-04-21T15:01:35.924Z</time></trkpt><trkpt lat="44.9221581" lon="7.1268593"><ele>1059.3333333333333</ele><time>2026-04-21T15:01:36.923Z</time></trkpt><trkpt lat="44.9222273" lon="7.1268289"><ele>1060.6666666666667</ele><time>2026-04-21T15:01:37.924Z</time></trkpt><trkpt lat="44.9222888" lon="7.126805"><ele>1062.0</ele><time>2026-04-21T15:01:38.923Z</time></trkpt><trkpt lat="44.9224122" lon="7.1267837"><ele>1062.0</ele><time>2026-04-21T15:01:40.922Z</time></trkpt><trkpt lat="44.9224852" lon="7.1267781"><ele>1062.0</ele><time>2026-04-21T15:01:41.924Z</time></trkpt><trkpt lat="44.9225836" lon="7.1267885"><ele>1062.0</ele><time>2026-04-21T15:01:42.924Z</time></trkpt><trkpt lat="44.9226758" lon="7.126831"><ele>1062.0</ele><time>2026-04-21T15:01:43.922Z</time></trkpt><trkpt lat="44.9227513" lon="7.1268652"><ele>1062.0</ele><time>2026-04-21T15:01:44.924Z</time></trkpt><trkpt lat="44.9228239" lon="7.1268801"><ele>1062.0</ele><time>2026-04-21T15:01:45.922Z</time></trkpt><trkpt lat="44.9229022" lon="7.1268812"><ele>1062.1666666666667</ele><time>2026-04-21T15:01:46.924Z</time></trkpt><trkpt lat="44.9229779" lon="7.126904"><ele>1062.3333333333333</ele><time>2026-04-21T15:01:47.923Z</time></trkpt><trkpt lat="44.9230547" lon="7.1269588"><ele>1062.5</ele><time>2026-04-21T15:01:48.923Z</time></trkpt><trkpt lat="44.9231329" lon="7.1270193"><ele>1062.6666666666665</ele><time>2026-04-21T15:01:49.923Z</time></trkpt><trkpt lat="44.9232195" lon="7.1270823"><ele>1062.8333333333333</ele><time>2026-04-21T15:01:50.923Z</time></trkpt><trkpt lat="44.9232932" lon="7.1271399"><ele>1063.0</ele><time>2026-04-21T15:01:51.924Z</time></trkpt><trkpt lat="44.9233807" lon="7.1271749"><ele>1062.1666666666665</ele><time>2026-04-21T15:01:52.924Z</time></trkpt><trkpt lat="44.923461" lon="7.1271946"><ele>1061.3333333333333</ele><time>2026-04-21T15:01:53.924Z</time></trkpt><trkpt lat="44.9235382" lon="7.1272189"><ele>1060.5</ele><time>2026-04-21T15:01:54.923Z</time></trkpt><trkpt lat="44.9236168" lon="7.1272411"><ele>1059.6666666666667</ele><time>2026-04-21T15:01:55.923Z</time></trkpt><trkpt lat="44.9237009" lon="7.1272706"><ele>1058.8333333333335</ele><time>2026-04-21T15:01:56.924Z</time></trkpt><trkpt lat="44.9237812" lon="7.1272987"><ele>1058.0</ele><time>2026-04-21T15:01:57.923Z</time></trkpt><trkpt lat="44.9238606" lon="7.1273329"><ele>1058.0</ele><time>2026-04-21T15:01:58.923Z</time></trkpt><trkpt lat="44.9239373" lon="7.1273819"><ele>1058.0</ele><time>2026-04-21T15:01:59.924Z</time></trkpt><trkpt lat="44.9240027" lon="7.1274425"><ele>1058.0</ele><time>2026-04-21T15:02:00.922Z</time></trkpt><trkpt lat="44.9240679" lon="7.1275076"><ele>1058.0</ele><time>2026-04-21T15:02:01.923Z</time></trkpt><trkpt lat="44.9241276" lon="7.1275667"><ele>1058.0</ele><time>2026-04-21T15:02:02.924Z</time></trkpt><trkpt lat="44.9241921" lon="7.1276381"><ele>1058.0</ele><time>2026-04-21T15:02:03.922Z</time></trkpt><trkpt lat="44.9242592" lon="7.1277247"><ele>1061.1666666666667</ele><time>2026-04-21T15:02:04.922Z</time></trkpt><trkpt lat="44.9243245" lon="7.1278119"><ele>1064.3333333333335</ele><time>2026-04-21T15:02:05.923Z</time></trkpt><trkpt lat="44.9243843" lon="7.1279057"><ele>1067.5</ele><time>2026-04-21T15:02:06.924Z</time></trkpt><trkpt lat="44.9244453" lon="7.1279894"><ele>1070.6666666666667</ele><time>2026-04-21T15:02:07.922Z</time></trkpt><trkpt lat="44.9245084" lon="7.1280666"><ele>1073.8333333333333</ele><time>2026-04-21T15:02:08.924Z</time></trkpt><trkpt lat="44.9245739" lon="7.1281289"><ele>1077.0</ele><time>2026-04-21T15:02:09.922Z</time></trkpt><trkpt lat="44.9246388" lon="7.1281877"><ele>1081.0</ele><time>2026-04-21T15:02:10.923Z</time></trkpt><trkpt lat="44.9247039" lon="7.1282427"><ele>1085.0</ele><time>2026-04-21T15:02:11.924Z</time></trkpt><trkpt lat="44.9247731" lon="7.1283055"><ele>1089.0</ele><time>2026-04-21T15:02:12.924Z</time></trkpt><trkpt lat="44.9248415" lon="7.1283675"><ele>1093.0</ele><time>2026-04-21T15:02:13.923Z</time></trkpt><trkpt lat="44.9249124" lon="7.1284297"><ele>1097.0</ele><time>2026-04-21T15:02:14.923Z</time></trkpt><trkpt lat="44.9249835" lon="7.1284985"><ele>1101.0</ele><time>2026-04-21T15:02:15.924Z</time></trkpt><trkpt lat="44.9250529" lon="7.1285608"><ele>1101.5</ele><time>2026-04-21T15:02:16.923Z</time></trkpt><trkpt lat="44.9251315" lon="7.1286324"><ele>1102.0</ele><time>2026-04-21T15:02:17.923Z</time></trkpt><trkpt lat="44.9252133" lon="7.128704"><ele>1102.5</ele><time>2026-04-21T15:02:18.923Z</time></trkpt><trkpt lat="44.925285" lon="7.1287646"><ele>1103.0</ele><time>2026-04-21T15:02:19.923Z</time></trkpt><trkpt lat="44.9253516" lon="7.1288277"><ele>1103.5</ele><time>2026-04-21T15:02:20.924Z</time></trkpt><trkpt lat="44.9254007" lon="7.1288863"><ele>1104.0</ele><time>2026-04-21T15:02:21.924Z</time></trkpt><trkpt lat="44.9254548" lon="7.1289331"><ele>1104.0</ele><time>2026-04-21T15:02:22.923Z</time></trkpt><trkpt lat="44.925519" lon="7.1289575"><ele>1104.0</ele><time>2026-04-21T15:02:23.922Z</time></trkpt><trkpt lat="44.9255941" lon="7.1289363"><ele>1104.0</ele><time>2026-04-21T15:02:24.923Z</time></trkpt><trkpt lat="44.9256789" lon="7.1288704"><ele>1104.0</ele><time>2026-04-21T15:02:25.924Z</time></trkpt><trkpt lat="44.9257455" lon="7.1287809"><ele>1104.0</ele><time>2026-04-21T15:02:26.924Z</time></trkpt><trkpt lat="44.9258074" lon="7.1287078"><ele>1104.0</ele><time>2026-04-21T15:02:27.923Z</time></trkpt><trkpt lat="44.9258721" lon="7.1286514"><ele>1106.0</ele><time>2026-04-21T15:02:28.924Z</time></trkpt><trkpt lat="44.9259488" lon="7.128605"><ele>1108.0</ele><time>2026-04-21T15:02:29.922Z</time></trkpt><trkpt lat="44.9260291" lon="7.1285954"><ele>1110.0</ele><time>2026-04-21T15:02:30.923Z</time></trkpt><trkpt lat="44.9261168" lon="7.1286014"><ele>1112.0</ele><time>2026-04-21T15:02:31.922Z</time></trkpt><trkpt lat="44.926208" lon="7.1286215"><ele>1114.0</ele><time>2026-04-21T15:02:32.921Z</time></trkpt><trkpt lat="44.926305" lon="7.1286161"><ele>1116.0</ele><time>2026-04-21T15:02:33.922Z</time></trkpt><trkpt lat="44.926408" lon="7.1285807"><ele>1116.0</ele><time>2026-04-21T15:02:34.922Z</time></trkpt><trkpt lat="44.9264962" lon="7.1285566"><ele>1116.0</ele><time>2026-04-21T15:02:35.923Z</time></trkpt><trkpt lat="44.9265752" lon="7.1285206"><ele>1116.0</ele><time>2026-04-21T15:02:36.922Z</time></trkpt><trkpt lat="44.9266539" lon="7.1284756"><ele>1116.0</ele><time>2026-04-21T15:02:37.922Z</time></trkpt><trkpt lat="44.9267273" lon="7.1284289"><ele>1116.0</ele><time>2026-04-21T15:02:38.923Z</time></trkpt><trkpt lat="44.9268056" lon="7.1283885"><ele>1116.0</ele><time>2026-04-21T15:02:39.922Z</time></trkpt><trkpt lat="44.9268803" lon="7.1283599"><ele>1117.8333333333333</ele><time>2026-04-21T15:02:40.922Z</time></trkpt><trkpt lat="44.9269436" lon="7.1283332"><ele>1119.6666666666667</ele><time>2026-04-21T15:02:41.923Z</time></trkpt><trkpt lat="44.9270097" lon="7.1283035"><ele>1121.5</ele><time>2026-04-21T15:02:42.922Z</time></trkpt><trkpt lat="44.9270836" lon="7.1282743"><ele>1123.3333333333335</ele><time>2026-04-21T15:02:43.923Z</time></trkpt><trkpt lat="44.9271697" lon="7.128274"><ele>1125.1666666666667</ele><time>2026-04-21T15:02:44.923Z</time></trkpt><trkpt lat="44.9272586" lon="7.1283073"><ele>1127.0</ele><time>2026-04-21T15:02:45.921Z</time></trkpt><trkpt lat="44.9273511" lon="7.1283452"><ele>1127.0</ele><time>2026-04-21T15:02:46.922Z</time></trkpt><trkpt lat="44.9274382" lon="7.1283676"><ele>1127.0</ele><time>2026-04-21T15:02:47.922Z</time></trkpt><trkpt lat="44.927524" lon="7.1283755"><ele>1127.0</ele><time>2026-04-21T15:02:48.922Z</time></trkpt><trkpt lat="44.9276109" lon="7.1283774"><ele>1127.0</ele><time>2026-04-21T15:02:49.923Z</time></trkpt><trkpt lat="44.9276959" lon="7.1283776"><ele>1127.0</ele><time>2026-04-21T15:02:50.921Z</time></trkpt><trkpt lat="44.9277773" lon="7.1283749"><ele>1127.0</ele><time>2026-04-21T15:02:51.922Z</time></trkpt><trkpt lat="44.9278486" lon="7.1283808"><ele>1125.3333333333335</ele><time>2026-04-21T15:02:52.923Z</time></trkpt><trkpt lat="44.927968" lon="7.1283906"><ele>1123.6666666666667</ele><time>2026-04-21T15:02:54.921Z</time></trkpt><trkpt lat="44.9280344" lon="7.1284146"><ele>1122.0</ele><time>2026-04-21T15:02:55.922Z</time></trkpt><trkpt lat="44.9280954" lon="7.1284579"><ele>1120.3333333333333</ele><time>2026-04-21T15:02:56.923Z</time></trkpt><trkpt lat="44.9281474" lon="7.1285118"><ele>1118.6666666666665</ele><time>2026-04-21T15:02:57.922Z</time></trkpt><trkpt lat="44.9282278" lon="7.1286045"><ele>1117.0</ele><time>2026-04-21T15:02:59.923Z</time></trkpt><trkpt lat="44.928265" lon="7.1287194"><ele>1117.0</ele><time>2026-04-21T15:03:01.921Z</time></trkpt><trkpt lat="44.9281909" lon="7.1287713"><ele>1117.0</ele><time>2026-04-21T15:03:03.922Z</time></trkpt><trkpt lat="44.9281092" lon="7.1286619"><ele>1117.0</ele><time>2026-04-21T15:03:05.922Z</time></trkpt><trkpt lat="44.9280584" lon="7.1285934"><ele>1117.0</ele><time>2026-04-21T15:03:06.922Z</time></trkpt><trkpt lat="44.9279893" lon="7.1285582"><ele>1117.0</ele><time>2026-04-21T15:03:07.922Z</time></trkpt><trkpt lat="44.9279102" lon="7.128574"><ele>1117.0</ele><time>2026-04-21T15:03:08.923Z</time></trkpt><trkpt lat="44.9278327" lon="7.1286017"><ele>1117.0</ele><time>2026-04-21T15:03:09.922Z</time></trkpt><trkpt lat="44.9277524" lon="7.1286325"><ele>1117.0</ele><time>2026-04-21T15:03:10.921Z</time></trkpt><trkpt lat="44.9276728" lon="7.1286679"><ele>1117.0</ele><time>2026-04-21T15:03:11.922Z</time></trkpt><trkpt lat="44.9275978" lon="7.1287172"><ele>1117.0</ele><time>2026-04-21T15:03:12.923Z</time></trkpt><trkpt lat="44.9275361" lon="7.1287561"><ele>1117.0</ele><time>2026-04-21T15:03:13.923Z</time></trkpt><trkpt lat="44.9274717" lon="7.1288008"><ele>1117.0</ele><time>2026-04-21T15:03:14.922Z</time></trkpt><trkpt lat="44.9273978" lon="7.1288392"><ele>1118.6666666666665</ele><time>2026-04-21T15:03:15.922Z</time></trkpt><trkpt lat="44.9273276" lon="7.128875"><ele>1120.3333333333333</ele><time>2026-04-21T15:03:16.922Z</time></trkpt><trkpt lat="44.9272644" lon="7.128901"><ele>1122.0</ele><time>2026-04-21T15:03:17.923Z</time></trkpt><trkpt lat="44.9271371" lon="7.1289483"><ele>1123.6666666666667</ele><time>2026-04-21T15:03:19.922Z</time></trkpt><trkpt lat="44.927077" lon="7.1290176"><ele>1125.3333333333335</ele><time>2026-04-21T15:03:20.921Z</time></trkpt><trkpt lat="44.9270197" lon="7.1290948"><ele>1127.0</ele><time>2026-04-21T15:03:21.923Z</time></trkpt><trkpt lat="44.9269611" lon="7.1291787"><ele>1128.3333333333335</ele><time>2026-04-21T15:03:22.922Z</time></trkpt><trkpt lat="44.9268992" lon="7.1292608"><ele>1129.6666666666667</ele><time>2026-04-21T15:03:23.923Z</time></trkpt><trkpt lat="44.9268349" lon="7.1293381"><ele>1131.0</ele><time>2026-04-21T15:03:24.921Z</time></trkpt><trkpt lat="44.9267667" lon="7.1294093"><ele>1132.3333333333333</ele><time>2026-04-21T15:03:25.923Z</time></trkpt><trkpt lat="44.9266995" lon="7.1294921"><ele>1133.6666666666665</ele><time>2026-04-21T15:03:26.923Z</time></trkpt><trkpt lat="44.9266366" lon="7.1295904"><ele>1135.0</ele><time>2026-04-21T15:03:27.921Z</time></trkpt><trkpt lat="44.9265767" lon="7.1296928"><ele>1135.0</ele><time>2026-04-21T15:03:28.922Z</time></trkpt><trkpt lat="44.9265166" lon="7.1297927"><ele>1135.0</ele><time>2026-04-21T15:03:29.922Z</time></trkpt><trkpt lat="44.9264527" lon="7.1298954"><ele>1135.0</ele><time>2026-04-21T15:03:30.922Z</time></trkpt><trkpt lat="44.9263966" lon="7.1299999"><ele>1135.0</ele><time>2026-04-21T15:03:31.922Z</time></trkpt><trkpt lat="44.9263452" lon="7.1300974"><ele>1135.0</ele><time>2026-04-21T15:03:32.921Z</time></trkpt><trkpt lat="44.9263039" lon="7.1301829"><ele>1135.0</ele><time>2026-04-21T15:03:33.921Z</time></trkpt><trkpt lat="44.9262742" lon="7.1303442"><ele>1135.3333333333333</ele><time>2026-04-21T15:03:35.921Z</time></trkpt><trkpt lat="44.9263026" lon="7.13043"><ele>1135.6666666666665</ele><time>2026-04-21T15:03:36.923Z</time></trkpt><trkpt lat="44.9263557" lon="7.1305037"><ele>1136.0</ele><time>2026-04-21T15:03:37.923Z</time></trkpt><trkpt lat="44.9264133" lon="7.1305841"><ele>1136.3333333333333</ele><time>2026-04-21T15:03:38.922Z</time></trkpt><trkpt lat="44.9264356" lon="7.1306878"><ele>1136.6666666666667</ele><time>2026-04-21T15:03:39.922Z</time></trkpt><trkpt lat="44.9264375" lon="7.1308"><ele>1137.0</ele><time>2026-04-21T15:03:40.922Z</time></trkpt><trkpt lat="44.9264306" lon="7.13091"><ele>1137.0</ele><time>2026-04-21T15:03:41.921Z</time></trkpt><trkpt lat="44.9264126" lon="7.1310005"><ele>1137.0</ele><time>2026-04-21T15:03:42.921Z</time></trkpt><trkpt lat="44.9262999" lon="7.1311086"><ele>1137.0</ele><time>2026-04-21T15:03:44.922Z</time></trkpt><trkpt lat="44.9262383" lon="7.131157"><ele>1137.0</ele><time>2026-04-21T15:03:45.921Z</time></trkpt><trkpt lat="44.9261757" lon="7.1312145"><ele>1137.0</ele><time>2026-04-21T15:03:46.923Z</time></trkpt><trkpt lat="44.9261134" lon="7.1312738"><ele>1137.0</ele><time>2026-04-21T15:03:47.922Z</time></trkpt><trkpt lat="44.9260487" lon="7.1313489"><ele>1137.0</ele><time>2026-04-21T15:03:48.921Z</time></trkpt><trkpt lat="44.9259951" lon="7.1314562"><ele>1137.0</ele><time>2026-04-21T15:03:49.923Z</time></trkpt><trkpt lat="44.9259357" lon="7.1315545"><ele>1137.0</ele><time>2026-04-21T15:03:50.922Z</time></trkpt><trkpt lat="44.9258821" lon="7.1316701"><ele>1137.0</ele><time>2026-04-21T15:03:51.922Z</time></trkpt><trkpt lat="44.925828" lon="7.1317771"><ele>1137.0</ele><time>2026-04-21T15:03:52.922Z</time></trkpt><trkpt lat="44.9257704" lon="7.1318911"><ele>1138.8</ele><time>2026-04-21T15:03:53.922Z</time></trkpt><trkpt lat="44.9257153" lon="7.1320062"><ele>1140.6</ele><time>2026-04-21T15:03:54.922Z</time></trkpt><trkpt lat="44.9256421" lon="7.1321139"><ele>1142.3999999999999</ele><time>2026-04-21T15:03:55.922Z</time></trkpt><trkpt lat="44.9255756" lon="7.1322121"><ele>1144.2</ele><time>2026-04-21T15:03:56.921Z</time></trkpt><trkpt lat="44.9255111" lon="7.1323086"><ele>1146.0</ele><time>2026-04-21T15:03:57.922Z</time></trkpt><trkpt lat="44.9254456" lon="7.1324035"><ele>1146.0</ele><time>2026-04-21T15:03:58.922Z</time></trkpt><trkpt lat="44.9253963" lon="7.1325074"><ele>1146.0</ele><time>2026-04-21T15:03:59.922Z</time></trkpt><trkpt lat="44.9253391" lon="7.1326233"><ele>1146.0</ele><time>2026-04-21T15:04:00.923Z</time></trkpt><trkpt lat="44.92529" lon="7.1327512"><ele>1146.0</ele><time>2026-04-21T15:04:01.921Z</time></trkpt><trkpt lat="44.9252587" lon="7.1329069"><ele>1146.0</ele><time>2026-04-21T15:04:02.923Z</time></trkpt><trkpt lat="44.9252217" lon="7.1330573"><ele>1146.0</ele><time>2026-04-21T15:04:03.923Z</time></trkpt><trkpt lat="44.9251808" lon="7.1331954"><ele>1146.0</ele><time>2026-04-21T15:04:04.921Z</time></trkpt><trkpt lat="44.9251265" lon="7.1333605"><ele>1146.0</ele><time>2026-04-21T15:04:05.922Z</time></trkpt><trkpt lat="44.9250664" lon="7.1335312"><ele>1146.0</ele><time>2026-04-21T15:04:06.922Z</time></trkpt><trkpt lat="44.9250066" lon="7.1337019"><ele>1151.5</ele><time>2026-04-21T15:04:07.921Z</time></trkpt><trkpt lat="44.924944" lon="7.1338617"><ele>1157.0</ele><time>2026-04-21T15:04:08.923Z</time></trkpt><trkpt lat="44.9248764" lon="7.1340123"><ele>1162.5</ele><time>2026-04-21T15:04:09.922Z</time></trkpt><trkpt lat="44.9248012" lon="7.1341389"><ele>1168.0</ele><time>2026-04-21T15:04:10.922Z</time></trkpt><trkpt lat="44.924722" lon="7.1342728"><ele>1168.0</ele><time>2026-04-21T15:04:11.922Z</time></trkpt><trkpt lat="44.9246678" lon="7.1343837"><ele>1168.0</ele><time>2026-04-21T15:04:12.922Z</time></trkpt><trkpt lat="44.9246094" lon="7.1344933"><ele>1168.0</ele><time>2026-04-21T15:04:13.921Z</time></trkpt><trkpt lat="44.9245679" lon="7.1346662"><ele>1168.0</ele><time>2026-04-21T15:04:14.923Z</time></trkpt><trkpt lat="44.9245188" lon="7.1348264"><ele>1168.0</ele><time>2026-04-21T15:04:15.922Z</time></trkpt><trkpt lat="44.9244666" lon="7.1349946"><ele>1166.0</ele><time>2026-04-21T15:04:16.923Z</time></trkpt><trkpt lat="44.9244141" lon="7.1351606"><ele>1164.0</ele><time>2026-04-21T15:04:17.922Z</time></trkpt><trkpt lat="44.9243693" lon="7.1353151"><ele>1162.0</ele><time>2026-04-21T15:04:18.922Z</time></trkpt><trkpt lat="44.9243401" lon="7.1354678"><ele>1160.0</ele><time>2026-04-21T15:04:19.923Z</time></trkpt><trkpt lat="44.9243201" lon="7.1356138"><ele>1160.4</ele><time>2026-04-21T15:04:20.921Z</time></trkpt><trkpt lat="44.9243095" lon="7.1357497"><ele>1160.8</ele><time>2026-04-21T15:04:21.922Z</time></trkpt><trkpt lat="44.9242998" lon="7.1358949"><ele>1161.2</ele><time>2026-04-21T15:04:22.922Z</time></trkpt><trkpt lat="44.9243064" lon="7.1360663"><ele>1161.6</ele><time>2026-04-21T15:04:23.921Z</time></trkpt><trkpt lat="44.9243413" lon="7.136222"><ele>1162.0</ele><time>2026-04-21T15:04:24.922Z</time></trkpt><trkpt lat="44.9243504" lon="7.1363773"><ele>1162.0</ele><time>2026-04-21T15:04:25.922Z</time></trkpt><trkpt lat="44.9243811" lon="7.1365508"><ele>1162.0</ele><time>2026-04-21T15:04:26.922Z</time></trkpt><trkpt lat="44.9243936" lon="7.1367488"><ele>1162.0</ele><time>2026-04-21T15:04:27.922Z</time></trkpt><trkpt lat="44.924405" lon="7.1369214"><ele>1162.0</ele><time>2026-04-21T15:04:28.921Z</time></trkpt><trkpt lat="44.9244133" lon="7.1370988"><ele>1162.75</ele><time>2026-04-21T15:04:29.923Z</time></trkpt><trkpt lat="44.9244118" lon="7.1372845"><ele>1163.5</ele><time>2026-04-21T15:04:30.921Z</time></trkpt><trkpt lat="44.9243949" lon="7.1374744"><ele>1164.25</ele><time>2026-04-21T15:04:31.923Z</time></trkpt><trkpt lat="44.9243831" lon="7.137663"><ele>1165.0</ele><time>2026-04-21T15:04:32.922Z</time></trkpt><trkpt lat="44.9243628" lon="7.137844"><ele>1165.5</ele><time>2026-04-21T15:04:33.923Z</time></trkpt><trkpt lat="44.9243328" lon="7.1380259"><ele>1166.0</ele><time>2026-04-21T15:04:34.923Z</time></trkpt><trkpt lat="44.924297" lon="7.1382085"><ele>1166.5</ele><time>2026-04-21T15:04:35.921Z</time></trkpt><trkpt lat="44.9242779" lon="7.1383785"><ele>1167.0</ele><time>2026-04-21T15:04:36.922Z</time></trkpt><trkpt lat="44.9242639" lon="7.1385298"><ele>1167.8</ele><time>2026-04-21T15:04:37.922Z</time></trkpt><trkpt lat="44.9242475" lon="7.138678"><ele>1168.6</ele><time>2026-04-21T15:04:38.921Z</time></trkpt><trkpt lat="44.924252" lon="7.1388218"><ele>1169.3999999999999</ele><time>2026-04-21T15:04:39.921Z</time></trkpt><trkpt lat="44.9243272" lon="7.1389258"><ele>1170.2</ele><time>2026-04-21T15:04:40.923Z</time></trkpt><trkpt lat="44.9243766" lon="7.1390478"><ele>1171.0</ele><time>2026-04-21T15:04:41.922Z</time></trkpt><trkpt lat="44.9244133" lon="7.1391697"><ele>1175.0</ele><time>2026-04-21T15:04:42.923Z</time></trkpt><trkpt lat="44.9244459" lon="7.1393179"><ele>1179.0</ele><time>2026-04-21T15:04:43.923Z</time></trkpt><trkpt lat="44.9244823" lon="7.1394701"><ele>1183.0</ele><time>2026-04-21T15:04:44.922Z</time></trkpt><trkpt lat="44.9245001" lon="7.1396227"><ele>1187.0</ele><time>2026-04-21T15:04:45.923Z</time></trkpt><trkpt lat="44.9245194" lon="7.1397927"><ele>1190.5</ele><time>2026-04-21T15:04:46.922Z</time></trkpt><trkpt lat="44.9245305" lon="7.139975"><ele>1194.0</ele><time>2026-04-21T15:04:47.921Z</time></trkpt><trkpt lat="44.9245454" lon="7.1401434"><ele>1197.5</ele><time>2026-04-21T15:04:48.922Z</time></trkpt><trkpt lat="44.9245466" lon="7.1403107"><ele>1201.0</ele><time>2026-04-21T15:04:49.923Z</time></trkpt><trkpt lat="44.9245331" lon="7.1404739"><ele>1201.0</ele><time>2026-04-21T15:04:50.922Z</time></trkpt><trkpt lat="44.9245336" lon="7.1406285"><ele>1201.0</ele><time>2026-04-21T15:04:51.922Z</time></trkpt><trkpt lat="44.924552" lon="7.1407915"><ele>1201.0</ele><time>2026-04-21T15:04:52.923Z</time></trkpt><trkpt lat="44.9245597" lon="7.1409302"><ele>1201.0</ele><time>2026-04-21T15:04:53.923Z</time></trkpt><trkpt lat="44.9245653" lon="7.1410602"><ele>1201.0</ele><time>2026-04-21T15:04:54.922Z</time></trkpt><trkpt lat="44.924589" lon="7.1411944"><ele>1202.8333333333333</ele><time>2026-04-21T15:04:55.923Z</time></trkpt><trkpt lat="44.9246412" lon="7.1412989"><ele>1204.6666666666665</ele><time>2026-04-21T15:04:56.922Z</time></trkpt><trkpt lat="44.9247074" lon="7.1413937"><ele>1206.5</ele><time>2026-04-21T15:04:57.923Z</time></trkpt><trkpt lat="44.9247741" lon="7.1414692"><ele>1208.3333333333333</ele><time>2026-04-21T15:04:58.923Z</time></trkpt><trkpt lat="44.9248134" lon="7.1415539"><ele>1210.1666666666667</ele><time>2026-04-21T15:04:59.921Z</time></trkpt><trkpt lat="44.9248411" lon="7.1416766"><ele>1212.0</ele><time>2026-04-21T15:05:00.923Z</time></trkpt><trkpt lat="44.9248426" lon="7.1418102"><ele>1214.2</ele><time>2026-04-21T15:05:01.922Z</time></trkpt><trkpt lat="44.9248575" lon="7.1419579"><ele>1216.4</ele><time>2026-04-21T15:05:02.922Z</time></trkpt><trkpt lat="44.9248807" lon="7.1420986"><ele>1218.6</ele><time>2026-04-21T15:05:03.922Z</time></trkpt><trkpt lat="44.9249163" lon="7.1422288"><ele>1220.8</ele><time>2026-04-21T15:05:04.922Z</time></trkpt><trkpt lat="44.9249452" lon="7.1423685"><ele>1223.0</ele><time>2026-04-21T15:05:05.923Z</time></trkpt><trkpt lat="44.9249579" lon="7.1425168"><ele>1225.25</ele><time>2026-04-21T15:05:06.922Z</time></trkpt><trkpt lat="44.92495" lon="7.1426751"><ele>1227.5</ele><time>2026-04-21T15:05:07.923Z</time></trkpt><trkpt lat="44.9249224" lon="7.1428547"><ele>1229.75</ele><time>2026-04-21T15:05:08.923Z</time></trkpt><trkpt lat="44.9249034" lon="7.1430151"><ele>1232.0</ele><time>2026-04-21T15:05:09.922Z</time></trkpt><trkpt lat="44.9248917" lon="7.1431654"><ele>1234.1666666666667</ele><time>2026-04-21T15:05:10.922Z</time></trkpt><trkpt lat="44.924908" lon="7.1432924"><ele>1236.3333333333335</ele><time>2026-04-21T15:05:11.922Z</time></trkpt><trkpt lat="44.9249593" lon="7.143397"><ele>1238.5</ele><time>2026-04-21T15:05:12.922Z</time></trkpt><trkpt lat="44.925005" lon="7.143512"><ele>1240.6666666666667</ele><time>2026-04-21T15:05:13.922Z</time></trkpt><trkpt lat="44.9250404" lon="7.1436215"><ele>1242.8333333333333</ele><time>2026-04-21T15:05:14.923Z</time></trkpt><trkpt lat="44.9250524" lon="7.1437441"><ele>1245.0</ele><time>2026-04-21T15:05:15.922Z</time></trkpt><trkpt lat="44.9250453" lon="7.1438685"><ele>1245.0</ele><time>2026-04-21T15:05:16.922Z</time></trkpt><trkpt lat="44.9250135" lon="7.1440152"><ele>1245.0</ele><time>2026-04-21T15:05:17.922Z</time></trkpt><trkpt lat="44.9249673" lon="7.1441596"><ele>1245.0</ele><time>2026-04-21T15:05:18.923Z</time></trkpt><trkpt lat="44.9249247" lon="7.1443137"><ele>1245.0</ele><time>2026-04-21T15:05:19.922Z</time></trkpt><trkpt lat="44.9248836" lon="7.1444323"><ele>1245.0</ele><time>2026-04-21T15:05:20.923Z</time></trkpt><trkpt lat="44.9248382" lon="7.1445047"><ele>1245.0</ele><time>2026-04-21T15:05:21.923Z</time></trkpt><trkpt lat="44.9247398" lon="7.14456"><ele>1245.0</ele><time>2026-04-21T15:05:23.922Z</time></trkpt><trkpt lat="44.9247195" lon="7.1444262"><ele>1245.0</ele><time>2026-04-21T15:05:24.923Z</time></trkpt><trkpt lat="44.9247117" lon="7.14433"><ele>1245.0</ele><time>2026-04-21T15:05:25.922Z</time></trkpt><trkpt lat="44.9247186" lon="7.1441833"><ele>1245.0</ele><time>2026-04-21T15:05:26.921Z</time></trkpt><trkpt lat="44.9247296" lon="7.1440377"><ele>1245.0</ele><time>2026-04-21T15:05:27.923Z</time></trkpt><trkpt lat="44.9247327" lon="7.1439162"><ele>1245.0</ele><time>2026-04-21T15:05:28.922Z</time></trkpt><trkpt lat="44.9247133" lon="7.1438189"><ele>1245.0</ele><time>2026-04-21T15:05:29.922Z</time></trkpt><trkpt lat="44.92469" lon="7.1437014"><ele>1245.0</ele><time>2026-04-21T15:05:30.922Z</time></trkpt><trkpt lat="44.9246645" lon="7.1435885"><ele>1245.0</ele><time>2026-04-21T15:05:31.922Z</time></trkpt><trkpt lat="44.9246402" lon="7.1434749"><ele>1245.0</ele><time>2026-04-21T15:05:32.923Z</time></trkpt><trkpt lat="44.9246071" lon="7.14336"><ele>1245.0</ele><time>2026-04-21T15:05:33.922Z</time></trkpt><trkpt lat="44.9245687" lon="7.1432521"><ele>1245.0</ele><time>2026-04-21T15:05:34.922Z</time></trkpt><trkpt lat="44.9245125" lon="7.1431381"><ele>1245.0</ele><time>2026-04-21T15:05:35.922Z</time></trkpt><trkpt lat="44.9244421" lon="7.1430102"><ele>1245.0</ele><time>2026-04-21T15:05:36.921Z</time></trkpt><trkpt lat="44.9243579" lon="7.1428865"><ele>1245.0</ele><time>2026-04-21T15:05:37.922Z</time></trkpt><trkpt lat="44.9242759" lon="7.1427451"><ele>1248.75</ele><time>2026-04-21T15:05:38.922Z</time></trkpt><trkpt lat="44.9242053" lon="7.1425901"><ele>1252.5</ele><time>2026-04-21T15:05:39.923Z</time></trkpt><trkpt lat="44.9241433" lon="7.1424392"><ele>1256.25</ele><time>2026-04-21T15:05:40.923Z</time></trkpt><trkpt lat="44.9240815" lon="7.142258"><ele>1260.0</ele><time>2026-04-21T15:05:41.922Z</time></trkpt><trkpt lat="44.9240169" lon="7.1420913"><ele>1260.0</ele><time>2026-04-21T15:05:42.922Z</time></trkpt><trkpt lat="44.9239721" lon="7.1419216"><ele>1260.0</ele><time>2026-04-21T15:05:43.922Z</time></trkpt><trkpt lat="44.9239467" lon="7.1417593"><ele>1260.0</ele><time>2026-04-21T15:05:44.923Z</time></trkpt><trkpt lat="44.9239339" lon="7.1415994"><ele>1260.0</ele><time>2026-04-21T15:05:45.921Z</time></trkpt><trkpt lat="44.9239144" lon="7.1414594"><ele>1258.3333333333333</ele><time>2026-04-21T15:05:46.921Z</time></trkpt><trkpt lat="44.9238848" lon="7.1413467"><ele>1256.6666666666667</ele><time>2026-04-21T15:05:47.921Z</time></trkpt><trkpt lat="44.9238169" lon="7.1412241"><ele>1255.0</ele><time>2026-04-21T15:05:48.922Z</time></trkpt><trkpt lat="44.9237708" lon="7.1410993"><ele>1253.3333333333335</ele><time>2026-04-21T15:05:49.923Z</time></trkpt><trkpt lat="44.9237217" lon="7.1410077"><ele>1251.6666666666667</ele><time>2026-04-21T15:05:50.923Z</time></trkpt><trkpt lat="44.9236718" lon="7.1409375"><ele>1250.0</ele><time>2026-04-21T15:05:51.922Z</time></trkpt><trkpt lat="44.923599" lon="7.1408596"><ele>1250.0</ele><time>2026-04-21T15:05:52.922Z</time></trkpt><trkpt lat="44.9235323" lon="7.1407995"><ele>1250.0</ele><time>2026-04-21T15:05:53.922Z</time></trkpt><trkpt lat="44.9234346" lon="7.1407149"><ele>1250.0</ele><time>2026-04-21T15:05:54.923Z</time></trkpt><trkpt lat="44.9233565" lon="7.1406362"><ele>1250.0</ele><time>2026-04-21T15:05:55.922Z</time></trkpt><trkpt lat="44.9232833" lon="7.1405605"><ele>1250.0</ele><time>2026-04-21T15:05:56.921Z</time></trkpt><trkpt lat="44.9232202" lon="7.140486"><ele>1255.6</ele><time>2026-04-21T15:05:57.923Z</time></trkpt><trkpt lat="44.9231615" lon="7.1403961"><ele>1261.2</ele><time>2026-04-21T15:05:58.922Z</time></trkpt><trkpt lat="44.923096" lon="7.1402829"><ele>1266.8</ele><time>2026-04-21T15:05:59.923Z</time></trkpt><trkpt lat="44.9230376" lon="7.1401582"><ele>1272.4</ele><time>2026-04-21T15:06:00.923Z</time></trkpt><trkpt lat="44.9229769" lon="7.1400408"><ele>1278.0</ele><time>2026-04-21T15:06:01.921Z</time></trkpt><trkpt lat="44.9229383" lon="7.1399251"><ele>1275.8</ele><time>2026-04-21T15:06:02.923Z</time></trkpt><trkpt lat="44.9229032" lon="7.1397844"><ele>1273.6</ele><time>2026-04-21T15:06:03.921Z</time></trkpt><trkpt lat="44.9228925" lon="7.1396469"><ele>1271.4</ele><time>2026-04-21T15:06:04.922Z</time></trkpt><trkpt lat="44.9228806" lon="7.1394962"><ele>1269.2</ele><time>2026-04-21T15:06:05.923Z</time></trkpt><trkpt lat="44.9228557" lon="7.1393398"><ele>1267.0</ele><time>2026-04-21T15:06:06.923Z</time></trkpt><trkpt lat="44.9228327" lon="7.1391811"><ele>1267.0</ele><time>2026-04-21T15:06:07.922Z</time></trkpt><trkpt lat="44.9228103" lon="7.1390345"><ele>1267.0</ele><time>2026-04-21T15:06:08.923Z</time></trkpt><trkpt lat="44.9227881" lon="7.1389085"><ele>1267.0</ele><time>2026-04-21T15:06:09.922Z</time></trkpt><trkpt lat="44.9227605" lon="7.1388007"><ele>1267.0</ele><time>2026-04-21T15:06:10.921Z</time></trkpt><trkpt lat="44.9227321" lon="7.1387062"><ele>1267.0</ele><time>2026-04-21T15:06:11.921Z</time></trkpt><trkpt lat="44.922687" lon="7.13861"><ele>1267.0</ele><time>2026-04-21T15:06:12.921Z</time></trkpt><trkpt lat="44.9226194" lon="7.1384747"><ele>1267.0</ele><time>2026-04-21T15:06:13.923Z</time></trkpt><trkpt lat="44.9225773" lon="7.1383532"><ele>1267.0</ele><time>2026-04-21T15:06:14.922Z</time></trkpt><trkpt lat="44.9225442" lon="7.1382226"><ele>1267.0</ele><time>2026-04-21T15:06:15.922Z</time></trkpt><trkpt lat="44.9225222" lon="7.1381008"><ele>1267.0</ele><time>2026-04-21T15:06:16.922Z</time></trkpt><trkpt lat="44.922503" lon="7.1379808"><ele>1267.0</ele><time>2026-04-21T15:06:17.923Z</time></trkpt><trkpt lat="44.9224804" lon="7.1378666"><ele>1270.6666666666665</ele><time>2026-04-21T15:06:18.923Z</time></trkpt><trkpt lat="44.9224577" lon="7.1377504"><ele>1274.3333333333333</ele><time>2026-04-21T15:06:19.922Z</time></trkpt><trkpt lat="44.9224563" lon="7.1376286"><ele>1278.0</ele><time>2026-04-21T15:06:20.921Z</time></trkpt><trkpt lat="44.9224487" lon="7.1375208"><ele>1281.6666666666667</ele><time>2026-04-21T15:06:21.921Z</time></trkpt><trkpt lat="44.9224198" lon="7.1374245"><ele>1285.3333333333335</ele><time>2026-04-21T15:06:22.922Z</time></trkpt><trkpt lat="44.9223688" lon="7.1373414"><ele>1289.0</ele><time>2026-04-21T15:06:23.923Z</time></trkpt><trkpt lat="44.922317" lon="7.1372659"><ele>1289.0</ele><time>2026-04-21T15:06:24.921Z</time></trkpt><trkpt lat="44.9222585" lon="7.1371721"><ele>1289.0</ele><time>2026-04-21T15:06:25.922Z</time></trkpt><trkpt lat="44.9221823" lon="7.1370804"><ele>1289.0</ele><time>2026-04-21T15:06:26.922Z</time></trkpt><trkpt lat="44.9220894" lon="7.136981"><ele>1289.0</ele><time>2026-04-21T15:06:27.923Z</time></trkpt><trkpt lat="44.9220029" lon="7.1368817"><ele>1289.0</ele><time>2026-04-21T15:06:28.922Z</time></trkpt><trkpt lat="44.9219286" lon="7.1367994"><ele>1289.0</ele><time>2026-04-21T15:06:29.923Z</time></trkpt><trkpt lat="44.921845" lon="7.1366971"><ele>1289.0</ele><time>2026-04-21T15:06:30.922Z</time></trkpt><trkpt lat="44.9217747" lon="7.136635"><ele>1289.0</ele><time>2026-04-21T15:06:31.923Z</time></trkpt><trkpt lat="44.9217065" lon="7.1365883"><ele>1289.0</ele><time>2026-04-21T15:06:32.922Z</time></trkpt><trkpt lat="44.9216149" lon="7.1365543"><ele>1289.0</ele><time>2026-04-21T15:06:33.922Z</time></trkpt><trkpt lat="44.9215322" lon="7.1365251"><ele>1289.0</ele><time>2026-04-21T15:06:34.922Z</time></trkpt><trkpt lat="44.9214311" lon="7.1364757"><ele>1291.857142857143</ele><time>2026-04-21T15:06:35.922Z</time></trkpt><trkpt lat="44.9213719" lon="7.1364333"><ele>1294.7142857142858</ele><time>2026-04-21T15:06:36.923Z</time></trkpt><trkpt lat="44.9212984" lon="7.136414"><ele>1297.5714285714284</ele><time>2026-04-21T15:06:37.922Z</time></trkpt><trkpt lat="44.9212329" lon="7.1364256"><ele>1300.4285714285716</ele><time>2026-04-21T15:06:38.922Z</time></trkpt><trkpt lat="44.9211736" lon="7.1364584"><ele>1303.2857142857142</ele><time>2026-04-21T15:06:39.922Z</time></trkpt><trkpt lat="44.9211058" lon="7.1365129"><ele>1306.142857142857</ele><time>2026-04-21T15:06:40.923Z</time></trkpt><trkpt lat="44.9210626" lon="7.1366076"><ele>1309.0</ele><time>2026-04-21T15:06:41.921Z</time></trkpt><trkpt lat="44.9210123" lon="7.1366807"><ele>1311.2</ele><time>2026-04-21T15:06:42.922Z</time></trkpt><trkpt lat="44.9209489" lon="7.1367624"><ele>1313.4</ele><time>2026-04-21T15:06:43.922Z</time></trkpt><trkpt lat="44.9208745" lon="7.1368528"><ele>1315.6</ele><time>2026-04-21T15:06:44.922Z</time></trkpt><trkpt lat="44.9207866" lon="7.1369843"><ele>1317.8</ele><time>2026-04-21T15:06:45.921Z</time></trkpt><trkpt lat="44.9207057" lon="7.1371095"><ele>1320.0</ele><time>2026-04-21T15:06:46.921Z</time></trkpt><trkpt lat="44.9206338" lon="7.1372319"><ele>1320.0</ele><time>2026-04-21T15:06:47.921Z</time></trkpt><trkpt lat="44.9205618" lon="7.1373141"><ele>1320.0</ele><time>2026-04-21T15:06:48.92Z</time></trkpt><trkpt lat="44.9204964" lon="7.1373875"><ele>1320.0</ele><time>2026-04-21T15:06:49.922Z</time></trkpt><trkpt lat="44.9204048" lon="7.1374125"><ele>1320.0</ele><time>2026-04-21T15:06:50.922Z</time></trkpt><trkpt lat="44.9203281" lon="7.1374145"><ele>1320.0</ele><time>2026-04-21T15:06:51.92Z</time></trkpt><trkpt lat="44.9202662" lon="7.1373853"><ele>1320.0</ele><time>2026-04-21T15:06:52.92Z</time></trkpt><trkpt lat="44.920208" lon="7.1373442"><ele>1320.0</ele><time>2026-04-21T15:06:53.922Z</time></trkpt><trkpt lat="44.9201438" lon="7.1373171"><ele>1320.0</ele><time>2026-04-21T15:06:54.921Z</time></trkpt><trkpt lat="44.9200348" lon="7.1373008"><ele>1320.0</ele><time>2026-04-21T15:06:55.92Z</time></trkpt><trkpt lat="44.9199584" lon="7.1372641"><ele>1320.0</ele><time>2026-04-21T15:06:56.922Z</time></trkpt><trkpt lat="44.9198795" lon="7.1372132"><ele>1320.0</ele><time>2026-04-21T15:06:57.921Z</time></trkpt><trkpt lat="44.919804" lon="7.137125"><ele>1320.0</ele><time>2026-04-21T15:06:58.921Z</time></trkpt><trkpt lat="44.9197238" lon="7.1370976"><ele>1319.8</ele><time>2026-04-21T15:06:59.92Z</time></trkpt><trkpt lat="44.9196522" lon="7.1370932"><ele>1319.6</ele><time>2026-04-21T15:07:00.921Z</time></trkpt><trkpt lat="44.9195626" lon="7.1371005"><ele>1319.4</ele><time>2026-04-21T15:07:01.922Z</time></trkpt><trkpt lat="44.9194607" lon="7.1371274"><ele>1319.2</ele><time>2026-04-21T15:07:02.921Z</time></trkpt><trkpt lat="44.9193547" lon="7.1371645"><ele>1319.0</ele><time>2026-04-21T15:07:03.921Z</time></trkpt><trkpt lat="44.919258" lon="7.137221"><ele>1321.0</ele><time>2026-04-21T15:07:04.921Z</time></trkpt><trkpt lat="44.9191567" lon="7.1372936"><ele>1323.0</ele><time>2026-04-21T15:07:05.922Z</time></trkpt><trkpt lat="44.919052" lon="7.1373841"><ele>1325.0</ele><time>2026-04-21T15:07:06.921Z</time></trkpt><trkpt lat="44.9189427" lon="7.137479"><ele>1327.0</ele><time>2026-04-21T15:07:07.92Z</time></trkpt><trkpt lat="44.9188369" lon="7.1375774"><ele>1332.0</ele><time>2026-04-21T15:07:08.92Z</time></trkpt><trkpt lat="44.9187366" lon="7.1376731"><ele>1337.0</ele><time>2026-04-21T15:07:09.92Z</time></trkpt><trkpt lat="44.9186409" lon="7.1377733"><ele>1342.0</ele><time>2026-04-21T15:07:10.921Z</time></trkpt><trkpt lat="44.9185712" lon="7.1378669"><ele>1347.0</ele><time>2026-04-21T15:07:11.922Z</time></trkpt><trkpt lat="44.9185089" lon="7.1379468"><ele>1352.0</ele><time>2026-04-21T15:07:12.92Z</time></trkpt><trkpt lat="44.9184361" lon="7.1380111"><ele>1350.6666666666667</ele><time>2026-04-21T15:07:13.921Z</time></trkpt><trkpt lat="44.9183541" lon="7.1380559"><ele>1349.3333333333335</ele><time>2026-04-21T15:07:14.92Z</time></trkpt><trkpt lat="44.9182877" lon="7.1380716"><ele>1348.0</ele><time>2026-04-21T15:07:15.921Z</time></trkpt><trkpt lat="44.9182217" lon="7.1380526"><ele>1346.6666666666667</ele><time>2026-04-21T15:07:16.921Z</time></trkpt><trkpt lat="44.9181576" lon="7.1380264"><ele>1345.3333333333333</ele><time>2026-04-21T15:07:17.921Z</time></trkpt><trkpt lat="44.9180791" lon="7.1380112"><ele>1344.0</ele><time>2026-04-21T15:07:18.922Z</time></trkpt><trkpt lat="44.9179841" lon="7.1380174"><ele>1344.0</ele><time>2026-04-21T15:07:19.921Z</time></trkpt><trkpt lat="44.9178857" lon="7.1380364"><ele>1344.0</ele><time>2026-04-21T15:07:20.921Z</time></trkpt><trkpt lat="44.917791" lon="7.1380465"><ele>1344.0</ele><time>2026-04-21T15:07:21.921Z</time></trkpt><trkpt lat="44.9177097" lon="7.1380045"><ele>1344.0</ele><time>2026-04-21T15:07:22.921Z</time></trkpt><trkpt lat="44.9176133" lon="7.1379658"><ele>1344.0</ele><time>2026-04-21T15:07:23.921Z</time></trkpt><trkpt lat="44.9175317" lon="7.1379312"><ele>1345.4</ele><time>2026-04-21T15:07:24.921Z</time></trkpt><trkpt lat="44.9174433" lon="7.1379228"><ele>1346.8000000000002</ele><time>2026-04-21T15:07:25.922Z</time></trkpt><trkpt lat="44.9173483" lon="7.1379329"><ele>1348.1999999999998</ele><time>2026-04-21T15:07:26.921Z</time></trkpt><trkpt lat="44.9172347" lon="7.1379432"><ele>1349.6</ele><time>2026-04-21T15:07:27.922Z</time></trkpt><trkpt lat="44.9171324" lon="7.1379523"><ele>1351.0</ele><time>2026-04-21T15:07:28.921Z</time></trkpt><trkpt lat="44.9170402" lon="7.1379579"><ele>1351.0</ele><time>2026-04-21T15:07:29.921Z</time></trkpt><trkpt lat="44.9169441" lon="7.1379446"><ele>1351.0</ele><time>2026-04-21T15:07:30.922Z</time></trkpt><trkpt lat="44.9168557" lon="7.1379228"><ele>1351.0</ele><time>2026-04-21T15:07:31.921Z</time></trkpt><trkpt lat="44.9167722" lon="7.137888"><ele>1351.0</ele><time>2026-04-21T15:07:32.921Z</time></trkpt><trkpt lat="44.9166717" lon="7.1378334"><ele>1351.0</ele><time>2026-04-21T15:07:33.92Z</time></trkpt><trkpt lat="44.9165677" lon="7.1377634"><ele>1349.6666666666665</ele><time>2026-04-21T15:07:34.92Z</time></trkpt><trkpt lat="44.9164887" lon="7.1377012"><ele>1348.3333333333333</ele><time>2026-04-21T15:07:35.922Z</time></trkpt><trkpt lat="44.916419" lon="7.13764"><ele>1347.0</ele><time>2026-04-21T15:07:36.92Z</time></trkpt><trkpt lat="44.916331" lon="7.1375728"><ele>1345.6666666666667</ele><time>2026-04-21T15:07:37.922Z</time></trkpt><trkpt lat="44.916263" lon="7.1375054"><ele>1344.3333333333335</ele><time>2026-04-21T15:07:38.921Z</time></trkpt><trkpt lat="44.9162063" lon="7.1374294"><ele>1343.0</ele><time>2026-04-21T15:07:39.921Z</time></trkpt><trkpt lat="44.9161433" lon="7.1373674"><ele>1343.0</ele><time>2026-04-21T15:07:40.92Z</time></trkpt><trkpt lat="44.9160742" lon="7.1373351"><ele>1343.0</ele><time>2026-04-21T15:07:41.922Z</time></trkpt><trkpt lat="44.915998" lon="7.1373215"><ele>1343.0</ele><time>2026-04-21T15:07:42.92Z</time></trkpt><trkpt lat="44.9159187" lon="7.1373289"><ele>1343.0</ele><time>2026-04-21T15:07:43.921Z</time></trkpt><trkpt lat="44.9158376" lon="7.1373466"><ele>1343.0</ele><time>2026-04-21T15:07:44.92Z</time></trkpt><trkpt lat="44.9157525" lon="7.1373755"><ele>1343.0</ele><time>2026-04-21T15:07:45.922Z</time></trkpt><trkpt lat="44.9156796" lon="7.1373901"><ele>1346.0</ele><time>2026-04-21T15:07:46.921Z</time></trkpt><trkpt lat="44.9155578" lon="7.1373151"><ele>1349.0</ele><time>2026-04-21T15:07:48.921Z</time></trkpt><trkpt lat="44.9155019" lon="7.1371703"><ele>1352.0</ele><time>2026-04-21T15:07:50.92Z</time></trkpt><trkpt lat="44.9154145" lon="7.1370791"><ele>1355.0</ele><time>2026-04-21T15:07:52.921Z</time></trkpt><trkpt lat="44.9153517" lon="7.1370608"><ele>1358.0</ele><time>2026-04-21T15:07:53.921Z</time></trkpt><trkpt lat="44.9152781" lon="7.1370699"><ele>1358.0</ele><time>2026-04-21T15:07:54.922Z</time></trkpt><trkpt lat="44.9151965" lon="7.1371102"><ele>1358.0</ele><time>2026-04-21T15:07:55.922Z</time></trkpt><trkpt lat="44.9151039" lon="7.1371565"><ele>1358.0</ele><time>2026-04-21T15:07:56.92Z</time></trkpt><trkpt lat="44.9150188" lon="7.1372133"><ele>1358.0</ele><time>2026-04-21T15:07:57.921Z</time></trkpt><trkpt lat="44.9149324" lon="7.1372895"><ele>1358.0</ele><time>2026-04-21T15:07:58.92Z</time></trkpt><trkpt lat="44.914849" lon="7.1373575"><ele>1365.3333333333335</ele><time>2026-04-21T15:07:59.922Z</time></trkpt><trkpt lat="44.9147611" lon="7.1374025"><ele>1372.6666666666667</ele><time>2026-04-21T15:08:00.921Z</time></trkpt><trkpt lat="44.9146734" lon="7.1374148"><ele>1380.0</ele><time>2026-04-21T15:08:01.922Z</time></trkpt><trkpt lat="44.9146006" lon="7.1374273"><ele>1387.3333333333333</ele><time>2026-04-21T15:08:02.921Z</time></trkpt><trkpt lat="44.9145306" lon="7.1374635"><ele>1394.6666666666665</ele><time>2026-04-21T15:08:03.922Z</time></trkpt><trkpt lat="44.9144747" lon="7.1375226"><ele>1402.0</ele><time>2026-04-21T15:08:04.921Z</time></trkpt><trkpt lat="44.9144217" lon="7.1375904"><ele>1402.0</ele><time>2026-04-21T15:08:05.921Z</time></trkpt><trkpt lat="44.9143082" lon="7.137583"><ele>1402.0</ele><time>2026-04-21T15:08:07.921Z</time></trkpt><trkpt lat="44.9142445" lon="7.1375323"><ele>1402.0</ele><time>2026-04-21T15:08:08.921Z</time></trkpt><trkpt lat="44.9141288" lon="7.1375052"><ele>1402.0</ele><time>2026-04-21T15:08:10.921Z</time></trkpt><trkpt lat="44.9140597" lon="7.137545"><ele>1402.0</ele><time>2026-04-21T15:08:11.921Z</time></trkpt><trkpt lat="44.9139955" lon="7.1375602"><ele>1402.0</ele><time>2026-04-21T15:08:12.92Z</time></trkpt><trkpt lat="44.9139006" lon="7.1374778"><ele>1397.1999999999998</ele><time>2026-04-21T15:08:14.922Z</time></trkpt><trkpt lat="44.9138099" lon="7.1373576"><ele>1392.4</ele><time>2026-04-21T15:08:16.922Z</time></trkpt><trkpt lat="44.9137366" lon="7.1372936"><ele>1387.6</ele><time>2026-04-21T15:08:17.92Z</time></trkpt><trkpt lat="44.91365" lon="7.1372393"><ele>1382.8000000000002</ele><time>2026-04-21T15:08:18.921Z</time></trkpt><trkpt lat="44.9135603" lon="7.1371848"><ele>1378.0</ele><time>2026-04-21T15:08:19.921Z</time></trkpt><trkpt lat="44.9134839" lon="7.1371377"><ele>1378.0</ele><time>2026-04-21T15:08:20.922Z</time></trkpt><trkpt lat="44.9134171" lon="7.1371031"><ele>1378.0</ele><time>2026-04-21T15:08:21.92Z</time></trkpt><trkpt lat="44.9133549" lon="7.1370716"><ele>1378.0</ele><time>2026-04-21T15:08:22.922Z</time></trkpt><trkpt lat="44.9132832" lon="7.137041"><ele>1378.0</ele><time>2026-04-21T15:08:23.921Z</time></trkpt><trkpt lat="44.9132008" lon="7.1370026"><ele>1378.0</ele><time>2026-04-21T15:08:24.922Z</time></trkpt><trkpt lat="44.9131019" lon="7.1369799"><ele>1378.0</ele><time>2026-04-21T15:08:25.92Z</time></trkpt><trkpt lat="44.9129898" lon="7.1369537"><ele>1382.4</ele><time>2026-04-21T15:08:26.921Z</time></trkpt><trkpt lat="44.9128903" lon="7.1369416"><ele>1386.8000000000002</ele><time>2026-04-21T15:08:27.921Z</time></trkpt><trkpt lat="44.9128013" lon="7.136928"><ele>1391.2</ele><time>2026-04-21T15:08:28.922Z</time></trkpt><trkpt lat="44.9127164" lon="7.1368866"><ele>1395.6</ele><time>2026-04-21T15:08:29.92Z</time></trkpt><trkpt lat="44.9126224" lon="7.1368007"><ele>1400.0</ele><time>2026-04-21T15:08:30.921Z</time></trkpt><trkpt lat="44.9125309" lon="7.1367205"><ele>1399.4</ele><time>2026-04-21T15:08:31.92Z</time></trkpt><trkpt lat="44.9124444" lon="7.1366489"><ele>1398.8</ele><time>2026-04-21T15:08:32.921Z</time></trkpt><trkpt lat="44.9123489" lon="7.1365681"><ele>1398.1999999999998</ele><time>2026-04-21T15:08:33.922Z</time></trkpt><trkpt lat="44.9122741" lon="7.1364933"><ele>1397.6</ele><time>2026-04-21T15:08:34.921Z</time></trkpt><trkpt lat="44.9121985" lon="7.1364323"><ele>1397.0</ele><time>2026-04-21T15:08:35.922Z</time></trkpt><trkpt lat="44.9121208" lon="7.1363969"><ele>1397.0</ele><time>2026-04-21T15:08:36.921Z</time></trkpt><trkpt lat="44.912041" lon="7.1363823"><ele>1397.0</ele><time>2026-04-21T15:08:37.922Z</time></trkpt><trkpt lat="44.9119651" lon="7.1363656"><ele>1397.0</ele><time>2026-04-21T15:08:38.922Z</time></trkpt><trkpt lat="44.9118946" lon="7.1363301"><ele>1397.0</ele><time>2026-04-21T15:08:39.92Z</time></trkpt><trkpt lat="44.9118293" lon="7.1363218"><ele>1397.0</ele><time>2026-04-21T15:08:40.921Z</time></trkpt><trkpt lat="44.9117567" lon="7.1363466"><ele>1397.0</ele><time>2026-04-21T15:08:41.922Z</time></trkpt><trkpt lat="44.9116857" lon="7.1363916"><ele>1401.0</ele><time>2026-04-21T15:08:42.92Z</time></trkpt><trkpt lat="44.9115651" lon="7.1363844"><ele>1405.0</ele><time>2026-04-21T15:08:44.921Z</time></trkpt><trkpt lat="44.9115066" lon="7.1363294"><ele>1409.0</ele><time>2026-04-21T15:08:45.922Z</time></trkpt><trkpt lat="44.9114678" lon="7.1362508"><ele>1413.0</ele><time>2026-04-21T15:08:46.92Z</time></trkpt><trkpt lat="44.9114292" lon="7.1360876"><ele>1417.0</ele><time>2026-04-21T15:08:48.922Z</time></trkpt><trkpt lat="44.9113808" lon="7.1360287"><ele>1421.0</ele><time>2026-04-21T15:08:49.92Z</time></trkpt><trkpt lat="44.911319" lon="7.1360025"><ele>1421.0</ele><time>2026-04-21T15:08:50.922Z</time></trkpt><trkpt lat="44.9112419" lon="7.136008"><ele>1421.0</ele><time>2026-04-21T15:08:51.922Z</time></trkpt><trkpt lat="44.9111736" lon="7.136033"><ele>1421.0</ele><time>2026-04-21T15:08:52.919Z</time></trkpt><trkpt lat="44.9110661" lon="7.1360253"><ele>1421.0</ele><time>2026-04-21T15:08:54.92Z</time></trkpt><trkpt lat="44.9110072" lon="7.1359125"><ele>1421.0</ele><time>2026-04-21T15:08:56.922Z</time></trkpt><trkpt lat="44.9109807" lon="7.1358087"><ele>1421.0</ele><time>2026-04-21T15:08:57.921Z</time></trkpt><trkpt lat="44.91094" lon="7.1356872"><ele>1424.6</ele><time>2026-04-21T15:08:58.921Z</time></trkpt><trkpt lat="44.9108886" lon="7.1355615"><ele>1428.1999999999998</ele><time>2026-04-21T15:08:59.92Z</time></trkpt><trkpt lat="44.9108343" lon="7.1354297"><ele>1431.8000000000002</ele><time>2026-04-21T15:09:00.922Z</time></trkpt><trkpt lat="44.9107797" lon="7.1352957"><ele>1435.4</ele><time>2026-04-21T15:09:01.922Z</time></trkpt><trkpt lat="44.9107188" lon="7.1351736"><ele>1439.0</ele><time>2026-04-21T15:09:02.921Z</time></trkpt><trkpt lat="44.910654" lon="7.1350603"><ele>1439.0</ele><time>2026-04-21T15:09:03.922Z</time></trkpt><trkpt lat="44.9105927" lon="7.1349643"><ele>1439.0</ele><time>2026-04-21T15:09:04.921Z</time></trkpt><trkpt lat="44.9105377" lon="7.1348781"><ele>1439.0</ele><time>2026-04-21T15:09:05.92Z</time></trkpt><trkpt lat="44.9104867" lon="7.1348067"><ele>1439.0</ele><time>2026-04-21T15:09:06.922Z</time></trkpt><trkpt lat="44.9104269" lon="7.134753"><ele>1439.0</ele><time>2026-04-21T15:09:07.921Z</time></trkpt><trkpt lat="44.9103611" lon="7.1347215"><ele>1439.0</ele><time>2026-04-21T15:09:08.922Z</time></trkpt><trkpt lat="44.9102904" lon="7.1347126"><ele>1440.1666666666667</ele><time>2026-04-21T15:09:09.92Z</time></trkpt><trkpt lat="44.9102098" lon="7.1347147"><ele>1441.3333333333335</ele><time>2026-04-21T15:09:10.922Z</time></trkpt><trkpt lat="44.9101328" lon="7.1347024"><ele>1442.5</ele><time>2026-04-21T15:09:11.922Z</time></trkpt><trkpt lat="44.9100685" lon="7.1346968"><ele>1443.6666666666667</ele><time>2026-04-21T15:09:12.92Z</time></trkpt><trkpt lat="44.9099532" lon="7.1346898"><ele>1444.8333333333333</ele><time>2026-04-21T15:09:14.921Z</time></trkpt><trkpt lat="44.9098472" lon="7.1347074"><ele>1446.0</ele><time>2026-04-21T15:09:16.921Z</time></trkpt><trkpt lat="44.9097869" lon="7.1347357"><ele>1446.0</ele><time>2026-04-21T15:09:17.92Z</time></trkpt><trkpt lat="44.9096701" lon="7.1347826"><ele>1446.0</ele><time>2026-04-21T15:09:19.922Z</time></trkpt><trkpt lat="44.9095295" lon="7.1348074"><ele>1446.0</ele><time>2026-04-21T15:09:21.922Z</time></trkpt><trkpt lat="44.9094653" lon="7.1348124"><ele>1446.0</ele><time>2026-04-21T15:09:22.921Z</time></trkpt><trkpt lat="44.9093939" lon="7.1348203"><ele>1446.0</ele><time>2026-04-21T15:09:23.921Z</time></trkpt><trkpt lat="44.9092781" lon="7.1348673"><ele>1450.6666666666667</ele><time>2026-04-21T15:09:25.922Z</time></trkpt><trkpt lat="44.9091717" lon="7.134936"><ele>1455.3333333333333</ele><time>2026-04-21T15:09:27.922Z</time></trkpt><trkpt lat="44.9091073" lon="7.1349992"><ele>1460.0</ele><time>2026-04-21T15:09:28.921Z</time></trkpt><trkpt lat="44.9090434" lon="7.1350553"><ele>1464.6666666666665</ele><time>2026-04-21T15:09:29.922Z</time></trkpt><trkpt lat="44.9089795" lon="7.1351226"><ele>1469.3333333333333</ele><time>2026-04-21T15:09:30.92Z</time></trkpt><trkpt lat="44.9089059" lon="7.1351989"><ele>1474.0</ele><time>2026-04-21T15:09:31.921Z</time></trkpt><trkpt lat="44.9088317" lon="7.1352778"><ele>1474.0</ele><time>2026-04-21T15:09:32.921Z</time></trkpt><trkpt lat="44.9087459" lon="7.1353583"><ele>1474.0</ele><time>2026-04-21T15:09:33.921Z</time></trkpt><trkpt lat="44.9086711" lon="7.1354344"><ele>1474.0</ele><time>2026-04-21T15:09:34.921Z</time></trkpt><trkpt lat="44.9085988" lon="7.1354944"><ele>1474.0</ele><time>2026-04-21T15:09:35.921Z</time></trkpt><trkpt lat="44.9085301" lon="7.1355324"><ele>1474.0</ele><time>2026-04-21T15:09:36.921Z</time></trkpt><trkpt lat="44.908456" lon="7.1355462"><ele>1474.0</ele><time>2026-04-21T15:09:37.921Z</time></trkpt><trkpt lat="44.9083782" lon="7.1355439"><ele>1475.4</ele><time>2026-04-21T15:09:38.921Z</time></trkpt><trkpt lat="44.9083011" lon="7.1355305"><ele>1476.8000000000002</ele><time>2026-04-21T15:09:39.921Z</time></trkpt><trkpt lat="44.9082292" lon="7.1355118"><ele>1478.1999999999998</ele><time>2026-04-21T15:09:40.921Z</time></trkpt><trkpt lat="44.9081164" lon="7.1354675"><ele>1479.6</ele><time>2026-04-21T15:09:42.921Z</time></trkpt><trkpt lat="44.9080276" lon="7.1354065"><ele>1481.0</ele><time>2026-04-21T15:09:44.921Z</time></trkpt><trkpt lat="44.907937" lon="7.1353239"><ele>1481.0</ele><time>2026-04-21T15:09:46.921Z</time></trkpt><trkpt lat="44.9078346" lon="7.1352684"><ele>1481.0</ele><time>2026-04-21T15:09:48.92Z</time></trkpt><trkpt lat="44.9077367" lon="7.1351942"><ele>1481.0</ele><time>2026-04-21T15:09:50.922Z</time></trkpt><trkpt lat="44.9076364" lon="7.1351061"><ele>1481.0</ele><time>2026-04-21T15:09:52.92Z</time></trkpt><trkpt lat="44.9075623" lon="7.1350152"><ele>1481.0</ele><time>2026-04-21T15:09:54.92Z</time></trkpt><trkpt lat="44.9075041" lon="7.1349779"><ele>1481.0000000000002</ele><time>2026-04-21T15:10:10.922Z</time></trkpt><trkpt lat="44.9075367" lon="7.1350678"><ele>1481.0</ele><time>2026-04-21T15:11:03.921Z</time></trkpt><trkpt lat="44.9076057" lon="7.1350953"><ele>1481.0</ele><time>2026-04-21T15:11:11.921Z</time></trkpt><trkpt lat="44.9076653" lon="7.1351313"><ele>1481.0</ele><time>2026-04-21T15:14:26.92Z</time></trkpt><trkpt lat="44.9077252" lon="7.1351675"><ele>1481.0</ele><time>2026-04-21T15:14:29.92Z</time></trkpt><trkpt lat="44.9077807" lon="7.1352117"><ele>1481.0000000000002</ele><time>2026-04-21T15:14:32.919Z</time></trkpt><trkpt lat="44.9078391" lon="7.1352841"><ele>1481.0</ele><time>2026-04-21T15:14:44.921Z</time></trkpt><trkpt lat="44.907915" lon="7.1353028"><ele>1481.0</ele><time>2026-04-21T15:14:47.92Z</time></trkpt><trkpt lat="44.9079899" lon="7.1353625"><ele>1481.0</ele><time>2026-04-21T15:14:50.921Z</time></trkpt><trkpt lat="44.9080635" lon="7.1354331"><ele>1481.0</ele><time>2026-04-21T15:14:53.921Z</time></trkpt><trkpt lat="44.908132" lon="7.1354725"><ele>1481.0</ele><time>2026-04-21T15:14:55.92Z</time></trkpt><trkpt lat="44.9082006" lon="7.1355101"><ele>1481.0</ele><time>2026-04-21T15:14:57.921Z</time></trkpt><trkpt lat="44.9082848" lon="7.1355448"><ele>1481.0</ele><time>2026-04-21T15:15:00.92Z</time></trkpt><trkpt lat="44.9083544" lon="7.1355811"><ele>1479.8333333333335</ele><time>2026-04-21T15:15:28.921Z</time></trkpt><trkpt lat="44.9084488" lon="7.1355494"><ele>1478.6666666666667</ele><time>2026-04-21T15:15:31.921Z</time></trkpt><trkpt lat="44.9085292" lon="7.1355265"><ele>1477.5</ele><time>2026-04-21T15:15:33.92Z</time></trkpt><trkpt lat="44.9086009" lon="7.1354875"><ele>1476.3333333333333</ele><time>2026-04-21T15:15:35.921Z</time></trkpt><trkpt lat="44.9086672" lon="7.1354266"><ele>1475.1666666666665</ele><time>2026-04-21T15:15:37.92Z</time></trkpt><trkpt lat="44.9087397" lon="7.1353581"><ele>1474.0</ele><time>2026-04-21T15:15:39.92Z</time></trkpt><trkpt lat="44.9088116" lon="7.1352866"><ele>1474.0</ele><time>2026-04-21T15:15:41.919Z</time></trkpt><trkpt lat="44.9088781" lon="7.135229"><ele>1474.0</ele><time>2026-04-21T15:15:43.92Z</time></trkpt><trkpt lat="44.90895" lon="7.1351455"><ele>1474.0</ele><time>2026-04-21T15:15:45.918Z</time></trkpt><trkpt lat="44.9090359" lon="7.1350587"><ele>1474.0</ele><time>2026-04-21T15:15:47.919Z</time></trkpt><trkpt lat="44.9091184" lon="7.1349837"><ele>1474.0</ele><time>2026-04-21T15:15:49.919Z</time></trkpt><trkpt lat="44.9092024" lon="7.13491"><ele>1469.3333333333333</ele><time>2026-04-21T15:15:51.919Z</time></trkpt><trkpt lat="44.9092988" lon="7.1348552"><ele>1464.6666666666665</ele><time>2026-04-21T15:15:53.92Z</time></trkpt><trkpt lat="44.90939" lon="7.1348262"><ele>1460.0</ele><time>2026-04-21T15:15:55.918Z</time></trkpt><trkpt lat="44.9094721" lon="7.1348134"><ele>1455.3333333333333</ele><time>2026-04-21T15:15:57.919Z</time></trkpt><trkpt lat="44.9095536" lon="7.1347988"><ele>1450.6666666666667</ele><time>2026-04-21T15:15:59.92Z</time></trkpt><trkpt lat="44.9096374" lon="7.1347658"><ele>1446.0</ele><time>2026-04-21T15:16:01.92Z</time></trkpt><trkpt lat="44.9097152" lon="7.1347355"><ele>1446.0</ele><time>2026-04-21T15:16:03.919Z</time></trkpt><trkpt lat="44.9097877" lon="7.1347036"><ele>1446.0</ele><time>2026-04-21T15:16:05.919Z</time></trkpt><trkpt lat="44.9098588" lon="7.1346975"><ele>1446.0</ele><time>2026-04-21T15:16:07.92Z</time></trkpt><trkpt lat="44.909931" lon="7.1346995"><ele>1446.0</ele><time>2026-04-21T15:16:09.919Z</time></trkpt><trkpt lat="44.9100126" lon="7.1346943"><ele>1446.0</ele><time>2026-04-21T15:16:11.92Z</time></trkpt><trkpt lat="44.9101064" lon="7.1347"><ele>1446.0</ele><time>2026-04-21T15:16:13.918Z</time></trkpt><trkpt lat="44.9102098" lon="7.1347175"><ele>1444.8333333333333</ele><time>2026-04-21T15:16:15.919Z</time></trkpt><trkpt lat="44.91031" lon="7.1347251"><ele>1443.6666666666667</ele><time>2026-04-21T15:16:17.919Z</time></trkpt><trkpt lat="44.9103951" lon="7.1347519"><ele>1442.5</ele><time>2026-04-21T15:16:19.919Z</time></trkpt><trkpt lat="44.9104682" lon="7.1348024"><ele>1441.3333333333335</ele><time>2026-04-21T15:16:21.919Z</time></trkpt><trkpt lat="44.9105268" lon="7.1348763"><ele>1440.1666666666667</ele><time>2026-04-21T15:16:23.919Z</time></trkpt><trkpt lat="44.9105906" lon="7.1349633"><ele>1439.0</ele><time>2026-04-21T15:16:25.92Z</time></trkpt><trkpt lat="44.9106589" lon="7.1350615"><ele>1439.0</ele><time>2026-04-21T15:16:27.919Z</time></trkpt><trkpt lat="44.9107124" lon="7.1351597"><ele>1439.0</ele><time>2026-04-21T15:16:29.919Z</time></trkpt><trkpt lat="44.9107363" lon="7.1352543"><ele>1439.0</ele><time>2026-04-21T15:25:31.917Z</time></trkpt><trkpt lat="44.9107771" lon="7.1353351"><ele>1439.0</ele><time>2026-04-21T15:25:33.917Z</time></trkpt><trkpt lat="44.9108271" lon="7.1354432"><ele>1439.0</ele><time>2026-04-21T15:25:35.917Z</time></trkpt><trkpt lat="44.9108794" lon="7.1355614"><ele>1439.0</ele><time>2026-04-21T15:25:37.918Z</time></trkpt><trkpt lat="44.910927" lon="7.135686"><ele>1435.4</ele><time>2026-04-21T15:25:39.917Z</time></trkpt><trkpt lat="44.9109693" lon="7.1358234"><ele>1431.8000000000002</ele><time>2026-04-21T15:25:41.917Z</time></trkpt><trkpt lat="44.9110026" lon="7.1359573"><ele>1428.1999999999998</ele><time>2026-04-21T15:25:43.917Z</time></trkpt><trkpt lat="44.9110665" lon="7.1360493"><ele>1424.6</ele><time>2026-04-21T15:25:45.917Z</time></trkpt><trkpt lat="44.9111593" lon="7.1360485"><ele>1421.0</ele><time>2026-04-21T15:25:47.916Z</time></trkpt><trkpt lat="44.9112499" lon="7.1360188"><ele>1421.0</ele><time>2026-04-21T15:25:49.917Z</time></trkpt><trkpt lat="44.9113547" lon="7.1360176"><ele>1421.0</ele><time>2026-04-21T15:25:51.917Z</time></trkpt><trkpt lat="44.9114393" lon="7.1361228"><ele>1421.0</ele><time>2026-04-21T15:25:53.917Z</time></trkpt><trkpt lat="44.911461" lon="7.1362098"><ele>1421.0</ele><time>2026-04-21T15:25:54.917Z</time></trkpt><trkpt lat="44.9114813" lon="7.1362952"><ele>1421.0</ele><time>2026-04-21T15:25:55.918Z</time></trkpt><trkpt lat="44.9115635" lon="7.1363939"><ele>1421.0</ele><time>2026-04-21T15:25:57.917Z</time></trkpt><trkpt lat="44.9116661" lon="7.13641"><ele>1421.0</ele><time>2026-04-21T15:25:59.918Z</time></trkpt><trkpt lat="44.9117573" lon="7.1363482"><ele>1421.0</ele><time>2026-04-21T15:26:01.917Z</time></trkpt><trkpt lat="44.9118713" lon="7.1363349"><ele>1421.0</ele><time>2026-04-21T15:26:03.916Z</time></trkpt><trkpt lat="44.9119805" lon="7.1363813"><ele>1421.0</ele><time>2026-04-21T15:26:05.917Z</time></trkpt><trkpt lat="44.9120887" lon="7.1363983"><ele>1421.6666666666667</ele><time>2026-04-21T15:26:07.917Z</time></trkpt><trkpt lat="44.9122012" lon="7.1364431"><ele>1422.3333333333335</ele><time>2026-04-21T15:26:09.918Z</time></trkpt><trkpt lat="44.9122573" lon="7.1364862"><ele>1423.0</ele><time>2026-04-21T15:26:10.918Z</time></trkpt><trkpt lat="44.9123157" lon="7.1365438"><ele>1423.6666666666667</ele><time>2026-04-21T15:26:11.918Z</time></trkpt><trkpt lat="44.9123836" lon="7.1366033"><ele>1424.3333333333333</ele><time>2026-04-21T15:26:12.917Z</time></trkpt><trkpt lat="44.9124573" lon="7.136664"><ele>1425.0</ele><time>2026-04-21T15:26:13.917Z</time></trkpt><trkpt lat="44.9125308" lon="7.1367203"><ele>1420.8333333333333</ele><time>2026-04-21T15:26:14.918Z</time></trkpt><trkpt lat="44.9126016" lon="7.1367801"><ele>1416.6666666666667</ele><time>2026-04-21T15:26:15.918Z</time></trkpt><trkpt lat="44.9126688" lon="7.1368415"><ele>1412.5</ele><time>2026-04-21T15:26:16.917Z</time></trkpt><trkpt lat="44.9127382" lon="7.1368948"><ele>1408.3333333333335</ele><time>2026-04-21T15:26:17.918Z</time></trkpt><trkpt lat="44.9128081" lon="7.1369275"><ele>1404.1666666666667</ele><time>2026-04-21T15:26:18.918Z</time></trkpt><trkpt lat="44.9128843" lon="7.1369365"><ele>1400.0</ele><time>2026-04-21T15:26:19.918Z</time></trkpt><trkpt lat="44.9129577" lon="7.136949"><ele>1400.0</ele><time>2026-04-21T15:26:20.917Z</time></trkpt><trkpt lat="44.913032" lon="7.1369626"><ele>1400.0</ele><time>2026-04-21T15:26:21.918Z</time></trkpt><trkpt lat="44.9131075" lon="7.1369748"><ele>1400.0</ele><time>2026-04-21T15:26:22.918Z</time></trkpt><trkpt lat="44.9131865" lon="7.1369957"><ele>1400.0</ele><time>2026-04-21T15:26:23.916Z</time></trkpt><trkpt lat="44.9132663" lon="7.1370231"><ele>1400.0</ele><time>2026-04-21T15:26:24.916Z</time></trkpt><trkpt lat="44.9133504" lon="7.137064"><ele>1400.0</ele><time>2026-04-21T15:26:25.917Z</time></trkpt><trkpt lat="44.9134321" lon="7.1371071"><ele>1400.8333333333335</ele><time>2026-04-21T15:26:26.916Z</time></trkpt><trkpt lat="44.9135125" lon="7.137152"><ele>1401.6666666666667</ele><time>2026-04-21T15:26:27.917Z</time></trkpt><trkpt lat="44.9135913" lon="7.1372024"><ele>1402.5</ele><time>2026-04-21T15:26:28.917Z</time></trkpt><trkpt lat="44.9136669" lon="7.1372524"><ele>1403.3333333333333</ele><time>2026-04-21T15:26:29.917Z</time></trkpt><trkpt lat="44.9137345" lon="7.1372943"><ele>1404.1666666666665</ele><time>2026-04-21T15:26:30.917Z</time></trkpt><trkpt lat="44.9138016" lon="7.1373486"><ele>1405.0</ele><time>2026-04-21T15:26:31.918Z</time></trkpt><trkpt lat="44.9138512" lon="7.1374142"><ele>1405.0</ele><time>2026-04-21T15:26:32.917Z</time></trkpt><trkpt lat="44.9138945" lon="7.1374925"><ele>1405.0</ele><time>2026-04-21T15:26:33.918Z</time></trkpt><trkpt lat="44.913991" lon="7.1375772"><ele>1405.0</ele><time>2026-04-21T15:26:35.916Z</time></trkpt><trkpt lat="44.9140947" lon="7.1375368"><ele>1405.0</ele><time>2026-04-21T15:26:37.917Z</time></trkpt><trkpt lat="44.9142218" lon="7.1375052"><ele>1405.0</ele><time>2026-04-21T15:26:39.916Z</time></trkpt><trkpt lat="44.9142775" lon="7.1375837"><ele>1404.4</ele><time>2026-04-21T15:26:40.916Z</time></trkpt><trkpt lat="44.9143892" lon="7.1376084"><ele>1403.8</ele><time>2026-04-21T15:26:42.918Z</time></trkpt><trkpt lat="44.9144818" lon="7.1375234"><ele>1403.1999999999998</ele><time>2026-04-21T15:26:44.917Z</time></trkpt><trkpt lat="44.9145905" lon="7.1374413"><ele>1402.6</ele><time>2026-04-21T15:26:46.918Z</time></trkpt><trkpt lat="44.914657" lon="7.1374326"><ele>1402.0</ele><time>2026-04-21T15:26:47.918Z</time></trkpt><trkpt lat="44.9147236" lon="7.1374258"><ele>1402.0</ele><time>2026-04-21T15:26:48.917Z</time></trkpt><trkpt lat="44.9147896" lon="7.137399"><ele>1402.0</ele><time>2026-04-21T15:26:49.918Z</time></trkpt><trkpt lat="44.9148527" lon="7.1373596"><ele>1402.0</ele><time>2026-04-21T15:26:50.917Z</time></trkpt><trkpt lat="44.9149148" lon="7.1373044"><ele>1402.0</ele><time>2026-04-21T15:26:51.917Z</time></trkpt><trkpt lat="44.9149762" lon="7.1372523"><ele>1402.0</ele><time>2026-04-21T15:26:52.917Z</time></trkpt><trkpt lat="44.9150365" lon="7.1372092"><ele>1402.0</ele><time>2026-04-21T15:26:53.916Z</time></trkpt><trkpt lat="44.9151015" lon="7.1371636"><ele>1402.0</ele><time>2026-04-21T15:26:54.917Z</time></trkpt><trkpt lat="44.9151685" lon="7.1371269"><ele>1394.6666666666665</ele><time>2026-04-21T15:26:55.917Z</time></trkpt><trkpt lat="44.9152301" lon="7.1370909"><ele>1387.3333333333333</ele><time>2026-04-21T15:26:56.916Z</time></trkpt><trkpt lat="44.9152953" lon="7.1370606"><ele>1380.0</ele><time>2026-04-21T15:26:57.916Z</time></trkpt><trkpt lat="44.9153635" lon="7.1370692"><ele>1372.6666666666667</ele><time>2026-04-21T15:26:58.917Z</time></trkpt><trkpt lat="44.9154719" lon="7.13714"><ele>1365.3333333333335</ele><time>2026-04-21T15:27:00.916Z</time></trkpt><trkpt lat="44.9155378" lon="7.1372846"><ele>1358.0</ele><time>2026-04-21T15:27:02.915Z</time></trkpt><trkpt lat="44.9155847" lon="7.1373452"><ele>1358.0</ele><time>2026-04-21T15:27:03.916Z</time></trkpt><trkpt lat="44.915644" lon="7.1373751"><ele>1358.0</ele><time>2026-04-21T15:27:04.916Z</time></trkpt><trkpt lat="44.9157113" lon="7.1373816"><ele>1358.0</ele><time>2026-04-21T15:27:05.916Z</time></trkpt><trkpt lat="44.9157801" lon="7.137358"><ele>1358.0</ele><time>2026-04-21T15:27:06.916Z</time></trkpt><trkpt lat="44.9158626" lon="7.1373315"><ele>1358.0</ele><time>2026-04-21T15:27:07.917Z</time></trkpt><trkpt lat="44.9159348" lon="7.1373212"><ele>1358.0</ele><time>2026-04-21T15:27:08.916Z</time></trkpt><trkpt lat="44.9160031" lon="7.1373164"><ele>1358.0</ele><time>2026-04-21T15:27:09.917Z</time></trkpt><trkpt lat="44.9160688" lon="7.1373305"><ele>1359.6666666666667</ele><time>2026-04-21T15:27:10.916Z</time></trkpt><trkpt lat="44.9161353" lon="7.1373626"><ele>1361.3333333333335</ele><time>2026-04-21T15:27:11.916Z</time></trkpt><trkpt lat="44.9161977" lon="7.1374242"><ele>1363.0</ele><time>2026-04-21T15:27:12.915Z</time></trkpt><trkpt lat="44.9162579" lon="7.1374932"><ele>1364.6666666666667</ele><time>2026-04-21T15:27:13.916Z</time></trkpt><trkpt lat="44.9163294" lon="7.1375565"><ele>1366.3333333333333</ele><time>2026-04-21T15:27:14.917Z</time></trkpt><trkpt lat="44.9164046" lon="7.1376174"><ele>1368.0</ele><time>2026-04-21T15:27:15.916Z</time></trkpt><trkpt lat="44.9164836" lon="7.1376833"><ele>1368.0</ele><time>2026-04-21T15:27:16.917Z</time></trkpt><trkpt lat="44.9165607" lon="7.1377536"><ele>1368.0</ele><time>2026-04-21T15:27:17.917Z</time></trkpt><trkpt lat="44.916639" lon="7.1378144"><ele>1368.0</ele><time>2026-04-21T15:27:18.915Z</time></trkpt><trkpt lat="44.9167154" lon="7.1378528"><ele>1368.0</ele><time>2026-04-21T15:27:19.915Z</time></trkpt><trkpt lat="44.9167895" lon="7.1378861"><ele>1368.0</ele><time>2026-04-21T15:27:20.916Z</time></trkpt><trkpt lat="44.9168608" lon="7.1379149"><ele>1368.0</ele><time>2026-04-21T15:27:21.916Z</time></trkpt><trkpt lat="44.9169359" lon="7.1379298"><ele>1365.1666666666667</ele><time>2026-04-21T15:27:22.917Z</time></trkpt><trkpt lat="44.9170155" lon="7.1379341"><ele>1362.3333333333333</ele><time>2026-04-21T15:27:23.915Z</time></trkpt><trkpt lat="44.917094" lon="7.1379348"><ele>1359.5</ele><time>2026-04-21T15:27:24.917Z</time></trkpt><trkpt lat="44.9171779" lon="7.1379293"><ele>1356.6666666666665</ele><time>2026-04-21T15:27:25.917Z</time></trkpt><trkpt lat="44.9172499" lon="7.1379185"><ele>1353.8333333333333</ele><time>2026-04-21T15:27:26.916Z</time></trkpt><trkpt lat="44.9173745" lon="7.1378974"><ele>1351.0</ele><time>2026-04-21T15:27:28.916Z</time></trkpt><trkpt lat="44.9174378" lon="7.1378905"><ele>1351.0</ele><time>2026-04-21T15:27:29.915Z</time></trkpt><trkpt lat="44.9175059" lon="7.137893"><ele>1351.0</ele><time>2026-04-21T15:27:30.916Z</time></trkpt><trkpt lat="44.9175769" lon="7.1379219"><ele>1351.0</ele><time>2026-04-21T15:27:31.916Z</time></trkpt><trkpt lat="44.9176535" lon="7.1379489"><ele>1351.0</ele><time>2026-04-21T15:27:32.916Z</time></trkpt><trkpt lat="44.9177306" lon="7.1379687"><ele>1351.0</ele><time>2026-04-21T15:27:33.915Z</time></trkpt><trkpt lat="44.9178058" lon="7.137985"><ele>1351.0</ele><time>2026-04-21T15:27:34.917Z</time></trkpt><trkpt lat="44.9178952" lon="7.1379899"><ele>1351.1666666666665</ele><time>2026-04-21T15:27:35.916Z</time></trkpt><trkpt lat="44.9179942" lon="7.1379639"><ele>1351.3333333333333</ele><time>2026-04-21T15:27:36.916Z</time></trkpt><trkpt lat="44.9180597" lon="7.1379689"><ele>1351.5</ele><time>2026-04-21T15:27:37.917Z</time></trkpt><trkpt lat="44.9181292" lon="7.1379936"><ele>1351.6666666666667</ele><time>2026-04-21T15:27:38.916Z</time></trkpt><trkpt lat="44.9181947" lon="7.1380194"><ele>1351.8333333333335</ele><time>2026-04-21T15:27:39.915Z</time></trkpt><trkpt lat="44.9183269" lon="7.1380351"><ele>1352.0</ele><time>2026-04-21T15:27:41.916Z</time></trkpt><trkpt lat="44.9184068" lon="7.138"><ele>1352.0</ele><time>2026-04-21T15:27:42.917Z</time></trkpt><trkpt lat="44.9184836" lon="7.137934"><ele>1352.0</ele><time>2026-04-21T15:27:43.915Z</time></trkpt><trkpt lat="44.9185515" lon="7.137848"><ele>1352.0</ele><time>2026-04-21T15:27:44.917Z</time></trkpt><trkpt lat="44.9186259" lon="7.1377492"><ele>1352.0</ele><time>2026-04-21T15:27:45.915Z</time></trkpt><trkpt lat="44.9187049" lon="7.1376587"><ele>1352.0</ele><time>2026-04-21T15:27:46.916Z</time></trkpt><trkpt lat="44.918785" lon="7.1375795"><ele>1352.0</ele><time>2026-04-21T15:27:47.916Z</time></trkpt><trkpt lat="44.9188642" lon="7.1375028"><ele>1352.0</ele><time>2026-04-21T15:27:48.916Z</time></trkpt><trkpt lat="44.9189427" lon="7.1374284"><ele>1352.0</ele><time>2026-04-21T15:27:49.917Z</time></trkpt><trkpt lat="44.919013" lon="7.1373591"><ele>1352.0</ele><time>2026-04-21T15:27:50.916Z</time></trkpt><trkpt lat="44.9190845" lon="7.1372992"><ele>1352.0</ele><time>2026-04-21T15:27:51.915Z</time></trkpt><trkpt lat="44.9191556" lon="7.13724"><ele>1352.0</ele><time>2026-04-21T15:27:52.917Z</time></trkpt><trkpt lat="44.9192301" lon="7.1372"><ele>1346.5</ele><time>2026-04-21T15:27:53.916Z</time></trkpt><trkpt lat="44.9193087" lon="7.1371613"><ele>1341.0</ele><time>2026-04-21T15:27:54.916Z</time></trkpt><trkpt lat="44.9193889" lon="7.1371281"><ele>1335.5</ele><time>2026-04-21T15:27:55.917Z</time></trkpt><trkpt lat="44.9194704" lon="7.1371064"><ele>1330.0</ele><time>2026-04-21T15:27:56.916Z</time></trkpt><trkpt lat="44.9195458" lon="7.1370899"><ele>1324.5</ele><time>2026-04-21T15:27:57.917Z</time></trkpt><trkpt lat="44.919622" lon="7.137081"><ele>1319.0</ele><time>2026-04-21T15:27:58.916Z</time></trkpt><trkpt lat="44.9196887" lon="7.1370803"><ele>1318.9999999999998</ele><time>2026-04-21T15:27:59.916Z</time></trkpt><trkpt lat="44.9197585" lon="7.1370792"><ele>1319.0</ele><time>2026-04-21T15:28:00.916Z</time></trkpt><trkpt lat="44.9198161" lon="7.137149"><ele>1319.0</ele><time>2026-04-21T15:28:01.915Z</time></trkpt><trkpt lat="44.9198819" lon="7.1371996"><ele>1319.0</ele><time>2026-04-21T15:28:02.916Z</time></trkpt><trkpt lat="44.9199477" lon="7.1372593"><ele>1319.0</ele><time>2026-04-21T15:28:03.916Z</time></trkpt><trkpt lat="44.920009" lon="7.1372889"><ele>1318.9999999999998</ele><time>2026-04-21T15:28:04.917Z</time></trkpt><trkpt lat="44.9200871" lon="7.1373049"><ele>1319.0</ele><time>2026-04-21T15:28:05.917Z</time></trkpt><trkpt lat="44.9201508" lon="7.1373001"><ele>1319.1666666666667</ele><time>2026-04-21T15:28:06.916Z</time></trkpt><trkpt lat="44.9202264" lon="7.1373171"><ele>1319.3333333333335</ele><time>2026-04-21T15:28:07.916Z</time></trkpt><trkpt lat="44.9203365" lon="7.1373937"><ele>1319.5</ele><time>2026-04-21T15:28:09.915Z</time></trkpt><trkpt lat="44.9204182" lon="7.1373995"><ele>1319.6666666666667</ele><time>2026-04-21T15:28:10.916Z</time></trkpt><trkpt lat="44.9204883" lon="7.1373697"><ele>1319.8333333333333</ele><time>2026-04-21T15:28:11.916Z</time></trkpt><trkpt lat="44.9205508" lon="7.1373073"><ele>1320.0</ele><time>2026-04-21T15:28:12.916Z</time></trkpt><trkpt lat="44.9206109" lon="7.1372378"><ele>1320.0</ele><time>2026-04-21T15:28:13.917Z</time></trkpt><trkpt lat="44.9206621" lon="7.1371446"><ele>1320.0</ele><time>2026-04-21T15:28:14.916Z</time></trkpt><trkpt lat="44.9207115" lon="7.1370576"><ele>1320.0</ele><time>2026-04-21T15:28:15.916Z</time></trkpt><trkpt lat="44.9207708" lon="7.136969"><ele>1320.0</ele><time>2026-04-21T15:28:16.917Z</time></trkpt><trkpt lat="44.9208277" lon="7.1368831"><ele>1320.0</ele><time>2026-04-21T15:28:17.916Z</time></trkpt><trkpt lat="44.9208893" lon="7.1368031"><ele>1320.0</ele><time>2026-04-21T15:28:18.917Z</time></trkpt><trkpt lat="44.920951" lon="7.1367257"><ele>1320.0</ele><time>2026-04-21T15:28:19.915Z</time></trkpt><trkpt lat="44.9210051" lon="7.1366372"><ele>1320.0</ele><time>2026-04-21T15:28:20.916Z</time></trkpt><trkpt lat="44.9210628" lon="7.1365518"><ele>1320.0</ele><time>2026-04-21T15:28:21.917Z</time></trkpt><trkpt lat="44.9211206" lon="7.1364881"><ele>1320.0</ele><time>2026-04-21T15:28:22.916Z</time></trkpt><trkpt lat="44.9211793" lon="7.1364463"><ele>1320.0</ele><time>2026-04-21T15:28:23.915Z</time></trkpt><trkpt lat="44.9212398" lon="7.1364201"><ele>1320.0</ele><time>2026-04-21T15:28:24.917Z</time></trkpt><trkpt lat="44.9213786" lon="7.1364372"><ele>1320.0</ele><time>2026-04-21T15:28:26.915Z</time></trkpt><trkpt lat="44.9214507" lon="7.1364867"><ele>1320.0</ele><time>2026-04-21T15:28:27.916Z</time></trkpt><trkpt lat="44.9215285" lon="7.1365305"><ele>1320.0</ele><time>2026-04-21T15:28:28.916Z</time></trkpt><trkpt lat="44.9216135" lon="7.1365301"><ele>1320.0</ele><time>2026-04-21T15:28:29.917Z</time></trkpt><trkpt lat="44.9216825" lon="7.1365677"><ele>1320.0</ele><time>2026-04-21T15:28:30.917Z</time></trkpt><trkpt lat="44.9217573" lon="7.1366193"><ele>1320.0</ele><time>2026-04-21T15:28:31.915Z</time></trkpt><trkpt lat="44.9218305" lon="7.1366871"><ele>1314.8333333333333</ele><time>2026-04-21T15:28:32.915Z</time></trkpt><trkpt lat="44.921899" lon="7.1367577"><ele>1309.6666666666667</ele><time>2026-04-21T15:28:33.915Z</time></trkpt><trkpt lat="44.9219724" lon="7.1368315"><ele>1304.5</ele><time>2026-04-21T15:28:34.915Z</time></trkpt><trkpt lat="44.9220382" lon="7.1369078"><ele>1299.3333333333335</ele><time>2026-04-21T15:28:35.917Z</time></trkpt><trkpt lat="44.9221087" lon="7.1369855"><ele>1294.1666666666667</ele><time>2026-04-21T15:28:36.917Z</time></trkpt><trkpt lat="44.9221801" lon="7.1370597"><ele>1289.0</ele><time>2026-04-21T15:28:37.916Z</time></trkpt><trkpt lat="44.9222434" lon="7.1371387"><ele>1289.0</ele><time>2026-04-21T15:28:38.916Z</time></trkpt><trkpt lat="44.9222949" lon="7.1372139"><ele>1289.0</ele><time>2026-04-21T15:28:39.915Z</time></trkpt><trkpt lat="44.9223492" lon="7.1372951"><ele>1289.0</ele><time>2026-04-21T15:28:40.915Z</time></trkpt><trkpt lat="44.9223927" lon="7.1373637"><ele>1289.0</ele><time>2026-04-21T15:28:41.917Z</time></trkpt><trkpt lat="44.9224325" lon="7.1374452"><ele>1289.0</ele><time>2026-04-21T15:28:42.917Z</time></trkpt><trkpt lat="44.9224407" lon="7.1375475"><ele>1289.0</ele><time>2026-04-21T15:28:43.917Z</time></trkpt><trkpt lat="44.922447" lon="7.1376487"><ele>1289.0</ele><time>2026-04-21T15:28:44.917Z</time></trkpt><trkpt lat="44.9224756" lon="7.1377653"><ele>1291.0</ele><time>2026-04-21T15:28:45.916Z</time></trkpt><trkpt lat="44.9224859" lon="7.1379074"><ele>1293.0</ele><time>2026-04-21T15:28:46.915Z</time></trkpt><trkpt lat="44.922525" lon="7.1380625"><ele>1295.0</ele><time>2026-04-21T15:28:47.915Z</time></trkpt><trkpt lat="44.9225515" lon="7.138198"><ele>1297.0</ele><time>2026-04-21T15:28:48.917Z</time></trkpt><trkpt lat="44.9225788" lon="7.1383325"><ele>1299.0</ele><time>2026-04-21T15:28:49.916Z</time></trkpt><trkpt lat="44.9226131" lon="7.138459"><ele>1292.6000000000001</ele><time>2026-04-21T15:28:50.917Z</time></trkpt><trkpt lat="44.9226747" lon="7.1385626"><ele>1286.2</ele><time>2026-04-21T15:28:51.917Z</time></trkpt><trkpt lat="44.9227305" lon="7.1386615"><ele>1279.8000000000002</ele><time>2026-04-21T15:28:52.917Z</time></trkpt><trkpt lat="44.9227803" lon="7.1387843"><ele>1273.4</ele><time>2026-04-21T15:28:53.916Z</time></trkpt><trkpt lat="44.9227974" lon="7.1389051"><ele>1267.0</ele><time>2026-04-21T15:28:54.915Z</time></trkpt><trkpt lat="44.9228233" lon="7.1390667"><ele>1267.0</ele><time>2026-04-21T15:28:55.916Z</time></trkpt><trkpt lat="44.9228491" lon="7.1392502"><ele>1267.0</ele><time>2026-04-21T15:28:56.916Z</time></trkpt><trkpt lat="44.9228716" lon="7.1393991"><ele>1267.0</ele><time>2026-04-21T15:28:57.916Z</time></trkpt><trkpt lat="44.9228829" lon="7.139541"><ele>1267.0</ele><time>2026-04-21T15:28:58.917Z</time></trkpt><trkpt lat="44.9228717" lon="7.1396696"><ele>1267.0</ele><time>2026-04-21T15:28:59.916Z</time></trkpt><trkpt lat="44.9228946" lon="7.1398043"><ele>1268.8333333333333</ele><time>2026-04-21T15:29:00.915Z</time></trkpt><trkpt lat="44.9229232" lon="7.1399214"><ele>1270.6666666666665</ele><time>2026-04-21T15:29:01.915Z</time></trkpt><trkpt lat="44.9229486" lon="7.1400147"><ele>1272.5</ele><time>2026-04-21T15:29:02.917Z</time></trkpt><trkpt lat="44.9229898" lon="7.1401364"><ele>1274.3333333333333</ele><time>2026-04-21T15:29:03.917Z</time></trkpt><trkpt lat="44.9230529" lon="7.1402284"><ele>1276.1666666666667</ele><time>2026-04-21T15:29:04.917Z</time></trkpt><trkpt lat="44.9231157" lon="7.1403325"><ele>1278.0</ele><time>2026-04-21T15:29:05.916Z</time></trkpt><trkpt lat="44.9231706" lon="7.1404306"><ele>1278.0</ele><time>2026-04-21T15:29:06.917Z</time></trkpt><trkpt lat="44.9232339" lon="7.140517"><ele>1278.0</ele><time>2026-04-21T15:29:07.915Z</time></trkpt><trkpt lat="44.9233069" lon="7.1405894"><ele>1278.0</ele><time>2026-04-21T15:29:08.916Z</time></trkpt><trkpt lat="44.9233893" lon="7.1406612"><ele>1278.0</ele><time>2026-04-21T15:29:09.917Z</time></trkpt><trkpt lat="44.9234667" lon="7.1407335"><ele>1278.0</ele><time>2026-04-21T15:29:10.917Z</time></trkpt><trkpt lat="44.923539" lon="7.1408027"><ele>1272.4</ele><time>2026-04-21T15:29:11.917Z</time></trkpt><trkpt lat="44.9236105" lon="7.1408695"><ele>1266.8</ele><time>2026-04-21T15:29:12.917Z</time></trkpt><trkpt lat="44.923677" lon="7.1409407"><ele>1261.2</ele><time>2026-04-21T15:29:13.917Z</time></trkpt><trkpt lat="44.9237305" lon="7.141032"><ele>1255.6</ele><time>2026-04-21T15:29:14.915Z</time></trkpt><trkpt lat="44.9237791" lon="7.1411542"><ele>1250.0</ele><time>2026-04-21T15:29:15.916Z</time></trkpt><trkpt lat="44.923835" lon="7.1412746"><ele>1250.0</ele><time>2026-04-21T15:29:16.915Z</time></trkpt><trkpt lat="44.923876" lon="7.1413863"><ele>1250.0</ele><time>2026-04-21T15:29:17.916Z</time></trkpt><trkpt lat="44.9239131" lon="7.141517"><ele>1250.0</ele><time>2026-04-21T15:29:18.916Z</time></trkpt><trkpt lat="44.9239205" lon="7.1416669"><ele>1250.0</ele><time>2026-04-21T15:29:19.917Z</time></trkpt><trkpt lat="44.9239402" lon="7.1418256"><ele>1250.0</ele><time>2026-04-21T15:29:20.916Z</time></trkpt><trkpt lat="44.9239829" lon="7.1419805"><ele>1252.5</ele><time>2026-04-21T15:29:21.917Z</time></trkpt><trkpt lat="44.9240348" lon="7.1421427"><ele>1255.0</ele><time>2026-04-21T15:29:22.916Z</time></trkpt><trkpt lat="44.9240918" lon="7.1423029"><ele>1257.5</ele><time>2026-04-21T15:29:23.916Z</time></trkpt><trkpt lat="44.9241455" lon="7.1424514"><ele>1260.0</ele><time>2026-04-21T15:29:24.917Z</time></trkpt><trkpt lat="44.9242039" lon="7.1425929"><ele>1253.0</ele><time>2026-04-21T15:29:25.916Z</time></trkpt><trkpt lat="44.9242617" lon="7.1427125"><ele>1246.0</ele><time>2026-04-21T15:29:26.916Z</time></trkpt><trkpt lat="44.9243289" lon="7.142834"><ele>1239.0</ele><time>2026-04-21T15:29:27.916Z</time></trkpt><trkpt lat="44.9244153" lon="7.1429571"><ele>1232.0</ele><time>2026-04-21T15:29:28.916Z</time></trkpt><trkpt lat="44.9244909" lon="7.1430863"><ele>1232.0</ele><time>2026-04-21T15:29:29.917Z</time></trkpt><trkpt lat="44.9245403" lon="7.1432032"><ele>1232.0</ele><time>2026-04-21T15:29:30.916Z</time></trkpt><trkpt lat="44.9245945" lon="7.1433159"><ele>1232.0</ele><time>2026-04-21T15:29:31.916Z</time></trkpt><trkpt lat="44.9246467" lon="7.1434311"><ele>1232.0</ele><time>2026-04-21T15:29:32.915Z</time></trkpt><trkpt lat="44.9246724" lon="7.1435657"><ele>1232.0</ele><time>2026-04-21T15:29:33.917Z</time></trkpt><trkpt lat="44.924699" lon="7.1436903"><ele>1234.6</ele><time>2026-04-21T15:29:34.916Z</time></trkpt><trkpt lat="44.9247263" lon="7.1438188"><ele>1237.2</ele><time>2026-04-21T15:29:35.915Z</time></trkpt><trkpt lat="44.9247355" lon="7.1439524"><ele>1239.8</ele><time>2026-04-21T15:29:36.916Z</time></trkpt><trkpt lat="44.9247264" lon="7.1441029"><ele>1242.4</ele><time>2026-04-21T15:29:37.916Z</time></trkpt><trkpt lat="44.924716" lon="7.1442354"><ele>1245.0</ele><time>2026-04-21T15:29:38.915Z</time></trkpt><trkpt lat="44.9247108" lon="7.1443467"><ele>1245.8</ele><time>2026-04-21T15:29:39.916Z</time></trkpt><trkpt lat="44.9247034" lon="7.1444483"><ele>1246.6</ele><time>2026-04-21T15:29:40.916Z</time></trkpt><trkpt lat="44.9247668" lon="7.1445509"><ele>1247.4</ele><time>2026-04-21T15:29:42.915Z</time></trkpt><trkpt lat="44.9248529" lon="7.1444881"><ele>1248.2</ele><time>2026-04-21T15:29:44.915Z</time></trkpt><trkpt lat="44.9249164" lon="7.1442918"><ele>1249.0</ele><time>2026-04-21T15:29:46.916Z</time></trkpt><trkpt lat="44.924955" lon="7.1441767"><ele>1249.0</ele><time>2026-04-21T15:29:47.916Z</time></trkpt><trkpt lat="44.9249893" lon="7.1440531"><ele>1249.0</ele><time>2026-04-21T15:29:48.917Z</time></trkpt><trkpt lat="44.9250259" lon="7.143941"><ele>1249.0</ele><time>2026-04-21T15:29:49.917Z</time></trkpt><trkpt lat="44.9250389" lon="7.1438379"><ele>1249.0</ele><time>2026-04-21T15:29:50.917Z</time></trkpt><trkpt lat="44.925042" lon="7.1437305"><ele>1249.0</ele><time>2026-04-21T15:29:51.916Z</time></trkpt><trkpt lat="44.9250336" lon="7.1436217"><ele>1249.0</ele><time>2026-04-21T15:29:52.917Z</time></trkpt><trkpt lat="44.9249972" lon="7.1435227"><ele>1248.3333333333333</ele><time>2026-04-21T15:29:53.916Z</time></trkpt><trkpt lat="44.9249477" lon="7.1434288"><ele>1247.6666666666665</ele><time>2026-04-21T15:29:54.916Z</time></trkpt><trkpt lat="44.9249033" lon="7.1433368"><ele>1247.0</ele><time>2026-04-21T15:29:55.917Z</time></trkpt><trkpt lat="44.9248789" lon="7.1432372"><ele>1246.3333333333333</ele><time>2026-04-21T15:29:56.917Z</time></trkpt><trkpt lat="44.9248786" lon="7.1431189"><ele>1245.6666666666667</ele><time>2026-04-21T15:29:57.916Z</time></trkpt><trkpt lat="44.924881" lon="7.142984"><ele>1245.0</ele><time>2026-04-21T15:29:58.917Z</time></trkpt><trkpt lat="44.9249107" lon="7.1428527"><ele>1242.4</ele><time>2026-04-21T15:29:59.917Z</time></trkpt><trkpt lat="44.9249328" lon="7.1427333"><ele>1239.8</ele><time>2026-04-21T15:30:00.915Z</time></trkpt><trkpt lat="44.9249353" lon="7.1426064"><ele>1237.2</ele><time>2026-04-21T15:30:01.916Z</time></trkpt><trkpt lat="44.9249367" lon="7.1424739"><ele>1234.6</ele><time>2026-04-21T15:30:02.916Z</time></trkpt><trkpt lat="44.9249149" lon="7.1423267"><ele>1232.0</ele><time>2026-04-21T15:30:03.917Z</time></trkpt><trkpt lat="44.924888" lon="7.1421912"><ele>1230.5</ele><time>2026-04-21T15:30:04.917Z</time></trkpt><trkpt lat="44.9248538" lon="7.1420644"><ele>1229.0</ele><time>2026-04-21T15:30:05.916Z</time></trkpt><trkpt lat="44.9248341" lon="7.1419304"><ele>1227.5</ele><time>2026-04-21T15:30:06.916Z</time></trkpt><trkpt lat="44.9248126" lon="7.1417989"><ele>1226.0</ele><time>2026-04-21T15:30:07.917Z</time></trkpt><trkpt lat="44.9248242" lon="7.1417003"><ele>1224.5</ele><time>2026-04-21T15:30:08.917Z</time></trkpt><trkpt lat="44.9247992" lon="7.1415911"><ele>1223.0</ele><time>2026-04-21T15:30:09.916Z</time></trkpt><trkpt lat="44.9247579" lon="7.1414963"><ele>1221.1666666666667</ele><time>2026-04-21T15:30:10.918Z</time></trkpt><trkpt lat="44.9246952" lon="7.1414059"><ele>1219.3333333333335</ele><time>2026-04-21T15:30:11.916Z</time></trkpt><trkpt lat="44.9246404" lon="7.1413247"><ele>1217.5</ele><time>2026-04-21T15:30:12.918Z</time></trkpt><trkpt lat="44.9246" lon="7.1412379"><ele>1215.6666666666667</ele><time>2026-04-21T15:30:13.917Z</time></trkpt><trkpt lat="44.9245727" lon="7.141138"><ele>1213.8333333333333</ele><time>2026-04-21T15:30:14.916Z</time></trkpt><trkpt lat="44.9245501" lon="7.1410256"><ele>1212.0</ele><time>2026-04-21T15:30:15.916Z</time></trkpt><trkpt lat="44.9245554" lon="7.1408405"><ele>1209.8</ele><time>2026-04-21T15:30:16.915Z</time></trkpt><trkpt lat="44.9245309" lon="7.1407068"><ele>1207.6</ele><time>2026-04-21T15:30:17.916Z</time></trkpt><trkpt lat="44.9245131" lon="7.1405665"><ele>1205.3999999999999</ele><time>2026-04-21T15:30:18.916Z</time></trkpt><trkpt lat="44.9245082" lon="7.1404114"><ele>1203.2</ele><time>2026-04-21T15:30:19.916Z</time></trkpt><trkpt lat="44.9245045" lon="7.1402977"><ele>1201.0</ele><time>2026-04-21T15:30:20.915Z</time></trkpt><trkpt lat="44.9245121" lon="7.1401573"><ele>1201.0</ele><time>2026-04-21T15:30:21.916Z</time></trkpt><trkpt lat="44.9245036" lon="7.1400181"><ele>1201.0</ele><time>2026-04-21T15:30:22.916Z</time></trkpt><trkpt lat="44.9245093" lon="7.139874"><ele>1201.0</ele><time>2026-04-21T15:30:23.917Z</time></trkpt><trkpt lat="44.9244972" lon="7.1397407"><ele>1201.0</ele><time>2026-04-21T15:30:24.916Z</time></trkpt><trkpt lat="44.9244867" lon="7.1396028"><ele>1201.0</ele><time>2026-04-21T15:30:25.917Z</time></trkpt><trkpt lat="44.9244632" lon="7.1394614"><ele>1198.2</ele><time>2026-04-21T15:30:26.916Z</time></trkpt><trkpt lat="44.924436" lon="7.139328"><ele>1195.3999999999999</ele><time>2026-04-21T15:30:27.917Z</time></trkpt><trkpt lat="44.9244128" lon="7.1391985"><ele>1192.6</ele><time>2026-04-21T15:30:28.916Z</time></trkpt><trkpt lat="44.9243767" lon="7.1390792"><ele>1189.8</ele><time>2026-04-21T15:30:29.916Z</time></trkpt><trkpt lat="44.9243363" lon="7.1389715"><ele>1187.0</ele><time>2026-04-21T15:30:30.916Z</time></trkpt><trkpt lat="44.9242975" lon="7.1388686"><ele>1183.8</ele><time>2026-04-21T15:30:31.915Z</time></trkpt><trkpt lat="44.9242631" lon="7.1387543"><ele>1180.6</ele><time>2026-04-21T15:30:32.915Z</time></trkpt><trkpt lat="44.9242403" lon="7.1386286"><ele>1177.3999999999999</ele><time>2026-04-21T15:30:33.915Z</time></trkpt><trkpt lat="44.9242419" lon="7.1384826"><ele>1174.2</ele><time>2026-04-21T15:30:34.915Z</time></trkpt><trkpt lat="44.92425" lon="7.1383553"><ele>1171.0</ele><time>2026-04-21T15:30:35.915Z</time></trkpt><trkpt lat="44.9242822" lon="7.1382498"><ele>1170.2</ele><time>2026-04-21T15:30:36.915Z</time></trkpt><trkpt lat="44.9243032" lon="7.1381213"><ele>1169.3999999999999</ele><time>2026-04-21T15:30:37.916Z</time></trkpt><trkpt lat="44.9243253" lon="7.1379953"><ele>1168.6</ele><time>2026-04-21T15:30:38.915Z</time></trkpt><trkpt lat="44.924337" lon="7.1378732"><ele>1167.8</ele><time>2026-04-21T15:30:39.914Z</time></trkpt><trkpt lat="44.9243521" lon="7.1377484"><ele>1167.0</ele><time>2026-04-21T15:30:40.915Z</time></trkpt><trkpt lat="44.9243684" lon="7.1376217"><ele>1167.0</ele><time>2026-04-21T15:30:41.915Z</time></trkpt><trkpt lat="44.9243805" lon="7.1374815"><ele>1167.0</ele><time>2026-04-21T15:30:42.915Z</time></trkpt><trkpt lat="44.9243869" lon="7.1373319"><ele>1167.0</ele><time>2026-04-21T15:30:43.916Z</time></trkpt><trkpt lat="44.9243895" lon="7.1371568"><ele>1167.0</ele><time>2026-04-21T15:30:44.915Z</time></trkpt><trkpt lat="44.9243867" lon="7.1370074"><ele>1167.0</ele><time>2026-04-21T15:30:45.914Z</time></trkpt><trkpt lat="44.9243857" lon="7.1368682"><ele>1166.6</ele><time>2026-04-21T15:30:46.916Z</time></trkpt><trkpt lat="44.9243758" lon="7.1367279"><ele>1166.2</ele><time>2026-04-21T15:30:47.914Z</time></trkpt><trkpt lat="44.924361" lon="7.1365969"><ele>1165.8</ele><time>2026-04-21T15:30:48.916Z</time></trkpt><trkpt lat="44.9243391" lon="7.1364743"><ele>1165.4</ele><time>2026-04-21T15:30:49.914Z</time></trkpt><trkpt lat="44.9243156" lon="7.1363574"><ele>1165.0</ele><time>2026-04-21T15:30:50.916Z</time></trkpt><trkpt lat="44.9242979" lon="7.1362125"><ele>1164.4</ele><time>2026-04-21T15:30:51.916Z</time></trkpt><trkpt lat="44.92429" lon="7.1360692"><ele>1163.8</ele><time>2026-04-21T15:30:52.916Z</time></trkpt><trkpt lat="44.9242866" lon="7.1359114"><ele>1163.2</ele><time>2026-04-21T15:30:53.915Z</time></trkpt><trkpt lat="44.9242845" lon="7.1357946"><ele>1162.6</ele><time>2026-04-21T15:30:54.915Z</time></trkpt><trkpt lat="44.9242917" lon="7.135655"><ele>1162.0</ele><time>2026-04-21T15:30:55.915Z</time></trkpt><trkpt lat="44.9243169" lon="7.1355459"><ele>1161.6</ele><time>2026-04-21T15:30:56.916Z</time></trkpt><trkpt lat="44.9243495" lon="7.13542"><ele>1161.2</ele><time>2026-04-21T15:30:57.915Z</time></trkpt><trkpt lat="44.9243766" lon="7.1353053"><ele>1160.8</ele><time>2026-04-21T15:30:58.915Z</time></trkpt><trkpt lat="44.9244134" lon="7.1351751"><ele>1160.4</ele><time>2026-04-21T15:30:59.915Z</time></trkpt><trkpt lat="44.9244606" lon="7.1350321"><ele>1160.0</ele><time>2026-04-21T15:31:00.915Z</time></trkpt><trkpt lat="44.9245097" lon="7.1348979"><ele>1161.6</ele><time>2026-04-21T15:31:01.916Z</time></trkpt><trkpt lat="44.9245515" lon="7.1347713"><ele>1163.2</ele><time>2026-04-21T15:31:02.916Z</time></trkpt><trkpt lat="44.9245958" lon="7.1346434"><ele>1164.8</ele><time>2026-04-21T15:31:03.915Z</time></trkpt><trkpt lat="44.9246265" lon="7.1345166"><ele>1166.4</ele><time>2026-04-21T15:31:04.915Z</time></trkpt><trkpt lat="44.9246664" lon="7.1344001"><ele>1168.0</ele><time>2026-04-21T15:31:05.916Z</time></trkpt><trkpt lat="44.9247126" lon="7.134275"><ele>1168.0</ele><time>2026-04-21T15:31:06.914Z</time></trkpt><trkpt lat="44.9247905" lon="7.13417"><ele>1168.0</ele><time>2026-04-21T15:31:07.916Z</time></trkpt><trkpt lat="44.9248586" lon="7.1340577"><ele>1168.0</ele><time>2026-04-21T15:31:08.914Z</time></trkpt><trkpt lat="44.9249115" lon="7.1339276"><ele>1168.0</ele><time>2026-04-21T15:31:09.916Z</time></trkpt><trkpt lat="44.9249665" lon="7.1338095"><ele>1168.0</ele><time>2026-04-21T15:31:10.915Z</time></trkpt><trkpt lat="44.9250193" lon="7.1336791"><ele>1163.6</ele><time>2026-04-21T15:31:11.915Z</time></trkpt><trkpt lat="44.9250675" lon="7.1335299"><ele>1159.1999999999998</ele><time>2026-04-21T15:31:12.915Z</time></trkpt><trkpt lat="44.9251196" lon="7.1333855"><ele>1154.8</ele><time>2026-04-21T15:31:13.916Z</time></trkpt><trkpt lat="44.9251735" lon="7.1332493"><ele>1150.3999999999999</ele><time>2026-04-21T15:31:14.915Z</time></trkpt><trkpt lat="44.9252197" lon="7.1331205"><ele>1146.0</ele><time>2026-04-21T15:31:15.915Z</time></trkpt><trkpt lat="44.9252444" lon="7.1329908"><ele>1146.0</ele><time>2026-04-21T15:31:16.916Z</time></trkpt><trkpt lat="44.9252796" lon="7.1328649"><ele>1146.0</ele><time>2026-04-21T15:31:17.915Z</time></trkpt><trkpt lat="44.9253107" lon="7.1327299"><ele>1146.0</ele><time>2026-04-21T15:31:18.915Z</time></trkpt><trkpt lat="44.9253552" lon="7.1325965"><ele>1146.0</ele><time>2026-04-21T15:31:19.915Z</time></trkpt><trkpt lat="44.9254206" lon="7.1324772"><ele>1146.0</ele><time>2026-04-21T15:31:20.915Z</time></trkpt><trkpt lat="44.9254891" lon="7.1323478"><ele>1150.5</ele><time>2026-04-21T15:31:21.914Z</time></trkpt><trkpt lat="44.9255864" lon="7.1322362"><ele>1155.0</ele><time>2026-04-21T15:31:22.916Z</time></trkpt><trkpt lat="44.9256589" lon="7.1321249"><ele>1159.5</ele><time>2026-04-21T15:31:23.915Z</time></trkpt><trkpt lat="44.9257321" lon="7.1320007"><ele>1164.0</ele><time>2026-04-21T15:31:24.915Z</time></trkpt><trkpt lat="44.925795" lon="7.1318826"><ele>1164.0</ele><time>2026-04-21T15:31:25.914Z</time></trkpt><trkpt lat="44.9258436" lon="7.1317708"><ele>1164.0</ele><time>2026-04-21T15:31:26.915Z</time></trkpt><trkpt lat="44.9258977" lon="7.1316597"><ele>1164.0</ele><time>2026-04-21T15:31:27.915Z</time></trkpt><trkpt lat="44.9259434" lon="7.1315501"><ele>1164.0</ele><time>2026-04-21T15:31:28.915Z</time></trkpt><trkpt lat="44.9259911" lon="7.1314479"><ele>1164.0</ele><time>2026-04-21T15:31:29.915Z</time></trkpt><trkpt lat="44.926035" lon="7.1313649"><ele>1164.0</ele><time>2026-04-21T15:31:30.916Z</time></trkpt><trkpt lat="44.9260994" lon="7.1312766"><ele>1158.6000000000001</ele><time>2026-04-21T15:31:31.915Z</time></trkpt><trkpt lat="44.9261693" lon="7.1312044"><ele>1153.2</ele><time>2026-04-21T15:31:32.914Z</time></trkpt><trkpt lat="44.9262546" lon="7.1311439"><ele>1147.8000000000002</ele><time>2026-04-21T15:31:33.914Z</time></trkpt><trkpt lat="44.9263204" lon="7.1310911"><ele>1142.4</ele><time>2026-04-21T15:31:34.916Z</time></trkpt><trkpt lat="44.9264109" lon="7.1309721"><ele>1137.0</ele><time>2026-04-21T15:31:36.914Z</time></trkpt><trkpt lat="44.9264294" lon="7.13087"><ele>1137.0</ele><time>2026-04-21T15:31:37.914Z</time></trkpt><trkpt lat="44.9264386" lon="7.1307713"><ele>1137.0</ele><time>2026-04-21T15:31:38.915Z</time></trkpt><trkpt lat="44.926435" lon="7.1306683"><ele>1137.0</ele><time>2026-04-21T15:31:39.914Z</time></trkpt><trkpt lat="44.9264014" lon="7.1305727"><ele>1137.0</ele><time>2026-04-21T15:31:40.915Z</time></trkpt><trkpt lat="44.9263405" lon="7.1304952"><ele>1137.0</ele><time>2026-04-21T15:31:41.915Z</time></trkpt><trkpt lat="44.926285" lon="7.130418"><ele>1137.0</ele><time>2026-04-21T15:31:42.915Z</time></trkpt><trkpt lat="44.9262708" lon="7.1303176"><ele>1136.6666666666667</ele><time>2026-04-21T15:31:43.916Z</time></trkpt><trkpt lat="44.9262844" lon="7.1302095"><ele>1136.3333333333333</ele><time>2026-04-21T15:31:44.915Z</time></trkpt><trkpt lat="44.9263395" lon="7.1301192"><ele>1136.0</ele><time>2026-04-21T15:31:45.915Z</time></trkpt><trkpt lat="44.9263997" lon="7.1300118"><ele>1135.6666666666665</ele><time>2026-04-21T15:31:46.915Z</time></trkpt><trkpt lat="44.9264518" lon="7.1299059"><ele>1135.3333333333333</ele><time>2026-04-21T15:31:47.914Z</time></trkpt><trkpt lat="44.9265076" lon="7.129801"><ele>1135.0</ele><time>2026-04-21T15:31:48.915Z</time></trkpt><trkpt lat="44.9265686" lon="7.1297054"><ele>1135.0</ele><time>2026-04-21T15:31:49.915Z</time></trkpt><trkpt lat="44.9266247" lon="7.1296161"><ele>1135.0</ele><time>2026-04-21T15:31:50.914Z</time></trkpt><trkpt lat="44.9266784" lon="7.1295337"><ele>1135.0</ele><time>2026-04-21T15:31:51.915Z</time></trkpt><trkpt lat="44.9267387" lon="7.1294534"><ele>1135.0</ele><time>2026-04-21T15:31:52.914Z</time></trkpt><trkpt lat="44.9268116" lon="7.1293638"><ele>1135.0</ele><time>2026-04-21T15:31:53.916Z</time></trkpt><trkpt lat="44.926889" lon="7.1292705"><ele>1135.0</ele><time>2026-04-21T15:31:54.915Z</time></trkpt><trkpt lat="44.926957" lon="7.1291723"><ele>1135.0</ele><time>2026-04-21T15:31:55.916Z</time></trkpt><trkpt lat="44.9270216" lon="7.1290794"><ele>1135.0</ele><time>2026-04-21T15:31:56.915Z</time></trkpt><trkpt lat="44.9270881" lon="7.1289956"><ele>1135.0</ele><time>2026-04-21T15:31:57.915Z</time></trkpt><trkpt lat="44.927165" lon="7.128942"><ele>1135.0</ele><time>2026-04-21T15:31:58.916Z</time></trkpt><trkpt lat="44.9272548" lon="7.1289124"><ele>1135.0</ele><time>2026-04-21T15:31:59.916Z</time></trkpt><trkpt lat="44.9273483" lon="7.1288699"><ele>1133.0</ele><time>2026-04-21T15:32:00.914Z</time></trkpt><trkpt lat="44.927449" lon="7.1288063"><ele>1131.0</ele><time>2026-04-21T15:32:01.914Z</time></trkpt><trkpt lat="44.9275551" lon="7.1287344"><ele>1129.0</ele><time>2026-04-21T15:32:02.915Z</time></trkpt><trkpt lat="44.9276628" lon="7.1286655"><ele>1127.0</ele><time>2026-04-21T15:32:03.915Z</time></trkpt><trkpt lat="44.9277667" lon="7.1286109"><ele>1125.3333333333335</ele><time>2026-04-21T15:32:04.916Z</time></trkpt><trkpt lat="44.9278644" lon="7.1285668"><ele>1123.6666666666667</ele><time>2026-04-21T15:32:05.914Z</time></trkpt><trkpt lat="44.9279569" lon="7.1285495"><ele>1122.0</ele><time>2026-04-21T15:32:06.914Z</time></trkpt><trkpt lat="44.9280422" lon="7.1285845"><ele>1120.3333333333333</ele><time>2026-04-21T15:32:07.914Z</time></trkpt><trkpt lat="44.9281011" lon="7.1286643"><ele>1118.6666666666665</ele><time>2026-04-21T15:32:08.914Z</time></trkpt><trkpt lat="44.9281403" lon="7.1287556"><ele>1117.0</ele><time>2026-04-21T15:32:09.915Z</time></trkpt><trkpt lat="44.9282392" lon="7.1287814"><ele>1117.0</ele><time>2026-04-21T15:32:11.915Z</time></trkpt><trkpt lat="44.9282292" lon="7.1286273"><ele>1117.0</ele><time>2026-04-21T15:32:13.915Z</time></trkpt><trkpt lat="44.9281696" lon="7.1285573"><ele>1117.0</ele><time>2026-04-21T15:32:14.916Z</time></trkpt><trkpt lat="44.9281008" lon="7.1284763"><ele>1117.0</ele><time>2026-04-21T15:32:15.914Z</time></trkpt><trkpt lat="44.9280192" lon="7.1284195"><ele>1117.0</ele><time>2026-04-21T15:32:16.914Z</time></trkpt><trkpt lat="44.9279099" lon="7.128401"><ele>1117.0</ele><time>2026-04-21T15:32:17.915Z</time></trkpt><trkpt lat="44.9277965" lon="7.1283899"><ele>1117.0</ele><time>2026-04-21T15:32:18.915Z</time></trkpt><trkpt lat="44.9276675" lon="7.1283863"><ele>1117.0</ele><time>2026-04-21T15:32:19.915Z</time></trkpt><trkpt lat="44.9275363" lon="7.1283835"><ele>1117.0</ele><time>2026-04-21T15:32:20.916Z</time></trkpt><trkpt lat="44.9274127" lon="7.1283657"><ele>1119.0</ele><time>2026-04-21T15:32:21.916Z</time></trkpt><trkpt lat="44.9272932" lon="7.1283243"><ele>1121.0</ele><time>2026-04-21T15:32:22.916Z</time></trkpt><trkpt lat="44.9271935" lon="7.1282839"><ele>1123.0</ele><time>2026-04-21T15:32:23.915Z</time></trkpt><trkpt lat="44.9270887" lon="7.1282791"><ele>1125.0</ele><time>2026-04-21T15:32:24.914Z</time></trkpt><trkpt lat="44.9269788" lon="7.1283243"><ele>1127.0</ele><time>2026-04-21T15:32:25.914Z</time></trkpt><trkpt lat="44.9268561" lon="7.1283667"><ele>1124.25</ele><time>2026-04-21T15:32:26.915Z</time></trkpt><trkpt lat="44.9267248" lon="7.128429"><ele>1121.5</ele><time>2026-04-21T15:32:27.914Z</time></trkpt><trkpt lat="44.9265955" lon="7.1285108"><ele>1118.75</ele><time>2026-04-21T15:32:28.915Z</time></trkpt><trkpt lat="44.9264559" lon="7.1285608"><ele>1116.0</ele><time>2026-04-21T15:32:29.914Z</time></trkpt><trkpt lat="44.926318" lon="7.128588"><ele>1116.0</ele><time>2026-04-21T15:32:30.916Z</time></trkpt><trkpt lat="44.9261857" lon="7.1285972"><ele>1116.0</ele><time>2026-04-21T15:32:31.915Z</time></trkpt><trkpt lat="44.9260758" lon="7.1285831"><ele>1116.0</ele><time>2026-04-21T15:32:32.915Z</time></trkpt><trkpt lat="44.9259722" lon="7.1285855"><ele>1116.0</ele><time>2026-04-21T15:32:33.916Z</time></trkpt><trkpt lat="44.9258805" lon="7.1286604"><ele>1113.6</ele><time>2026-04-21T15:32:34.914Z</time></trkpt><trkpt lat="44.925786" lon="7.1287471"><ele>1111.1999999999998</ele><time>2026-04-21T15:32:35.914Z</time></trkpt><trkpt lat="44.92571" lon="7.1288514"><ele>1108.8000000000002</ele><time>2026-04-21T15:32:36.916Z</time></trkpt><trkpt lat="44.9256297" lon="7.1289199"><ele>1106.4</ele><time>2026-04-21T15:32:37.914Z</time></trkpt><trkpt lat="44.9255423" lon="7.1289357"><ele>1104.0</ele><time>2026-04-21T15:32:38.916Z</time></trkpt><trkpt lat="44.9254549" lon="7.1288969"><ele>1104.0</ele><time>2026-04-21T15:32:39.915Z</time></trkpt><trkpt lat="44.9253641" lon="7.128821"><ele>1104.0</ele><time>2026-04-21T15:32:40.916Z</time></trkpt><trkpt lat="44.925263" lon="7.1287298"><ele>1104.0</ele><time>2026-04-21T15:32:41.915Z</time></trkpt><trkpt lat="44.9251496" lon="7.1286348"><ele>1104.0</ele><time>2026-04-21T15:32:42.915Z</time></trkpt><trkpt lat="44.9250341" lon="7.1285329"><ele>1103.25</ele><time>2026-04-21T15:32:43.916Z</time></trkpt><trkpt lat="44.9249224" lon="7.1284325"><ele>1102.5</ele><time>2026-04-21T15:32:44.916Z</time></trkpt><trkpt lat="44.9248093" lon="7.1283345"><ele>1101.75</ele><time>2026-04-21T15:32:45.915Z</time></trkpt><trkpt lat="44.9246882" lon="7.1282484"><ele>1101.0</ele><time>2026-04-21T15:32:46.915Z</time></trkpt><trkpt lat="44.9245845" lon="7.1281474"><ele>1097.75</ele><time>2026-04-21T15:32:47.916Z</time></trkpt><trkpt lat="44.9244837" lon="7.1280403"><ele>1094.5</ele><time>2026-04-21T15:32:48.914Z</time></trkpt><trkpt lat="44.9243962" lon="7.1279159"><ele>1091.25</ele><time>2026-04-21T15:32:49.916Z</time></trkpt><trkpt lat="44.9243111" lon="7.1277896"><ele>1088.0</ele><time>2026-04-21T15:32:50.914Z</time></trkpt><trkpt lat="44.9242069" lon="7.1276629"><ele>1088.0</ele><time>2026-04-21T15:32:51.916Z</time></trkpt><trkpt lat="44.9240941" lon="7.1275455"><ele>1088.0</ele><time>2026-04-21T15:32:52.916Z</time></trkpt><trkpt lat="44.923993" lon="7.1274415"><ele>1088.0</ele><time>2026-04-21T15:32:53.914Z</time></trkpt><trkpt lat="44.923892" lon="7.1273665"><ele>1088.0</ele><time>2026-04-21T15:32:54.915Z</time></trkpt><trkpt lat="44.9237812" lon="7.1273158"><ele>1081.75</ele><time>2026-04-21T15:32:55.916Z</time></trkpt><trkpt lat="44.9236554" lon="7.1272813"><ele>1075.5</ele><time>2026-04-21T15:32:56.916Z</time></trkpt><trkpt lat="44.9235285" lon="7.1272412"><ele>1069.25</ele><time>2026-04-21T15:32:57.915Z</time></trkpt><trkpt lat="44.9234036" lon="7.1272014"><ele>1063.0</ele><time>2026-04-21T15:32:58.916Z</time></trkpt><trkpt lat="44.9232856" lon="7.1271424"><ele>1063.0</ele><time>2026-04-21T15:32:59.915Z</time></trkpt><trkpt lat="44.9231773" lon="7.1270564"><ele>1063.0</ele><time>2026-04-21T15:33:00.916Z</time></trkpt><trkpt lat="44.9230823" lon="7.1269718"><ele>1063.0</ele><time>2026-04-21T15:33:01.915Z</time></trkpt><trkpt lat="44.9229861" lon="7.1269205"><ele>1063.0</ele><time>2026-04-21T15:33:02.915Z</time></trkpt><trkpt lat="44.9228671" lon="7.1269053"><ele>1063.0</ele><time>2026-04-21T15:33:03.916Z</time></trkpt><trkpt lat="44.9227473" lon="7.1268821"><ele>1063.0</ele><time>2026-04-21T15:33:04.915Z</time></trkpt><trkpt lat="44.9226369" lon="7.1268237"><ele>1063.0</ele><time>2026-04-21T15:33:05.915Z</time></trkpt><trkpt lat="44.9225241" lon="7.1267988"><ele>1063.0</ele><time>2026-04-21T15:33:06.914Z</time></trkpt><trkpt lat="44.9224053" lon="7.1268008"><ele>1062.75</ele><time>2026-04-21T15:33:07.916Z</time></trkpt><trkpt lat="44.922282" lon="7.1268251"><ele>1062.5</ele><time>2026-04-21T15:33:08.914Z</time></trkpt><trkpt lat="44.9221621" lon="7.126866"><ele>1062.25</ele><time>2026-04-21T15:33:09.916Z</time></trkpt><trkpt lat="44.9220584" lon="7.1269053"><ele>1062.0</ele><time>2026-04-21T15:33:10.915Z</time></trkpt><trkpt lat="44.9219657" lon="7.1269675"><ele>1062.0</ele><time>2026-04-21T15:33:11.914Z</time></trkpt><trkpt lat="44.9218964" lon="7.1270518"><ele>1062.0</ele><time>2026-04-21T15:33:12.914Z</time></trkpt><trkpt lat="44.9218458" lon="7.1271383"><ele>1062.0</ele><time>2026-04-21T15:33:13.914Z</time></trkpt><trkpt lat="44.9217878" lon="7.1271938"><ele>1062.0</ele><time>2026-04-21T15:33:14.916Z</time></trkpt><trkpt lat="44.9216748" lon="7.1271338"><ele>1062.0</ele><time>2026-04-21T15:33:16.915Z</time></trkpt><trkpt lat="44.9216286" lon="7.127057"><ele>1062.0</ele><time>2026-04-21T15:33:17.915Z</time></trkpt><trkpt lat="44.92157" lon="7.1269924"><ele>1060.4</ele><time>2026-04-21T15:33:18.914Z</time></trkpt><trkpt lat="44.9214921" lon="7.1269556"><ele>1058.8000000000002</ele><time>2026-04-21T15:33:19.915Z</time></trkpt><trkpt lat="44.9213994" lon="7.1269455"><ele>1057.2</ele><time>2026-04-21T15:33:20.915Z</time></trkpt><trkpt lat="44.9213109" lon="7.1269265"><ele>1055.6000000000001</ele><time>2026-04-21T15:33:21.914Z</time></trkpt><trkpt lat="44.9211978" lon="7.1269135"><ele>1054.0</ele><time>2026-04-21T15:33:22.915Z</time></trkpt><trkpt lat="44.9210686" lon="7.1269411"><ele>1054.0</ele><time>2026-04-21T15:33:23.915Z</time></trkpt><trkpt lat="44.9209693" lon="7.1269638"><ele>1054.0</ele><time>2026-04-21T15:33:24.915Z</time></trkpt><trkpt lat="44.9209028" lon="7.1270248"><ele>1054.0</ele><time>2026-04-21T15:33:25.915Z</time></trkpt><trkpt lat="44.9208624" lon="7.1271121"><ele>1054.0</ele><time>2026-04-21T15:33:26.915Z</time></trkpt><trkpt lat="44.920845" lon="7.1272092"><ele>1054.0</ele><time>2026-04-21T15:33:27.915Z</time></trkpt><trkpt lat="44.9207508" lon="7.1272599"><ele>1054.0</ele><time>2026-04-21T15:33:29.915Z</time></trkpt><trkpt lat="44.9207311" lon="7.1271075"><ele>1054.0</ele><time>2026-04-21T15:33:31.916Z</time></trkpt><trkpt lat="44.9207234" lon="7.1270109"><ele>1054.0</ele><time>2026-04-21T15:33:32.915Z</time></trkpt><trkpt lat="44.9207932" lon="7.1268813"><ele>1054.0</ele><time>2026-04-21T15:33:33.916Z</time></trkpt><trkpt lat="44.9208334" lon="7.1267616"><ele>1054.0</ele><time>2026-04-21T15:33:34.915Z</time></trkpt><trkpt lat="44.9208928" lon="7.1266573"><ele>1054.0</ele><time>2026-04-21T15:33:35.915Z</time></trkpt><trkpt lat="44.9209709" lon="7.1265761"><ele>1045.8</ele><time>2026-04-21T15:33:36.914Z</time></trkpt><trkpt lat="44.9210661" lon="7.1265271"><ele>1037.6000000000001</ele><time>2026-04-21T15:33:37.915Z</time></trkpt><trkpt lat="44.9211761" lon="7.1264969"><ele>1029.4</ele><time>2026-04-21T15:33:38.915Z</time></trkpt><trkpt lat="44.9212877" lon="7.1264676"><ele>1021.2</ele><time>2026-04-21T15:33:39.915Z</time></trkpt><trkpt lat="44.9213994" lon="7.1264284"><ele>1013.0</ele><time>2026-04-21T15:33:40.916Z</time></trkpt><trkpt lat="44.9215116" lon="7.1263749"><ele>1013.0</ele><time>2026-04-21T15:33:41.914Z</time></trkpt><trkpt lat="44.9216244" lon="7.1262939"><ele>1013.0</ele><time>2026-04-21T15:33:42.915Z</time></trkpt><trkpt lat="44.9217337" lon="7.126215"><ele>1013.0</ele><time>2026-04-21T15:33:43.914Z</time></trkpt><trkpt lat="44.9218476" lon="7.1261596"><ele>1013.0</ele><time>2026-04-21T15:33:44.915Z</time></trkpt><trkpt lat="44.9219697" lon="7.1261459"><ele>1014.0</ele><time>2026-04-21T15:33:45.915Z</time></trkpt><trkpt lat="44.9220952" lon="7.1261401"><ele>1015.0</ele><time>2026-04-21T15:33:46.915Z</time></trkpt><trkpt lat="44.9222136" lon="7.1260868"><ele>1016.0</ele><time>2026-04-21T15:33:47.915Z</time></trkpt><trkpt lat="44.9223277" lon="7.1260259"><ele>1017.0</ele><time>2026-04-21T15:33:48.916Z</time></trkpt><trkpt lat="44.9224305" lon="7.1259907"><ele>1017.0</ele><time>2026-04-21T15:33:49.915Z</time></trkpt><trkpt lat="44.9225271" lon="7.125997"><ele>1017.0</ele><time>2026-04-21T15:33:50.915Z</time></trkpt><trkpt lat="44.9226166" lon="7.1260218"><ele>1017.0</ele><time>2026-04-21T15:33:51.915Z</time></trkpt><trkpt lat="44.922708" lon="7.1260162"><ele>1017.0</ele><time>2026-04-21T15:33:52.915Z</time></trkpt><trkpt lat="44.9228093" lon="7.1259751"><ele>1017.0</ele><time>2026-04-21T15:33:53.916Z</time></trkpt><trkpt lat="44.9229159" lon="7.1259115"><ele>1019.25</ele><time>2026-04-21T15:33:54.915Z</time></trkpt><trkpt lat="44.9230227" lon="7.1258208"><ele>1021.5</ele><time>2026-04-21T15:33:55.916Z</time></trkpt><trkpt lat="44.9231246" lon="7.1257327"><ele>1023.75</ele><time>2026-04-21T15:33:56.915Z</time></trkpt><trkpt lat="44.9232288" lon="7.1256712"><ele>1026.0</ele><time>2026-04-21T15:33:57.915Z</time></trkpt><trkpt lat="44.9233261" lon="7.1256483"><ele>1021.8</ele><time>2026-04-21T15:33:58.916Z</time></trkpt><trkpt lat="44.9234095" lon="7.1256179"><ele>1017.5999999999999</ele><time>2026-04-21T15:33:59.914Z</time></trkpt><trkpt lat="44.923499" lon="7.1255726"><ele>1013.4</ele><time>2026-04-21T15:34:00.915Z</time></trkpt><trkpt lat="44.92358" lon="7.1254449"><ele>1009.2</ele><time>2026-04-21T15:34:01.915Z</time></trkpt><trkpt lat="44.9236713" lon="7.1253174"><ele>1005.0</ele><time>2026-04-21T15:34:02.916Z</time></trkpt><trkpt lat="44.9237792" lon="7.1251893"><ele>1005.0</ele><time>2026-04-21T15:34:03.915Z</time></trkpt><trkpt lat="44.9238862" lon="7.1250801"><ele>1005.0</ele><time>2026-04-21T15:34:04.915Z</time></trkpt><trkpt lat="44.9239804" lon="7.124996"><ele>1005.0</ele><time>2026-04-21T15:34:05.915Z</time></trkpt><trkpt lat="44.9240617" lon="7.1249335"><ele>1005.0</ele><time>2026-04-21T15:34:06.915Z</time></trkpt><trkpt lat="44.9241531" lon="7.124887"><ele>1005.0</ele><time>2026-04-21T15:34:07.915Z</time></trkpt><trkpt lat="44.9242525" lon="7.1248694"><ele>1001.2</ele><time>2026-04-21T15:34:08.915Z</time></trkpt><trkpt lat="44.9243543" lon="7.1248423"><ele>997.4</ele><time>2026-04-21T15:34:09.916Z</time></trkpt><trkpt lat="44.9244493" lon="7.1247563"><ele>993.5999999999999</ele><time>2026-04-21T15:34:10.915Z</time></trkpt><trkpt lat="44.9245355" lon="7.1246653"><ele>989.8</ele><time>2026-04-21T15:34:11.916Z</time></trkpt><trkpt lat="44.924616" lon="7.1245994"><ele>986.0</ele><time>2026-04-21T15:34:12.915Z</time></trkpt><trkpt lat="44.9247155" lon="7.1245536"><ele>986.0</ele><time>2026-04-21T15:34:13.915Z</time></trkpt><trkpt lat="44.9248201" lon="7.1245289"><ele>986.0</ele><time>2026-04-21T15:34:14.915Z</time></trkpt><trkpt lat="44.9249297" lon="7.1244691"><ele>986.0</ele><time>2026-04-21T15:34:15.915Z</time></trkpt><trkpt lat="44.9250461" lon="7.1244091"><ele>986.0</ele><time>2026-04-21T15:34:16.915Z</time></trkpt><trkpt lat="44.9251717" lon="7.1243824"><ele>986.75</ele><time>2026-04-21T15:34:17.916Z</time></trkpt><trkpt lat="44.9252961" lon="7.1243495"><ele>987.5</ele><time>2026-04-21T15:34:18.914Z</time></trkpt><trkpt lat="44.9254139" lon="7.1243142"><ele>988.25</ele><time>2026-04-21T15:34:19.916Z</time></trkpt><trkpt lat="44.925519" lon="7.1242836"><ele>989.0</ele><time>2026-04-21T15:34:20.915Z</time></trkpt><trkpt lat="44.9256361" lon="7.1242974"><ele>989.0</ele><time>2026-04-21T15:34:21.914Z</time></trkpt><trkpt lat="44.9257531" lon="7.1243229"><ele>989.0</ele><time>2026-04-21T15:34:22.913Z</time></trkpt><trkpt lat="44.9258755" lon="7.1243403"><ele>989.0</ele><time>2026-04-21T15:34:23.914Z</time></trkpt><trkpt lat="44.9259996" lon="7.1243428"><ele>989.0</ele><time>2026-04-21T15:34:24.913Z</time></trkpt><trkpt lat="44.9261238" lon="7.1243206"><ele>988.5</ele><time>2026-04-21T15:34:25.914Z</time></trkpt><trkpt lat="44.9262453" lon="7.1242841"><ele>988.0</ele><time>2026-04-21T15:34:26.913Z</time></trkpt><trkpt lat="44.9263642" lon="7.1242376"><ele>987.5</ele><time>2026-04-21T15:34:27.915Z</time></trkpt><trkpt lat="44.9264863" lon="7.1241714"><ele>987.0</ele><time>2026-04-21T15:34:28.914Z</time></trkpt><trkpt lat="44.9265979" lon="7.1240918"><ele>979.75</ele><time>2026-04-21T15:34:29.914Z</time></trkpt><trkpt lat="44.9267088" lon="7.1240353"><ele>972.5</ele><time>2026-04-21T15:34:30.914Z</time></trkpt><trkpt lat="44.9268181" lon="7.1239944"><ele>965.25</ele><time>2026-04-21T15:34:31.913Z</time></trkpt><trkpt lat="44.9269182" lon="7.1239376"><ele>958.0</ele><time>2026-04-21T15:34:32.915Z</time></trkpt><trkpt lat="44.9270205" lon="7.1238536"><ele>958.0</ele><time>2026-04-21T15:34:33.914Z</time></trkpt><trkpt lat="44.9271049" lon="7.1237481"><ele>958.0</ele><time>2026-04-21T15:34:34.915Z</time></trkpt><trkpt lat="44.9271842" lon="7.1236516"><ele>958.0</ele><time>2026-04-21T15:34:35.914Z</time></trkpt><trkpt lat="44.9272863" lon="7.123625"><ele>958.0</ele><time>2026-04-21T15:34:36.915Z</time></trkpt><trkpt lat="44.9273912" lon="7.1236009"><ele>958.0</ele><time>2026-04-21T15:34:37.914Z</time></trkpt><trkpt lat="44.9275065" lon="7.1235779"><ele>957.25</ele><time>2026-04-21T15:34:38.914Z</time></trkpt><trkpt lat="44.9276348" lon="7.1235492"><ele>956.5</ele><time>2026-04-21T15:34:39.914Z</time></trkpt><trkpt lat="44.9277668" lon="7.1235268"><ele>955.75</ele><time>2026-04-21T15:34:40.915Z</time></trkpt><trkpt lat="44.9279033" lon="7.1235129"><ele>955.0</ele><time>2026-04-21T15:34:41.913Z</time></trkpt><trkpt lat="44.9280445" lon="7.123502"><ele>955.0</ele><time>2026-04-21T15:34:42.914Z</time></trkpt><trkpt lat="44.9281802" lon="7.1234936"><ele>955.0</ele><time>2026-04-21T15:34:43.914Z</time></trkpt><trkpt lat="44.9283134" lon="7.1234774"><ele>955.0</ele><time>2026-04-21T15:34:44.913Z</time></trkpt><trkpt lat="44.9284393" lon="7.1234447"><ele>955.0</ele><time>2026-04-21T15:34:45.914Z</time></trkpt><trkpt lat="44.9285553" lon="7.123407"><ele>950.2</ele><time>2026-04-21T15:34:46.915Z</time></trkpt><trkpt lat="44.9286657" lon="7.1233857"><ele>945.4</ele><time>2026-04-21T15:34:47.914Z</time></trkpt><trkpt lat="44.9287628" lon="7.1233775"><ele>940.5999999999999</ele><time>2026-04-21T15:34:48.915Z</time></trkpt><trkpt lat="44.9288482" lon="7.1233987"><ele>935.8</ele><time>2026-04-21T15:34:49.915Z</time></trkpt><trkpt lat="44.9289238" lon="7.1234509"><ele>931.0</ele><time>2026-04-21T15:34:50.915Z</time></trkpt><trkpt lat="44.9289937" lon="7.1235547"><ele>930.9999999999999</ele><time>2026-04-21T15:34:51.914Z</time></trkpt><trkpt lat="44.9290522" lon="7.123665"><ele>931.0</ele><time>2026-04-21T15:34:52.914Z</time></trkpt><trkpt lat="44.9291178" lon="7.1237427"><ele>931.0</ele><time>2026-04-21T15:34:53.915Z</time></trkpt><trkpt lat="44.9292049" lon="7.1237764"><ele>931.0</ele><time>2026-04-21T15:34:54.914Z</time></trkpt><trkpt lat="44.9292944" lon="7.1237874"><ele>930.9999999999999</ele><time>2026-04-21T15:34:55.914Z</time></trkpt><trkpt lat="44.9293699" lon="7.1238412"><ele>931.0</ele><time>2026-04-21T15:34:56.914Z</time></trkpt><trkpt lat="44.9294136" lon="7.1239092"><ele>931.4</ele><time>2026-04-21T15:34:57.914Z</time></trkpt><trkpt lat="44.9294808" lon="7.123982"><ele>931.8</ele><time>2026-04-21T15:34:59.915Z</time></trkpt><trkpt lat="44.9295788" lon="7.1239844"><ele>932.1999999999999</ele><time>2026-04-21T15:35:01.914Z</time></trkpt><trkpt lat="44.9296925" lon="7.1240509"><ele>932.5999999999999</ele><time>2026-04-21T15:35:03.914Z</time></trkpt><trkpt lat="44.929744" lon="7.1241397"><ele>933.0</ele><time>2026-04-21T15:35:04.914Z</time></trkpt><trkpt lat="44.9298005" lon="7.1242162"><ele>933.0</ele><time>2026-04-21T15:35:05.915Z</time></trkpt><trkpt lat="44.92989" lon="7.1242746"><ele>933.0</ele><time>2026-04-21T15:35:06.914Z</time></trkpt><trkpt lat="44.9299824" lon="7.1243049"><ele>933.0</ele><time>2026-04-21T15:35:07.914Z</time></trkpt><trkpt lat="44.9300804" lon="7.1243424"><ele>933.0</ele><time>2026-04-21T15:35:08.914Z</time></trkpt><trkpt lat="44.930183" lon="7.1243933"><ele>933.0</ele><time>2026-04-21T15:35:09.915Z</time></trkpt><trkpt lat="44.9302913" lon="7.1244082"><ele>928.5</ele><time>2026-04-21T15:35:10.913Z</time></trkpt><trkpt lat="44.930402" lon="7.1244482"><ele>924.0</ele><time>2026-04-21T15:35:11.913Z</time></trkpt><trkpt lat="44.9305107" lon="7.1245021"><ele>919.5</ele><time>2026-04-21T15:35:12.913Z</time></trkpt><trkpt lat="44.9306293" lon="7.1245269"><ele>915.0</ele><time>2026-04-21T15:35:13.914Z</time></trkpt><trkpt lat="44.9307479" lon="7.1245291"><ele>915.0</ele><time>2026-04-21T15:35:14.914Z</time></trkpt><trkpt lat="44.930871" lon="7.124533"><ele>915.0</ele><time>2026-04-21T15:35:15.915Z</time></trkpt><trkpt lat="44.9309877" lon="7.1245558"><ele>915.0</ele><time>2026-04-21T15:35:16.913Z</time></trkpt><trkpt lat="44.931091" lon="7.1245822"><ele>915.0</ele><time>2026-04-21T15:35:17.914Z</time></trkpt><trkpt lat="44.9311993" lon="7.1245804"><ele>911.0</ele><time>2026-04-21T15:35:18.913Z</time></trkpt><trkpt lat="44.9313009" lon="7.1245473"><ele>907.0</ele><time>2026-04-21T15:35:19.914Z</time></trkpt><trkpt lat="44.9314046" lon="7.1245194"><ele>903.0</ele><time>2026-04-21T15:35:20.915Z</time></trkpt><trkpt lat="44.9315065" lon="7.1245287"><ele>899.0</ele><time>2026-04-21T15:35:21.913Z</time></trkpt><trkpt lat="44.9316093" lon="7.1245361"><ele>895.0</ele><time>2026-04-21T15:35:22.913Z</time></trkpt><trkpt lat="44.9317106" lon="7.1245658"><ele>893.6</ele><time>2026-04-21T15:35:23.914Z</time></trkpt><trkpt lat="44.9318154" lon="7.1245992"><ele>892.2</ele><time>2026-04-21T15:35:24.914Z</time></trkpt><trkpt lat="44.9319211" lon="7.1246455"><ele>890.8</ele><time>2026-04-21T15:35:25.913Z</time></trkpt><trkpt lat="44.9320282" lon="7.1246823"><ele>889.4</ele><time>2026-04-21T15:35:26.914Z</time></trkpt><trkpt lat="44.9321379" lon="7.1246974"><ele>888.0</ele><time>2026-04-21T15:35:27.914Z</time></trkpt><trkpt lat="44.9322486" lon="7.1247011"><ele>888.0</ele><time>2026-04-21T15:35:28.914Z</time></trkpt><trkpt lat="44.9323639" lon="7.1247069"><ele>888.0</ele><time>2026-04-21T15:35:29.913Z</time></trkpt><trkpt lat="44.9324796" lon="7.1247277"><ele>888.0</ele><time>2026-04-21T15:35:30.914Z</time></trkpt><trkpt lat="44.9325899" lon="7.1247464"><ele>888.0</ele><time>2026-04-21T15:35:31.915Z</time></trkpt><trkpt lat="44.9326803" lon="7.1247673"><ele>888.0</ele><time>2026-04-21T15:35:32.913Z</time></trkpt><trkpt lat="44.9327632" lon="7.1247691"><ele>888.1666666666666</ele><time>2026-04-21T15:35:33.915Z</time></trkpt><trkpt lat="44.9328343" lon="7.1247701"><ele>888.3333333333333</ele><time>2026-04-21T15:35:34.913Z</time></trkpt><trkpt lat="44.9328961" lon="7.1247973"><ele>888.5</ele><time>2026-04-21T15:35:35.914Z</time></trkpt><trkpt lat="44.9328984" lon="7.1249374"><ele>888.6666666666666</ele><time>2026-04-21T15:35:37.913Z</time></trkpt><trkpt lat="44.9328577" lon="7.125008"><ele>888.8333333333333</ele><time>2026-04-21T15:35:38.915Z</time></trkpt><trkpt lat="44.9327823" lon="7.1250585"><ele>889.0</ele><time>2026-04-21T15:35:39.915Z</time></trkpt><trkpt lat="44.9327117" lon="7.1251219"><ele>888.9999999999999</ele><time>2026-04-21T15:35:40.914Z</time></trkpt><trkpt lat="44.9326488" lon="7.1251955"><ele>889.0</ele><time>2026-04-21T15:35:41.914Z</time></trkpt><trkpt lat="44.9325983" lon="7.1252857"><ele>889.0</ele><time>2026-04-21T15:35:42.915Z</time></trkpt><trkpt lat="44.9326207" lon="7.1253932"><ele>889.0</ele><time>2026-04-21T15:35:43.914Z</time></trkpt><trkpt lat="44.932646" lon="7.1254831"><ele>888.9999999999999</ele><time>2026-04-21T15:35:44.913Z</time></trkpt><trkpt lat="44.9327081" lon="7.1255539"><ele>889.0</ele><time>2026-04-21T15:35:45.913Z</time></trkpt><trkpt lat="44.9327768" lon="7.1256128"><ele>889.0</ele><time>2026-04-21T15:35:46.915Z</time></trkpt><trkpt lat="44.9328694" lon="7.125628"><ele>889.0000000000001</ele><time>2026-04-21T15:35:47.914Z</time></trkpt><trkpt lat="44.9329668" lon="7.1256014"><ele>889.0000000000001</ele><time>2026-04-21T15:35:48.914Z</time></trkpt><trkpt lat="44.9330734" lon="7.1255676"><ele>889.0</ele><time>2026-04-21T15:35:49.914Z</time></trkpt><trkpt lat="44.9331966" lon="7.1255257"><ele>889.0</ele><time>2026-04-21T15:35:50.915Z</time></trkpt><trkpt lat="44.9333284" lon="7.1254788"><ele>886.0</ele><time>2026-04-21T15:35:51.914Z</time></trkpt><trkpt lat="44.9334631" lon="7.1254107"><ele>883.0</ele><time>2026-04-21T15:35:52.914Z</time></trkpt><trkpt lat="44.9335935" lon="7.125334"><ele>880.0</ele><time>2026-04-21T15:35:53.915Z</time></trkpt><trkpt lat="44.9337278" lon="7.1252701"><ele>877.0</ele><time>2026-04-21T15:35:54.914Z</time></trkpt><trkpt lat="44.9338655" lon="7.1252354"><ele>877.0</ele><time>2026-04-21T15:35:55.914Z</time></trkpt><trkpt lat="44.9340045" lon="7.1252199"><ele>877.0</ele><time>2026-04-21T15:35:56.913Z</time></trkpt><trkpt lat="44.9341433" lon="7.1252056"><ele>877.0</ele><time>2026-04-21T15:35:57.914Z</time></trkpt><trkpt lat="44.9342674" lon="7.1251945"><ele>877.0</ele><time>2026-04-21T15:35:58.915Z</time></trkpt><trkpt lat="44.9343854" lon="7.1251808"><ele>874.5</ele><time>2026-04-21T15:35:59.913Z</time></trkpt><trkpt lat="44.9345009" lon="7.1251947"><ele>872.0</ele><time>2026-04-21T15:36:00.915Z</time></trkpt><trkpt lat="44.9346202" lon="7.1252446"><ele>869.5</ele><time>2026-04-21T15:36:01.913Z</time></trkpt><trkpt lat="44.9347439" lon="7.1252963"><ele>867.0</ele><time>2026-04-21T15:36:02.913Z</time></trkpt><trkpt lat="44.9348741" lon="7.1253285"><ele>867.0</ele><time>2026-04-21T15:36:03.914Z</time></trkpt><trkpt lat="44.934997" lon="7.1253521"><ele>867.0</ele><time>2026-04-21T15:36:04.913Z</time></trkpt><trkpt lat="44.935118" lon="7.1253879"><ele>867.0</ele><time>2026-04-21T15:36:05.915Z</time></trkpt><trkpt lat="44.935237" lon="7.1254342"><ele>867.0</ele><time>2026-04-21T15:36:06.915Z</time></trkpt><trkpt lat="44.9353445" lon="7.1254794"><ele>865.6</ele><time>2026-04-21T15:36:07.914Z</time></trkpt><trkpt lat="44.935452" lon="7.1255266"><ele>864.2</ele><time>2026-04-21T15:36:08.915Z</time></trkpt><trkpt lat="44.9355551" lon="7.1255749"><ele>862.8</ele><time>2026-04-21T15:36:09.913Z</time></trkpt><trkpt lat="44.9356513" lon="7.1256067"><ele>861.4</ele><time>2026-04-21T15:36:10.914Z</time></trkpt><trkpt lat="44.9357484" lon="7.1256033"><ele>860.0</ele><time>2026-04-21T15:36:11.915Z</time></trkpt><trkpt lat="44.9358563" lon="7.1255753"><ele>856.2</ele><time>2026-04-21T15:36:12.913Z</time></trkpt><trkpt lat="44.9359699" lon="7.1255586"><ele>852.4</ele><time>2026-04-21T15:36:13.914Z</time></trkpt><trkpt lat="44.9360799" lon="7.1255546"><ele>848.5999999999999</ele><time>2026-04-21T15:36:14.915Z</time></trkpt><trkpt lat="44.9361859" lon="7.1255484"><ele>844.8</ele><time>2026-04-21T15:36:15.914Z</time></trkpt><trkpt lat="44.9362807" lon="7.1255259"><ele>841.0</ele><time>2026-04-21T15:36:16.913Z</time></trkpt><trkpt lat="44.9363664" lon="7.1254972"><ele>840.9999999999999</ele><time>2026-04-21T15:36:17.915Z</time></trkpt><trkpt lat="44.9364385" lon="7.125444"><ele>841.0</ele><time>2026-04-21T15:36:18.914Z</time></trkpt><trkpt lat="44.9364905" lon="7.1253588"><ele>841.0</ele><time>2026-04-21T15:36:19.914Z</time></trkpt><trkpt lat="44.9365304" lon="7.1252565"><ele>841.0</ele><time>2026-04-21T15:36:20.914Z</time></trkpt><trkpt lat="44.9365427" lon="7.1251299"><ele>840.9999999999999</ele><time>2026-04-21T15:36:21.914Z</time></trkpt><trkpt lat="44.9365331" lon="7.1250014"><ele>841.0</ele><time>2026-04-21T15:36:22.914Z</time></trkpt><trkpt lat="44.936504" lon="7.1248773"><ele>835.8</ele><time>2026-04-21T15:36:23.915Z</time></trkpt><trkpt lat="44.9364559" lon="7.1247624"><ele>830.5999999999999</ele><time>2026-04-21T15:36:24.915Z</time></trkpt><trkpt lat="44.9364036" lon="7.1246635"><ele>825.4</ele><time>2026-04-21T15:36:25.914Z</time></trkpt><trkpt lat="44.9363427" lon="7.1245868"><ele>820.2</ele><time>2026-04-21T15:36:26.913Z</time></trkpt><trkpt lat="44.9362594" lon="7.1245409"><ele>815.0</ele><time>2026-04-21T15:36:27.914Z</time></trkpt><trkpt lat="44.9361682" lon="7.1244912"><ele>815.0</ele><time>2026-04-21T15:36:28.914Z</time></trkpt><trkpt lat="44.9360738" lon="7.1244391"><ele>815.0</ele><time>2026-04-21T15:36:29.915Z</time></trkpt><trkpt lat="44.9359867" lon="7.1243849"><ele>815.0</ele><time>2026-04-21T15:36:30.915Z</time></trkpt><trkpt lat="44.9358954" lon="7.1243408"><ele>815.0</ele><time>2026-04-21T15:36:31.914Z</time></trkpt><trkpt lat="44.9357971" lon="7.1243284"><ele>815.0</ele><time>2026-04-21T15:36:32.913Z</time></trkpt><trkpt lat="44.9356889" lon="7.1243329"><ele>818.75</ele><time>2026-04-21T15:36:33.913Z</time></trkpt><trkpt lat="44.9355683" lon="7.1243488"><ele>822.5</ele><time>2026-04-21T15:36:34.914Z</time></trkpt><trkpt lat="44.9354366" lon="7.1243621"><ele>826.25</ele><time>2026-04-21T15:36:35.913Z</time></trkpt><trkpt lat="44.9353122" lon="7.1243707"><ele>830.0</ele><time>2026-04-21T15:36:36.915Z</time></trkpt><trkpt lat="44.9351852" lon="7.1243769"><ele>830.0</ele><time>2026-04-21T15:36:37.915Z</time></trkpt><trkpt lat="44.9350645" lon="7.1243623"><ele>830.0</ele><time>2026-04-21T15:36:38.913Z</time></trkpt><trkpt lat="44.9349518" lon="7.1243126"><ele>830.0</ele><time>2026-04-21T15:36:39.913Z</time></trkpt><trkpt lat="44.9348397" lon="7.1242443"><ele>830.0</ele><time>2026-04-21T15:36:40.913Z</time></trkpt><trkpt lat="44.9347322" lon="7.1241757"><ele>832.0</ele><time>2026-04-21T15:36:41.915Z</time></trkpt><trkpt lat="44.934626" lon="7.1240925"><ele>834.0</ele><time>2026-04-21T15:36:42.914Z</time></trkpt><trkpt lat="44.9345247" lon="7.1240011"><ele>836.0</ele><time>2026-04-21T15:36:43.914Z</time></trkpt><trkpt lat="44.9344305" lon="7.1238957"><ele>838.0</ele><time>2026-04-21T15:36:44.914Z</time></trkpt><trkpt lat="44.934352" lon="7.1237753"><ele>833.9999999999999</ele><time>2026-04-21T15:36:45.915Z</time></trkpt><trkpt lat="44.9342851" lon="7.1236685"><ele>830.0</ele><time>2026-04-21T15:36:46.915Z</time></trkpt><trkpt lat="44.9342466" lon="7.1235694"><ele>826.0</ele><time>2026-04-21T15:36:47.915Z</time></trkpt><trkpt lat="44.9342475" lon="7.123469"><ele>822.0</ele><time>2026-04-21T15:36:48.915Z</time></trkpt><trkpt lat="44.9342923" lon="7.1233855"><ele>817.9999999999999</ele><time>2026-04-21T15:36:49.914Z</time></trkpt><trkpt lat="44.9343594" lon="7.1233462"><ele>814.0</ele><time>2026-04-21T15:36:50.915Z</time></trkpt><trkpt lat="44.9344319" lon="7.1233586"><ele>814.0</ele><time>2026-04-21T15:36:51.913Z</time></trkpt><trkpt lat="44.9345095" lon="7.1234255"><ele>814.0</ele><time>2026-04-21T15:36:52.914Z</time></trkpt><trkpt lat="44.9345837" lon="7.1235193"><ele>814.0</ele><time>2026-04-21T15:36:53.914Z</time></trkpt><trkpt lat="44.9346659" lon="7.123616"><ele>814.0</ele><time>2026-04-21T15:36:54.914Z</time></trkpt><trkpt lat="44.9347654" lon="7.1237078"><ele>814.0</ele><time>2026-04-21T15:36:55.914Z</time></trkpt><trkpt lat="44.9348851" lon="7.1237752"><ele>814.0</ele><time>2026-04-21T15:36:56.914Z</time></trkpt><trkpt lat="44.9350159" lon="7.1238205"><ele>814.0</ele><time>2026-04-21T15:36:57.915Z</time></trkpt><trkpt lat="44.9351349" lon="7.1238739"><ele>814.0</ele><time>2026-04-21T15:36:58.915Z</time></trkpt><trkpt lat="44.9352508" lon="7.1239071"><ele>814.0</ele><time>2026-04-21T15:36:59.915Z</time></trkpt><trkpt lat="44.9353634" lon="7.1238933"><ele>812.75</ele><time>2026-04-21T15:37:00.914Z</time></trkpt><trkpt lat="44.9354713" lon="7.1238457"><ele>811.5</ele><time>2026-04-21T15:37:01.914Z</time></trkpt><trkpt lat="44.9355853" lon="7.1237811"><ele>810.25</ele><time>2026-04-21T15:37:02.914Z</time></trkpt><trkpt lat="44.9357042" lon="7.1237432"><ele>809.0</ele><time>2026-04-21T15:37:03.914Z</time></trkpt><trkpt lat="44.9358264" lon="7.1237283"><ele>805.5</ele><time>2026-04-21T15:37:04.915Z</time></trkpt><trkpt lat="44.9359566" lon="7.1237217"><ele>802.0</ele><time>2026-04-21T15:37:05.915Z</time></trkpt><trkpt lat="44.9360965" lon="7.1237266"><ele>798.5</ele><time>2026-04-21T15:37:06.914Z</time></trkpt><trkpt lat="44.9362449" lon="7.1237228"><ele>795.0</ele><time>2026-04-21T15:37:07.914Z</time></trkpt><trkpt lat="44.9364031" lon="7.1236963"><ele>795.0</ele><time>2026-04-21T15:37:08.914Z</time></trkpt><trkpt lat="44.9365642" lon="7.1236505"><ele>795.0</ele><time>2026-04-21T15:37:09.914Z</time></trkpt><trkpt lat="44.9367184" lon="7.1235971"><ele>795.0</ele><time>2026-04-21T15:37:10.914Z</time></trkpt><trkpt lat="44.936863" lon="7.1235481"><ele>790.75</ele><time>2026-04-21T15:37:11.915Z</time></trkpt><trkpt lat="44.9369917" lon="7.1235003"><ele>786.5</ele><time>2026-04-21T15:37:12.914Z</time></trkpt><trkpt lat="44.9371036" lon="7.123464"><ele>782.25</ele><time>2026-04-21T15:37:13.915Z</time></trkpt><trkpt lat="44.9372039" lon="7.1234592"><ele>778.0</ele><time>2026-04-21T15:37:14.914Z</time></trkpt><trkpt lat="44.937303" lon="7.1235365"><ele>778.0</ele><time>2026-04-21T15:37:15.914Z</time></trkpt><trkpt lat="44.9373875" lon="7.1236637"><ele>778.0</ele><time>2026-04-21T15:37:16.915Z</time></trkpt><trkpt lat="44.9374684" lon="7.1238102"><ele>778.0</ele><time>2026-04-21T15:37:17.915Z</time></trkpt><trkpt lat="44.9375508" lon="7.1239671"><ele>778.0</ele><time>2026-04-21T15:37:18.915Z</time></trkpt><trkpt lat="44.9376323" lon="7.1241296"><ele>776.5</ele><time>2026-04-21T15:37:19.914Z</time></trkpt><trkpt lat="44.9377085" lon="7.1242822"><ele>775.0</ele><time>2026-04-21T15:37:20.914Z</time></trkpt><trkpt lat="44.9377742" lon="7.1244323"><ele>773.5</ele><time>2026-04-21T15:37:21.914Z</time></trkpt><trkpt lat="44.9378217" lon="7.1246071"><ele>772.0</ele><time>2026-04-21T15:37:22.915Z</time></trkpt><trkpt lat="44.9378265" lon="7.1247955"><ele>772.0</ele><time>2026-04-21T15:37:23.913Z</time></trkpt><trkpt lat="44.9378007" lon="7.1249848"><ele>772.0</ele><time>2026-04-21T15:37:24.915Z</time></trkpt><trkpt lat="44.9377701" lon="7.1251774"><ele>772.0</ele><time>2026-04-21T15:37:25.915Z</time></trkpt><trkpt lat="44.9377367" lon="7.1253753"><ele>772.0</ele><time>2026-04-21T15:37:26.915Z</time></trkpt><trkpt lat="44.9377043" lon="7.1255715"><ele>772.2</ele><time>2026-04-21T15:37:27.914Z</time></trkpt><trkpt lat="44.9376756" lon="7.1257505"><ele>772.4000000000001</ele><time>2026-04-21T15:37:28.913Z</time></trkpt><trkpt lat="44.9376658" lon="7.1259168"><ele>772.5999999999999</ele><time>2026-04-21T15:37:29.913Z</time></trkpt><trkpt lat="44.9376826" lon="7.1260601"><ele>772.8</ele><time>2026-04-21T15:37:30.914Z</time></trkpt><trkpt lat="44.937724" lon="7.1261799"><ele>773.0</ele><time>2026-04-21T15:37:31.913Z</time></trkpt><trkpt lat="44.937772" lon="7.1262831"><ele>773.0</ele><time>2026-04-21T15:37:32.914Z</time></trkpt><trkpt lat="44.9378128" lon="7.1263728"><ele>773.0</ele><time>2026-04-21T15:37:33.914Z</time></trkpt><trkpt lat="44.9378665" lon="7.1264891"><ele>773.0</ele><time>2026-04-21T15:37:35.914Z</time></trkpt><trkpt lat="44.9378599" lon="7.1265899"><ele>773.0</ele><time>2026-04-21T15:37:37.914Z</time></trkpt><trkpt lat="44.937735" lon="7.1267092"><ele>773.0</ele><time>2026-04-21T15:37:39.914Z</time></trkpt><trkpt lat="44.9376352" lon="7.1267684"><ele>771.0</ele><time>2026-04-21T15:37:40.914Z</time></trkpt><trkpt lat="44.9375152" lon="7.1268373"><ele>769.0</ele><time>2026-04-21T15:37:41.913Z</time></trkpt><trkpt lat="44.937378" lon="7.1269129"><ele>767.0</ele><time>2026-04-21T15:37:42.913Z</time></trkpt><trkpt lat="44.9372338" lon="7.1269954"><ele>765.0</ele><time>2026-04-21T15:37:43.914Z</time></trkpt><trkpt lat="44.9370837" lon="7.1270993"><ele>765.0</ele><time>2026-04-21T15:37:44.915Z</time></trkpt><trkpt lat="44.936941" lon="7.127241"><ele>765.0</ele><time>2026-04-21T15:37:45.914Z</time></trkpt><trkpt lat="44.9368128" lon="7.1273984"><ele>765.0</ele><time>2026-04-21T15:37:46.914Z</time></trkpt><trkpt lat="44.9366793" lon="7.1275269"><ele>766.0</ele><time>2026-04-21T15:37:47.914Z</time></trkpt><trkpt lat="44.9365333" lon="7.1276098"><ele>767.0</ele><time>2026-04-21T15:37:48.913Z</time></trkpt><trkpt lat="44.9363777" lon="7.127671"><ele>768.0</ele><time>2026-04-21T15:37:49.915Z</time></trkpt><trkpt lat="44.9362188" lon="7.1277372"><ele>768.0</ele><time>2026-04-21T15:37:50.914Z</time></trkpt><trkpt lat="44.9360565" lon="7.1278041"><ele>768.0</ele><time>2026-04-21T15:37:51.914Z</time></trkpt><trkpt lat="44.935894" lon="7.1278786"><ele>768.0</ele><time>2026-04-21T15:37:52.914Z</time></trkpt><trkpt lat="44.9357348" lon="7.1279671"><ele>768.6666666666667</ele><time>2026-04-21T15:37:53.915Z</time></trkpt><trkpt lat="44.9355802" lon="7.1280781"><ele>769.3333333333334</ele><time>2026-04-21T15:37:54.915Z</time></trkpt><trkpt lat="44.9354346" lon="7.1282187"><ele>770.0</ele><time>2026-04-21T15:37:55.914Z</time></trkpt><trkpt lat="44.9352959" lon="7.1283824"><ele>766.6666666666667</ele><time>2026-04-21T15:37:56.913Z</time></trkpt><trkpt lat="44.9351649" lon="7.1285629"><ele>763.3333333333334</ele><time>2026-04-21T15:37:57.914Z</time></trkpt><trkpt lat="44.9350358" lon="7.128748"><ele>760.0</ele><time>2026-04-21T15:37:58.914Z</time></trkpt><trkpt lat="44.9349061" lon="7.1289386"><ele>757.6666666666667</ele><time>2026-04-21T15:37:59.913Z</time></trkpt><trkpt lat="44.9347758" lon="7.1291291"><ele>755.3333333333334</ele><time>2026-04-21T15:38:00.913Z</time></trkpt><trkpt lat="44.9346481" lon="7.129317"><ele>753.0</ele><time>2026-04-21T15:38:01.915Z</time></trkpt><trkpt lat="44.9345302" lon="7.1295016"><ele>753.0</ele><time>2026-04-21T15:38:02.914Z</time></trkpt><trkpt lat="44.9344283" lon="7.1296921"><ele>753.0</ele><time>2026-04-21T15:38:03.913Z</time></trkpt><trkpt lat="44.9343405" lon="7.1298896"><ele>753.0</ele><time>2026-04-21T15:38:04.914Z</time></trkpt><trkpt lat="44.9342735" lon="7.1301036"><ele>752.6666666666666</ele><time>2026-04-21T15:38:05.914Z</time></trkpt><trkpt lat="44.9342276" lon="7.1303293"><ele>752.3333333333333</ele><time>2026-04-21T15:38:06.914Z</time></trkpt><trkpt lat="44.9341948" lon="7.1305614"><ele>752.0</ele><time>2026-04-21T15:38:07.914Z</time></trkpt><trkpt lat="44.9341826" lon="7.1308019"><ele>752.0</ele><time>2026-04-21T15:38:08.913Z</time></trkpt><trkpt lat="44.934191" lon="7.1310427"><ele>752.0</ele><time>2026-04-21T15:38:09.913Z</time></trkpt><trkpt lat="44.9342135" lon="7.131284"><ele>752.0</ele><time>2026-04-21T15:38:10.913Z</time></trkpt><trkpt lat="44.9342405" lon="7.1315232"><ele>766.0</ele><time>2026-04-21T15:38:11.915Z</time></trkpt><trkpt lat="44.9342677" lon="7.1317563"><ele>780.0</ele><time>2026-04-21T15:38:12.915Z</time></trkpt><trkpt lat="44.9342882" lon="7.1319808"><ele>794.0</ele><time>2026-04-21T15:38:13.914Z</time></trkpt><trkpt lat="44.934299" lon="7.1321998"><ele>792.6666666666667</ele><time>2026-04-21T15:38:14.915Z</time></trkpt><trkpt lat="44.9343027" lon="7.1324206"><ele>791.3333333333333</ele><time>2026-04-21T15:38:15.914Z</time></trkpt><trkpt lat="44.9342971" lon="7.1326414"><ele>790.0</ele><time>2026-04-21T15:38:16.913Z</time></trkpt><trkpt lat="44.9342894" lon="7.1328665"><ele>790.0</ele><time>2026-04-21T15:38:17.914Z</time></trkpt><trkpt lat="44.9342888" lon="7.1330924"><ele>790.0</ele><time>2026-04-21T15:38:18.914Z</time></trkpt><trkpt lat="44.9343074" lon="7.1333215"><ele>790.0</ele><time>2026-04-21T15:38:19.914Z</time></trkpt><trkpt lat="44.9343548" lon="7.1335486"><ele>788.3333333333333</ele><time>2026-04-21T15:38:20.915Z</time></trkpt><trkpt lat="44.9344133" lon="7.1337765"><ele>786.6666666666667</ele><time>2026-04-21T15:38:21.913Z</time></trkpt><trkpt lat="44.9344552" lon="7.1340181"><ele>785.0</ele><time>2026-04-21T15:38:22.914Z</time></trkpt><trkpt lat="44.9344792" lon="7.1342646"><ele>785.0</ele><time>2026-04-21T15:38:23.914Z</time></trkpt><trkpt lat="44.9345091" lon="7.1345097"><ele>785.0</ele><time>2026-04-21T15:38:24.915Z</time></trkpt><trkpt lat="44.9345391" lon="7.1347499"><ele>785.0</ele><time>2026-04-21T15:38:25.914Z</time></trkpt><trkpt lat="44.9345675" lon="7.1349874"><ele>783.6666666666667</ele><time>2026-04-21T15:38:26.914Z</time></trkpt><trkpt lat="44.9345934" lon="7.1352251"><ele>782.3333333333333</ele><time>2026-04-21T15:38:27.914Z</time></trkpt><trkpt lat="44.934631" lon="7.135465"><ele>781.0</ele><time>2026-04-21T15:38:28.913Z</time></trkpt><trkpt lat="44.9346848" lon="7.1357039"><ele>773.6666666666666</ele><time>2026-04-21T15:38:29.913Z</time></trkpt><trkpt lat="44.9347431" lon="7.1359449"><ele>766.3333333333333</ele><time>2026-04-21T15:38:30.912Z</time></trkpt><trkpt lat="44.9348034" lon="7.1361886"><ele>759.0</ele><time>2026-04-21T15:38:31.914Z</time></trkpt><trkpt lat="44.9348782" lon="7.1364334"><ele>755.0</ele><time>2026-04-21T15:38:32.913Z</time></trkpt><trkpt lat="44.9349611" lon="7.1366774"><ele>751.0</ele><time>2026-04-21T15:38:33.914Z</time></trkpt><trkpt lat="44.9350482" lon="7.1369301"><ele>747.0</ele><time>2026-04-21T15:38:34.914Z</time></trkpt><trkpt lat="44.9351318" lon="7.1371809"><ele>757.0</ele><time>2026-04-21T15:38:35.912Z</time></trkpt><trkpt lat="44.9352116" lon="7.1374276"><ele>767.0</ele><time>2026-04-21T15:38:36.914Z</time></trkpt><trkpt lat="44.9352922" lon="7.1376621"><ele>777.0</ele><time>2026-04-21T15:38:37.913Z</time></trkpt><trkpt lat="44.9353813" lon="7.1378804"><ele>777.0</ele><time>2026-04-21T15:38:38.913Z</time></trkpt><trkpt lat="44.9354829" lon="7.1380754"><ele>777.0</ele><time>2026-04-21T15:38:39.914Z</time></trkpt><trkpt lat="44.9355898" lon="7.1382487"><ele>777.0</ele><time>2026-04-21T15:38:40.913Z</time></trkpt><trkpt lat="44.9356866" lon="7.1384002"><ele>781.4000000000001</ele><time>2026-04-21T15:38:41.913Z</time></trkpt><trkpt lat="44.9357788" lon="7.1385359"><ele>785.8000000000001</ele><time>2026-04-21T15:38:42.914Z</time></trkpt><trkpt lat="44.9358586" lon="7.1386532"><ele>790.2</ele><time>2026-04-21T15:38:43.914Z</time></trkpt><trkpt lat="44.9359233" lon="7.1387538"><ele>794.6</ele><time>2026-04-21T15:38:44.912Z</time></trkpt><trkpt lat="44.9359457" lon="7.1388556"><ele>799.0</ele><time>2026-04-21T15:38:45.914Z</time></trkpt><trkpt lat="44.9359501" lon="7.1389565"><ele>791.1666666666666</ele><time>2026-04-21T15:38:46.913Z</time></trkpt><trkpt lat="44.9359257" lon="7.1390534"><ele>783.3333333333333</ele><time>2026-04-21T15:38:47.914Z</time></trkpt><trkpt lat="44.935876" lon="7.139137"><ele>775.5</ele><time>2026-04-21T15:38:48.913Z</time></trkpt><trkpt lat="44.9358234" lon="7.1392278"><ele>767.6666666666666</ele><time>2026-04-21T15:38:49.913Z</time></trkpt><trkpt lat="44.9357826" lon="7.1393379"><ele>759.8333333333333</ele><time>2026-04-21T15:38:50.913Z</time></trkpt><trkpt lat="44.9357471" lon="7.139461"><ele>752.0</ele><time>2026-04-21T15:38:51.913Z</time></trkpt><trkpt lat="44.9357265" lon="7.1395902"><ele>748.0</ele><time>2026-04-21T15:38:52.912Z</time></trkpt><trkpt lat="44.9357287" lon="7.1396971"><ele>744.0</ele><time>2026-04-21T15:38:53.913Z</time></trkpt><trkpt lat="44.9357589" lon="7.1398147"><ele>740.0</ele><time>2026-04-21T15:38:54.914Z</time></trkpt><trkpt lat="44.9357953" lon="7.1399412"><ele>736.0</ele><time>2026-04-21T15:38:55.913Z</time></trkpt><trkpt lat="44.9358322" lon="7.1400782"><ele>732.0</ele><time>2026-04-21T15:38:56.912Z</time></trkpt><trkpt lat="44.9358632" lon="7.1402264"><ele>732.0</ele><time>2026-04-21T15:38:57.912Z</time></trkpt><trkpt lat="44.9358859" lon="7.1403891"><ele>732.0</ele><time>2026-04-21T15:38:58.913Z</time></trkpt><trkpt lat="44.9358978" lon="7.1405617"><ele>732.0</ele><time>2026-04-21T15:38:59.913Z</time></trkpt><trkpt lat="44.9358956" lon="7.1407359"><ele>732.0</ele><time>2026-04-21T15:39:00.914Z</time></trkpt><trkpt lat="44.9358822" lon="7.1408945"><ele>732.6</ele><time>2026-04-21T15:39:01.912Z</time></trkpt><trkpt lat="44.9358516" lon="7.1410314"><ele>733.2</ele><time>2026-04-21T15:39:02.912Z</time></trkpt><trkpt lat="44.9357964" lon="7.1411385"><ele>733.8</ele><time>2026-04-21T15:39:03.914Z</time></trkpt><trkpt lat="44.9357128" lon="7.1412072"><ele>734.4</ele><time>2026-04-21T15:39:04.913Z</time></trkpt><trkpt lat="44.9356069" lon="7.1412376"><ele>735.0</ele><time>2026-04-21T15:39:05.914Z</time></trkpt><trkpt lat="44.9354809" lon="7.1412647"><ele>735.0</ele><time>2026-04-21T15:39:06.913Z</time></trkpt><trkpt lat="44.9353452" lon="7.1412869"><ele>735.0</ele><time>2026-04-21T15:39:07.912Z</time></trkpt><trkpt lat="44.9352071" lon="7.1413119"><ele>735.0</ele><time>2026-04-21T15:39:08.913Z</time></trkpt><trkpt lat="44.9350637" lon="7.1413268"><ele>735.0</ele><time>2026-04-21T15:39:09.913Z</time></trkpt><trkpt lat="44.9349126" lon="7.1413384"><ele>740.0</ele><time>2026-04-21T15:39:10.914Z</time></trkpt><trkpt lat="44.9347624" lon="7.1413506"><ele>745.0</ele><time>2026-04-21T15:39:11.913Z</time></trkpt><trkpt lat="44.9346096" lon="7.1413606"><ele>750.0</ele><time>2026-04-21T15:39:12.913Z</time></trkpt><trkpt lat="44.9344516" lon="7.1413675"><ele>750.0</ele><time>2026-04-21T15:39:13.914Z</time></trkpt><trkpt lat="44.9342936" lon="7.141374"><ele>750.0</ele><time>2026-04-21T15:39:14.914Z</time></trkpt><trkpt lat="44.9341392" lon="7.1413858"><ele>750.0</ele><time>2026-04-21T15:39:15.913Z</time></trkpt><trkpt lat="44.9339988" lon="7.1413921"><ele>752.2</ele><time>2026-04-21T15:39:16.914Z</time></trkpt><trkpt lat="44.9338937" lon="7.141423"><ele>754.4</ele><time>2026-04-21T15:39:17.913Z</time></trkpt><trkpt lat="44.9337817" lon="7.1414452"><ele>756.5999999999999</ele><time>2026-04-21T15:39:18.912Z</time></trkpt><trkpt lat="44.9337537" lon="7.1415348"><ele>758.8</ele><time>2026-04-21T15:39:19.913Z</time></trkpt><trkpt lat="44.9337579" lon="7.1416752"><ele>761.0</ele><time>2026-04-21T15:39:21.914Z</time></trkpt><trkpt lat="44.9338303" lon="7.1416961"><ele>762.25</ele><time>2026-04-21T15:39:22.914Z</time></trkpt><trkpt lat="44.9339236" lon="7.141661"><ele>763.5</ele><time>2026-04-21T15:39:23.914Z</time></trkpt><trkpt lat="44.9340357" lon="7.1416307"><ele>764.75</ele><time>2026-04-21T15:39:24.912Z</time></trkpt><trkpt lat="44.9341687" lon="7.1416144"><ele>766.0</ele><time>2026-04-21T15:39:25.913Z</time></trkpt><trkpt lat="44.9343127" lon="7.1416242"><ele>766.0</ele><time>2026-04-21T15:39:26.912Z</time></trkpt><trkpt lat="44.9344687" lon="7.14164"><ele>766.0</ele><time>2026-04-21T15:39:27.913Z</time></trkpt><trkpt lat="44.9346268" lon="7.1416499"><ele>766.0</ele><time>2026-04-21T15:39:28.913Z</time></trkpt><trkpt lat="44.9347926" lon="7.1416715"><ele>766.0</ele><time>2026-04-21T15:39:29.913Z</time></trkpt><trkpt lat="44.9349599" lon="7.1417012"><ele>766.0</ele><time>2026-04-21T15:39:30.913Z</time></trkpt><trkpt lat="44.9351226" lon="7.141788"><ele>766.0</ele><time>2026-04-21T15:39:31.912Z</time></trkpt><trkpt lat="44.9352873" lon="7.1418646"><ele>763.0</ele><time>2026-04-21T15:39:32.914Z</time></trkpt><trkpt lat="44.9354535" lon="7.1419438"><ele>760.0</ele><time>2026-04-21T15:39:33.913Z</time></trkpt><trkpt lat="44.9356039" lon="7.1420147"><ele>757.0</ele><time>2026-04-21T15:39:34.912Z</time></trkpt><trkpt lat="44.935745" lon="7.1420755"><ele>757.0</ele><time>2026-04-21T15:39:35.912Z</time></trkpt><trkpt lat="44.935877" lon="7.1421408"><ele>757.0</ele><time>2026-04-21T15:39:36.914Z</time></trkpt><trkpt lat="44.935979" lon="7.1422264"><ele>757.0</ele><time>2026-04-21T15:39:37.913Z</time></trkpt><trkpt lat="44.9360431" lon="7.1423252"><ele>757.0</ele><time>2026-04-21T15:39:39.914Z</time></trkpt><trkpt lat="44.9359714" lon="7.1423905"><ele>757.0</ele><time>2026-04-21T15:39:42.913Z</time></trkpt><trkpt lat="44.9358675" lon="7.1423046"><ele>757.0</ele><time>2026-04-21T15:39:44.913Z</time></trkpt><trkpt lat="44.9357876" lon="7.142246"><ele>757.0</ele><time>2026-04-21T15:39:45.913Z</time></trkpt><trkpt lat="44.9356903" lon="7.1422227"><ele>757.0</ele><time>2026-04-21T15:39:46.913Z</time></trkpt><trkpt lat="44.9355854" lon="7.1422066"><ele>757.0</ele><time>2026-04-21T15:39:47.913Z</time></trkpt><trkpt lat="44.9354674" lon="7.1421864"><ele>757.0</ele><time>2026-04-21T15:39:48.914Z</time></trkpt><trkpt lat="44.9353458" lon="7.1421668"><ele>757.0</ele><time>2026-04-21T15:39:49.913Z</time></trkpt><trkpt lat="44.935212" lon="7.142157"><ele>757.0</ele><time>2026-04-21T15:39:50.913Z</time></trkpt><trkpt lat="44.9350722" lon="7.1421689"><ele>757.0</ele><time>2026-04-21T15:39:51.913Z</time></trkpt><trkpt lat="44.9349285" lon="7.1421885"><ele>757.0</ele><time>2026-04-21T15:39:52.913Z</time></trkpt><trkpt lat="44.9347883" lon="7.1422168"><ele>758.8</ele><time>2026-04-21T15:39:53.912Z</time></trkpt><trkpt lat="44.9346701" lon="7.1422512"><ele>760.6</ele><time>2026-04-21T15:39:54.913Z</time></trkpt><trkpt lat="44.9345784" lon="7.1422918"><ele>762.4</ele><time>2026-04-21T15:39:55.913Z</time></trkpt><trkpt lat="44.9345043" lon="7.1423452"><ele>764.1999999999999</ele><time>2026-04-21T15:39:56.913Z</time></trkpt><trkpt lat="44.9344762" lon="7.1424956"><ele>766.0</ele><time>2026-04-21T15:39:58.912Z</time></trkpt><trkpt lat="44.9345356" lon="7.1425631"><ele>773.75</ele><time>2026-04-21T15:39:59.914Z</time></trkpt><trkpt lat="44.9346237" lon="7.1425599"><ele>781.5</ele><time>2026-04-21T15:40:00.913Z</time></trkpt><trkpt lat="44.9347422" lon="7.1424727"><ele>789.25</ele><time>2026-04-21T15:40:01.913Z</time></trkpt><trkpt lat="44.9348749" lon="7.1424135"><ele>797.0</ele><time>2026-04-21T15:40:02.914Z</time></trkpt><trkpt lat="44.9350027" lon="7.1423952"><ele>797.0</ele><time>2026-04-21T15:40:03.913Z</time></trkpt><trkpt lat="44.9351146" lon="7.1423905"><ele>797.0</ele><time>2026-04-21T15:40:04.914Z</time></trkpt><trkpt lat="44.9351896" lon="7.1424092"><ele>797.0</ele><time>2026-04-21T15:40:05.913Z</time></trkpt><trkpt lat="44.9352171" lon="7.1425104"><ele>797.0</ele><time>2026-04-21T15:40:07.914Z</time></trkpt><trkpt lat="44.9350831" lon="7.1425931"><ele>797.0</ele><time>2026-04-21T15:40:09.913Z</time></trkpt><trkpt lat="44.9349724" lon="7.1426158"><ele>797.0</ele><time>2026-04-21T15:40:10.913Z</time></trkpt><trkpt lat="44.9348217" lon="7.1426601"><ele>797.0</ele><time>2026-04-21T15:40:11.914Z</time></trkpt><trkpt lat="44.9346804" lon="7.1427379"><ele>797.0</ele><time>2026-04-21T15:40:12.913Z</time></trkpt><trkpt lat="44.9345389" lon="7.1428287"><ele>797.0</ele><time>2026-04-21T15:40:13.913Z</time></trkpt><trkpt lat="44.9343837" lon="7.1429352"><ele>797.0</ele><time>2026-04-21T15:40:14.913Z</time></trkpt><trkpt lat="44.9342238" lon="7.1430332"><ele>797.0</ele><time>2026-04-21T15:40:15.914Z</time></trkpt><trkpt lat="44.9340801" lon="7.143106"><ele>796.0</ele><time>2026-04-21T15:40:16.914Z</time></trkpt><trkpt lat="44.9339651" lon="7.1431612"><ele>795.0</ele><time>2026-04-21T15:40:17.914Z</time></trkpt><trkpt lat="44.9338753" lon="7.1432107"><ele>794.0</ele><time>2026-04-21T15:40:18.913Z</time></trkpt><trkpt lat="44.9338198" lon="7.1432815"><ele>793.0</ele><time>2026-04-21T15:40:19.913Z</time></trkpt><trkpt lat="44.9338176" lon="7.1433757"><ele>792.0</ele><time>2026-04-21T15:40:20.913Z</time></trkpt><trkpt lat="44.9339091" lon="7.1435067"><ele>796.4000000000001</ele><time>2026-04-21T15:40:22.913Z</time></trkpt><trkpt lat="44.9339961" lon="7.1435122"><ele>800.8000000000001</ele><time>2026-04-21T15:40:23.914Z</time></trkpt><trkpt lat="44.9340887" lon="7.1435046"><ele>805.2</ele><time>2026-04-21T15:40:24.913Z</time></trkpt><trkpt lat="44.9341853" lon="7.1434656"><ele>809.6</ele><time>2026-04-21T15:40:25.914Z</time></trkpt><trkpt lat="44.9343015" lon="7.143461"><ele>814.0</ele><time>2026-04-21T15:40:26.914Z</time></trkpt><trkpt lat="44.9344214" lon="7.1434632"><ele>815.5</ele><time>2026-04-21T15:40:27.912Z</time></trkpt><trkpt lat="44.9345547" lon="7.1434684"><ele>817.0</ele><time>2026-04-21T15:40:28.914Z</time></trkpt><trkpt lat="44.9347014" lon="7.143471"><ele>818.5</ele><time>2026-04-21T15:40:29.914Z</time></trkpt><trkpt lat="44.934854" lon="7.1434753"><ele>820.0</ele><time>2026-04-21T15:40:30.914Z</time></trkpt><trkpt lat="44.9349991" lon="7.1434889"><ele>815.6</ele><time>2026-04-21T15:40:31.913Z</time></trkpt><trkpt lat="44.9351164" lon="7.1435107"><ele>811.2</ele><time>2026-04-21T15:40:32.912Z</time></trkpt><trkpt lat="44.9352056" lon="7.1435303"><ele>806.8</ele><time>2026-04-21T15:40:33.912Z</time></trkpt><trkpt lat="44.935268" lon="7.1435709"><ele>802.4</ele><time>2026-04-21T15:40:34.913Z</time></trkpt><trkpt lat="44.9352307" lon="7.1437153"><ele>798.0</ele><time>2026-04-21T15:40:36.914Z</time></trkpt><trkpt lat="44.9351417" lon="7.1437794"><ele>803.5</ele><time>2026-04-21T15:40:37.913Z</time></trkpt><trkpt lat="44.9350302" lon="7.1438532"><ele>809.0</ele><time>2026-04-21T15:40:38.914Z</time></trkpt><trkpt lat="44.9349074" lon="7.143956"><ele>814.5</ele><time>2026-04-21T15:40:39.913Z</time></trkpt><trkpt lat="44.9347639" lon="7.1440659"><ele>820.0</ele><time>2026-04-21T15:40:40.912Z</time></trkpt><trkpt lat="44.9346184" lon="7.144194"><ele>824.0</ele><time>2026-04-21T15:40:41.913Z</time></trkpt><trkpt lat="44.9344857" lon="7.1443487"><ele>828.0</ele><time>2026-04-21T15:40:42.912Z</time></trkpt><trkpt lat="44.9343649" lon="7.144516"><ele>832.0</ele><time>2026-04-21T15:40:43.912Z</time></trkpt><trkpt lat="44.934259" lon="7.144659"><ele>832.0</ele><time>2026-04-21T15:40:44.914Z</time></trkpt><trkpt lat="44.9341636" lon="7.1448071"><ele>832.0</ele><time>2026-04-21T15:40:45.914Z</time></trkpt><trkpt lat="44.9340799" lon="7.1449642"><ele>832.0</ele><time>2026-04-21T15:40:46.914Z</time></trkpt><trkpt lat="44.934009" lon="7.1451332"><ele>832.0</ele><time>2026-04-21T15:40:47.913Z</time></trkpt><trkpt lat="44.9339541" lon="7.1453318"><ele>837.0</ele><time>2026-04-21T15:40:48.913Z</time></trkpt><trkpt lat="44.9339053" lon="7.1455468"><ele>842.0</ele><time>2026-04-21T15:40:49.912Z</time></trkpt><trkpt lat="44.9338553" lon="7.1457742"><ele>847.0</ele><time>2026-04-21T15:40:50.914Z</time></trkpt><trkpt lat="44.933792" lon="7.1460043"><ele>852.3333333333333</ele><time>2026-04-21T15:40:51.914Z</time></trkpt><trkpt lat="44.9337165" lon="7.1462304"><ele>857.6666666666667</ele><time>2026-04-21T15:40:52.913Z</time></trkpt><trkpt lat="44.9336266" lon="7.1464427"><ele>863.0</ele><time>2026-04-21T15:40:53.913Z</time></trkpt><trkpt lat="44.9335227" lon="7.1466348"><ele>861.3333333333334</ele><time>2026-04-21T15:40:54.913Z</time></trkpt><trkpt lat="44.9333991" lon="7.1468"><ele>859.6666666666667</ele><time>2026-04-21T15:40:55.914Z</time></trkpt><trkpt lat="44.9332589" lon="7.1469344"><ele>858.0</ele><time>2026-04-21T15:40:56.914Z</time></trkpt><trkpt lat="44.9331052" lon="7.1470498"><ele>858.0</ele><time>2026-04-21T15:40:57.914Z</time></trkpt><trkpt lat="44.9329463" lon="7.1471626"><ele>858.0</ele><time>2026-04-21T15:40:58.912Z</time></trkpt><trkpt lat="44.9327929" lon="7.1472723"><ele>858.0</ele><time>2026-04-21T15:40:59.913Z</time></trkpt><trkpt lat="44.9326412" lon="7.1473834"><ele>862.6666666666667</ele><time>2026-04-21T15:41:00.913Z</time></trkpt><trkpt lat="44.9324907" lon="7.147487"><ele>867.3333333333334</ele><time>2026-04-21T15:41:01.913Z</time></trkpt><trkpt lat="44.9323387" lon="7.1475712"><ele>872.0</ele><time>2026-04-21T15:41:02.913Z</time></trkpt><trkpt lat="44.9321833" lon="7.1476064"><ele>872.0</ele><time>2026-04-21T15:41:03.913Z</time></trkpt><trkpt lat="44.9320253" lon="7.1476202"><ele>872.0</ele><time>2026-04-21T15:41:04.912Z</time></trkpt><trkpt lat="44.9318688" lon="7.1476631"><ele>872.0</ele><time>2026-04-21T15:41:05.913Z</time></trkpt><trkpt lat="44.9317274" lon="7.1477042"><ele>873.75</ele><time>2026-04-21T15:41:06.913Z</time></trkpt><trkpt lat="44.9315934" lon="7.1477206"><ele>875.5</ele><time>2026-04-21T15:41:07.914Z</time></trkpt><trkpt lat="44.9314674" lon="7.1477075"><ele>877.25</ele><time>2026-04-21T15:41:08.912Z</time></trkpt><trkpt lat="44.9313389" lon="7.1476878"><ele>879.0</ele><time>2026-04-21T15:41:09.913Z</time></trkpt><trkpt lat="44.9312243" lon="7.1475985"><ele>879.0</ele><time>2026-04-21T15:41:10.913Z</time></trkpt><trkpt lat="44.9311096" lon="7.1475674"><ele>879.0</ele><time>2026-04-21T15:41:11.913Z</time></trkpt><trkpt lat="44.9310071" lon="7.1475734"><ele>879.0</ele><time>2026-04-21T15:41:12.914Z</time></trkpt><trkpt lat="44.9309027" lon="7.1476257"><ele>879.0</ele><time>2026-04-21T15:41:13.913Z</time></trkpt><trkpt lat="44.9307871" lon="7.1476964"><ele>879.6</ele><time>2026-04-21T15:41:14.912Z</time></trkpt><trkpt lat="44.9306709" lon="7.1477537"><ele>880.2</ele><time>2026-04-21T15:41:15.913Z</time></trkpt><trkpt lat="44.930566" lon="7.147795"><ele>880.8000000000001</ele><time>2026-04-21T15:41:16.913Z</time></trkpt><trkpt lat="44.9304873" lon="7.1478778"><ele>881.4000000000001</ele><time>2026-04-21T15:41:17.913Z</time></trkpt><trkpt lat="44.9304413" lon="7.1479894"><ele>882.0</ele><time>2026-04-21T15:41:18.914Z</time></trkpt><trkpt lat="44.9304255" lon="7.1481409"><ele>888.0</ele><time>2026-04-21T15:41:19.913Z</time></trkpt><trkpt lat="44.9304074" lon="7.1483119"><ele>894.0</ele><time>2026-04-21T15:41:20.914Z</time></trkpt><trkpt lat="44.9303804" lon="7.1484995"><ele>900.0</ele><time>2026-04-21T15:41:21.914Z</time></trkpt><trkpt lat="44.9303432" lon="7.1486854"><ele>906.0</ele><time>2026-04-21T15:41:22.913Z</time></trkpt><trkpt lat="44.9303057" lon="7.1488714"><ele>906.0</ele><time>2026-04-21T15:41:23.914Z</time></trkpt><trkpt lat="44.9302669" lon="7.1490454"><ele>906.0</ele><time>2026-04-21T15:41:24.913Z</time></trkpt><trkpt lat="44.9302167" lon="7.1492164"><ele>906.0</ele><time>2026-04-21T15:41:25.913Z</time></trkpt><trkpt lat="44.930157" lon="7.1493692"><ele>906.0</ele><time>2026-04-21T15:41:26.914Z</time></trkpt><trkpt lat="44.9300417" lon="7.1494489"><ele>906.0</ele><time>2026-04-21T15:41:27.913Z</time></trkpt><trkpt lat="44.9299531" lon="7.1495512"><ele>906.0</ele><time>2026-04-21T15:41:28.914Z</time></trkpt><trkpt lat="44.929859" lon="7.1496555"><ele>906.0</ele><time>2026-04-21T15:41:29.912Z</time></trkpt><trkpt lat="44.9297756" lon="7.1497458"><ele>906.0</ele><time>2026-04-21T15:41:30.913Z</time></trkpt><trkpt lat="44.9296699" lon="7.1498159"><ele>906.0</ele><time>2026-04-21T15:41:31.913Z</time></trkpt><trkpt lat="44.9295625" lon="7.149858"><ele>906.0</ele><time>2026-04-21T15:41:32.912Z</time></trkpt><trkpt lat="44.9294482" lon="7.1498668"><ele>906.0</ele><time>2026-04-21T15:41:33.913Z</time></trkpt><trkpt lat="44.9293372" lon="7.1498442"><ele>906.0</ele><time>2026-04-21T15:41:34.913Z</time></trkpt><trkpt lat="44.9292157" lon="7.1498518"><ele>910.25</ele><time>2026-04-21T15:41:35.913Z</time></trkpt><trkpt lat="44.9291012" lon="7.1498879"><ele>914.5</ele><time>2026-04-21T15:41:36.914Z</time></trkpt><trkpt lat="44.9289792" lon="7.1499813"><ele>918.75</ele><time>2026-04-21T15:41:37.912Z</time></trkpt><trkpt lat="44.9288533" lon="7.1500598"><ele>923.0</ele><time>2026-04-21T15:41:38.913Z</time></trkpt><trkpt lat="44.9287223" lon="7.1501449"><ele>923.0</ele><time>2026-04-21T15:41:39.913Z</time></trkpt><trkpt lat="44.928588" lon="7.1502265"><ele>923.0</ele><time>2026-04-21T15:41:40.913Z</time></trkpt><trkpt lat="44.9284535" lon="7.1502808"><ele>923.0</ele><time>2026-04-21T15:41:41.912Z</time></trkpt><trkpt lat="44.9283082" lon="7.1503103"><ele>923.0</ele><time>2026-04-21T15:41:42.914Z</time></trkpt><trkpt lat="44.9281718" lon="7.1503344"><ele>923.0</ele><time>2026-04-21T15:41:43.912Z</time></trkpt><trkpt lat="44.9280297" lon="7.1503505"><ele>923.0</ele><time>2026-04-21T15:41:44.914Z</time></trkpt><trkpt lat="44.9278961" lon="7.1503728"><ele>923.0</ele><time>2026-04-21T15:41:45.913Z</time></trkpt><trkpt lat="44.9277615" lon="7.1504225"><ele>923.0</ele><time>2026-04-21T15:41:46.914Z</time></trkpt><trkpt lat="44.927623" lon="7.1504702"><ele>922.75</ele><time>2026-04-21T15:41:47.913Z</time></trkpt><trkpt lat="44.9274896" lon="7.150552"><ele>922.5</ele><time>2026-04-21T15:41:48.913Z</time></trkpt><trkpt lat="44.9273776" lon="7.1506847"><ele>922.25</ele><time>2026-04-21T15:41:49.913Z</time></trkpt><trkpt lat="44.9272471" lon="7.1507698"><ele>922.0</ele><time>2026-04-21T15:41:50.914Z</time></trkpt><trkpt lat="44.9271176" lon="7.1508557"><ele>925.2</ele><time>2026-04-21T15:41:51.914Z</time></trkpt><trkpt lat="44.9270037" lon="7.1509191"><ele>928.4000000000001</ele><time>2026-04-21T15:41:52.912Z</time></trkpt><trkpt lat="44.9268902" lon="7.1509638"><ele>931.5999999999999</ele><time>2026-04-21T15:41:53.912Z</time></trkpt><trkpt lat="44.9267848" lon="7.1509998"><ele>934.8</ele><time>2026-04-21T15:41:54.914Z</time></trkpt><trkpt lat="44.9266956" lon="7.1510348"><ele>938.0</ele><time>2026-04-21T15:41:55.913Z</time></trkpt><trkpt lat="44.926625" lon="7.1510842"><ele>938.0000000000001</ele><time>2026-04-21T15:41:56.914Z</time></trkpt><trkpt lat="44.9265919" lon="7.1511691"><ele>938.0</ele><time>2026-04-21T15:41:57.913Z</time></trkpt><trkpt lat="44.9266118" lon="7.1512536"><ele>938.0</ele><time>2026-04-21T15:41:58.913Z</time></trkpt><trkpt lat="44.9266712" lon="7.1513159"><ele>938.0</ele><time>2026-04-21T15:41:59.914Z</time></trkpt><trkpt lat="44.9267764" lon="7.1512878"><ele>938.0000000000001</ele><time>2026-04-21T15:42:00.912Z</time></trkpt><trkpt lat="44.9268879" lon="7.1512371"><ele>938.0</ele><time>2026-04-21T15:42:01.913Z</time></trkpt><trkpt lat="44.9270243" lon="7.1512163"><ele>940.3333333333334</ele><time>2026-04-21T15:42:02.912Z</time></trkpt><trkpt lat="44.9271887" lon="7.1512294"><ele>942.6666666666667</ele><time>2026-04-21T15:42:03.913Z</time></trkpt><trkpt lat="44.9273598" lon="7.151243"><ele>945.0</ele><time>2026-04-21T15:42:04.913Z</time></trkpt><trkpt lat="44.9275448" lon="7.1512449"><ele>946.0</ele><time>2026-04-21T15:42:05.913Z</time></trkpt><trkpt lat="44.9277366" lon="7.1512408"><ele>947.0</ele><time>2026-04-21T15:42:06.912Z</time></trkpt><trkpt lat="44.9279211" lon="7.1512488"><ele>948.0</ele><time>2026-04-21T15:42:07.913Z</time></trkpt><trkpt lat="44.9280868" lon="7.1512773"><ele>948.0</ele><time>2026-04-21T15:42:08.914Z</time></trkpt><trkpt lat="44.9282383" lon="7.1513037"><ele>948.0</ele><time>2026-04-21T15:42:09.913Z</time></trkpt><trkpt lat="44.9283822" lon="7.1513308"><ele>948.0</ele><time>2026-04-21T15:42:10.914Z</time></trkpt><trkpt lat="44.9285246" lon="7.1513614"><ele>948.0</ele><time>2026-04-21T15:42:11.913Z</time></trkpt><trkpt lat="44.9286617" lon="7.1513842"><ele>947.75</ele><time>2026-04-21T15:42:12.913Z</time></trkpt><trkpt lat="44.9288024" lon="7.1513925"><ele>947.5</ele><time>2026-04-21T15:42:13.913Z</time></trkpt><trkpt lat="44.9289464" lon="7.1513822"><ele>947.25</ele><time>2026-04-21T15:42:14.912Z</time></trkpt><trkpt lat="44.9290915" lon="7.151354"><ele>947.0</ele><time>2026-04-21T15:42:15.913Z</time></trkpt><trkpt lat="44.929227" lon="7.1513345"><ele>947.5</ele><time>2026-04-21T15:42:16.913Z</time></trkpt><trkpt lat="44.9293487" lon="7.1513557"><ele>948.0</ele><time>2026-04-21T15:42:17.914Z</time></trkpt><trkpt lat="44.9294701" lon="7.1514319"><ele>948.5</ele><time>2026-04-21T15:42:18.913Z</time></trkpt><trkpt lat="44.9295921" lon="7.1515369"><ele>949.0</ele><time>2026-04-21T15:42:19.913Z</time></trkpt><trkpt lat="44.9297242" lon="7.1516499"><ele>956.3333333333333</ele><time>2026-04-21T15:42:20.912Z</time></trkpt><trkpt lat="44.9298599" lon="7.1517822"><ele>963.6666666666667</ele><time>2026-04-21T15:42:21.913Z</time></trkpt><trkpt lat="44.9300137" lon="7.151895"><ele>971.0</ele><time>2026-04-21T15:42:22.913Z</time></trkpt><trkpt lat="44.9301644" lon="7.1519783"><ele>974.25</ele><time>2026-04-21T15:42:23.913Z</time></trkpt><trkpt lat="44.9303041" lon="7.1520438"><ele>977.5</ele><time>2026-04-21T15:42:24.913Z</time></trkpt><trkpt lat="44.9304242" lon="7.1520769"><ele>980.75</ele><time>2026-04-21T15:42:25.913Z</time></trkpt><trkpt lat="44.9305269" lon="7.1520926"><ele>984.0</ele><time>2026-04-21T15:42:26.913Z</time></trkpt><trkpt lat="44.9306128" lon="7.1521124"><ele>984.0</ele><time>2026-04-21T15:42:27.913Z</time></trkpt><trkpt lat="44.9306718" lon="7.1521598"><ele>984.0000000000001</ele><time>2026-04-21T15:42:28.914Z</time></trkpt><trkpt lat="44.9306418" lon="7.1522805"><ele>984.0000000000001</ele><time>2026-04-21T15:42:30.914Z</time></trkpt><trkpt lat="44.9305611" lon="7.1523023"><ele>984.0</ele><time>2026-04-21T15:42:31.914Z</time></trkpt><trkpt lat="44.9304451" lon="7.1523125"><ele>984.0</ele><time>2026-04-21T15:42:32.914Z</time></trkpt><trkpt lat="44.9303135" lon="7.1523199"><ele>984.0</ele><time>2026-04-21T15:42:33.912Z</time></trkpt><trkpt lat="44.9301558" lon="7.1523029"><ele>984.0</ele><time>2026-04-21T15:42:34.912Z</time></trkpt><trkpt lat="44.9300221" lon="7.152262"><ele>984.0</ele><time>2026-04-21T15:42:35.913Z</time></trkpt><trkpt lat="44.929906" lon="7.1522265"><ele>984.0</ele><time>2026-04-21T15:42:36.913Z</time></trkpt><trkpt lat="44.9297667" lon="7.1521921"><ele>980.75</ele><time>2026-04-21T15:42:37.912Z</time></trkpt><trkpt lat="44.9296243" lon="7.1521614"><ele>977.5</ele><time>2026-04-21T15:42:38.914Z</time></trkpt><trkpt lat="44.9294905" lon="7.1521369"><ele>974.25</ele><time>2026-04-21T15:42:39.914Z</time></trkpt><trkpt lat="44.9293685" lon="7.1521359"><ele>971.0</ele><time>2026-04-21T15:42:40.913Z</time></trkpt><trkpt lat="44.9292375" lon="7.1521742"><ele>970.75</ele><time>2026-04-21T15:42:41.913Z</time></trkpt><trkpt lat="44.9291063" lon="7.1522407"><ele>970.5</ele><time>2026-04-21T15:42:42.913Z</time></trkpt><trkpt lat="44.9289705" lon="7.1523092"><ele>970.25</ele><time>2026-04-21T15:42:43.912Z</time></trkpt><trkpt lat="44.9288448" lon="7.1523711"><ele>970.0</ele><time>2026-04-21T15:42:44.913Z</time></trkpt><trkpt lat="44.9287351" lon="7.1524164"><ele>973.6</ele><time>2026-04-21T15:42:45.912Z</time></trkpt><trkpt lat="44.928643" lon="7.1524783"><ele>977.2</ele><time>2026-04-21T15:42:46.911Z</time></trkpt><trkpt lat="44.928573" lon="7.1525667"><ele>980.8</ele><time>2026-04-21T15:42:47.912Z</time></trkpt><trkpt lat="44.9285143" lon="7.1526893"><ele>984.4</ele><time>2026-04-21T15:42:48.911Z</time></trkpt><trkpt lat="44.9284564" lon="7.1528202"><ele>988.0</ele><time>2026-04-21T15:42:49.911Z</time></trkpt><trkpt lat="44.9283864" lon="7.1529452"><ele>988.0</ele><time>2026-04-21T15:42:50.912Z</time></trkpt><trkpt lat="44.9282968" lon="7.1530598"><ele>988.0</ele><time>2026-04-21T15:42:51.913Z</time></trkpt><trkpt lat="44.9281929" lon="7.1531636"><ele>988.0</ele><time>2026-04-21T15:42:52.912Z</time></trkpt><trkpt lat="44.9280831" lon="7.1532744"><ele>988.0</ele><time>2026-04-21T15:42:53.912Z</time></trkpt><trkpt lat="44.9279687" lon="7.153381"><ele>991.75</ele><time>2026-04-21T15:42:54.913Z</time></trkpt><trkpt lat="44.9278452" lon="7.15347"><ele>995.5</ele><time>2026-04-21T15:42:55.913Z</time></trkpt><trkpt lat="44.9277239" lon="7.1535294"><ele>999.25</ele><time>2026-04-21T15:42:56.913Z</time></trkpt><trkpt lat="44.9276191" lon="7.1535626"><ele>1003.0</ele><time>2026-04-21T15:42:57.912Z</time></trkpt><trkpt lat="44.9275373" lon="7.15358"><ele>1002.9999999999999</ele><time>2026-04-21T15:42:58.912Z</time></trkpt><trkpt lat="44.9274737" lon="7.1536074"><ele>1003.0</ele><time>2026-04-21T15:42:59.912Z</time></trkpt><trkpt lat="44.9274329" lon="7.1537342"><ele>1003.0</ele><time>2026-04-21T15:43:01.912Z</time></trkpt><trkpt lat="44.9274824" lon="7.1538044"><ele>1003.0</ele><time>2026-04-21T15:43:02.913Z</time></trkpt><trkpt lat="44.9275706" lon="7.1538511"><ele>1002.9999999999999</ele><time>2026-04-21T15:43:03.912Z</time></trkpt><trkpt lat="44.9276779" lon="7.153865"><ele>1003.0</ele><time>2026-04-21T15:43:04.911Z</time></trkpt><trkpt lat="44.927799" lon="7.1538452"><ele>1004.25</ele><time>2026-04-21T15:43:05.912Z</time></trkpt><trkpt lat="44.9279327" lon="7.153808"><ele>1005.5</ele><time>2026-04-21T15:43:06.913Z</time></trkpt><trkpt lat="44.928076" lon="7.1537787"><ele>1006.75</ele><time>2026-04-21T15:43:07.912Z</time></trkpt><trkpt lat="44.9282279" lon="7.1537625"><ele>1008.0</ele><time>2026-04-21T15:43:08.912Z</time></trkpt><trkpt lat="44.9283886" lon="7.1537433"><ele>1011.75</ele><time>2026-04-21T15:43:09.912Z</time></trkpt><trkpt lat="44.928539" lon="7.1537301"><ele>1015.5</ele><time>2026-04-21T15:43:10.913Z</time></trkpt><trkpt lat="44.9286755" lon="7.1537129"><ele>1019.25</ele><time>2026-04-21T15:43:11.912Z</time></trkpt><trkpt lat="44.9287945" lon="7.1536858"><ele>1023.0</ele><time>2026-04-21T15:43:12.912Z</time></trkpt><trkpt lat="44.9288817" lon="7.1536496"><ele>1023.0</ele><time>2026-04-21T15:43:13.912Z</time></trkpt><trkpt lat="44.9289882" lon="7.1536088"><ele>1023.0</ele><time>2026-04-21T15:43:14.911Z</time></trkpt><trkpt lat="44.9290831" lon="7.1535498"><ele>1023.0</ele><time>2026-04-21T15:43:15.912Z</time></trkpt><trkpt lat="44.929203" lon="7.1535085"><ele>1023.0</ele><time>2026-04-21T15:43:16.912Z</time></trkpt><trkpt lat="44.9293341" lon="7.153468"><ele>1024.0</ele><time>2026-04-21T15:43:17.912Z</time></trkpt><trkpt lat="44.92945" lon="7.1534291"><ele>1025.0</ele><time>2026-04-21T15:43:18.913Z</time></trkpt><trkpt lat="44.9295537" lon="7.1533921"><ele>1026.0</ele><time>2026-04-21T15:43:19.913Z</time></trkpt><trkpt lat="44.9296455" lon="7.1533629"><ele>1027.0</ele><time>2026-04-21T15:43:20.912Z</time></trkpt><trkpt lat="44.929724" lon="7.153359"><ele>1028.0</ele><time>2026-04-21T15:43:21.912Z</time></trkpt><trkpt lat="44.9297719" lon="7.1534174"><ele>1028.0</ele><time>2026-04-21T15:43:22.912Z</time></trkpt><trkpt lat="44.929722" lon="7.1535675"><ele>1028.0</ele><time>2026-04-21T15:43:24.912Z</time></trkpt><trkpt lat="44.9296265" lon="7.1536337"><ele>1028.0</ele><time>2026-04-21T15:43:25.911Z</time></trkpt><trkpt lat="44.9295036" lon="7.1537125"><ele>1028.0</ele><time>2026-04-21T15:43:26.912Z</time></trkpt><trkpt lat="44.9293746" lon="7.1538149"><ele>1028.0</ele><time>2026-04-21T15:43:27.912Z</time></trkpt><trkpt lat="44.9292422" lon="7.1539062"><ele>1028.0</ele><time>2026-04-21T15:43:28.912Z</time></trkpt><trkpt lat="44.9291488" lon="7.1539786"><ele>1028.0</ele><time>2026-04-21T15:43:29.912Z</time></trkpt><trkpt lat="44.9290694" lon="7.154036"><ele>1028.0</ele><time>2026-04-21T15:43:30.913Z</time></trkpt><trkpt lat="44.9290079" lon="7.1541084"><ele>1028.0</ele><time>2026-04-21T15:43:31.912Z</time></trkpt><trkpt lat="44.9289736" lon="7.1541901"><ele>1032.0</ele><time>2026-04-21T15:43:32.911Z</time></trkpt><trkpt lat="44.929035" lon="7.1543234"><ele>1036.0</ele><time>2026-04-21T15:43:34.912Z</time></trkpt><trkpt lat="44.9291104" lon="7.1543348"><ele>1040.0</ele><time>2026-04-21T15:43:35.913Z</time></trkpt><trkpt lat="44.9292206" lon="7.1543096"><ele>1044.0</ele><time>2026-04-21T15:43:36.913Z</time></trkpt><trkpt lat="44.9293388" lon="7.1542649"><ele>1048.0</ele><time>2026-04-21T15:43:37.913Z</time></trkpt><trkpt lat="44.9294736" lon="7.1542227"><ele>1049.25</ele><time>2026-04-21T15:43:38.912Z</time></trkpt><trkpt lat="44.9296031" lon="7.1541892"><ele>1050.5</ele><time>2026-04-21T15:43:39.911Z</time></trkpt><trkpt lat="44.9297262" lon="7.154172"><ele>1051.75</ele><time>2026-04-21T15:43:40.911Z</time></trkpt><trkpt lat="44.929845" lon="7.1541752"><ele>1053.0</ele><time>2026-04-21T15:43:41.913Z</time></trkpt><trkpt lat="44.9299601" lon="7.1542055"><ele>1052.5</ele><time>2026-04-21T15:43:42.913Z</time></trkpt><trkpt lat="44.9300764" lon="7.1542537"><ele>1052.0</ele><time>2026-04-21T15:43:43.913Z</time></trkpt><trkpt lat="44.9301883" lon="7.1543205"><ele>1051.5</ele><time>2026-04-21T15:43:44.913Z</time></trkpt><trkpt lat="44.9303001" lon="7.1543912"><ele>1051.0</ele><time>2026-04-21T15:43:45.913Z</time></trkpt><trkpt lat="44.9304042" lon="7.1544793"><ele>1051.0</ele><time>2026-04-21T15:43:46.912Z</time></trkpt><trkpt lat="44.9304952" lon="7.1545952"><ele>1051.0</ele><time>2026-04-21T15:43:47.911Z</time></trkpt><trkpt lat="44.9305886" lon="7.1547188"><ele>1051.0</ele><time>2026-04-21T15:43:48.912Z</time></trkpt><trkpt lat="44.9306914" lon="7.1548561"><ele>1051.0</ele><time>2026-04-21T15:43:49.912Z</time></trkpt><trkpt lat="44.930785" lon="7.1549757"><ele>1053.0</ele><time>2026-04-21T15:43:50.911Z</time></trkpt><trkpt lat="44.9308667" lon="7.1550795"><ele>1055.0</ele><time>2026-04-21T15:43:51.913Z</time></trkpt><trkpt lat="44.9309494" lon="7.1551681"><ele>1057.0</ele><time>2026-04-21T15:43:52.911Z</time></trkpt><trkpt lat="44.9310327" lon="7.1552339"><ele>1059.0</ele><time>2026-04-21T15:43:53.913Z</time></trkpt><trkpt lat="44.9311102" lon="7.1552735"><ele>1061.0</ele><time>2026-04-21T15:43:54.912Z</time></trkpt><trkpt lat="44.9311784" lon="7.1552931"><ele>1061.0</ele><time>2026-04-21T15:43:55.913Z</time></trkpt><trkpt lat="44.9312672" lon="7.1553524"><ele>1061.0</ele><time>2026-04-21T15:43:57.913Z</time></trkpt><trkpt lat="44.9311837" lon="7.1554347"><ele>1061.0</ele><time>2026-04-21T15:46:52.912Z</time></trkpt><trkpt lat="44.9311174" lon="7.1554327"><ele>1061.0</ele><time>2026-04-21T15:46:53.912Z</time></trkpt><trkpt lat="44.9310432" lon="7.1554302"><ele>1061.0</ele><time>2026-04-21T15:46:54.912Z</time></trkpt><trkpt lat="44.9309706" lon="7.155428"><ele>1061.0</ele><time>2026-04-21T15:46:55.912Z</time></trkpt><trkpt lat="44.930903" lon="7.1554241"><ele>1062.5</ele><time>2026-04-21T15:46:56.912Z</time></trkpt><trkpt lat="44.9308345" lon="7.1554092"><ele>1064.0</ele><time>2026-04-21T15:46:57.911Z</time></trkpt><trkpt lat="44.930764" lon="7.1553789"><ele>1065.5</ele><time>2026-04-21T15:46:58.911Z</time></trkpt><trkpt lat="44.9306888" lon="7.1553307"><ele>1067.0</ele><time>2026-04-21T15:46:59.911Z</time></trkpt><trkpt lat="44.9306025" lon="7.1553015"><ele>1068.5</ele><time>2026-04-21T15:47:00.911Z</time></trkpt><trkpt lat="44.9305083" lon="7.1553038"><ele>1070.0</ele><time>2026-04-21T15:47:01.912Z</time></trkpt><trkpt lat="44.9304149" lon="7.1553121"><ele>1070.0</ele><time>2026-04-21T15:47:02.912Z</time></trkpt><trkpt lat="44.9303174" lon="7.1553121"><ele>1070.0</ele><time>2026-04-21T15:47:03.91Z</time></trkpt><trkpt lat="44.9302171" lon="7.1553177"><ele>1070.0</ele><time>2026-04-21T15:47:04.911Z</time></trkpt><trkpt lat="44.9301158" lon="7.1553243"><ele>1070.0</ele><time>2026-04-21T15:47:05.912Z</time></trkpt><trkpt lat="44.930015" lon="7.155357"><ele>1070.0</ele><time>2026-04-21T15:47:06.912Z</time></trkpt><trkpt lat="44.9299199" lon="7.1554163"><ele>1071.2</ele><time>2026-04-21T15:47:07.91Z</time></trkpt><trkpt lat="44.9298302" lon="7.1554924"><ele>1072.4</ele><time>2026-04-21T15:47:08.911Z</time></trkpt><trkpt lat="44.9297526" lon="7.1555607"><ele>1073.6</ele><time>2026-04-21T15:47:09.911Z</time></trkpt><trkpt lat="44.9296842" lon="7.1556393"><ele>1074.8</ele><time>2026-04-21T15:47:10.912Z</time></trkpt><trkpt lat="44.9296167" lon="7.1557356"><ele>1076.0</ele><time>2026-04-21T15:47:11.912Z</time></trkpt><trkpt lat="44.929548" lon="7.1558472"><ele>1081.25</ele><time>2026-04-21T15:47:12.91Z</time></trkpt><trkpt lat="44.92948" lon="7.155977"><ele>1086.5</ele><time>2026-04-21T15:47:13.912Z</time></trkpt><trkpt lat="44.9294081" lon="7.1561144"><ele>1091.75</ele><time>2026-04-21T15:47:14.911Z</time></trkpt><trkpt lat="44.9293279" lon="7.1562533"><ele>1097.0</ele><time>2026-04-21T15:47:15.911Z</time></trkpt><trkpt lat="44.9292458" lon="7.1563873"><ele>1094.25</ele><time>2026-04-21T15:47:16.91Z</time></trkpt><trkpt lat="44.92915" lon="7.1565203"><ele>1091.5</ele><time>2026-04-21T15:47:17.911Z</time></trkpt><trkpt lat="44.9290487" lon="7.1566533"><ele>1088.75</ele><time>2026-04-21T15:47:18.911Z</time></trkpt><trkpt lat="44.9289443" lon="7.1567861"><ele>1086.0</ele><time>2026-04-21T15:47:19.91Z</time></trkpt><trkpt lat="44.9288413" lon="7.156907"><ele>1090.3999999999999</ele><time>2026-04-21T15:47:20.911Z</time></trkpt><trkpt lat="44.9287478" lon="7.1570052"><ele>1094.8</ele><time>2026-04-21T15:47:21.91Z</time></trkpt><trkpt lat="44.9286587" lon="7.1570934"><ele>1099.1999999999998</ele><time>2026-04-21T15:47:22.911Z</time></trkpt><trkpt lat="44.9285789" lon="7.1571663"><ele>1103.6</ele><time>2026-04-21T15:47:23.912Z</time></trkpt><trkpt lat="44.928495" lon="7.1572259"><ele>1108.0</ele><time>2026-04-21T15:47:24.911Z</time></trkpt><trkpt lat="44.9284034" lon="7.157256"><ele>1109.1666666666665</ele><time>2026-04-21T15:47:25.912Z</time></trkpt><trkpt lat="44.9283109" lon="7.15724"><ele>1110.3333333333333</ele><time>2026-04-21T15:47:26.912Z</time></trkpt><trkpt lat="44.9282168" lon="7.1572271"><ele>1111.5</ele><time>2026-04-21T15:47:27.911Z</time></trkpt><trkpt lat="44.928139" lon="7.1572345"><ele>1112.6666666666667</ele><time>2026-04-21T15:47:28.91Z</time></trkpt><trkpt lat="44.9280432" lon="7.1572831"><ele>1113.8333333333335</ele><time>2026-04-21T15:47:30.912Z</time></trkpt><trkpt lat="44.9280541" lon="7.1573879"><ele>1115.0</ele><time>2026-04-21T15:47:32.91Z</time></trkpt><trkpt lat="44.9281689" lon="7.1574205"><ele>1115.0</ele><time>2026-04-21T15:47:34.912Z</time></trkpt><trkpt lat="44.9282427" lon="7.157445"><ele>1115.0</ele><time>2026-04-21T15:47:35.911Z</time></trkpt><trkpt lat="44.9283019" lon="7.1574816"><ele>1115.0</ele><time>2026-04-21T15:47:36.91Z</time></trkpt><trkpt lat="44.9283638" lon="7.1575318"><ele>1115.0</ele><time>2026-04-21T15:47:37.911Z</time></trkpt><trkpt lat="44.9284304" lon="7.1575863"><ele>1115.0</ele><time>2026-04-21T15:47:38.91Z</time></trkpt><trkpt lat="44.9284983" lon="7.1576244"><ele>1115.0</ele><time>2026-04-21T15:47:39.912Z</time></trkpt><trkpt lat="44.9285743" lon="7.1576298"><ele>1115.0</ele><time>2026-04-21T15:47:40.911Z</time></trkpt><trkpt lat="44.9286486" lon="7.157595"><ele>1113.6</ele><time>2026-04-21T15:47:41.912Z</time></trkpt><trkpt lat="44.9287344" lon="7.1575165"><ele>1112.2</ele><time>2026-04-21T15:47:42.91Z</time></trkpt><trkpt lat="44.9288241" lon="7.1574391"><ele>1110.8</ele><time>2026-04-21T15:47:43.912Z</time></trkpt><trkpt lat="44.9289106" lon="7.1573762"><ele>1109.4</ele><time>2026-04-21T15:47:44.912Z</time></trkpt><trkpt lat="44.9290115" lon="7.1573114"><ele>1108.0</ele><time>2026-04-21T15:47:45.912Z</time></trkpt><trkpt lat="44.9291197" lon="7.1572509"><ele>1108.0</ele><time>2026-04-21T15:47:46.911Z</time></trkpt><trkpt lat="44.9292155" lon="7.1572055"><ele>1108.0</ele><time>2026-04-21T15:47:47.911Z</time></trkpt><trkpt lat="44.9293174" lon="7.1571513"><ele>1108.0</ele><time>2026-04-21T15:47:48.912Z</time></trkpt><trkpt lat="44.9294046" lon="7.1570919"><ele>1108.0</ele><time>2026-04-21T15:47:49.911Z</time></trkpt><trkpt lat="44.9294883" lon="7.1570108"><ele>1108.0</ele><time>2026-04-21T15:47:50.91Z</time></trkpt><trkpt lat="44.9295604" lon="7.1569295"><ele>1109.1666666666665</ele><time>2026-04-21T15:47:51.911Z</time></trkpt><trkpt lat="44.9296215" lon="7.1568611"><ele>1110.3333333333333</ele><time>2026-04-21T15:47:52.911Z</time></trkpt><trkpt lat="44.929685" lon="7.1567958"><ele>1111.5</ele><time>2026-04-21T15:47:53.911Z</time></trkpt><trkpt lat="44.9297494" lon="7.1567368"><ele>1112.6666666666667</ele><time>2026-04-21T15:47:54.911Z</time></trkpt><trkpt lat="44.9298098" lon="7.1566824"><ele>1113.8333333333335</ele><time>2026-04-21T15:47:55.91Z</time></trkpt><trkpt lat="44.929918" lon="7.1566206"><ele>1115.0</ele><time>2026-04-21T15:47:57.91Z</time></trkpt><trkpt lat="44.9300188" lon="7.1566591"><ele>1115.0</ele><time>2026-04-21T15:47:59.91Z</time></trkpt><trkpt lat="44.9300743" lon="7.156793"><ele>1115.0</ele><time>2026-04-21T15:48:01.91Z</time></trkpt><trkpt lat="44.930081" lon="7.1568837"><ele>1115.0</ele><time>2026-04-21T15:48:02.91Z</time></trkpt><trkpt lat="44.9300731" lon="7.1569794"><ele>1115.0</ele><time>2026-04-21T15:48:03.912Z</time></trkpt><trkpt lat="44.9300567" lon="7.1570933"><ele>1115.0</ele><time>2026-04-21T15:48:04.912Z</time></trkpt><trkpt lat="44.9300355" lon="7.1572213"><ele>1115.0</ele><time>2026-04-21T15:48:05.911Z</time></trkpt><trkpt lat="44.9300127" lon="7.1573641"><ele>1117.2</ele><time>2026-04-21T15:48:06.911Z</time></trkpt><trkpt lat="44.929996" lon="7.1575144"><ele>1119.4</ele><time>2026-04-21T15:48:07.91Z</time></trkpt><trkpt lat="44.9299873" lon="7.1576714"><ele>1121.6</ele><time>2026-04-21T15:48:08.911Z</time></trkpt><trkpt lat="44.9299914" lon="7.1578302"><ele>1123.8</ele><time>2026-04-21T15:48:09.912Z</time></trkpt><trkpt lat="44.9300044" lon="7.1579832"><ele>1126.0</ele><time>2026-04-21T15:48:10.911Z</time></trkpt><trkpt lat="44.9300189" lon="7.1581344"><ele>1128.0</ele><time>2026-04-21T15:48:11.912Z</time></trkpt><trkpt lat="44.9300275" lon="7.1582953"><ele>1130.0</ele><time>2026-04-21T15:48:12.91Z</time></trkpt><trkpt lat="44.9300316" lon="7.1584544"><ele>1132.0</ele><time>2026-04-21T15:48:13.912Z</time></trkpt><trkpt lat="44.9300229" lon="7.1586071"><ele>1134.0</ele><time>2026-04-21T15:48:14.911Z</time></trkpt><trkpt lat="44.9299903" lon="7.1587516"><ele>1136.0</ele><time>2026-04-21T15:48:15.911Z</time></trkpt><trkpt lat="44.9299467" lon="7.1588875"><ele>1136.0</ele><time>2026-04-21T15:48:16.911Z</time></trkpt><trkpt lat="44.9299132" lon="7.1590239"><ele>1136.0</ele><time>2026-04-21T15:48:17.911Z</time></trkpt><trkpt lat="44.9298906" lon="7.1591508"><ele>1136.0</ele><time>2026-04-21T15:48:18.911Z</time></trkpt><trkpt lat="44.9298698" lon="7.1592726"><ele>1136.0</ele><time>2026-04-21T15:48:19.912Z</time></trkpt><trkpt lat="44.9298506" lon="7.1594032"><ele>1136.0</ele><time>2026-04-21T15:48:20.912Z</time></trkpt><trkpt lat="44.9298247" lon="7.1595341"><ele>1137.0</ele><time>2026-04-21T15:48:21.912Z</time></trkpt><trkpt lat="44.9297942" lon="7.1596618"><ele>1138.0</ele><time>2026-04-21T15:48:22.911Z</time></trkpt><trkpt lat="44.9297679" lon="7.1597649"><ele>1139.0</ele><time>2026-04-21T15:48:23.911Z</time></trkpt><trkpt lat="44.9297418" lon="7.1598732"><ele>1140.0</ele><time>2026-04-21T15:48:24.91Z</time></trkpt><trkpt lat="44.9296614" lon="7.1599178"><ele>1141.0</ele><time>2026-04-21T15:48:27.91Z</time></trkpt><trkpt lat="44.9296436" lon="7.1597902"><ele>1142.0</ele><time>2026-04-21T15:48:29.911Z</time></trkpt><trkpt lat="44.9296514" lon="7.1595867"><ele>1142.0</ele><time>2026-04-21T15:48:31.911Z</time></trkpt><trkpt lat="44.9296342" lon="7.1594552"><ele>1142.0</ele><time>2026-04-21T15:48:32.912Z</time></trkpt><trkpt lat="44.929609" lon="7.1593036"><ele>1142.0</ele><time>2026-04-21T15:48:33.912Z</time></trkpt><trkpt lat="44.9295914" lon="7.1591795"><ele>1142.0</ele><time>2026-04-21T15:48:34.912Z</time></trkpt><trkpt lat="44.9295729" lon="7.1590735"><ele>1142.0</ele><time>2026-04-21T15:48:35.911Z</time></trkpt><trkpt lat="44.9295394" lon="7.1589964"><ele>1142.0</ele><time>2026-04-21T15:48:36.91Z</time></trkpt><trkpt lat="44.9294877" lon="7.1589235"><ele>1142.0</ele><time>2026-04-21T15:48:37.912Z</time></trkpt><trkpt lat="44.9294266" lon="7.1588665"><ele>1142.0</ele><time>2026-04-21T15:48:38.911Z</time></trkpt><trkpt lat="44.9293655" lon="7.158836"><ele>1142.0</ele><time>2026-04-21T15:48:39.911Z</time></trkpt><trkpt lat="44.929267" lon="7.1588678"><ele>1142.0</ele><time>2026-04-21T15:48:41.911Z</time></trkpt><trkpt lat="44.9292554" lon="7.1589812"><ele>1142.0</ele><time>2026-04-21T15:48:43.91Z</time></trkpt><trkpt lat="44.9293406" lon="7.1591066"><ele>1142.0</ele><time>2026-04-21T15:48:45.912Z</time></trkpt><trkpt lat="44.9293793" lon="7.1592364"><ele>1142.0</ele><time>2026-04-21T15:48:47.911Z</time></trkpt><trkpt lat="44.9293996" lon="7.1594108"><ele>1142.0</ele><time>2026-04-21T15:48:49.91Z</time></trkpt><trkpt lat="44.9293934" lon="7.1595628"><ele>1142.0</ele><time>2026-04-21T15:48:51.912Z</time></trkpt><trkpt lat="44.9293526" lon="7.1597309"><ele>1142.0</ele><time>2026-04-21T15:48:53.911Z</time></trkpt><trkpt lat="44.9293283" lon="7.1598162"><ele>1142.0</ele><time>2026-04-21T15:48:54.912Z</time></trkpt><trkpt lat="44.9293056" lon="7.1599051"><ele>1142.5</ele><time>2026-04-21T15:48:55.912Z</time></trkpt><trkpt lat="44.9292455" lon="7.1600584"><ele>1143.0</ele><time>2026-04-21T15:48:57.911Z</time></trkpt><trkpt lat="44.9291516" lon="7.160158"><ele>1143.5</ele><time>2026-04-21T15:48:59.911Z</time></trkpt><trkpt lat="44.9290875" lon="7.1601852"><ele>1144.0</ele><time>2026-04-21T15:49:00.912Z</time></trkpt><trkpt lat="44.9290237" lon="7.1602105"><ele>1144.5</ele><time>2026-04-21T15:49:01.912Z</time></trkpt><trkpt lat="44.928967" lon="7.1602556"><ele>1145.0</ele><time>2026-04-21T15:49:02.911Z</time></trkpt><trkpt lat="44.9289218" lon="7.1603222"><ele>1148.5</ele><time>2026-04-21T15:49:03.911Z</time></trkpt><trkpt lat="44.9289259" lon="7.1605023"><ele>1152.0</ele><time>2026-04-21T15:49:05.911Z</time></trkpt><trkpt lat="44.9289182" lon="7.1605963"><ele>1155.5</ele><time>2026-04-21T15:49:06.912Z</time></trkpt><trkpt lat="44.9289208" lon="7.1607001"><ele>1159.0</ele><time>2026-04-21T15:49:07.911Z</time></trkpt><trkpt lat="44.9289284" lon="7.160819"><ele>1162.5</ele><time>2026-04-21T15:49:08.91Z</time></trkpt><trkpt lat="44.9289356" lon="7.1609289"><ele>1166.0</ele><time>2026-04-21T15:49:09.911Z</time></trkpt><trkpt lat="44.9289391" lon="7.1610423"><ele>1166.6666666666667</ele><time>2026-04-21T15:49:10.91Z</time></trkpt><trkpt lat="44.9289749" lon="7.1611593"><ele>1167.3333333333335</ele><time>2026-04-21T15:49:11.911Z</time></trkpt><trkpt lat="44.9289847" lon="7.1612709"><ele>1168.0</ele><time>2026-04-21T15:49:12.91Z</time></trkpt><trkpt lat="44.9290008" lon="7.1613743"><ele>1168.6666666666667</ele><time>2026-04-21T15:49:13.911Z</time></trkpt><trkpt lat="44.9290038" lon="7.161483"><ele>1169.3333333333333</ele><time>2026-04-21T15:49:14.911Z</time></trkpt><trkpt lat="44.9289897" lon="7.1615851"><ele>1170.0</ele><time>2026-04-21T15:49:15.911Z</time></trkpt><trkpt lat="44.9289829" lon="7.1616803"><ele>1171.0</ele><time>2026-04-21T15:49:16.91Z</time></trkpt><trkpt lat="44.9289752" lon="7.1617838"><ele>1172.0</ele><time>2026-04-21T15:49:17.91Z</time></trkpt><trkpt lat="44.9289607" lon="7.1618909"><ele>1173.0</ele><time>2026-04-21T15:49:18.91Z</time></trkpt><trkpt lat="44.9289244" lon="7.1620111"><ele>1174.0</ele><time>2026-04-21T15:49:19.911Z</time></trkpt><trkpt lat="44.9289163" lon="7.1621136"><ele>1175.0</ele><time>2026-04-21T15:49:20.91Z</time></trkpt><trkpt lat="44.9289024" lon="7.1622313"><ele>1176.0</ele><time>2026-04-21T15:49:21.911Z</time></trkpt><trkpt lat="44.9288872" lon="7.1623326"><ele>1177.0</ele><time>2026-04-21T15:49:22.911Z</time></trkpt><trkpt lat="44.9288577" lon="7.1624388"><ele>1178.0</ele><time>2026-04-21T15:49:23.911Z</time></trkpt><trkpt lat="44.9288276" lon="7.1625263"><ele>1179.0</ele><time>2026-04-21T15:49:24.912Z</time></trkpt><trkpt lat="44.9287935" lon="7.1626463"><ele>1180.0</ele><time>2026-04-21T15:49:26.91Z</time></trkpt><trkpt lat="44.9287484" lon="7.1627416"><ele>1181.0</ele><time>2026-04-21T15:49:28.911Z</time></trkpt><trkpt lat="44.9286775" lon="7.1627036"><ele>1182.0</ele><time>2026-04-21T15:49:30.911Z</time></trkpt><trkpt lat="44.9286748" lon="7.1625928"><ele>1182.0</ele><time>2026-04-21T15:49:32.91Z</time></trkpt><trkpt lat="44.928675" lon="7.1624761"><ele>1182.0</ele><time>2026-04-21T15:49:34.912Z</time></trkpt><trkpt lat="44.9286597" lon="7.16233"><ele>1182.0</ele><time>2026-04-21T15:49:36.912Z</time></trkpt><trkpt lat="44.9286352" lon="7.1622461"><ele>1182.0</ele><time>2026-04-21T15:49:37.912Z</time></trkpt><trkpt lat="44.9285937" lon="7.1621021"><ele>1182.0</ele><time>2026-04-21T15:49:39.91Z</time></trkpt><trkpt lat="44.9285445" lon="7.1619658"><ele>1180.8</ele><time>2026-04-21T15:49:41.912Z</time></trkpt><trkpt lat="44.9284932" lon="7.1618152"><ele>1179.6</ele><time>2026-04-21T15:49:43.912Z</time></trkpt><trkpt lat="44.9284359" lon="7.161674"><ele>1178.3999999999999</ele><time>2026-04-21T15:49:45.912Z</time></trkpt><trkpt lat="44.928396" lon="7.1615708"><ele>1177.2</ele><time>2026-04-21T15:49:46.912Z</time></trkpt><trkpt lat="44.9283588" lon="7.1614701"><ele>1176.0</ele><time>2026-04-21T15:49:47.912Z</time></trkpt><trkpt lat="44.9283232" lon="7.1613851"><ele>1178.0</ele><time>2026-04-21T15:49:48.911Z</time></trkpt><trkpt lat="44.9282901" lon="7.161292"><ele>1180.0</ele><time>2026-04-21T15:49:49.91Z</time></trkpt><trkpt lat="44.9282241" lon="7.1611496"><ele>1182.0</ele><time>2026-04-21T15:49:51.912Z</time></trkpt><trkpt lat="44.9281785" lon="7.1610825"><ele>1184.0</ele><time>2026-04-21T15:49:52.911Z</time></trkpt><trkpt lat="44.92812" lon="7.1610244"><ele>1186.0</ele><time>2026-04-21T15:49:53.911Z</time></trkpt><trkpt lat="44.9280618" lon="7.1609797"><ele>1188.0</ele><time>2026-04-21T15:49:54.912Z</time></trkpt><trkpt lat="44.927997" lon="7.1609303"><ele>1188.0</ele><time>2026-04-21T15:49:55.912Z</time></trkpt><trkpt lat="44.9279393" lon="7.1608887"><ele>1188.0</ele><time>2026-04-21T15:49:56.911Z</time></trkpt><trkpt lat="44.9278399" lon="7.1608095"><ele>1188.0</ele><time>2026-04-21T15:49:58.91Z</time></trkpt><trkpt lat="44.9277748" lon="7.160759"><ele>1188.0</ele><time>2026-04-21T15:50:00.91Z</time></trkpt><trkpt lat="44.9277132" lon="7.1607879"><ele>1188.0</ele><time>2026-04-21T15:50:09.91Z</time></trkpt><trkpt lat="44.9277368" lon="7.1609063"><ele>1188.0</ele><time>2026-04-21T15:50:12.911Z</time></trkpt><trkpt lat="44.9278111" lon="7.1609788"><ele>1188.0</ele><time>2026-04-21T15:50:14.911Z</time></trkpt><trkpt lat="44.9278789" lon="7.1611015"><ele>1188.0</ele><time>2026-04-21T15:50:16.911Z</time></trkpt><trkpt lat="44.9279289" lon="7.1612418"><ele>1188.0</ele><time>2026-04-21T15:50:18.911Z</time></trkpt><trkpt lat="44.9279694" lon="7.1613892"><ele>1188.0</ele><time>2026-04-21T15:50:20.91Z</time></trkpt><trkpt lat="44.9279917" lon="7.1615485"><ele>1188.0</ele><time>2026-04-21T15:50:22.911Z</time></trkpt><trkpt lat="44.9280036" lon="7.1616496"><ele>1191.75</ele><time>2026-04-21T15:50:23.912Z</time></trkpt><trkpt lat="44.9280119" lon="7.1617467"><ele>1195.5</ele><time>2026-04-21T15:50:24.91Z</time></trkpt><trkpt lat="44.9280152" lon="7.1619235"><ele>1199.25</ele><time>2026-04-21T15:50:26.911Z</time></trkpt><trkpt lat="44.9280266" lon="7.1621004"><ele>1203.0</ele><time>2026-04-21T15:50:28.911Z</time></trkpt><trkpt lat="44.9280387" lon="7.1622844"><ele>1204.0</ele><time>2026-04-21T15:50:30.911Z</time></trkpt><trkpt lat="44.9280373" lon="7.1623743"><ele>1205.0</ele><time>2026-04-21T15:50:31.912Z</time></trkpt><trkpt lat="44.9280246" lon="7.1624662"><ele>1206.0</ele><time>2026-04-21T15:50:32.91Z</time></trkpt><trkpt lat="44.9279986" lon="7.1625668"><ele>1207.0</ele><time>2026-04-21T15:50:33.911Z</time></trkpt><trkpt lat="44.9279833" lon="7.162656"><ele>1208.0</ele><time>2026-04-21T15:50:34.911Z</time></trkpt><trkpt lat="44.9279693" lon="7.1627509"><ele>1209.0</ele><time>2026-04-21T15:50:35.911Z</time></trkpt><trkpt lat="44.9279464" lon="7.1628399"><ele>1210.0</ele><time>2026-04-21T15:50:36.911Z</time></trkpt><trkpt lat="44.927914" lon="7.1630037"><ele>1210.0</ele><time>2026-04-21T15:50:38.91Z</time></trkpt><trkpt lat="44.9278868" lon="7.1631675"><ele>1210.0</ele><time>2026-04-21T15:50:40.911Z</time></trkpt><trkpt lat="44.9278646" lon="7.1633018"><ele>1210.0</ele><time>2026-04-21T15:50:42.911Z</time></trkpt><trkpt lat="44.9277851" lon="7.1633224"><ele>1210.0</ele><time>2026-04-21T15:50:44.911Z</time></trkpt><trkpt lat="44.9277743" lon="7.1632099"><ele>1210.0</ele><time>2026-04-21T15:50:46.912Z</time></trkpt><trkpt lat="44.9277768" lon="7.1630775"><ele>1210.0</ele><time>2026-04-21T15:50:48.91Z</time></trkpt><trkpt lat="44.9277558" lon="7.1629176"><ele>1210.0</ele><time>2026-04-21T15:50:50.912Z</time></trkpt><trkpt lat="44.9277218" lon="7.1628412"><ele>1210.0</ele><time>2026-04-21T15:50:51.911Z</time></trkpt><trkpt lat="44.9276851" lon="7.1627621"><ele>1210.0</ele><time>2026-04-21T15:50:52.911Z</time></trkpt><trkpt lat="44.9276273" lon="7.1626167"><ele>1210.0</ele><time>2026-04-21T15:50:54.911Z</time></trkpt><trkpt lat="44.9275711" lon="7.1625062"><ele>1214.5</ele><time>2026-04-21T15:50:56.91Z</time></trkpt><trkpt lat="44.9275091" lon="7.1624022"><ele>1219.0</ele><time>2026-04-21T15:50:58.912Z</time></trkpt><trkpt lat="44.9274109" lon="7.1622871"><ele>1223.5</ele><time>2026-04-21T15:51:00.911Z</time></trkpt><trkpt lat="44.9272989" lon="7.1622059"><ele>1228.0</ele><time>2026-04-21T15:51:02.912Z</time></trkpt><trkpt lat="44.9271912" lon="7.1621243"><ele>1228.0</ele><time>2026-04-21T15:51:04.911Z</time></trkpt><trkpt lat="44.9271328" lon="7.1620675"><ele>1228.0</ele><time>2026-04-21T15:51:05.911Z</time></trkpt><trkpt lat="44.9270652" lon="7.1620205"><ele>1228.0</ele><time>2026-04-21T15:51:06.911Z</time></trkpt><trkpt lat="44.9269543" lon="7.1619414"><ele>1228.0</ele><time>2026-04-21T15:51:08.912Z</time></trkpt><trkpt lat="44.9269013" lon="7.1618865"><ele>1228.0</ele><time>2026-04-21T15:51:09.912Z</time></trkpt><trkpt lat="44.9268357" lon="7.1618485"><ele>1228.0</ele><time>2026-04-21T15:51:10.912Z</time></trkpt><trkpt lat="44.9267687" lon="7.1617964"><ele>1228.6</ele><time>2026-04-21T15:51:11.912Z</time></trkpt><trkpt lat="44.9266613" lon="7.1617332"><ele>1229.1999999999998</ele><time>2026-04-21T15:51:13.91Z</time></trkpt><trkpt lat="44.9265482" lon="7.1616533"><ele>1229.8</ele><time>2026-04-21T15:51:15.909Z</time></trkpt><trkpt lat="44.9264363" lon="7.1615536"><ele>1230.3999999999999</ele><time>2026-04-21T15:51:17.911Z</time></trkpt><trkpt lat="44.9263936" lon="7.1614823"><ele>1231.0</ele><time>2026-04-21T15:51:18.911Z</time></trkpt><trkpt lat="44.9263119" lon="7.1613605"><ele>1231.0</ele><time>2026-04-21T15:51:20.911Z</time></trkpt><trkpt lat="44.926264" lon="7.1612976"><ele>1231.0</ele><time>2026-04-21T15:51:21.91Z</time></trkpt><trkpt lat="44.9261889" lon="7.1611771"><ele>1231.0</ele><time>2026-04-21T15:51:23.91Z</time></trkpt><trkpt lat="44.9261216" lon="7.1611168"><ele>1231.0</ele><time>2026-04-21T15:51:25.909Z</time></trkpt><trkpt lat="44.9260692" lon="7.1611815"><ele>1231.0</ele><time>2026-04-21T15:51:27.91Z</time></trkpt><trkpt lat="44.9260891" lon="7.1613085"><ele>1231.0</ele><time>2026-04-21T15:51:29.909Z</time></trkpt><trkpt lat="44.9261241" lon="7.1614712"><ele>1234.0</ele><time>2026-04-21T15:51:31.91Z</time></trkpt><trkpt lat="44.9261396" lon="7.1615697"><ele>1237.0</ele><time>2026-04-21T15:51:32.911Z</time></trkpt><trkpt lat="44.9261536" lon="7.1616617"><ele>1240.0</ele><time>2026-04-21T15:51:33.91Z</time></trkpt><trkpt lat="44.9261739" lon="7.1617466"><ele>1243.0</ele><time>2026-04-21T15:51:34.909Z</time></trkpt><trkpt lat="44.9262038" lon="7.1618994"><ele>1246.0</ele><time>2026-04-21T15:51:36.909Z</time></trkpt><trkpt lat="44.9262341" lon="7.1620037"><ele>1249.0</ele><time>2026-04-21T15:51:37.911Z</time></trkpt><trkpt lat="44.9262582" lon="7.1620896"><ele>1249.0</ele><time>2026-04-21T15:51:38.911Z</time></trkpt><trkpt lat="44.9262886" lon="7.1621813"><ele>1249.0</ele><time>2026-04-21T15:51:39.909Z</time></trkpt><trkpt lat="44.9263225" lon="7.1622845"><ele>1249.0</ele><time>2026-04-21T15:51:40.911Z</time></trkpt><trkpt lat="44.9263581" lon="7.1623912"><ele>1249.0</ele><time>2026-04-21T15:51:41.911Z</time></trkpt><trkpt lat="44.9263892" lon="7.1624917"><ele>1249.0</ele><time>2026-04-21T15:51:42.91Z</time></trkpt><trkpt lat="44.9264197" lon="7.1625899"><ele>1249.0</ele><time>2026-04-21T15:51:43.911Z</time></trkpt><trkpt lat="44.9264439" lon="7.1626812"><ele>1251.4285714285713</ele><time>2026-04-21T15:51:44.91Z</time></trkpt><trkpt lat="44.9264737" lon="7.1627655"><ele>1253.857142857143</ele><time>2026-04-21T15:51:45.909Z</time></trkpt><trkpt lat="44.9264994" lon="7.1628619"><ele>1256.2857142857142</ele><time>2026-04-21T15:51:46.91Z</time></trkpt><trkpt lat="44.926518" lon="7.1629549"><ele>1258.7142857142858</ele><time>2026-04-21T15:51:47.909Z</time></trkpt><trkpt lat="44.9265423" lon="7.1630547"><ele>1261.142857142857</ele><time>2026-04-21T15:51:48.91Z</time></trkpt><trkpt lat="44.926553" lon="7.1631538"><ele>1263.5714285714284</ele><time>2026-04-21T15:51:49.909Z</time></trkpt><trkpt lat="44.9265606" lon="7.1632559"><ele>1266.0</ele><time>2026-04-21T15:51:50.91Z</time></trkpt><trkpt lat="44.9265623" lon="7.1633711"><ele>1268.1666666666667</ele><time>2026-04-21T15:51:51.909Z</time></trkpt><trkpt lat="44.9265332" lon="7.1635434"><ele>1270.3333333333333</ele><time>2026-04-21T15:51:53.91Z</time></trkpt><trkpt lat="44.9265304" lon="7.1636458"><ele>1272.5</ele><time>2026-04-21T15:51:54.911Z</time></trkpt><trkpt lat="44.9265269" lon="7.1637574"><ele>1274.6666666666665</ele><time>2026-04-21T15:51:55.909Z</time></trkpt><trkpt lat="44.9265173" lon="7.1638784"><ele>1276.8333333333333</ele><time>2026-04-21T15:51:56.911Z</time></trkpt><trkpt lat="44.9264988" lon="7.1639892"><ele>1279.0</ele><time>2026-04-21T15:51:57.91Z</time></trkpt><trkpt lat="44.9264821" lon="7.1641056"><ele>1280.3333333333333</ele><time>2026-04-21T15:51:58.91Z</time></trkpt><trkpt lat="44.9264708" lon="7.1642178"><ele>1281.6666666666665</ele><time>2026-04-21T15:51:59.909Z</time></trkpt><trkpt lat="44.9264527" lon="7.1643359"><ele>1283.0</ele><time>2026-04-21T15:52:00.911Z</time></trkpt><trkpt lat="44.9264338" lon="7.1644546"><ele>1284.3333333333333</ele><time>2026-04-21T15:52:01.91Z</time></trkpt><trkpt lat="44.9264146" lon="7.1645466"><ele>1285.6666666666667</ele><time>2026-04-21T15:52:02.909Z</time></trkpt><trkpt lat="44.9263847" lon="7.1647116"><ele>1287.0</ele><time>2026-04-21T15:52:04.909Z</time></trkpt><trkpt lat="44.9263645" lon="7.1648292"><ele>1287.6666666666667</ele><time>2026-04-21T15:52:05.91Z</time></trkpt><trkpt lat="44.9263453" lon="7.1649417"><ele>1288.3333333333333</ele><time>2026-04-21T15:52:06.91Z</time></trkpt><trkpt lat="44.926335" lon="7.165054"><ele>1289.0</ele><time>2026-04-21T15:52:07.91Z</time></trkpt><trkpt lat="44.9263191" lon="7.1651632"><ele>1289.6666666666665</ele><time>2026-04-21T15:52:08.91Z</time></trkpt><trkpt lat="44.9262908" lon="7.165269"><ele>1290.3333333333333</ele><time>2026-04-21T15:52:09.909Z</time></trkpt><trkpt lat="44.9262565" lon="7.1653662"><ele>1291.0</ele><time>2026-04-21T15:52:10.91Z</time></trkpt><trkpt lat="44.9262306" lon="7.1654646"><ele>1291.0</ele><time>2026-04-21T15:52:11.911Z</time></trkpt><trkpt lat="44.9262089" lon="7.1655509"><ele>1291.0</ele><time>2026-04-21T15:52:12.909Z</time></trkpt><trkpt lat="44.9261759" lon="7.1656751"><ele>1291.0</ele><time>2026-04-21T15:52:14.91Z</time></trkpt><trkpt lat="44.92617" lon="7.1657935"><ele>1291.0</ele><time>2026-04-21T15:52:26.91Z</time></trkpt><trkpt lat="44.9261724" lon="7.1659399"><ele>1291.0</ele><time>2026-04-21T15:52:28.91Z</time></trkpt><trkpt lat="44.9261673" lon="7.166107"><ele>1290.8333333333333</ele><time>2026-04-21T15:52:30.91Z</time></trkpt><trkpt lat="44.9261561" lon="7.1662702"><ele>1290.6666666666665</ele><time>2026-04-21T15:52:32.91Z</time></trkpt><trkpt lat="44.9261361" lon="7.1663774"><ele>1290.5</ele><time>2026-04-21T15:52:33.911Z</time></trkpt><trkpt lat="44.9261218" lon="7.1664765"><ele>1290.3333333333333</ele><time>2026-04-21T15:52:34.911Z</time></trkpt><trkpt lat="44.9261069" lon="7.1665786"><ele>1290.1666666666667</ele><time>2026-04-21T15:52:35.909Z</time></trkpt><trkpt lat="44.9260986" lon="7.1666796"><ele>1290.0</ele><time>2026-04-21T15:52:36.91Z</time></trkpt><trkpt lat="44.9260882" lon="7.1668533"><ele>1290.3333333333333</ele><time>2026-04-21T15:52:38.911Z</time></trkpt><trkpt lat="44.9260894" lon="7.1669442"><ele>1290.6666666666667</ele><time>2026-04-21T15:52:39.91Z</time></trkpt><trkpt lat="44.9260775" lon="7.167033"><ele>1291.0</ele><time>2026-04-21T15:52:40.91Z</time></trkpt><trkpt lat="44.9260645" lon="7.167128"><ele>1291.3333333333335</ele><time>2026-04-21T15:52:41.91Z</time></trkpt><trkpt lat="44.9260415" lon="7.1672414"><ele>1291.6666666666667</ele><time>2026-04-21T15:52:42.911Z</time></trkpt><trkpt lat="44.9260211" lon="7.1673632"><ele>1292.0</ele><time>2026-04-21T15:52:43.91Z</time></trkpt><trkpt lat="44.9260073" lon="7.1674828"><ele>1293.5</ele><time>2026-04-21T15:52:44.91Z</time></trkpt><trkpt lat="44.926012" lon="7.1675958"><ele>1295.0</ele><time>2026-04-21T15:52:45.91Z</time></trkpt><trkpt lat="44.9260368" lon="7.1676846"><ele>1296.5</ele><time>2026-04-21T15:52:46.91Z</time></trkpt><trkpt lat="44.9260566" lon="7.1677861"><ele>1298.0</ele><time>2026-04-21T15:52:47.91Z</time></trkpt><trkpt lat="44.9260808" lon="7.1678892"><ele>1299.5</ele><time>2026-04-21T15:52:48.911Z</time></trkpt><trkpt lat="44.9261167" lon="7.1680039"><ele>1301.0</ele><time>2026-04-21T15:52:49.909Z</time></trkpt><trkpt lat="44.9261427" lon="7.1681144"><ele>1303.1666666666667</ele><time>2026-04-21T15:52:50.91Z</time></trkpt><trkpt lat="44.9261633" lon="7.1682125"><ele>1305.3333333333335</ele><time>2026-04-21T15:52:51.91Z</time></trkpt><trkpt lat="44.9261913" lon="7.1683122"><ele>1307.5</ele><time>2026-04-21T15:52:52.911Z</time></trkpt><trkpt lat="44.9262377" lon="7.1684983"><ele>1309.6666666666667</ele><time>2026-04-21T15:52:54.91Z</time></trkpt><trkpt lat="44.9262603" lon="7.1685855"><ele>1311.8333333333333</ele><time>2026-04-21T15:52:55.91Z</time></trkpt><trkpt lat="44.9262865" lon="7.1686884"><ele>1314.0</ele><time>2026-04-21T15:52:56.909Z</time></trkpt><trkpt lat="44.9263122" lon="7.1688008"><ele>1314.0</ele><time>2026-04-21T15:52:57.909Z</time></trkpt><trkpt lat="44.9263368" lon="7.1689201"><ele>1314.0</ele><time>2026-04-21T15:52:58.909Z</time></trkpt><trkpt lat="44.9263487" lon="7.1690362"><ele>1314.0</ele><time>2026-04-21T15:52:59.91Z</time></trkpt><trkpt lat="44.9263682" lon="7.169154"><ele>1314.0</ele><time>2026-04-21T15:53:00.91Z</time></trkpt><trkpt lat="44.9263881" lon="7.169256"><ele>1314.0</ele><time>2026-04-21T15:53:01.91Z</time></trkpt><trkpt lat="44.9264168" lon="7.1693663"><ele>1314.0</ele><time>2026-04-21T15:53:02.91Z</time></trkpt><trkpt lat="44.9264291" lon="7.1694576"><ele>1316.3333333333333</ele><time>2026-04-21T15:53:03.91Z</time></trkpt><trkpt lat="44.9264507" lon="7.1695607"><ele>1318.6666666666667</ele><time>2026-04-21T15:53:04.909Z</time></trkpt><trkpt lat="44.9264877" lon="7.1697308"><ele>1321.0</ele><time>2026-04-21T15:53:06.911Z</time></trkpt><trkpt lat="44.9265178" lon="7.1698207"><ele>1323.3333333333335</ele><time>2026-04-21T15:53:07.91Z</time></trkpt><trkpt lat="44.9265531" lon="7.1699068"><ele>1325.6666666666667</ele><time>2026-04-21T15:53:08.911Z</time></trkpt><trkpt lat="44.9266101" lon="7.1700197"><ele>1328.0</ele><time>2026-04-21T15:53:09.91Z</time></trkpt><trkpt lat="44.926666" lon="7.1701291"><ele>1328.4</ele><time>2026-04-21T15:53:10.91Z</time></trkpt><trkpt lat="44.9267745" lon="7.1702233"><ele>1328.8000000000002</ele><time>2026-04-21T15:53:11.91Z</time></trkpt><trkpt lat="44.9268463" lon="7.1703337"><ele>1329.2</ele><time>2026-04-21T15:53:12.909Z</time></trkpt><trkpt lat="44.9269142" lon="7.1704189"><ele>1329.6</ele><time>2026-04-21T15:53:13.91Z</time></trkpt><trkpt lat="44.9269808" lon="7.1705214"><ele>1330.0</ele><time>2026-04-21T15:53:14.91Z</time></trkpt><trkpt lat="44.9270541" lon="7.1706418"><ele>1332.5</ele><time>2026-04-21T15:53:15.909Z</time></trkpt><trkpt lat="44.9271266" lon="7.1707406"><ele>1335.0</ele><time>2026-04-21T15:53:16.91Z</time></trkpt><trkpt lat="44.9271859" lon="7.1708358"><ele>1337.5</ele><time>2026-04-21T15:53:17.909Z</time></trkpt><trkpt lat="44.927233" lon="7.1709129"><ele>1340.0</ele><time>2026-04-21T15:53:18.91Z</time></trkpt><trkpt lat="44.9272795" lon="7.1710134"><ele>1342.5</ele><time>2026-04-21T15:53:19.911Z</time></trkpt><trkpt lat="44.9273343" lon="7.1711151"><ele>1345.0</ele><time>2026-04-21T15:53:20.911Z</time></trkpt><trkpt lat="44.9273547" lon="7.1712242"><ele>1345.0</ele><time>2026-04-21T15:53:21.91Z</time></trkpt><trkpt lat="44.9273888" lon="7.1713246"><ele>1345.0</ele><time>2026-04-21T15:53:22.911Z</time></trkpt><trkpt lat="44.9274214" lon="7.1714235"><ele>1345.0</ele><time>2026-04-21T15:53:23.91Z</time></trkpt><trkpt lat="44.9274488" lon="7.1715343"><ele>1345.0</ele><time>2026-04-21T15:53:24.909Z</time></trkpt><trkpt lat="44.927464" lon="7.1716457"><ele>1345.0</ele><time>2026-04-21T15:53:25.911Z</time></trkpt><trkpt lat="44.9274925" lon="7.1717568"><ele>1345.0</ele><time>2026-04-21T15:53:26.91Z</time></trkpt><trkpt lat="44.9275225" lon="7.1718542"><ele>1344.6666666666665</ele><time>2026-04-21T15:53:27.91Z</time></trkpt><trkpt lat="44.9275811" lon="7.1719529"><ele>1344.3333333333333</ele><time>2026-04-21T15:53:28.911Z</time></trkpt><trkpt lat="44.9276249" lon="7.17205"><ele>1344.0</ele><time>2026-04-21T15:53:29.91Z</time></trkpt><trkpt lat="44.9276841" lon="7.1721573"><ele>1343.6666666666667</ele><time>2026-04-21T15:53:30.911Z</time></trkpt><trkpt lat="44.9277383" lon="7.1722568"><ele>1343.3333333333335</ele><time>2026-04-21T15:53:31.91Z</time></trkpt><trkpt lat="44.9277864" lon="7.17235"><ele>1343.0</ele><time>2026-04-21T15:53:32.911Z</time></trkpt><trkpt lat="44.9278339" lon="7.1724484"><ele>1345.6666666666667</ele><time>2026-04-21T15:53:33.91Z</time></trkpt><trkpt lat="44.9278883" lon="7.172546"><ele>1348.3333333333335</ele><time>2026-04-21T15:53:34.91Z</time></trkpt><trkpt lat="44.9279309" lon="7.1726503"><ele>1351.0</ele><time>2026-04-21T15:53:35.909Z</time></trkpt><trkpt lat="44.927956" lon="7.1727543"><ele>1353.6666666666667</ele><time>2026-04-21T15:53:36.911Z</time></trkpt><trkpt lat="44.9279866" lon="7.1728678"><ele>1356.3333333333333</ele><time>2026-04-21T15:53:37.911Z</time></trkpt><trkpt lat="44.9280078" lon="7.1729825"><ele>1359.0</ele><time>2026-04-21T15:53:38.91Z</time></trkpt><trkpt lat="44.9280379" lon="7.1730903"><ele>1359.0</ele><time>2026-04-21T15:53:39.911Z</time></trkpt><trkpt lat="44.9280892" lon="7.173172"><ele>1359.0</ele><time>2026-04-21T15:53:40.911Z</time></trkpt><trkpt lat="44.9281469" lon="7.1732382"><ele>1359.0</ele><time>2026-04-21T15:53:41.911Z</time></trkpt><trkpt lat="44.9282492" lon="7.1733086"><ele>1359.0</ele><time>2026-04-21T15:53:43.911Z</time></trkpt><trkpt lat="44.928336" lon="7.1733456"><ele>1359.0</ele><time>2026-04-21T15:53:45.911Z</time></trkpt><trkpt lat="44.9284155" lon="7.1734316"><ele>1359.4</ele><time>2026-04-21T15:53:52.91Z</time></trkpt><trkpt lat="44.9285085" lon="7.173479"><ele>1359.8000000000002</ele><time>2026-04-21T15:53:54.909Z</time></trkpt><trkpt lat="44.9286178" lon="7.1735412"><ele>1360.1999999999998</ele><time>2026-04-21T15:53:56.91Z</time></trkpt><trkpt lat="44.9286772" lon="7.1736092"><ele>1360.6</ele><time>2026-04-21T15:53:57.91Z</time></trkpt><trkpt lat="44.9287346" lon="7.1736882"><ele>1361.0</ele><time>2026-04-21T15:53:58.911Z</time></trkpt><trkpt lat="44.9287834" lon="7.1737837"><ele>1360.9999999999998</ele><time>2026-04-21T15:53:59.91Z</time></trkpt><trkpt lat="44.9288274" lon="7.1738701"><ele>1361.0</ele><time>2026-04-21T15:54:00.91Z</time></trkpt><trkpt lat="44.9288688" lon="7.1739522"><ele>1361.0</ele><time>2026-04-21T15:54:01.909Z</time></trkpt><trkpt lat="44.9289185" lon="7.1740157"><ele>1361.0</ele><time>2026-04-21T15:54:02.911Z</time></trkpt><trkpt lat="44.9289678" lon="7.1740828"><ele>1361.0</ele><time>2026-04-21T15:54:03.91Z</time></trkpt><trkpt lat="44.9290253" lon="7.1741445"><ele>1360.9999999999998</ele><time>2026-04-21T15:54:04.91Z</time></trkpt><trkpt lat="44.9290889" lon="7.1741985"><ele>1361.0</ele><time>2026-04-21T15:54:05.91Z</time></trkpt><trkpt lat="44.9291474" lon="7.174246"><ele>1362.0</ele><time>2026-04-21T15:54:06.911Z</time></trkpt><trkpt lat="44.9291974" lon="7.1743114"><ele>1363.0</ele><time>2026-04-21T15:54:07.911Z</time></trkpt><trkpt lat="44.9292443" lon="7.1743821"><ele>1364.0</ele><time>2026-04-21T15:54:08.911Z</time></trkpt><trkpt lat="44.9293433" lon="7.1745068"><ele>1365.0</ele><time>2026-04-21T15:54:10.91Z</time></trkpt><trkpt lat="44.9294011" lon="7.1746029"><ele>1366.0</ele><time>2026-04-21T15:54:11.911Z</time></trkpt><trkpt lat="44.9294634" lon="7.1746926"><ele>1367.0</ele><time>2026-04-21T15:54:12.91Z</time></trkpt><trkpt lat="44.9295315" lon="7.1747954"><ele>1370.3333333333335</ele><time>2026-04-21T15:54:13.91Z</time></trkpt><trkpt lat="44.9295975" lon="7.1748786"><ele>1373.6666666666667</ele><time>2026-04-21T15:54:14.91Z</time></trkpt><trkpt lat="44.9296554" lon="7.1749472"><ele>1377.0</ele><time>2026-04-21T15:54:15.91Z</time></trkpt><trkpt lat="44.9297011" lon="7.1750164"><ele>1380.3333333333333</ele><time>2026-04-21T15:54:16.911Z</time></trkpt><trkpt lat="44.9297487" lon="7.1750881"><ele>1383.6666666666665</ele><time>2026-04-21T15:54:17.911Z</time></trkpt><trkpt lat="44.9297905" lon="7.1751666"><ele>1387.0</ele><time>2026-04-21T15:54:18.911Z</time></trkpt><trkpt lat="44.9298528" lon="7.1753291"><ele>1387.0</ele><time>2026-04-21T15:54:20.911Z</time></trkpt><trkpt lat="44.929884" lon="7.1754156"><ele>1387.0</ele><time>2026-04-21T15:54:21.91Z</time></trkpt><trkpt lat="44.9299139" lon="7.175509"><ele>1387.0</ele><time>2026-04-21T15:54:22.909Z</time></trkpt><trkpt lat="44.9299391" lon="7.1755961"><ele>1387.0</ele><time>2026-04-21T15:54:23.911Z</time></trkpt><trkpt lat="44.9299839" lon="7.1756742"><ele>1387.0</ele><time>2026-04-21T15:54:24.911Z</time></trkpt><trkpt lat="44.9300193" lon="7.17576"><ele>1387.0</ele><time>2026-04-21T15:54:25.911Z</time></trkpt><trkpt lat="44.9300585" lon="7.1758358"><ele>1387.0</ele><time>2026-04-21T15:54:26.91Z</time></trkpt><trkpt lat="44.9301445" lon="7.1759741"><ele>1387.4285714285716</ele><time>2026-04-21T15:54:28.91Z</time></trkpt><trkpt lat="44.93019" lon="7.1760586"><ele>1387.857142857143</ele><time>2026-04-21T15:54:29.91Z</time></trkpt><trkpt lat="44.9302453" lon="7.1761356"><ele>1388.2857142857142</ele><time>2026-04-21T15:54:30.91Z</time></trkpt><trkpt lat="44.9302957" lon="7.1762011"><ele>1388.7142857142858</ele><time>2026-04-21T15:54:31.911Z</time></trkpt><trkpt lat="44.9303478" lon="7.1762877"><ele>1389.142857142857</ele><time>2026-04-21T15:54:32.909Z</time></trkpt><trkpt lat="44.9304032" lon="7.176361"><ele>1389.5714285714287</ele><time>2026-04-21T15:54:33.909Z</time></trkpt><trkpt lat="44.9304503" lon="7.1764243"><ele>1390.0</ele><time>2026-04-21T15:54:34.91Z</time></trkpt><trkpt lat="44.930519" lon="7.1764855"><ele>1391.8333333333333</ele><time>2026-04-21T15:54:35.911Z</time></trkpt><trkpt lat="44.9305874" lon="7.1765399"><ele>1393.6666666666665</ele><time>2026-04-21T15:54:36.91Z</time></trkpt><trkpt lat="44.9306445" lon="7.1765774"><ele>1395.5</ele><time>2026-04-21T15:54:37.909Z</time></trkpt><trkpt lat="44.9307422" lon="7.176662"><ele>1397.3333333333333</ele><time>2026-04-21T15:54:39.911Z</time></trkpt><trkpt lat="44.9307965" lon="7.1767096"><ele>1399.1666666666667</ele><time>2026-04-21T15:54:40.91Z</time></trkpt><trkpt lat="44.9308842" lon="7.1768303"><ele>1401.0</ele><time>2026-04-21T15:54:42.911Z</time></trkpt><trkpt lat="44.9309487" lon="7.1769592"><ele>1401.0</ele><time>2026-04-21T15:54:44.911Z</time></trkpt><trkpt lat="44.9309777" lon="7.1771219"><ele>1401.0</ele><time>2026-04-21T15:54:46.909Z</time></trkpt><trkpt lat="44.9310484" lon="7.1772458"><ele>1401.0</ele><time>2026-04-21T15:54:48.91Z</time></trkpt><trkpt lat="44.9311507" lon="7.177286"><ele>1401.0</ele><time>2026-04-21T15:54:50.909Z</time></trkpt><trkpt lat="44.9312197" lon="7.1773023"><ele>1401.0</ele><time>2026-04-21T15:54:52.91Z</time></trkpt><trkpt lat="44.9313098" lon="7.1773663"><ele>1403.5</ele><time>2026-04-21T15:54:54.91Z</time></trkpt><trkpt lat="44.9313114" lon="7.1774766"><ele>1406.0</ele><time>2026-04-21T15:54:56.911Z</time></trkpt><trkpt lat="44.9312256" lon="7.1775408"><ele>1408.5</ele><time>2026-04-21T15:54:58.909Z</time></trkpt><trkpt lat="44.9310959" lon="7.1775253"><ele>1411.0</ele><time>2026-04-21T15:55:00.909Z</time></trkpt><trkpt lat="44.9310312" lon="7.1775027"><ele>1413.5</ele><time>2026-04-21T15:55:01.91Z</time></trkpt><trkpt lat="44.930977" lon="7.1774493"><ele>1416.0</ele><time>2026-04-21T15:55:02.911Z</time></trkpt><trkpt lat="44.930862" lon="7.1773877"><ele>1417.6</ele><time>2026-04-21T15:55:04.91Z</time></trkpt><trkpt lat="44.9307999" lon="7.1773725"><ele>1419.1999999999998</ele><time>2026-04-21T15:55:05.91Z</time></trkpt><trkpt lat="44.9306939" lon="7.1773751"><ele>1420.8000000000002</ele><time>2026-04-21T15:55:07.91Z</time></trkpt><trkpt lat="44.9305824" lon="7.1773977"><ele>1422.4</ele><time>2026-04-21T15:55:09.909Z</time></trkpt><trkpt lat="44.9304669" lon="7.1774172"><ele>1424.0</ele><time>2026-04-21T15:55:11.91Z</time></trkpt><trkpt lat="44.9303483" lon="7.1774105"><ele>1424.0</ele><time>2026-04-21T15:55:13.911Z</time></trkpt><trkpt lat="44.9302335" lon="7.1773975"><ele>1424.0</ele><time>2026-04-21T15:55:15.911Z</time></trkpt><trkpt lat="44.9301612" lon="7.1773907"><ele>1424.0</ele><time>2026-04-21T15:55:16.911Z</time></trkpt><trkpt lat="44.9300945" lon="7.1773818"><ele>1424.0</ele><time>2026-04-21T15:55:17.91Z</time></trkpt><trkpt lat="44.9300216" lon="7.1773773"><ele>1424.0</ele><time>2026-04-21T15:55:18.91Z</time></trkpt><trkpt lat="44.9299518" lon="7.1773692"><ele>1424.0</ele><time>2026-04-21T15:55:19.911Z</time></trkpt><trkpt lat="44.92988" lon="7.1773579"><ele>1422.8333333333335</ele><time>2026-04-21T15:55:20.911Z</time></trkpt><trkpt lat="44.9298087" lon="7.177353"><ele>1421.6666666666667</ele><time>2026-04-21T15:55:21.911Z</time></trkpt><trkpt lat="44.9297339" lon="7.1773478"><ele>1420.5</ele><time>2026-04-21T15:55:22.911Z</time></trkpt><trkpt lat="44.9296709" lon="7.177335"><ele>1419.3333333333333</ele><time>2026-04-21T15:55:23.911Z</time></trkpt><trkpt lat="44.9295687" lon="7.177281"><ele>1418.1666666666665</ele><time>2026-04-21T15:55:25.91Z</time></trkpt><trkpt lat="44.9295068" lon="7.1772385"><ele>1417.0</ele><time>2026-04-21T15:55:26.909Z</time></trkpt><trkpt lat="44.9294428" lon="7.1771929"><ele>1417.0</ele><time>2026-04-21T15:55:27.91Z</time></trkpt><trkpt lat="44.9293746" lon="7.1771631"><ele>1417.0</ele><time>2026-04-21T15:55:28.911Z</time></trkpt><trkpt lat="44.9293093" lon="7.1771348"><ele>1417.0</ele><time>2026-04-21T15:55:29.911Z</time></trkpt><trkpt lat="44.9291869" lon="7.1770934"><ele>1417.0</ele><time>2026-04-21T15:55:31.911Z</time></trkpt><trkpt lat="44.9291258" lon="7.1770629"><ele>1417.0</ele><time>2026-04-21T15:55:32.91Z</time></trkpt><trkpt lat="44.9289989" lon="7.1770547"><ele>1420.0</ele><time>2026-04-21T15:55:34.911Z</time></trkpt><trkpt lat="44.928934" lon="7.1770296"><ele>1423.0</ele><time>2026-04-21T15:55:35.91Z</time></trkpt><trkpt lat="44.928816" lon="7.1769645"><ele>1426.0</ele><time>2026-04-21T15:55:37.911Z</time></trkpt><trkpt lat="44.9287409" lon="7.1769475"><ele>1429.0</ele><time>2026-04-21T15:55:38.91Z</time></trkpt><trkpt lat="44.9286697" lon="7.1769328"><ele>1432.0</ele><time>2026-04-21T15:55:39.91Z</time></trkpt><trkpt lat="44.9286053" lon="7.1769616"><ele>1435.0</ele><time>2026-04-21T15:55:40.91Z</time></trkpt><trkpt lat="44.9284987" lon="7.1769684"><ele>1435.0</ele><time>2026-04-21T15:55:42.91Z</time></trkpt><trkpt lat="44.9284175" lon="7.1769819"><ele>1435.0</ele><time>2026-04-21T15:55:44.909Z</time></trkpt><trkpt lat="44.9283996" lon="7.1770848"><ele>1435.0</ele><time>2026-04-21T15:55:47.909Z</time></trkpt><trkpt lat="44.9284796" lon="7.1771503"><ele>1435.0</ele><time>2026-04-21T15:55:49.91Z</time></trkpt><trkpt lat="44.9285756" lon="7.1772136"><ele>1435.0</ele><time>2026-04-21T15:55:51.909Z</time></trkpt><trkpt lat="44.9286672" lon="7.1772874"><ele>1438.8</ele><time>2026-04-21T15:55:53.908Z</time></trkpt><trkpt lat="44.928742" lon="7.1773918"><ele>1442.6</ele><time>2026-04-21T15:55:55.91Z</time></trkpt><trkpt lat="44.9288158" lon="7.1774839"><ele>1446.4</ele><time>2026-04-21T15:55:57.908Z</time></trkpt><trkpt lat="44.9288844" lon="7.1775624"><ele>1450.2</ele><time>2026-04-21T15:55:59.908Z</time></trkpt><trkpt lat="44.9289526" lon="7.1776251"><ele>1454.0</ele><time>2026-04-21T15:56:01.91Z</time></trkpt><trkpt lat="44.9290404" lon="7.1777095"><ele>1454.0</ele><time>2026-04-21T15:56:03.909Z</time></trkpt><trkpt lat="44.9291252" lon="7.1778048"><ele>1454.0</ele><time>2026-04-21T15:56:05.909Z</time></trkpt><trkpt lat="44.9291928" lon="7.1779233"><ele>1454.0</ele><time>2026-04-21T15:56:07.909Z</time></trkpt><trkpt lat="44.9292361" lon="7.1780024"><ele>1454.0</ele><time>2026-04-21T15:56:09.909Z</time></trkpt><trkpt lat="44.9292818" lon="7.1780829"><ele>1454.0</ele><time>2026-04-21T15:56:18.909Z</time></trkpt><trkpt lat="44.9293395" lon="7.1782172"><ele>1454.6666666666667</ele><time>2026-04-21T15:56:20.91Z</time></trkpt><trkpt lat="44.9293816" lon="7.1782902"><ele>1455.3333333333335</ele><time>2026-04-21T15:56:21.91Z</time></trkpt><trkpt lat="44.9294548" lon="7.1784316"><ele>1456.0</ele><time>2026-04-21T15:56:23.909Z</time></trkpt><trkpt lat="44.9294976" lon="7.1785199"><ele>1456.6666666666667</ele><time>2026-04-21T15:56:24.91Z</time></trkpt><trkpt lat="44.9295494" lon="7.1786038"><ele>1457.3333333333333</ele><time>2026-04-21T15:56:25.909Z</time></trkpt><trkpt lat="44.929597" lon="7.1786768"><ele>1458.0</ele><time>2026-04-21T15:56:26.909Z</time></trkpt><trkpt lat="44.9296677" lon="7.178788"><ele>1458.0</ele><time>2026-04-21T15:56:28.908Z</time></trkpt><trkpt lat="44.9296466" lon="7.1788861"><ele>1458.0</ele><time>2026-04-21T15:56:30.91Z</time></trkpt><trkpt lat="44.9295703" lon="7.1789122"><ele>1458.0</ele><time>2026-04-21T15:56:32.908Z</time></trkpt><trkpt lat="44.9294284" lon="7.1788094"><ele>1458.0</ele><time>2026-04-21T15:56:34.908Z</time></trkpt><trkpt lat="44.9293393" lon="7.1787623"><ele>1458.0</ele><time>2026-04-21T15:56:35.908Z</time></trkpt><trkpt lat="44.9292639" lon="7.1787264"><ele>1460.6666666666667</ele><time>2026-04-21T15:56:36.91Z</time></trkpt><trkpt lat="44.9291892" lon="7.1787084"><ele>1463.3333333333333</ele><time>2026-04-21T15:56:37.908Z</time></trkpt><trkpt lat="44.9291114" lon="7.1786936"><ele>1466.0</ele><time>2026-04-21T15:56:38.91Z</time></trkpt><trkpt lat="44.9290461" lon="7.178694"><ele>1468.6666666666665</ele><time>2026-04-21T15:56:39.91Z</time></trkpt><trkpt lat="44.9289725" lon="7.1786913"><ele>1471.3333333333333</ele><time>2026-04-21T15:56:40.909Z</time></trkpt><trkpt lat="44.9288929" lon="7.1787203"><ele>1474.0</ele><time>2026-04-21T15:56:41.908Z</time></trkpt><trkpt lat="44.9288195" lon="7.1787486"><ele>1474.0</ele><time>2026-04-21T15:56:42.909Z</time></trkpt><trkpt lat="44.9287412" lon="7.1787623"><ele>1474.0</ele><time>2026-04-21T15:56:43.909Z</time></trkpt><trkpt lat="44.9286742" lon="7.1787581"><ele>1474.0</ele><time>2026-04-21T15:56:44.908Z</time></trkpt><trkpt lat="44.9285935" lon="7.1787248"><ele>1474.0</ele><time>2026-04-21T15:56:45.908Z</time></trkpt><trkpt lat="44.9285229" lon="7.1786878"><ele>1474.0</ele><time>2026-04-21T15:56:46.909Z</time></trkpt><trkpt lat="44.9284569" lon="7.1786444"><ele>1474.0</ele><time>2026-04-21T15:56:47.909Z</time></trkpt><trkpt lat="44.9283873" lon="7.1785983"><ele>1475.8333333333333</ele><time>2026-04-21T15:56:48.909Z</time></trkpt><trkpt lat="44.9283294" lon="7.1785612"><ele>1477.6666666666665</ele><time>2026-04-21T15:56:49.909Z</time></trkpt><trkpt lat="44.9282705" lon="7.1785207"><ele>1479.5</ele><time>2026-04-21T15:56:50.909Z</time></trkpt><trkpt lat="44.928205" lon="7.1784827"><ele>1481.3333333333333</ele><time>2026-04-21T15:56:51.91Z</time></trkpt><trkpt lat="44.928126" lon="7.1784621"><ele>1483.1666666666667</ele><time>2026-04-21T15:56:52.909Z</time></trkpt><trkpt lat="44.9280559" lon="7.1784301"><ele>1485.0</ele><time>2026-04-21T15:56:53.909Z</time></trkpt><trkpt lat="44.9279411" lon="7.1783764"><ele>1485.0</ele><time>2026-04-21T15:56:55.91Z</time></trkpt><trkpt lat="44.9278663" lon="7.1783525"><ele>1485.0</ele><time>2026-04-21T15:56:56.91Z</time></trkpt><trkpt lat="44.9277964" lon="7.1783164"><ele>1485.0</ele><time>2026-04-21T15:56:57.91Z</time></trkpt><trkpt lat="44.927732" lon="7.1782784"><ele>1485.0</ele><time>2026-04-21T15:56:58.909Z</time></trkpt><trkpt lat="44.9276742" lon="7.1782285"><ele>1485.0</ele><time>2026-04-21T15:56:59.909Z</time></trkpt><trkpt lat="44.9276078" lon="7.1781893"><ele>1485.0</ele><time>2026-04-21T15:57:00.909Z</time></trkpt><trkpt lat="44.927545" lon="7.178151"><ele>1485.0</ele><time>2026-04-21T15:57:01.91Z</time></trkpt><trkpt lat="44.9274814" lon="7.1781171"><ele>1484.5</ele><time>2026-04-21T15:57:02.91Z</time></trkpt><trkpt lat="44.9274071" lon="7.1780874"><ele>1484.0</ele><time>2026-04-21T15:57:03.91Z</time></trkpt><trkpt lat="44.9273314" lon="7.1780502"><ele>1483.5</ele><time>2026-04-21T15:57:04.909Z</time></trkpt><trkpt lat="44.9272463" lon="7.1780361"><ele>1483.0</ele><time>2026-04-21T15:57:05.91Z</time></trkpt><trkpt lat="44.9271634" lon="7.1780201"><ele>1482.5</ele><time>2026-04-21T15:57:06.91Z</time></trkpt><trkpt lat="44.9270861" lon="7.1779919"><ele>1482.0</ele><time>2026-04-21T15:57:07.91Z</time></trkpt><trkpt lat="44.9270048" lon="7.1779589"><ele>1482.0</ele><time>2026-04-21T15:57:08.908Z</time></trkpt><trkpt lat="44.9269262" lon="7.1779216"><ele>1482.0</ele><time>2026-04-21T15:57:09.909Z</time></trkpt><trkpt lat="44.9268531" lon="7.1778798"><ele>1482.0</ele><time>2026-04-21T15:57:10.91Z</time></trkpt><trkpt lat="44.9267855" lon="7.1778293"><ele>1482.0</ele><time>2026-04-21T15:57:11.909Z</time></trkpt><trkpt lat="44.9267367" lon="7.177761"><ele>1482.0</ele><time>2026-04-21T15:57:12.908Z</time></trkpt><trkpt lat="44.9266782" lon="7.1777107"><ele>1482.0</ele><time>2026-04-21T15:57:13.909Z</time></trkpt><trkpt lat="44.9266173" lon="7.1776717"><ele>1482.0</ele><time>2026-04-21T15:57:14.909Z</time></trkpt><trkpt lat="44.9265476" lon="7.1776234"><ele>1482.8333333333333</ele><time>2026-04-21T15:57:15.908Z</time></trkpt><trkpt lat="44.9264782" lon="7.1775997"><ele>1483.6666666666667</ele><time>2026-04-21T15:57:16.909Z</time></trkpt><trkpt lat="44.926403" lon="7.1775526"><ele>1484.5</ele><time>2026-04-21T15:57:17.91Z</time></trkpt><trkpt lat="44.9263331" lon="7.1774811"><ele>1485.3333333333335</ele><time>2026-04-21T15:57:18.91Z</time></trkpt><trkpt lat="44.9262666" lon="7.1774107"><ele>1486.1666666666667</ele><time>2026-04-21T15:57:19.91Z</time></trkpt><trkpt lat="44.926206" lon="7.1773482"><ele>1487.0</ele><time>2026-04-21T15:57:20.909Z</time></trkpt><trkpt lat="44.926137" lon="7.1772995"><ele>1487.0</ele><time>2026-04-21T15:57:21.909Z</time></trkpt><trkpt lat="44.9260746" lon="7.1772498"><ele>1487.0</ele><time>2026-04-21T15:57:22.909Z</time></trkpt><trkpt lat="44.9260025" lon="7.1772004"><ele>1487.0</ele><time>2026-04-21T15:57:23.91Z</time></trkpt><trkpt lat="44.9259326" lon="7.1771486"><ele>1487.0</ele><time>2026-04-21T15:57:24.909Z</time></trkpt><trkpt lat="44.9258531" lon="7.1770986"><ele>1487.0</ele><time>2026-04-21T15:57:25.909Z</time></trkpt><trkpt lat="44.925774" lon="7.1770673"><ele>1487.0</ele><time>2026-04-21T15:57:26.909Z</time></trkpt><trkpt lat="44.9257007" lon="7.1770246"><ele>1491.1666666666667</ele><time>2026-04-21T15:57:27.91Z</time></trkpt><trkpt lat="44.9256233" lon="7.1769839"><ele>1495.3333333333335</ele><time>2026-04-21T15:57:28.908Z</time></trkpt><trkpt lat="44.9255543" lon="7.1769245"><ele>1499.5</ele><time>2026-04-21T15:57:29.908Z</time></trkpt><trkpt lat="44.9254781" lon="7.1768681"><ele>1503.6666666666667</ele><time>2026-04-21T15:57:30.909Z</time></trkpt><trkpt lat="44.9254098" lon="7.1768027"><ele>1507.8333333333333</ele><time>2026-04-21T15:57:31.908Z</time></trkpt><trkpt lat="44.9253352" lon="7.176745"><ele>1512.0</ele><time>2026-04-21T15:57:32.909Z</time></trkpt><trkpt lat="44.9252577" lon="7.1766816"><ele>1512.0</ele><time>2026-04-21T15:57:33.909Z</time></trkpt><trkpt lat="44.925185" lon="7.1766146"><ele>1512.0</ele><time>2026-04-21T15:57:34.91Z</time></trkpt><trkpt lat="44.9251208" lon="7.1765547"><ele>1512.0</ele><time>2026-04-21T15:57:35.909Z</time></trkpt><trkpt lat="44.9250643" lon="7.1765071"><ele>1512.0</ele><time>2026-04-21T15:57:36.909Z</time></trkpt><trkpt lat="44.925006" lon="7.1764685"><ele>1512.0</ele><time>2026-04-21T15:57:37.91Z</time></trkpt><trkpt lat="44.9248894" lon="7.1764138"><ele>1512.0</ele><time>2026-04-21T15:57:39.909Z</time></trkpt><trkpt lat="44.9247602" lon="7.1763799"><ele>1511.6666666666667</ele><time>2026-04-21T15:57:41.909Z</time></trkpt><trkpt lat="44.9246871" lon="7.176371"><ele>1511.3333333333333</ele><time>2026-04-21T15:57:42.909Z</time></trkpt><trkpt lat="44.9246101" lon="7.1763817"><ele>1511.0</ele><time>2026-04-21T15:57:43.91Z</time></trkpt><trkpt lat="44.9245249" lon="7.1763754"><ele>1510.6666666666665</ele><time>2026-04-21T15:57:44.909Z</time></trkpt><trkpt lat="44.9244437" lon="7.1763357"><ele>1510.3333333333333</ele><time>2026-04-21T15:57:45.909Z</time></trkpt><trkpt lat="44.9243742" lon="7.1762866"><ele>1510.0</ele><time>2026-04-21T15:57:46.909Z</time></trkpt><trkpt lat="44.9243075" lon="7.1762331"><ele>1510.0</ele><time>2026-04-21T15:57:47.909Z</time></trkpt><trkpt lat="44.9242451" lon="7.1761669"><ele>1510.0</ele><time>2026-04-21T15:57:48.909Z</time></trkpt><trkpt lat="44.9241694" lon="7.1761103"><ele>1510.0</ele><time>2026-04-21T15:57:49.909Z</time></trkpt><trkpt lat="44.9240934" lon="7.176046"><ele>1510.0</ele><time>2026-04-21T15:57:50.908Z</time></trkpt><trkpt lat="44.924017" lon="7.1759769"><ele>1510.0</ele><time>2026-04-21T15:57:51.91Z</time></trkpt><trkpt lat="44.9239467" lon="7.1759022"><ele>1510.0</ele><time>2026-04-21T15:57:52.908Z</time></trkpt><trkpt lat="44.9238849" lon="7.1758269"><ele>1509.857142857143</ele><time>2026-04-21T15:57:53.908Z</time></trkpt><trkpt lat="44.9238285" lon="7.1757572"><ele>1509.7142857142858</ele><time>2026-04-21T15:57:54.909Z</time></trkpt><trkpt lat="44.9237766" lon="7.1756911"><ele>1509.5714285714287</ele><time>2026-04-21T15:57:55.91Z</time></trkpt><trkpt lat="44.9237248" lon="7.1756366"><ele>1509.4285714285716</ele><time>2026-04-21T15:57:56.908Z</time></trkpt><trkpt lat="44.9236658" lon="7.1756036"><ele>1509.2857142857142</ele><time>2026-04-21T15:57:57.91Z</time></trkpt><trkpt lat="44.9236093" lon="7.1755563"><ele>1509.1428571428573</ele><time>2026-04-21T15:57:58.909Z</time></trkpt><trkpt lat="44.9235477" lon="7.1755111"><ele>1509.0</ele><time>2026-04-21T15:57:59.91Z</time></trkpt><trkpt lat="44.9234825" lon="7.1754676"><ele>1509.0</ele><time>2026-04-21T15:58:00.909Z</time></trkpt><trkpt lat="44.9234191" lon="7.1754325"><ele>1509.0</ele><time>2026-04-21T15:58:01.909Z</time></trkpt><trkpt lat="44.9233515" lon="7.1753927"><ele>1509.0</ele><time>2026-04-21T15:58:02.909Z</time></trkpt><trkpt lat="44.923284" lon="7.1753524"><ele>1509.0</ele><time>2026-04-21T15:58:03.91Z</time></trkpt><trkpt lat="44.9232272" lon="7.1753085"><ele>1509.0</ele><time>2026-04-21T15:58:04.909Z</time></trkpt><trkpt lat="44.92315" lon="7.1752072"><ele>1509.0</ele><time>2026-04-21T15:58:06.908Z</time></trkpt><trkpt lat="44.9230896" lon="7.1751356"><ele>1514.6666666666667</ele><time>2026-04-21T15:58:08.91Z</time></trkpt><trkpt lat="44.9230251" lon="7.1751482"><ele>1520.3333333333335</ele><time>2026-04-21T15:58:10.91Z</time></trkpt><trkpt lat="44.923034" lon="7.1752431"><ele>1526.0</ele><time>2026-04-21T15:58:12.909Z</time></trkpt><trkpt lat="44.923107" lon="7.1753433"><ele>1531.6666666666667</ele><time>2026-04-21T15:58:14.909Z</time></trkpt><trkpt lat="44.9231559" lon="7.1754079"><ele>1537.3333333333335</ele><time>2026-04-21T15:58:16.909Z</time></trkpt><trkpt lat="44.9232229" lon="7.1755243"><ele>1543.0</ele><time>2026-04-21T15:58:22.91Z</time></trkpt><trkpt lat="44.9232771" lon="7.1755876"><ele>1540.5</ele><time>2026-04-21T15:58:23.909Z</time></trkpt><trkpt lat="44.9233601" lon="7.1756967"><ele>1538.0</ele><time>2026-04-21T15:58:25.91Z</time></trkpt><trkpt lat="44.9234296" lon="7.1758056"><ele>1535.5</ele><time>2026-04-21T15:58:27.908Z</time></trkpt><trkpt lat="44.9234994" lon="7.1759433"><ele>1533.0</ele><time>2026-04-21T15:58:29.908Z</time></trkpt><trkpt lat="44.9235482" lon="7.1761042"><ele>1533.0</ele><time>2026-04-21T15:58:31.908Z</time></trkpt><trkpt lat="44.9235696" lon="7.1761918"><ele>1533.0</ele><time>2026-04-21T15:58:32.909Z</time></trkpt><trkpt lat="44.9235918" lon="7.1762828"><ele>1533.0</ele><time>2026-04-21T15:58:33.909Z</time></trkpt><trkpt lat="44.9236088" lon="7.176378"><ele>1533.0</ele><time>2026-04-21T15:58:34.91Z</time></trkpt><trkpt lat="44.9236305" lon="7.176471"><ele>1533.0</ele><time>2026-04-21T15:58:35.909Z</time></trkpt><trkpt lat="44.9236635" lon="7.1765635"><ele>1533.0</ele><time>2026-04-21T15:58:36.908Z</time></trkpt><trkpt lat="44.9237123" lon="7.17665"><ele>1533.0</ele><time>2026-04-21T15:58:37.909Z</time></trkpt><trkpt lat="44.9237684" lon="7.1767332"><ele>1536.8333333333333</ele><time>2026-04-21T15:58:38.909Z</time></trkpt><trkpt lat="44.9238253" lon="7.176817"><ele>1540.6666666666665</ele><time>2026-04-21T15:58:39.909Z</time></trkpt><trkpt lat="44.9238819" lon="7.1769046"><ele>1544.5</ele><time>2026-04-21T15:58:40.909Z</time></trkpt><trkpt lat="44.9239314" lon="7.1769835"><ele>1548.3333333333333</ele><time>2026-04-21T15:58:41.91Z</time></trkpt><trkpt lat="44.9240035" lon="7.177094"><ele>1552.1666666666665</ele><time>2026-04-21T15:58:43.908Z</time></trkpt><trkpt lat="44.924044" lon="7.1772038"><ele>1556.0</ele><time>2026-04-21T15:58:45.909Z</time></trkpt><trkpt lat="44.9239952" lon="7.1772611"><ele>1555.9999999999998</ele><time>2026-04-21T15:58:47.909Z</time></trkpt><trkpt lat="44.9239174" lon="7.1772051"><ele>1556.0</ele><time>2026-04-21T15:58:49.91Z</time></trkpt><trkpt lat="44.9238493" lon="7.1771568"><ele>1556.0</ele><time>2026-04-21T15:58:50.909Z</time></trkpt><trkpt lat="44.9237856" lon="7.1771152"><ele>1556.0</ele><time>2026-04-21T15:58:51.91Z</time></trkpt><trkpt lat="44.9237137" lon="7.1770726"><ele>1555.9999999999998</ele><time>2026-04-21T15:58:52.908Z</time></trkpt><trkpt lat="44.9236027" lon="7.1769921"><ele>1556.0</ele><time>2026-04-21T15:58:54.91Z</time></trkpt><trkpt lat="44.9235455" lon="7.1769426"><ele>1556.0</ele><time>2026-04-21T15:58:55.91Z</time></trkpt><trkpt lat="44.9234916" lon="7.1768953"><ele>1556.0</ele><time>2026-04-21T15:58:56.909Z</time></trkpt><trkpt lat="44.9234329" lon="7.1768453"><ele>1556.0</ele><time>2026-04-21T15:58:57.908Z</time></trkpt><trkpt lat="44.9233664" lon="7.1767932"><ele>1556.0</ele><time>2026-04-21T15:58:58.91Z</time></trkpt><trkpt lat="44.9233016" lon="7.1767436"><ele>1556.0</ele><time>2026-04-21T15:58:59.91Z</time></trkpt><trkpt lat="44.9232347" lon="7.176702"><ele>1556.0</ele><time>2026-04-21T15:59:00.909Z</time></trkpt><trkpt lat="44.9231645" lon="7.1766728"><ele>1556.0</ele><time>2026-04-21T15:59:01.91Z</time></trkpt><trkpt lat="44.9230831" lon="7.1766411"><ele>1557.1666666666665</ele><time>2026-04-21T15:59:02.909Z</time></trkpt><trkpt lat="44.922997" lon="7.1766138"><ele>1558.3333333333333</ele><time>2026-04-21T15:59:03.91Z</time></trkpt><trkpt lat="44.9229095" lon="7.1765902"><ele>1559.5</ele><time>2026-04-21T15:59:04.91Z</time></trkpt><trkpt lat="44.9228269" lon="7.1765627"><ele>1560.6666666666665</ele><time>2026-04-21T15:59:05.909Z</time></trkpt><trkpt lat="44.9227467" lon="7.1765348"><ele>1561.8333333333333</ele><time>2026-04-21T15:59:06.908Z</time></trkpt><trkpt lat="44.9226684" lon="7.1765119"><ele>1563.0</ele><time>2026-04-21T15:59:07.909Z</time></trkpt><trkpt lat="44.922583" lon="7.1764949"><ele>1565.5714285714287</ele><time>2026-04-21T15:59:08.908Z</time></trkpt><trkpt lat="44.922502" lon="7.1764831"><ele>1568.142857142857</ele><time>2026-04-21T15:59:09.909Z</time></trkpt><trkpt lat="44.9224223" lon="7.1764789"><ele>1570.7142857142858</ele><time>2026-04-21T15:59:10.91Z</time></trkpt><trkpt lat="44.9223482" lon="7.1764695"><ele>1573.2857142857142</ele><time>2026-04-21T15:59:11.91Z</time></trkpt><trkpt lat="44.9222759" lon="7.176461"><ele>1575.8571428571427</ele><time>2026-04-21T15:59:12.91Z</time></trkpt><trkpt lat="44.9222051" lon="7.176453"><ele>1578.4285714285713</ele><time>2026-04-21T15:59:13.91Z</time></trkpt><trkpt lat="44.922136" lon="7.1764425"><ele>1581.0</ele><time>2026-04-21T15:59:14.909Z</time></trkpt><trkpt lat="44.9220617" lon="7.1764353"><ele>1581.0</ele><time>2026-04-21T15:59:15.909Z</time></trkpt><trkpt lat="44.921999" lon="7.1764267"><ele>1581.0</ele><time>2026-04-21T15:59:16.909Z</time></trkpt><trkpt lat="44.9218851" lon="7.1763963"><ele>1581.0</ele><time>2026-04-21T15:59:18.909Z</time></trkpt><trkpt lat="44.9218244" lon="7.176369"><ele>1581.0</ele><time>2026-04-21T15:59:19.909Z</time></trkpt><trkpt lat="44.9217615" lon="7.1763628"><ele>1581.0</ele><time>2026-04-21T15:59:20.91Z</time></trkpt><trkpt lat="44.9217132" lon="7.1762923"><ele>1581.0</ele><time>2026-04-21T15:59:21.908Z</time></trkpt><trkpt lat="44.9216585" lon="7.1762445"><ele>1581.0</ele><time>2026-04-21T15:59:22.909Z</time></trkpt><trkpt lat="44.9216024" lon="7.1761854"><ele>1582.857142857143</ele><time>2026-04-21T15:59:23.909Z</time></trkpt><trkpt lat="44.9215495" lon="7.1761258"><ele>1584.7142857142858</ele><time>2026-04-21T15:59:24.909Z</time></trkpt><trkpt lat="44.921495" lon="7.1760639"><ele>1586.5714285714284</ele><time>2026-04-21T15:59:25.909Z</time></trkpt><trkpt lat="44.9214381" lon="7.1760075"><ele>1588.4285714285716</ele><time>2026-04-21T15:59:26.908Z</time></trkpt><trkpt lat="44.9213781" lon="7.1759564"><ele>1590.2857142857144</ele><time>2026-04-21T15:59:27.909Z</time></trkpt><trkpt lat="44.921315" lon="7.1759062"><ele>1592.142857142857</ele><time>2026-04-21T15:59:28.91Z</time></trkpt><trkpt lat="44.9212517" lon="7.1758497"><ele>1594.0</ele><time>2026-04-21T15:59:29.909Z</time></trkpt><trkpt lat="44.9211873" lon="7.1757963"><ele>1594.0000000000002</ele><time>2026-04-21T15:59:30.91Z</time></trkpt><trkpt lat="44.921122" lon="7.1757325"><ele>1594.0</ele><time>2026-04-21T15:59:31.909Z</time></trkpt><trkpt lat="44.9210582" lon="7.1756622"><ele>1594.0</ele><time>2026-04-21T15:59:32.91Z</time></trkpt><trkpt lat="44.9210005" lon="7.1755901"><ele>1594.0</ele><time>2026-04-21T15:59:33.909Z</time></trkpt><trkpt lat="44.9209502" lon="7.1755282"><ele>1594.0000000000002</ele><time>2026-04-21T15:59:34.91Z</time></trkpt><trkpt lat="44.9208975" lon="7.1754755"><ele>1594.0</ele><time>2026-04-21T15:59:35.909Z</time></trkpt><trkpt lat="44.9208051" lon="7.1753821"><ele>1594.2</ele><time>2026-04-21T15:59:37.91Z</time></trkpt><trkpt lat="44.9207266" lon="7.1752829"><ele>1594.4</ele><time>2026-04-21T15:59:39.91Z</time></trkpt><trkpt lat="44.9206519" lon="7.1752453"><ele>1594.6</ele><time>2026-04-21T15:59:41.908Z</time></trkpt><trkpt lat="44.9206152" lon="7.1753272"><ele>1594.8</ele><time>2026-04-21T15:59:43.909Z</time></trkpt><trkpt lat="44.9206607" lon="7.1754393"><ele>1595.0</ele><time>2026-04-21T15:59:45.909Z</time></trkpt><trkpt lat="44.9207465" lon="7.1755718"><ele>1594.9999999999998</ele><time>2026-04-21T15:59:47.908Z</time></trkpt><trkpt lat="44.9207891" lon="7.1756553"><ele>1595.0</ele><time>2026-04-21T15:59:48.909Z</time></trkpt><trkpt lat="44.9208278" lon="7.1757412"><ele>1595.0</ele><time>2026-04-21T15:59:49.909Z</time></trkpt><trkpt lat="44.9208667" lon="7.1758331"><ele>1595.0</ele><time>2026-04-21T15:59:50.909Z</time></trkpt><trkpt lat="44.9209093" lon="7.1759243"><ele>1594.9999999999998</ele><time>2026-04-21T15:59:51.909Z</time></trkpt><trkpt lat="44.920958" lon="7.1760164"><ele>1595.0</ele><time>2026-04-21T15:59:52.909Z</time></trkpt><trkpt lat="44.9210084" lon="7.1761029"><ele>1594.8333333333333</ele><time>2026-04-21T15:59:53.909Z</time></trkpt><trkpt lat="44.9210561" lon="7.1761932"><ele>1594.6666666666665</ele><time>2026-04-21T15:59:54.909Z</time></trkpt><trkpt lat="44.9210986" lon="7.1762979"><ele>1594.5</ele><time>2026-04-21T15:59:55.909Z</time></trkpt><trkpt lat="44.9211413" lon="7.1764079"><ele>1594.3333333333335</ele><time>2026-04-21T15:59:56.91Z</time></trkpt><trkpt lat="44.9211849" lon="7.1765168"><ele>1594.1666666666667</ele><time>2026-04-21T15:59:57.908Z</time></trkpt><trkpt lat="44.9212294" lon="7.1766207"><ele>1594.0</ele><time>2026-04-21T15:59:58.909Z</time></trkpt><trkpt lat="44.9212782" lon="7.1767156"><ele>1592.0000000000002</ele><time>2026-04-21T15:59:59.909Z</time></trkpt><trkpt lat="44.9213329" lon="7.1768037"><ele>1590.0</ele><time>2026-04-21T16:00:00.908Z</time></trkpt><trkpt lat="44.9213789" lon="7.176898"><ele>1588.0</ele><time>2026-04-21T16:00:01.91Z</time></trkpt><trkpt lat="44.9214102" lon="7.1770022"><ele>1586.0</ele><time>2026-04-21T16:00:02.909Z</time></trkpt><trkpt lat="44.9214418" lon="7.177108"><ele>1584.0000000000002</ele><time>2026-04-21T16:00:03.909Z</time></trkpt><trkpt lat="44.9214675" lon="7.1772179"><ele>1582.0</ele><time>2026-04-21T16:00:04.909Z</time></trkpt><trkpt lat="44.9214878" lon="7.177331"><ele>1579.3333333333335</ele><time>2026-04-21T16:00:05.909Z</time></trkpt><trkpt lat="44.9215075" lon="7.1774482"><ele>1576.6666666666667</ele><time>2026-04-21T16:00:06.91Z</time></trkpt><trkpt lat="44.9215182" lon="7.1775713"><ele>1574.0</ele><time>2026-04-21T16:00:07.91Z</time></trkpt><trkpt lat="44.9215236" lon="7.1776956"><ele>1571.3333333333335</ele><time>2026-04-21T16:00:08.909Z</time></trkpt><trkpt lat="44.9215389" lon="7.1778189"><ele>1568.6666666666667</ele><time>2026-04-21T16:00:09.91Z</time></trkpt><trkpt lat="44.9215614" lon="7.1779386"><ele>1566.0</ele><time>2026-04-21T16:00:10.909Z</time></trkpt><trkpt lat="44.9215976" lon="7.1780521"><ele>1566.0</ele><time>2026-04-21T16:00:11.909Z</time></trkpt><trkpt lat="44.9216437" lon="7.1781554"><ele>1566.0</ele><time>2026-04-21T16:00:12.909Z</time></trkpt><trkpt lat="44.9216859" lon="7.1782538"><ele>1566.0</ele><time>2026-04-21T16:00:13.909Z</time></trkpt><trkpt lat="44.9217085" lon="7.1783656"><ele>1566.0</ele><time>2026-04-21T16:00:14.91Z</time></trkpt><trkpt lat="44.9217143" lon="7.1784788"><ele>1566.0</ele><time>2026-04-21T16:00:15.909Z</time></trkpt><trkpt lat="44.9217184" lon="7.1785906"><ele>1566.0</ele><time>2026-04-21T16:00:16.909Z</time></trkpt><trkpt lat="44.9217294" lon="7.1787059"><ele>1566.3333333333333</ele><time>2026-04-21T16:00:17.908Z</time></trkpt><trkpt lat="44.9217525" lon="7.1788166"><ele>1566.6666666666665</ele><time>2026-04-21T16:00:18.909Z</time></trkpt><trkpt lat="44.9217897" lon="7.1789256"><ele>1567.0</ele><time>2026-04-21T16:00:19.91Z</time></trkpt><trkpt lat="44.9218263" lon="7.1790404"><ele>1567.3333333333333</ele><time>2026-04-21T16:00:20.909Z</time></trkpt><trkpt lat="44.9218556" lon="7.1791654"><ele>1567.6666666666665</ele><time>2026-04-21T16:00:21.909Z</time></trkpt><trkpt lat="44.9218799" lon="7.179292"><ele>1568.0</ele><time>2026-04-21T16:00:22.909Z</time></trkpt><trkpt lat="44.9219038" lon="7.1794184"><ele>1567.9999999999998</ele><time>2026-04-21T16:00:23.909Z</time></trkpt><trkpt lat="44.9219301" lon="7.1795365"><ele>1568.0</ele><time>2026-04-21T16:00:24.909Z</time></trkpt><trkpt lat="44.921951" lon="7.1796585"><ele>1568.0</ele><time>2026-04-21T16:00:25.909Z</time></trkpt><trkpt lat="44.9219577" lon="7.1797805"><ele>1568.0</ele><time>2026-04-21T16:00:26.909Z</time></trkpt><trkpt lat="44.9219495" lon="7.1799013"><ele>1567.9999999999998</ele><time>2026-04-21T16:00:27.908Z</time></trkpt><trkpt lat="44.9219309" lon="7.1800295"><ele>1568.0</ele><time>2026-04-21T16:00:28.909Z</time></trkpt><trkpt lat="44.9219032" lon="7.1801558"><ele>1566.3333333333333</ele><time>2026-04-21T16:00:29.908Z</time></trkpt><trkpt lat="44.9218658" lon="7.1802813"><ele>1564.6666666666665</ele><time>2026-04-21T16:00:30.908Z</time></trkpt><trkpt lat="44.9218343" lon="7.1803923"><ele>1563.0</ele><time>2026-04-21T16:00:31.909Z</time></trkpt><trkpt lat="44.9218216" lon="7.1805005"><ele>1561.3333333333335</ele><time>2026-04-21T16:00:32.909Z</time></trkpt><trkpt lat="44.9218253" lon="7.1806092"><ele>1559.6666666666667</ele><time>2026-04-21T16:00:33.909Z</time></trkpt><trkpt lat="44.9218169" lon="7.1807292"><ele>1558.0</ele><time>2026-04-21T16:00:34.908Z</time></trkpt><trkpt lat="44.9217946" lon="7.1808516"><ele>1556.6000000000001</ele><time>2026-04-21T16:00:35.91Z</time></trkpt><trkpt lat="44.9217732" lon="7.1809731"><ele>1555.2</ele><time>2026-04-21T16:00:36.907Z</time></trkpt><trkpt lat="44.9217626" lon="7.1811077"><ele>1553.8</ele><time>2026-04-21T16:00:37.907Z</time></trkpt><trkpt lat="44.9217527" lon="7.1812478"><ele>1552.4</ele><time>2026-04-21T16:00:38.908Z</time></trkpt><trkpt lat="44.921751" lon="7.1813914"><ele>1551.0</ele><time>2026-04-21T16:00:39.908Z</time></trkpt><trkpt lat="44.9217486" lon="7.1815242"><ele>1550.4285714285716</ele><time>2026-04-21T16:00:40.908Z</time></trkpt><trkpt lat="44.9217486" lon="7.1816426"><ele>1549.857142857143</ele><time>2026-04-21T16:00:41.909Z</time></trkpt><trkpt lat="44.9217525" lon="7.1817447"><ele>1549.2857142857142</ele><time>2026-04-21T16:00:42.909Z</time></trkpt><trkpt lat="44.9217621" lon="7.1818439"><ele>1548.7142857142858</ele><time>2026-04-21T16:00:43.909Z</time></trkpt><trkpt lat="44.9217698" lon="7.1819421"><ele>1548.142857142857</ele><time>2026-04-21T16:00:44.908Z</time></trkpt><trkpt lat="44.9217794" lon="7.182039"><ele>1547.5714285714287</ele><time>2026-04-21T16:00:45.908Z</time></trkpt><trkpt lat="44.9217992" lon="7.1821346"><ele>1547.0</ele><time>2026-04-21T16:00:46.908Z</time></trkpt><trkpt lat="44.921823" lon="7.1822263"><ele>1546.9999999999998</ele><time>2026-04-21T16:00:47.909Z</time></trkpt><trkpt lat="44.9218542" lon="7.1823162"><ele>1547.0</ele><time>2026-04-21T16:00:48.908Z</time></trkpt><trkpt lat="44.9218895" lon="7.1824113"><ele>1547.0</ele><time>2026-04-21T16:00:49.908Z</time></trkpt><trkpt lat="44.9219229" lon="7.1825095"><ele>1547.0</ele><time>2026-04-21T16:00:50.907Z</time></trkpt><trkpt lat="44.9219555" lon="7.1826114"><ele>1546.9999999999998</ele><time>2026-04-21T16:00:51.909Z</time></trkpt><trkpt lat="44.921985" lon="7.1827156"><ele>1547.0</ele><time>2026-04-21T16:00:52.908Z</time></trkpt><trkpt lat="44.9220089" lon="7.1828256"><ele>1545.3999999999999</ele><time>2026-04-21T16:00:53.907Z</time></trkpt><trkpt lat="44.9220289" lon="7.1829395"><ele>1543.8</ele><time>2026-04-21T16:00:54.909Z</time></trkpt><trkpt lat="44.9220434" lon="7.1830562"><ele>1542.2</ele><time>2026-04-21T16:00:55.907Z</time></trkpt><trkpt lat="44.9220512" lon="7.1831748"><ele>1540.6</ele><time>2026-04-21T16:00:56.908Z</time></trkpt><trkpt lat="44.9220605" lon="7.1832839"><ele>1539.0</ele><time>2026-04-21T16:00:57.908Z</time></trkpt><trkpt lat="44.9220808" lon="7.1834653"><ele>1537.7142857142858</ele><time>2026-04-21T16:00:59.908Z</time></trkpt><trkpt lat="44.9220965" lon="7.1835553"><ele>1536.4285714285713</ele><time>2026-04-21T16:01:00.908Z</time></trkpt><trkpt lat="44.9221152" lon="7.1836462"><ele>1535.1428571428573</ele><time>2026-04-21T16:01:01.908Z</time></trkpt><trkpt lat="44.9221463" lon="7.1837384"><ele>1533.857142857143</ele><time>2026-04-21T16:01:02.907Z</time></trkpt><trkpt lat="44.9221855" lon="7.1838321"><ele>1532.5714285714287</ele><time>2026-04-21T16:01:03.909Z</time></trkpt><trkpt lat="44.9222314" lon="7.1839277"><ele>1531.2857142857144</ele><time>2026-04-21T16:01:04.908Z</time></trkpt><trkpt lat="44.9222761" lon="7.1840231"><ele>1530.0</ele><time>2026-04-21T16:01:05.908Z</time></trkpt><trkpt lat="44.9223169" lon="7.1841238"><ele>1531.1666666666667</ele><time>2026-04-21T16:01:06.908Z</time></trkpt><trkpt lat="44.9223627" lon="7.184223"><ele>1532.3333333333335</ele><time>2026-04-21T16:01:07.909Z</time></trkpt><trkpt lat="44.9224143" lon="7.1843107"><ele>1533.5</ele><time>2026-04-21T16:01:08.909Z</time></trkpt><trkpt lat="44.9224814" lon="7.1843795"><ele>1534.6666666666667</ele><time>2026-04-21T16:01:09.908Z</time></trkpt><trkpt lat="44.9225501" lon="7.184442"><ele>1535.8333333333335</ele><time>2026-04-21T16:01:10.908Z</time></trkpt><trkpt lat="44.922611" lon="7.1845134"><ele>1537.0</ele><time>2026-04-21T16:01:11.908Z</time></trkpt><trkpt lat="44.9226629" lon="7.1845934"><ele>1537.0000000000002</ele><time>2026-04-21T16:01:12.909Z</time></trkpt><trkpt lat="44.9227001" lon="7.1846835"><ele>1537.0</ele><time>2026-04-21T16:01:13.908Z</time></trkpt><trkpt lat="44.9227272" lon="7.184777"><ele>1537.0</ele><time>2026-04-21T16:01:14.909Z</time></trkpt><trkpt lat="44.9227507" lon="7.1848754"><ele>1537.0</ele><time>2026-04-21T16:01:15.908Z</time></trkpt><trkpt lat="44.9227709" lon="7.1849716"><ele>1537.0</ele><time>2026-04-21T16:01:16.908Z</time></trkpt><trkpt lat="44.9227865" lon="7.1850692"><ele>1537.0000000000002</ele><time>2026-04-21T16:01:17.909Z</time></trkpt><trkpt lat="44.9227989" lon="7.1851705"><ele>1537.0</ele><time>2026-04-21T16:01:18.907Z</time></trkpt><trkpt lat="44.9228001" lon="7.1852744"><ele>1536.0</ele><time>2026-04-21T16:01:19.908Z</time></trkpt><trkpt lat="44.9227867" lon="7.1853972"><ele>1535.0</ele><time>2026-04-21T16:01:20.908Z</time></trkpt><trkpt lat="44.9227742" lon="7.1855295"><ele>1534.0</ele><time>2026-04-21T16:01:21.908Z</time></trkpt><trkpt lat="44.9227626" lon="7.1856535"><ele>1533.0</ele><time>2026-04-21T16:01:22.908Z</time></trkpt><trkpt lat="44.9227482" lon="7.1857816"><ele>1532.0</ele><time>2026-04-21T16:01:23.908Z</time></trkpt><trkpt lat="44.9227161" lon="7.1859032"><ele>1531.6</ele><time>2026-04-21T16:01:24.909Z</time></trkpt><trkpt lat="44.9226808" lon="7.1860204"><ele>1531.1999999999998</ele><time>2026-04-21T16:01:25.908Z</time></trkpt><trkpt lat="44.9226435" lon="7.186141"><ele>1530.8</ele><time>2026-04-21T16:01:26.908Z</time></trkpt><trkpt lat="44.9226093" lon="7.1862537"><ele>1530.4</ele><time>2026-04-21T16:01:27.907Z</time></trkpt><trkpt lat="44.9225727" lon="7.1863719"><ele>1530.0</ele><time>2026-04-21T16:01:28.908Z</time></trkpt><trkpt lat="44.9225338" lon="7.1864866"><ele>1525.5</ele><time>2026-04-21T16:01:29.908Z</time></trkpt><trkpt lat="44.9224913" lon="7.1866053"><ele>1521.0</ele><time>2026-04-21T16:01:30.909Z</time></trkpt><trkpt lat="44.9224583" lon="7.1867274"><ele>1516.5</ele><time>2026-04-21T16:01:31.908Z</time></trkpt><trkpt lat="44.9224435" lon="7.1868454"><ele>1512.0</ele><time>2026-04-21T16:01:32.909Z</time></trkpt><trkpt lat="44.9224146" lon="7.1869629"><ele>1507.5</ele><time>2026-04-21T16:01:33.907Z</time></trkpt><trkpt lat="44.9223799" lon="7.1870664"><ele>1503.0</ele><time>2026-04-21T16:01:34.909Z</time></trkpt><trkpt lat="44.9223246" lon="7.1871548"><ele>1503.0</ele><time>2026-04-21T16:01:35.907Z</time></trkpt><trkpt lat="44.9222637" lon="7.187231"><ele>1503.0</ele><time>2026-04-21T16:01:36.908Z</time></trkpt><trkpt lat="44.9222049" lon="7.1872935"><ele>1503.0</ele><time>2026-04-21T16:01:37.909Z</time></trkpt><trkpt lat="44.9221556" lon="7.1873615"><ele>1503.0</ele><time>2026-04-21T16:01:38.908Z</time></trkpt><trkpt lat="44.9221084" lon="7.1874231"><ele>1503.0</ele><time>2026-04-21T16:01:39.908Z</time></trkpt><trkpt lat="44.922048" lon="7.1875735"><ele>1503.0</ele><time>2026-04-21T16:01:41.909Z</time></trkpt><trkpt lat="44.922019" lon="7.1877369"><ele>1502.8000000000002</ele><time>2026-04-21T16:01:43.908Z</time></trkpt><trkpt lat="44.9220093" lon="7.1879062"><ele>1502.6</ele><time>2026-04-21T16:01:45.909Z</time></trkpt><trkpt lat="44.9220562" lon="7.1880529"><ele>1502.4</ele><time>2026-04-21T16:01:47.908Z</time></trkpt><trkpt lat="44.9220993" lon="7.1881182"><ele>1502.1999999999998</ele><time>2026-04-21T16:01:48.907Z</time></trkpt><trkpt lat="44.9221937" lon="7.1882265"><ele>1502.0</ele><time>2026-04-21T16:01:50.909Z</time></trkpt><trkpt lat="44.9222628" lon="7.1883645"><ele>1499.8333333333335</ele><time>2026-04-21T16:01:52.908Z</time></trkpt><trkpt lat="44.922268" lon="7.1884571"><ele>1497.6666666666667</ele><time>2026-04-21T16:01:53.908Z</time></trkpt><trkpt lat="44.9222497" lon="7.1885574"><ele>1495.5</ele><time>2026-04-21T16:01:54.909Z</time></trkpt><trkpt lat="44.9222068" lon="7.1886557"><ele>1493.3333333333333</ele><time>2026-04-21T16:01:55.909Z</time></trkpt><trkpt lat="44.922159" lon="7.1887553"><ele>1491.1666666666665</ele><time>2026-04-21T16:01:56.909Z</time></trkpt><trkpt lat="44.9221159" lon="7.188847"><ele>1489.0</ele><time>2026-04-21T16:01:57.909Z</time></trkpt><trkpt lat="44.9220794" lon="7.1889401"><ele>1488.3333333333333</ele><time>2026-04-21T16:01:58.907Z</time></trkpt><trkpt lat="44.9220511" lon="7.189036"><ele>1487.6666666666665</ele><time>2026-04-21T16:01:59.908Z</time></trkpt><trkpt lat="44.9220375" lon="7.189213"><ele>1487.0</ele><time>2026-04-21T16:02:01.908Z</time></trkpt><trkpt lat="44.9220596" lon="7.1892977"><ele>1486.3333333333333</ele><time>2026-04-21T16:02:02.908Z</time></trkpt><trkpt lat="44.9220997" lon="7.1893754"><ele>1485.6666666666667</ele><time>2026-04-21T16:02:03.908Z</time></trkpt><trkpt lat="44.9221488" lon="7.1894483"><ele>1485.0</ele><time>2026-04-21T16:02:04.909Z</time></trkpt><trkpt lat="44.9221927" lon="7.1895244"><ele>1485.0</ele><time>2026-04-21T16:02:05.908Z</time></trkpt><trkpt lat="44.9222134" lon="7.1896245"><ele>1485.0</ele><time>2026-04-21T16:02:06.908Z</time></trkpt><trkpt lat="44.9222275" lon="7.1897319"><ele>1485.0</ele><time>2026-04-21T16:02:07.907Z</time></trkpt><trkpt lat="44.9222154" lon="7.1898418"><ele>1485.0</ele><time>2026-04-21T16:02:08.907Z</time></trkpt><trkpt lat="44.9221969" lon="7.1899444"><ele>1485.0</ele><time>2026-04-21T16:02:09.908Z</time></trkpt><trkpt lat="44.9221775" lon="7.1900367"><ele>1485.0</ele><time>2026-04-21T16:02:10.909Z</time></trkpt><trkpt lat="44.9221598" lon="7.1901258"><ele>1485.0</ele><time>2026-04-21T16:02:11.909Z</time></trkpt><trkpt lat="44.9220872" lon="7.1902473"><ele>1484.5</ele><time>2026-04-21T16:02:13.908Z</time></trkpt><trkpt lat="44.9219829" lon="7.1902346"><ele>1484.0</ele><time>2026-04-21T16:02:15.908Z</time></trkpt><trkpt lat="44.9218934" lon="7.1901363"><ele>1483.5</ele><time>2026-04-21T16:02:17.908Z</time></trkpt><trkpt lat="44.9218405" lon="7.1900785"><ele>1483.0</ele><time>2026-04-21T16:02:18.909Z</time></trkpt><trkpt lat="44.9217892" lon="7.1900127"><ele>1482.5</ele><time>2026-04-21T16:02:19.909Z</time></trkpt><trkpt lat="44.9217358" lon="7.189961"><ele>1482.0</ele><time>2026-04-21T16:02:20.908Z</time></trkpt><trkpt lat="44.9216787" lon="7.1899214"><ele>1479.1666666666667</ele><time>2026-04-21T16:02:21.909Z</time></trkpt><trkpt lat="44.9215978" lon="7.1898856"><ele>1476.3333333333333</ele><time>2026-04-21T16:02:22.908Z</time></trkpt><trkpt lat="44.9215269" lon="7.1898545"><ele>1473.5</ele><time>2026-04-21T16:02:23.908Z</time></trkpt><trkpt lat="44.921465" lon="7.1898057"><ele>1470.6666666666665</ele><time>2026-04-21T16:02:24.909Z</time></trkpt><trkpt lat="44.9214073" lon="7.1897449"><ele>1467.8333333333333</ele><time>2026-04-21T16:02:25.909Z</time></trkpt><trkpt lat="44.9213609" lon="7.1896589"><ele>1465.0</ele><time>2026-04-21T16:02:26.909Z</time></trkpt><trkpt lat="44.9213284" lon="7.1895629"><ele>1465.0</ele><time>2026-04-21T16:02:27.909Z</time></trkpt><trkpt lat="44.9212976" lon="7.1894613"><ele>1465.0</ele><time>2026-04-21T16:02:28.909Z</time></trkpt><trkpt lat="44.9212566" lon="7.1893645"><ele>1465.0</ele><time>2026-04-21T16:02:29.909Z</time></trkpt><trkpt lat="44.9211986" lon="7.189274"><ele>1465.0</ele><time>2026-04-21T16:02:30.907Z</time></trkpt><trkpt lat="44.9211371" lon="7.1891962"><ele>1465.0</ele><time>2026-04-21T16:02:31.907Z</time></trkpt><trkpt lat="44.9210775" lon="7.1891087"><ele>1465.0</ele><time>2026-04-21T16:02:32.908Z</time></trkpt><trkpt lat="44.9210186" lon="7.1890032"><ele>1465.5</ele><time>2026-04-21T16:02:33.909Z</time></trkpt><trkpt lat="44.9209664" lon="7.1888965"><ele>1466.0</ele><time>2026-04-21T16:02:34.908Z</time></trkpt><trkpt lat="44.9209126" lon="7.1888008"><ele>1466.5</ele><time>2026-04-21T16:02:35.909Z</time></trkpt><trkpt lat="44.9208563" lon="7.1887152"><ele>1467.0</ele><time>2026-04-21T16:02:36.908Z</time></trkpt><trkpt lat="44.9207866" lon="7.1886494"><ele>1467.5</ele><time>2026-04-21T16:02:37.908Z</time></trkpt><trkpt lat="44.9207116" lon="7.1885964"><ele>1468.0</ele><time>2026-04-21T16:02:38.908Z</time></trkpt><trkpt lat="44.9206363" lon="7.1885356"><ele>1464.8333333333333</ele><time>2026-04-21T16:02:39.907Z</time></trkpt><trkpt lat="44.9205709" lon="7.1884695"><ele>1461.6666666666665</ele><time>2026-04-21T16:02:40.909Z</time></trkpt><trkpt lat="44.9205088" lon="7.1883851"><ele>1458.5</ele><time>2026-04-21T16:02:41.909Z</time></trkpt><trkpt lat="44.9204512" lon="7.1882903"><ele>1455.3333333333333</ele><time>2026-04-21T16:02:42.908Z</time></trkpt><trkpt lat="44.9204079" lon="7.1881828"><ele>1452.1666666666667</ele><time>2026-04-21T16:02:43.908Z</time></trkpt><trkpt lat="44.9203756" lon="7.1880757"><ele>1449.0</ele><time>2026-04-21T16:02:44.909Z</time></trkpt><trkpt lat="44.9203523" lon="7.1879787"><ele>1449.0</ele><time>2026-04-21T16:02:45.908Z</time></trkpt><trkpt lat="44.9203382" lon="7.1878885"><ele>1449.0</ele><time>2026-04-21T16:02:46.908Z</time></trkpt><trkpt lat="44.9203234" lon="7.1877369"><ele>1449.0</ele><time>2026-04-21T16:02:48.908Z</time></trkpt><trkpt lat="44.9202537" lon="7.1876905"><ele>1449.0</ele><time>2026-04-21T16:02:50.908Z</time></trkpt><trkpt lat="44.9202035" lon="7.187798"><ele>1449.0</ele><time>2026-04-21T16:02:52.908Z</time></trkpt><trkpt lat="44.9201941" lon="7.1879021"><ele>1449.0</ele><time>2026-04-21T16:02:53.909Z</time></trkpt><trkpt lat="44.9201738" lon="7.1880155"><ele>1449.0</ele><time>2026-04-21T16:02:54.908Z</time></trkpt><trkpt lat="44.9201486" lon="7.1881368"><ele>1449.0</ele><time>2026-04-21T16:02:55.909Z</time></trkpt><trkpt lat="44.9201185" lon="7.1882517"><ele>1449.0</ele><time>2026-04-21T16:02:56.908Z</time></trkpt><trkpt lat="44.9200865" lon="7.1883746"><ele>1449.0</ele><time>2026-04-21T16:02:57.908Z</time></trkpt><trkpt lat="44.9200623" lon="7.188477"><ele>1449.0</ele><time>2026-04-21T16:02:58.909Z</time></trkpt><trkpt lat="44.9200448" lon="7.1885797"><ele>1449.0</ele><time>2026-04-21T16:02:59.909Z</time></trkpt><trkpt lat="44.9200162" lon="7.1886858"><ele>1446.0</ele><time>2026-04-21T16:03:00.908Z</time></trkpt><trkpt lat="44.9199755" lon="7.1887767"><ele>1443.0</ele><time>2026-04-21T16:03:01.909Z</time></trkpt><trkpt lat="44.9199285" lon="7.1888485"><ele>1440.0</ele><time>2026-04-21T16:03:02.908Z</time></trkpt><trkpt lat="44.9198729" lon="7.1889121"><ele>1437.0</ele><time>2026-04-21T16:03:03.907Z</time></trkpt><trkpt lat="44.9198265" lon="7.18898"><ele>1434.0</ele><time>2026-04-21T16:03:04.908Z</time></trkpt><trkpt lat="44.9198073" lon="7.1891236"><ele>1431.0</ele><time>2026-04-21T16:03:06.908Z</time></trkpt><trkpt lat="44.9197826" lon="7.1892349"><ele>1431.0</ele><time>2026-04-21T16:03:08.909Z</time></trkpt><trkpt lat="44.9197037" lon="7.1892445"><ele>1431.0</ele><time>2026-04-21T16:03:10.908Z</time></trkpt><trkpt lat="44.919651" lon="7.1891582"><ele>1431.0</ele><time>2026-04-21T16:03:12.908Z</time></trkpt><trkpt lat="44.919574" lon="7.1890389"><ele>1431.0</ele><time>2026-04-21T16:03:14.909Z</time></trkpt><trkpt lat="44.9195335" lon="7.1889647"><ele>1431.0</ele><time>2026-04-21T16:03:15.908Z</time></trkpt><trkpt lat="44.9194985" lon="7.1888894"><ele>1431.0</ele><time>2026-04-21T16:03:16.907Z</time></trkpt><trkpt lat="44.9194589" lon="7.1888163"><ele>1431.0</ele><time>2026-04-21T16:03:17.909Z</time></trkpt><trkpt lat="44.919371" lon="7.1886899"><ele>1431.0</ele><time>2026-04-21T16:03:19.907Z</time></trkpt><trkpt lat="44.9193163" lon="7.1886279"><ele>1431.0</ele><time>2026-04-21T16:03:20.908Z</time></trkpt><trkpt lat="44.9192586" lon="7.1885854"><ele>1431.0</ele><time>2026-04-21T16:03:21.909Z</time></trkpt><trkpt lat="44.9191293" lon="7.1885809"><ele>1431.0</ele><time>2026-04-21T16:03:23.908Z</time></trkpt><trkpt lat="44.91906" lon="7.1886088"><ele>1428.3333333333333</ele><time>2026-04-21T16:03:24.907Z</time></trkpt><trkpt lat="44.9189891" lon="7.1886572"><ele>1425.6666666666667</ele><time>2026-04-21T16:03:25.908Z</time></trkpt><trkpt lat="44.9189232" lon="7.1886973"><ele>1423.0</ele><time>2026-04-21T16:03:26.907Z</time></trkpt><trkpt lat="44.9188598" lon="7.1887464"><ele>1420.3333333333335</ele><time>2026-04-21T16:03:27.907Z</time></trkpt><trkpt lat="44.9188071" lon="7.1888"><ele>1417.6666666666667</ele><time>2026-04-21T16:03:28.909Z</time></trkpt><trkpt lat="44.9187334" lon="7.1889238"><ele>1415.0</ele><time>2026-04-21T16:03:30.908Z</time></trkpt><trkpt lat="44.9186793" lon="7.1890736"><ele>1415.0</ele><time>2026-04-21T16:03:32.907Z</time></trkpt><trkpt lat="44.9186687" lon="7.1892551"><ele>1415.0</ele><time>2026-04-21T16:03:34.909Z</time></trkpt><trkpt lat="44.9186792" lon="7.1893606"><ele>1415.0</ele><time>2026-04-21T16:03:35.908Z</time></trkpt><trkpt lat="44.918681" lon="7.189492"><ele>1415.0</ele><time>2026-04-21T16:03:36.907Z</time></trkpt><trkpt lat="44.9186806" lon="7.1896202"><ele>1415.0</ele><time>2026-04-21T16:03:37.908Z</time></trkpt><trkpt lat="44.9186784" lon="7.1897483"><ele>1413.0</ele><time>2026-04-21T16:03:38.907Z</time></trkpt><trkpt lat="44.9186667" lon="7.1898551"><ele>1411.0</ele><time>2026-04-21T16:03:39.908Z</time></trkpt><trkpt lat="44.9186672" lon="7.1899471"><ele>1409.0</ele><time>2026-04-21T16:03:40.909Z</time></trkpt><trkpt lat="44.918702" lon="7.1900866"><ele>1407.0</ele><time>2026-04-21T16:03:42.908Z</time></trkpt><trkpt lat="44.9187967" lon="7.1901633"><ele>1405.0</ele><time>2026-04-21T16:03:44.908Z</time></trkpt><trkpt lat="44.9188628" lon="7.1901891"><ele>1403.0</ele><time>2026-04-21T16:03:45.908Z</time></trkpt><trkpt lat="44.9189373" lon="7.1902102"><ele>1403.0</ele><time>2026-04-21T16:03:46.908Z</time></trkpt><trkpt lat="44.9190153" lon="7.1902309"><ele>1403.0</ele><time>2026-04-21T16:03:47.908Z</time></trkpt><trkpt lat="44.9190954" lon="7.1902643"><ele>1403.0</ele><time>2026-04-21T16:03:48.908Z</time></trkpt><trkpt lat="44.9191697" lon="7.1903234"><ele>1403.0</ele><time>2026-04-21T16:03:49.908Z</time></trkpt><trkpt lat="44.9192348" lon="7.1904098"><ele>1403.0</ele><time>2026-04-21T16:03:50.909Z</time></trkpt><trkpt lat="44.919286" lon="7.1905124"><ele>1403.0</ele><time>2026-04-21T16:03:51.908Z</time></trkpt><trkpt lat="44.9193297" lon="7.1906121"><ele>1403.1666666666667</ele><time>2026-04-21T16:03:52.909Z</time></trkpt><trkpt lat="44.9193767" lon="7.1907046"><ele>1403.3333333333335</ele><time>2026-04-21T16:03:53.909Z</time></trkpt><trkpt lat="44.9194374" lon="7.1907753"><ele>1403.5</ele><time>2026-04-21T16:03:54.907Z</time></trkpt><trkpt lat="44.9194977" lon="7.1908487"><ele>1403.6666666666667</ele><time>2026-04-21T16:03:55.907Z</time></trkpt><trkpt lat="44.9195656" lon="7.1908883"><ele>1403.8333333333333</ele><time>2026-04-21T16:03:56.909Z</time></trkpt><trkpt lat="44.9196253" lon="7.1909278"><ele>1404.0</ele><time>2026-04-21T16:03:57.908Z</time></trkpt><trkpt lat="44.9196764" lon="7.1910066"><ele>1404.0</ele><time>2026-04-21T16:03:58.908Z</time></trkpt><trkpt lat="44.9196868" lon="7.1911061"><ele>1404.0</ele><time>2026-04-21T16:03:59.908Z</time></trkpt><trkpt lat="44.9196692" lon="7.1912092"><ele>1404.0</ele><time>2026-04-21T16:04:00.908Z</time></trkpt><trkpt lat="44.9196513" lon="7.1913049"><ele>1404.0</ele><time>2026-04-21T16:04:01.909Z</time></trkpt><trkpt lat="44.9196452" lon="7.1914545"><ele>1404.0</ele><time>2026-04-21T16:04:03.908Z</time></trkpt><trkpt lat="44.9196718" lon="7.1915637"><ele>1404.0</ele><time>2026-04-21T16:04:04.908Z</time></trkpt><trkpt lat="44.9196896" lon="7.1916583"><ele>1402.0000000000002</ele><time>2026-04-21T16:04:05.908Z</time></trkpt><trkpt lat="44.9197039" lon="7.191765"><ele>1400.0</ele><time>2026-04-21T16:04:06.908Z</time></trkpt><trkpt lat="44.9197052" lon="7.1918697"><ele>1398.0</ele><time>2026-04-21T16:04:07.908Z</time></trkpt><trkpt lat="44.9196929" lon="7.1919756"><ele>1396.0</ele><time>2026-04-21T16:04:08.907Z</time></trkpt><trkpt lat="44.9196434" lon="7.192055"><ele>1394.0</ele><time>2026-04-21T16:04:09.908Z</time></trkpt><trkpt lat="44.9196183" lon="7.1921429"><ele>1392.0000000000002</ele><time>2026-04-21T16:04:10.907Z</time></trkpt><trkpt lat="44.9195937" lon="7.1922339"><ele>1390.0</ele><time>2026-04-21T16:04:11.907Z</time></trkpt><trkpt lat="44.9195806" lon="7.1924196"><ele>1388.6666666666665</ele><time>2026-04-21T16:04:13.908Z</time></trkpt><trkpt lat="44.9195976" lon="7.1925328"><ele>1387.3333333333333</ele><time>2026-04-21T16:04:14.909Z</time></trkpt><trkpt lat="44.9196396" lon="7.1926259"><ele>1386.0</ele><time>2026-04-21T16:04:15.908Z</time></trkpt><trkpt lat="44.9196688" lon="7.1927472"><ele>1384.6666666666667</ele><time>2026-04-21T16:04:16.908Z</time></trkpt><trkpt lat="44.9197" lon="7.1928634"><ele>1383.3333333333335</ele><time>2026-04-21T16:04:17.908Z</time></trkpt><trkpt lat="44.9197224" lon="7.1929933"><ele>1382.0</ele><time>2026-04-21T16:04:18.908Z</time></trkpt><trkpt lat="44.9197281" lon="7.1931301"><ele>1380.0</ele><time>2026-04-21T16:04:19.907Z</time></trkpt><trkpt lat="44.9197223" lon="7.1932701"><ele>1378.0</ele><time>2026-04-21T16:04:20.907Z</time></trkpt><trkpt lat="44.919703" lon="7.1934084"><ele>1376.0</ele><time>2026-04-21T16:04:21.909Z</time></trkpt><trkpt lat="44.9196563" lon="7.1935292"><ele>1374.0</ele><time>2026-04-21T16:04:22.907Z</time></trkpt><trkpt lat="44.9195916" lon="7.1936312"><ele>1372.0</ele><time>2026-04-21T16:04:23.909Z</time></trkpt><trkpt lat="44.919523" lon="7.193729"><ele>1372.0</ele><time>2026-04-21T16:04:24.909Z</time></trkpt><trkpt lat="44.9194584" lon="7.193817"><ele>1372.0</ele><time>2026-04-21T16:04:25.908Z</time></trkpt><trkpt lat="44.9194061" lon="7.1939019"><ele>1372.0</ele><time>2026-04-21T16:04:26.909Z</time></trkpt><trkpt lat="44.9193531" lon="7.19398"><ele>1372.0</ele><time>2026-04-21T16:04:27.908Z</time></trkpt><trkpt lat="44.9192877" lon="7.194047"><ele>1372.0</ele><time>2026-04-21T16:04:28.909Z</time></trkpt><trkpt lat="44.9192071" lon="7.1940804"><ele>1372.0</ele><time>2026-04-21T16:04:29.908Z</time></trkpt><trkpt lat="44.919119" lon="7.1940823"><ele>1369.0</ele><time>2026-04-21T16:04:30.909Z</time></trkpt><trkpt lat="44.9190277" lon="7.1940808"><ele>1366.0</ele><time>2026-04-21T16:04:31.909Z</time></trkpt><trkpt lat="44.9189394" lon="7.1940882"><ele>1363.0</ele><time>2026-04-21T16:04:32.908Z</time></trkpt><trkpt lat="44.91885" lon="7.1940974"><ele>1360.0</ele><time>2026-04-21T16:04:33.908Z</time></trkpt><trkpt lat="44.9187621" lon="7.19411"><ele>1357.0</ele><time>2026-04-21T16:04:34.908Z</time></trkpt><trkpt lat="44.9186798" lon="7.1941371"><ele>1354.0</ele><time>2026-04-21T16:04:35.909Z</time></trkpt><trkpt lat="44.9186014" lon="7.1941592"><ele>1354.0</ele><time>2026-04-21T16:04:36.909Z</time></trkpt><trkpt lat="44.9185206" lon="7.194168"><ele>1354.0</ele><time>2026-04-21T16:04:37.908Z</time></trkpt><trkpt lat="44.9184452" lon="7.1941514"><ele>1354.0</ele><time>2026-04-21T16:04:38.908Z</time></trkpt><trkpt lat="44.9183789" lon="7.1941008"><ele>1354.0</ele><time>2026-04-21T16:04:39.908Z</time></trkpt><trkpt lat="44.9183325" lon="7.1940348"><ele>1354.0</ele><time>2026-04-21T16:04:40.909Z</time></trkpt><trkpt lat="44.9183074" lon="7.1938686"><ele>1354.0</ele><time>2026-04-21T16:04:42.908Z</time></trkpt><trkpt lat="44.9183561" lon="7.1937155"><ele>1353.6</ele><time>2026-04-21T16:04:44.908Z</time></trkpt><trkpt lat="44.9184237" lon="7.1935762"><ele>1353.2</ele><time>2026-04-21T16:04:46.909Z</time></trkpt><trkpt lat="44.9184547" lon="7.1934387"><ele>1352.8</ele><time>2026-04-21T16:04:48.908Z</time></trkpt><trkpt lat="44.9183806" lon="7.1933389"><ele>1352.3999999999999</ele><time>2026-04-21T16:04:50.909Z</time></trkpt><trkpt lat="44.9183202" lon="7.1933049"><ele>1352.0</ele><time>2026-04-21T16:04:51.909Z</time></trkpt><trkpt lat="44.9182547" lon="7.1932702"><ele>1350.4285714285716</ele><time>2026-04-21T16:04:52.907Z</time></trkpt><trkpt lat="44.9181839" lon="7.1932336"><ele>1348.857142857143</ele><time>2026-04-21T16:04:53.908Z</time></trkpt><trkpt lat="44.9181092" lon="7.193204"><ele>1347.2857142857142</ele><time>2026-04-21T16:04:54.908Z</time></trkpt><trkpt lat="44.918033" lon="7.1931857"><ele>1345.7142857142858</ele><time>2026-04-21T16:04:55.908Z</time></trkpt><trkpt lat="44.9179631" lon="7.1931804"><ele>1344.142857142857</ele><time>2026-04-21T16:04:56.909Z</time></trkpt><trkpt lat="44.9179017" lon="7.1932044"><ele>1342.5714285714287</ele><time>2026-04-21T16:04:57.908Z</time></trkpt><trkpt lat="44.9178521" lon="7.1932603"><ele>1341.0</ele><time>2026-04-21T16:04:58.908Z</time></trkpt><trkpt lat="44.917812" lon="7.1933461"><ele>1341.0</ele><time>2026-04-21T16:04:59.908Z</time></trkpt><trkpt lat="44.9177848" lon="7.1934555"><ele>1341.0</ele><time>2026-04-21T16:05:00.908Z</time></trkpt><trkpt lat="44.9177653" lon="7.1935808"><ele>1341.0</ele><time>2026-04-21T16:05:01.908Z</time></trkpt><trkpt lat="44.9177366" lon="7.1937024"><ele>1341.0</ele><time>2026-04-21T16:05:02.907Z</time></trkpt><trkpt lat="44.9176981" lon="7.1938201"><ele>1341.0</ele><time>2026-04-21T16:05:03.907Z</time></trkpt><trkpt lat="44.9176507" lon="7.1939299"><ele>1341.0</ele><time>2026-04-21T16:05:04.908Z</time></trkpt><trkpt lat="44.91759" lon="7.1940357"><ele>1337.8</ele><time>2026-04-21T16:05:05.908Z</time></trkpt><trkpt lat="44.9175327" lon="7.1941329"><ele>1334.6</ele><time>2026-04-21T16:05:06.908Z</time></trkpt><trkpt lat="44.9174869" lon="7.1942207"><ele>1331.4</ele><time>2026-04-21T16:05:07.909Z</time></trkpt><trkpt lat="44.9174617" lon="7.1943691"><ele>1328.2</ele><time>2026-04-21T16:05:09.909Z</time></trkpt><trkpt lat="44.9173843" lon="7.1944094"><ele>1325.0</ele><time>2026-04-21T16:05:11.908Z</time></trkpt><trkpt lat="44.9173169" lon="7.1943131"><ele>1325.0</ele><time>2026-04-21T16:05:13.909Z</time></trkpt><trkpt lat="44.9173031" lon="7.1941617"><ele>1325.0</ele><time>2026-04-21T16:05:15.909Z</time></trkpt><trkpt lat="44.9172973" lon="7.1939961"><ele>1325.0</ele><time>2026-04-21T16:05:17.908Z</time></trkpt><trkpt lat="44.917265" lon="7.1939068"><ele>1325.0</ele><time>2026-04-21T16:05:18.908Z</time></trkpt><trkpt lat="44.9172112" lon="7.1938279"><ele>1325.0</ele><time>2026-04-21T16:05:19.909Z</time></trkpt><trkpt lat="44.9171472" lon="7.1937598"><ele>1324.3333333333335</ele><time>2026-04-21T16:05:20.908Z</time></trkpt><trkpt lat="44.9170879" lon="7.1936724"><ele>1323.6666666666667</ele><time>2026-04-21T16:05:21.909Z</time></trkpt><trkpt lat="44.9170459" lon="7.193569"><ele>1323.0</ele><time>2026-04-21T16:05:22.907Z</time></trkpt><trkpt lat="44.9170283" lon="7.1934481"><ele>1322.3333333333333</ele><time>2026-04-21T16:05:23.908Z</time></trkpt><trkpt lat="44.9170167" lon="7.1933219"><ele>1321.6666666666665</ele><time>2026-04-21T16:05:24.909Z</time></trkpt><trkpt lat="44.9170027" lon="7.1932044"><ele>1321.0</ele><time>2026-04-21T16:05:25.909Z</time></trkpt><trkpt lat="44.9170125" lon="7.1931044"><ele>1319.8333333333333</ele><time>2026-04-21T16:05:26.908Z</time></trkpt><trkpt lat="44.9170745" lon="7.1929949"><ele>1318.6666666666665</ele><time>2026-04-21T16:05:28.909Z</time></trkpt><trkpt lat="44.9170855" lon="7.1928944"><ele>1317.5</ele><time>2026-04-21T16:05:30.908Z</time></trkpt><trkpt lat="44.9170106" lon="7.1928422"><ele>1316.3333333333333</ele><time>2026-04-21T16:05:32.909Z</time></trkpt><trkpt lat="44.9169503" lon="7.1928772"><ele>1315.1666666666667</ele><time>2026-04-21T16:05:33.909Z</time></trkpt><trkpt lat="44.9168883" lon="7.19293"><ele>1314.0</ele><time>2026-04-21T16:05:34.909Z</time></trkpt><trkpt lat="44.9168331" lon="7.1930298"><ele>1314.0</ele><time>2026-04-21T16:05:35.908Z</time></trkpt><trkpt lat="44.9167747" lon="7.1931469"><ele>1314.0</ele><time>2026-04-21T16:05:36.907Z</time></trkpt><trkpt lat="44.9167096" lon="7.1932709"><ele>1314.0</ele><time>2026-04-21T16:05:37.907Z</time></trkpt><trkpt lat="44.9166375" lon="7.1934003"><ele>1314.0</ele><time>2026-04-21T16:05:38.908Z</time></trkpt><trkpt lat="44.9165576" lon="7.1935327"><ele>1310.0</ele><time>2026-04-21T16:05:39.907Z</time></trkpt><trkpt lat="44.9164773" lon="7.1936677"><ele>1306.0</ele><time>2026-04-21T16:05:40.907Z</time></trkpt><trkpt lat="44.9164007" lon="7.1937967"><ele>1302.0</ele><time>2026-04-21T16:05:41.907Z</time></trkpt><trkpt lat="44.9163265" lon="7.1939219"><ele>1298.0</ele><time>2026-04-21T16:05:42.906Z</time></trkpt><trkpt lat="44.9162552" lon="7.194043"><ele>1298.0</ele><time>2026-04-21T16:05:43.908Z</time></trkpt><trkpt lat="44.9161872" lon="7.1941529"><ele>1298.0</ele><time>2026-04-21T16:05:44.906Z</time></trkpt><trkpt lat="44.9161438" lon="7.1942733"><ele>1298.0</ele><time>2026-04-21T16:05:45.907Z</time></trkpt><trkpt lat="44.9161199" lon="7.1944162"><ele>1298.0</ele><time>2026-04-21T16:05:46.907Z</time></trkpt><trkpt lat="44.9161122" lon="7.1945701"><ele>1298.0</ele><time>2026-04-21T16:05:47.907Z</time></trkpt><trkpt lat="44.9161038" lon="7.1947261"><ele>1297.1666666666667</ele><time>2026-04-21T16:05:48.908Z</time></trkpt><trkpt lat="44.9160931" lon="7.1948615"><ele>1296.3333333333335</ele><time>2026-04-21T16:05:49.907Z</time></trkpt><trkpt lat="44.9160825" lon="7.194978"><ele>1295.5</ele><time>2026-04-21T16:05:50.907Z</time></trkpt><trkpt lat="44.9160604" lon="7.1950816"><ele>1294.6666666666667</ele><time>2026-04-21T16:05:51.908Z</time></trkpt><trkpt lat="44.9160193" lon="7.1951729"><ele>1293.8333333333333</ele><time>2026-04-21T16:05:52.907Z</time></trkpt><trkpt lat="44.915949" lon="7.1952428"><ele>1293.0</ele><time>2026-04-21T16:05:53.908Z</time></trkpt><trkpt lat="44.9158618" lon="7.195281"><ele>1289.0</ele><time>2026-04-21T16:05:54.907Z</time></trkpt><trkpt lat="44.9157714" lon="7.1953083"><ele>1285.0</ele><time>2026-04-21T16:05:55.907Z</time></trkpt><trkpt lat="44.9156905" lon="7.1953492"><ele>1281.0</ele><time>2026-04-21T16:05:56.908Z</time></trkpt><trkpt lat="44.9156334" lon="7.1954212"><ele>1277.0</ele><time>2026-04-21T16:05:57.906Z</time></trkpt><trkpt lat="44.9156124" lon="7.1955121"><ele>1273.0</ele><time>2026-04-21T16:05:58.906Z</time></trkpt><trkpt lat="44.9155566" lon="7.1956435"><ele>1269.0</ele><time>2026-04-21T16:06:00.907Z</time></trkpt><trkpt lat="44.9154495" lon="7.1955921"><ele>1269.0</ele><time>2026-04-21T16:06:02.906Z</time></trkpt><trkpt lat="44.9154075" lon="7.1955124"><ele>1269.0</ele><time>2026-04-21T16:06:03.907Z</time></trkpt><trkpt lat="44.9153788" lon="7.1953969"><ele>1269.0</ele><time>2026-04-21T16:06:04.907Z</time></trkpt><trkpt lat="44.9153629" lon="7.1952759"><ele>1269.0</ele><time>2026-04-21T16:06:05.908Z</time></trkpt><trkpt lat="44.9153639" lon="7.1951686"><ele>1269.0</ele><time>2026-04-21T16:06:06.908Z</time></trkpt><trkpt lat="44.915327" lon="7.1950347"><ele>1269.0</ele><time>2026-04-21T16:06:08.907Z</time></trkpt><trkpt lat="44.9152428" lon="7.195075"><ele>1269.0</ele><time>2026-04-21T16:06:10.908Z</time></trkpt><trkpt lat="44.9151681" lon="7.1952159"><ele>1269.0</ele><time>2026-04-21T16:06:12.908Z</time></trkpt><trkpt lat="44.9151232" lon="7.1953065"><ele>1269.0</ele><time>2026-04-21T16:06:13.907Z</time></trkpt><trkpt lat="44.915078" lon="7.1954115"><ele>1269.0</ele><time>2026-04-21T16:06:14.907Z</time></trkpt><trkpt lat="44.9150333" lon="7.1955081"><ele>1269.0</ele><time>2026-04-21T16:06:15.906Z</time></trkpt><trkpt lat="44.9149937" lon="7.1955999"><ele>1269.0</ele><time>2026-04-21T16:06:16.908Z</time></trkpt><trkpt lat="44.9149623" lon="7.1956904"><ele>1263.8</ele><time>2026-04-21T16:06:17.907Z</time></trkpt><trkpt lat="44.9148785" lon="7.1958012"><ele>1258.6000000000001</ele><time>2026-04-21T16:06:19.907Z</time></trkpt><trkpt lat="44.9147867" lon="7.1957932"><ele>1253.4</ele><time>2026-04-21T16:06:21.907Z</time></trkpt><trkpt lat="44.9147529" lon="7.1956522"><ele>1248.2</ele><time>2026-04-21T16:06:23.907Z</time></trkpt><trkpt lat="44.9147642" lon="7.195558"><ele>1243.0</ele><time>2026-04-21T16:06:24.907Z</time></trkpt><trkpt lat="44.9147827" lon="7.1954471"><ele>1243.0</ele><time>2026-04-21T16:06:25.907Z</time></trkpt><trkpt lat="44.9148049" lon="7.1953145"><ele>1243.0</ele><time>2026-04-21T16:06:26.907Z</time></trkpt><trkpt lat="44.9148232" lon="7.1951807"><ele>1243.0</ele><time>2026-04-21T16:06:27.908Z</time></trkpt><trkpt lat="44.9148313" lon="7.1950374"><ele>1243.0</ele><time>2026-04-21T16:06:28.907Z</time></trkpt><trkpt lat="44.9148135" lon="7.1948959"><ele>1243.0</ele><time>2026-04-21T16:06:29.908Z</time></trkpt><trkpt lat="44.9147787" lon="7.1947654"><ele>1242.5</ele><time>2026-04-21T16:06:30.907Z</time></trkpt><trkpt lat="44.9147411" lon="7.1946602"><ele>1242.0</ele><time>2026-04-21T16:06:31.908Z</time></trkpt><trkpt lat="44.9147114" lon="7.1945668"><ele>1241.5</ele><time>2026-04-21T16:06:32.906Z</time></trkpt><trkpt lat="44.9146861" lon="7.1944808"><ele>1241.0</ele><time>2026-04-21T16:06:33.908Z</time></trkpt><trkpt lat="44.9146573" lon="7.1943355"><ele>1240.5</ele><time>2026-04-21T16:06:35.906Z</time></trkpt><trkpt lat="44.9145746" lon="7.1943324"><ele>1240.0</ele><time>2026-04-21T16:06:37.908Z</time></trkpt><trkpt lat="44.9145297" lon="7.1944738"><ele>1240.0</ele><time>2026-04-21T16:06:39.907Z</time></trkpt><trkpt lat="44.9145106" lon="7.1945857"><ele>1240.0</ele><time>2026-04-21T16:06:40.907Z</time></trkpt><trkpt lat="44.9145058" lon="7.1947429"><ele>1240.0</ele><time>2026-04-21T16:06:41.908Z</time></trkpt><trkpt lat="44.9144818" lon="7.1949074"><ele>1240.0</ele><time>2026-04-21T16:06:42.907Z</time></trkpt><trkpt lat="44.914433" lon="7.1950798"><ele>1240.0</ele><time>2026-04-21T16:06:43.907Z</time></trkpt><trkpt lat="44.914382" lon="7.1952457"><ele>1240.6</ele><time>2026-04-21T16:06:44.908Z</time></trkpt><trkpt lat="44.9143307" lon="7.1954082"><ele>1241.2</ele><time>2026-04-21T16:06:45.906Z</time></trkpt><trkpt lat="44.9142771" lon="7.1955452"><ele>1241.8</ele><time>2026-04-21T16:06:46.908Z</time></trkpt><trkpt lat="44.9142228" lon="7.1956662"><ele>1242.4</ele><time>2026-04-21T16:06:47.906Z</time></trkpt><trkpt lat="44.9141731" lon="7.1957685"><ele>1243.0</ele><time>2026-04-21T16:06:48.907Z</time></trkpt><trkpt lat="44.9141365" lon="7.1958767"><ele>1243.0</ele><time>2026-04-21T16:06:49.908Z</time></trkpt><trkpt lat="44.9141209" lon="7.195984"><ele>1243.0</ele><time>2026-04-21T16:06:50.908Z</time></trkpt><trkpt lat="44.9141291" lon="7.1960929"><ele>1243.0</ele><time>2026-04-21T16:06:51.907Z</time></trkpt><trkpt lat="44.9141753" lon="7.1961921"><ele>1243.0</ele><time>2026-04-21T16:06:52.907Z</time></trkpt><trkpt lat="44.9142213" lon="7.1962787"><ele>1243.0</ele><time>2026-04-21T16:06:53.907Z</time></trkpt><trkpt lat="44.9142812" lon="7.1963467"><ele>1243.0</ele><time>2026-04-21T16:06:54.906Z</time></trkpt><trkpt lat="44.9143481" lon="7.1963947"><ele>1243.0</ele><time>2026-04-21T16:06:55.907Z</time></trkpt><trkpt lat="44.9144242" lon="7.1964349"><ele>1243.0</ele><time>2026-04-21T16:06:56.907Z</time></trkpt><trkpt lat="44.9145423" lon="7.1964962"><ele>1243.0</ele><time>2026-04-21T16:06:58.906Z</time></trkpt><trkpt lat="44.9146358" lon="7.196581"><ele>1243.0</ele><time>2026-04-21T16:07:00.908Z</time></trkpt><trkpt lat="44.9146369" lon="7.1966992"><ele>1243.0</ele><time>2026-04-21T16:07:02.906Z</time></trkpt><trkpt lat="44.91454" lon="7.1967261"><ele>1239.6666666666665</ele><time>2026-04-21T16:07:04.908Z</time></trkpt><trkpt lat="44.9144737" lon="7.1967126"><ele>1236.3333333333333</ele><time>2026-04-21T16:07:05.908Z</time></trkpt><trkpt lat="44.914397" lon="7.1966968"><ele>1233.0</ele><time>2026-04-21T16:07:06.906Z</time></trkpt><trkpt lat="44.9143138" lon="7.1967097"><ele>1229.6666666666667</ele><time>2026-04-21T16:07:07.907Z</time></trkpt><trkpt lat="44.9142333" lon="7.1967391"><ele>1226.3333333333335</ele><time>2026-04-21T16:07:08.907Z</time></trkpt><trkpt lat="44.914154" lon="7.196767"><ele>1223.0</ele><time>2026-04-21T16:07:09.906Z</time></trkpt><trkpt lat="44.9140757" lon="7.1967923"><ele>1221.5</ele><time>2026-04-21T16:07:10.907Z</time></trkpt><trkpt lat="44.9139955" lon="7.1967981"><ele>1220.0</ele><time>2026-04-21T16:07:11.906Z</time></trkpt><trkpt lat="44.9139188" lon="7.1967679"><ele>1218.5</ele><time>2026-04-21T16:07:12.906Z</time></trkpt><trkpt lat="44.913853" lon="7.196716"><ele>1217.0</ele><time>2026-04-21T16:07:13.907Z</time></trkpt><trkpt lat="44.913797" lon="7.1966384"><ele>1215.5</ele><time>2026-04-21T16:07:14.908Z</time></trkpt><trkpt lat="44.9137521" lon="7.1965529"><ele>1214.0</ele><time>2026-04-21T16:07:15.908Z</time></trkpt><trkpt lat="44.9136993" lon="7.1964094"><ele>1214.0</ele><time>2026-04-21T16:07:17.908Z</time></trkpt><trkpt lat="44.9136382" lon="7.1963483"><ele>1214.0</ele><time>2026-04-21T16:07:19.907Z</time></trkpt><trkpt lat="44.9136038" lon="7.1964439"><ele>1214.0</ele><time>2026-04-21T16:07:21.907Z</time></trkpt><trkpt lat="44.9136332" lon="7.1966007"><ele>1214.0</ele><time>2026-04-21T16:07:23.907Z</time></trkpt><trkpt lat="44.9136539" lon="7.1967001"><ele>1214.0</ele><time>2026-04-21T16:07:24.907Z</time></trkpt><trkpt lat="44.9136696" lon="7.1968093"><ele>1214.0</ele><time>2026-04-21T16:07:25.908Z</time></trkpt><trkpt lat="44.913681" lon="7.1969233"><ele>1212.1666666666667</ele><time>2026-04-21T16:07:26.907Z</time></trkpt><trkpt lat="44.9136915" lon="7.1970479"><ele>1210.3333333333335</ele><time>2026-04-21T16:07:27.907Z</time></trkpt><trkpt lat="44.9137072" lon="7.197176"><ele>1208.5</ele><time>2026-04-21T16:07:28.907Z</time></trkpt><trkpt lat="44.9137257" lon="7.1973028"><ele>1206.6666666666667</ele><time>2026-04-21T16:07:29.907Z</time></trkpt><trkpt lat="44.9137418" lon="7.1974243"><ele>1204.8333333333333</ele><time>2026-04-21T16:07:30.906Z</time></trkpt><trkpt lat="44.9137451" lon="7.1975304"><ele>1203.0</ele><time>2026-04-21T16:07:31.907Z</time></trkpt><trkpt lat="44.9136817" lon="7.1976841"><ele>1198.8</ele><time>2026-04-21T16:07:33.907Z</time></trkpt><trkpt lat="44.9136016" lon="7.1977217"><ele>1194.6</ele><time>2026-04-21T16:07:34.906Z</time></trkpt><trkpt lat="44.9134978" lon="7.1977316"><ele>1190.4</ele><time>2026-04-21T16:07:35.908Z</time></trkpt><trkpt lat="44.913376" lon="7.1977298"><ele>1186.2</ele><time>2026-04-21T16:07:36.907Z</time></trkpt><trkpt lat="44.9132462" lon="7.1977268"><ele>1182.0</ele><time>2026-04-21T16:07:37.908Z</time></trkpt><trkpt lat="44.9131208" lon="7.1977277"><ele>1178.4</ele><time>2026-04-21T16:07:38.907Z</time></trkpt><trkpt lat="44.913019" lon="7.1977115"><ele>1174.8000000000002</ele><time>2026-04-21T16:07:39.906Z</time></trkpt><trkpt lat="44.9129351" lon="7.1976765"><ele>1171.2</ele><time>2026-04-21T16:07:40.907Z</time></trkpt><trkpt lat="44.9128774" lon="7.1976189"><ele>1167.6000000000001</ele><time>2026-04-21T16:07:41.907Z</time></trkpt><trkpt lat="44.9127858" lon="7.1975718"><ele>1164.0</ele><time>2026-04-21T16:07:43.907Z</time></trkpt><trkpt lat="44.9127515" lon="7.197697"><ele>1164.0</ele><time>2026-04-21T16:07:45.908Z</time></trkpt><trkpt lat="44.9127642" lon="7.197793"><ele>1164.0</ele><time>2026-04-21T16:07:46.907Z</time></trkpt><trkpt lat="44.9127854" lon="7.1979019"><ele>1164.0</ele><time>2026-04-21T16:07:47.907Z</time></trkpt><trkpt lat="44.9128113" lon="7.1980111"><ele>1164.0</ele><time>2026-04-21T16:07:48.908Z</time></trkpt><trkpt lat="44.912861" lon="7.198091"><ele>1164.0</ele><time>2026-04-21T16:07:49.907Z</time></trkpt><trkpt lat="44.9129163" lon="7.1981366"><ele>1164.0</ele><time>2026-04-21T16:07:50.908Z</time></trkpt><trkpt lat="44.9129608" lon="7.1982512"><ele>1160.4</ele><time>2026-04-21T16:07:52.906Z</time></trkpt><trkpt lat="44.912882" lon="7.1983515"><ele>1156.8000000000002</ele><time>2026-04-21T16:07:54.907Z</time></trkpt><trkpt lat="44.912771" lon="7.1983244"><ele>1153.1999999999998</ele><time>2026-04-21T16:07:56.908Z</time></trkpt><trkpt lat="44.9127095" lon="7.1982574"><ele>1149.6</ele><time>2026-04-21T16:07:57.906Z</time></trkpt><trkpt lat="44.9126461" lon="7.1981753"><ele>1146.0</ele><time>2026-04-21T16:07:58.906Z</time></trkpt><trkpt lat="44.9125699" lon="7.1981045"><ele>1145.8</ele><time>2026-04-21T16:07:59.907Z</time></trkpt><trkpt lat="44.9124819" lon="7.1980558"><ele>1145.6</ele><time>2026-04-21T16:08:00.908Z</time></trkpt><trkpt lat="44.9123956" lon="7.1979981"><ele>1145.4</ele><time>2026-04-21T16:08:01.906Z</time></trkpt><trkpt lat="44.9123295" lon="7.1979214"><ele>1145.2</ele><time>2026-04-21T16:08:02.908Z</time></trkpt><trkpt lat="44.912279" lon="7.1978154"><ele>1145.0</ele><time>2026-04-21T16:08:03.906Z</time></trkpt><trkpt lat="44.9122402" lon="7.1976849"><ele>1145.0</ele><time>2026-04-21T16:08:04.907Z</time></trkpt><trkpt lat="44.9122124" lon="7.1975437"><ele>1145.0</ele><time>2026-04-21T16:08:05.907Z</time></trkpt><trkpt lat="44.9122031" lon="7.1974062"><ele>1145.0</ele><time>2026-04-21T16:08:06.907Z</time></trkpt><trkpt lat="44.9121971" lon="7.1972795"><ele>1145.0</ele><time>2026-04-21T16:08:07.906Z</time></trkpt><trkpt lat="44.91216" lon="7.1971785"><ele>1145.0</ele><time>2026-04-21T16:08:08.907Z</time></trkpt><trkpt lat="44.9120854" lon="7.1970862"><ele>1146.4</ele><time>2026-04-21T16:08:09.908Z</time></trkpt><trkpt lat="44.9120039" lon="7.196991"><ele>1147.8</ele><time>2026-04-21T16:08:10.908Z</time></trkpt><trkpt lat="44.9119361" lon="7.196885"><ele>1149.2</ele><time>2026-04-21T16:08:11.907Z</time></trkpt><trkpt lat="44.9118532" lon="7.196816"><ele>1150.6</ele><time>2026-04-21T16:08:12.907Z</time></trkpt><trkpt lat="44.9117748" lon="7.1967472"><ele>1152.0</ele><time>2026-04-21T16:08:13.907Z</time></trkpt><trkpt lat="44.9117278" lon="7.1966567"><ele>1149.0</ele><time>2026-04-21T16:08:14.907Z</time></trkpt><trkpt lat="44.911704" lon="7.1965547"><ele>1146.0</ele><time>2026-04-21T16:08:15.907Z</time></trkpt><trkpt lat="44.9116842" lon="7.1964606"><ele>1143.0</ele><time>2026-04-21T16:08:16.907Z</time></trkpt><trkpt lat="44.9116337" lon="7.1963898"><ele>1140.0</ele><time>2026-04-21T16:08:17.907Z</time></trkpt><trkpt lat="44.9115537" lon="7.196366"><ele>1137.0</ele><time>2026-04-21T16:08:18.907Z</time></trkpt><trkpt lat="44.9114545" lon="7.1963655"><ele>1134.0</ele><time>2026-04-21T16:08:19.908Z</time></trkpt><trkpt lat="44.9113528" lon="7.1963733"><ele>1134.0</ele><time>2026-04-21T16:08:20.907Z</time></trkpt><trkpt lat="44.9112551" lon="7.1963731"><ele>1134.0</ele><time>2026-04-21T16:08:21.906Z</time></trkpt><trkpt lat="44.9111681" lon="7.1963644"><ele>1134.0</ele><time>2026-04-21T16:08:22.907Z</time></trkpt><trkpt lat="44.911087" lon="7.1963375"><ele>1134.0</ele><time>2026-04-21T16:08:23.906Z</time></trkpt><trkpt lat="44.9110236" lon="7.196277"><ele>1134.0</ele><time>2026-04-21T16:08:24.908Z</time></trkpt><trkpt lat="44.9109826" lon="7.1961793"><ele>1134.0</ele><time>2026-04-21T16:08:25.907Z</time></trkpt><trkpt lat="44.9109702" lon="7.1960674"><ele>1134.0</ele><time>2026-04-21T16:08:26.906Z</time></trkpt><trkpt lat="44.9109768" lon="7.1959321"><ele>1134.0</ele><time>2026-04-21T16:08:27.907Z</time></trkpt><trkpt lat="44.9109766" lon="7.1957817"><ele>1134.0</ele><time>2026-04-21T16:08:28.908Z</time></trkpt><trkpt lat="44.9109721" lon="7.1956075"><ele>1134.0</ele><time>2026-04-21T16:08:29.907Z</time></trkpt><trkpt lat="44.9109802" lon="7.195425"><ele>1134.5</ele><time>2026-04-21T16:08:30.908Z</time></trkpt><trkpt lat="44.911017" lon="7.1952339"><ele>1135.0</ele><time>2026-04-21T16:08:31.906Z</time></trkpt><trkpt lat="44.9110766" lon="7.1950444"><ele>1135.5</ele><time>2026-04-21T16:08:32.908Z</time></trkpt><trkpt lat="44.9111385" lon="7.1948832"><ele>1136.0</ele><time>2026-04-21T16:08:33.906Z</time></trkpt><trkpt lat="44.911223" lon="7.194759"><ele>1136.25</ele><time>2026-04-21T16:08:34.908Z</time></trkpt><trkpt lat="44.9113052" lon="7.1946482"><ele>1136.5</ele><time>2026-04-21T16:08:35.906Z</time></trkpt><trkpt lat="44.9113508" lon="7.194504"><ele>1136.75</ele><time>2026-04-21T16:08:36.908Z</time></trkpt><trkpt lat="44.9113758" lon="7.1943315"><ele>1137.0</ele><time>2026-04-21T16:08:37.907Z</time></trkpt><trkpt lat="44.9114006" lon="7.1941445"><ele>1137.75</ele><time>2026-04-21T16:08:38.906Z</time></trkpt><trkpt lat="44.9114281" lon="7.1939581"><ele>1138.5</ele><time>2026-04-21T16:08:39.907Z</time></trkpt><trkpt lat="44.9114414" lon="7.1937803"><ele>1139.25</ele><time>2026-04-21T16:08:40.906Z</time></trkpt><trkpt lat="44.9114579" lon="7.193627"><ele>1140.0</ele><time>2026-04-21T16:08:41.906Z</time></trkpt><trkpt lat="44.9114875" lon="7.1935089"><ele>1140.0</ele><time>2026-04-21T16:08:42.908Z</time></trkpt><trkpt lat="44.9115188" lon="7.1934145"><ele>1140.0</ele><time>2026-04-21T16:08:43.908Z</time></trkpt><trkpt lat="44.9115065" lon="7.1933017"><ele>1140.0</ele><time>2026-04-21T16:08:44.908Z</time></trkpt><trkpt lat="44.9114464" lon="7.1931885"><ele>1140.0</ele><time>2026-04-21T16:08:45.908Z</time></trkpt><trkpt lat="44.911362" lon="7.1930564"><ele>1140.0</ele><time>2026-04-21T16:08:46.908Z</time></trkpt><trkpt lat="44.9112603" lon="7.1929034"><ele>1139.3333333333333</ele><time>2026-04-21T16:08:47.908Z</time></trkpt><trkpt lat="44.9111204" lon="7.1927231"><ele>1138.6666666666665</ele><time>2026-04-21T16:08:48.907Z</time></trkpt><trkpt lat="44.9109612" lon="7.1925283"><ele>1138.0</ele><time>2026-04-21T16:08:49.907Z</time></trkpt><trkpt lat="44.9107752" lon="7.1923356"><ele>1138.0</ele><time>2026-04-21T16:08:50.907Z</time></trkpt><trkpt lat="44.9105883" lon="7.1921721"><ele>1138.0</ele><time>2026-04-21T16:08:51.907Z</time></trkpt><trkpt lat="44.9104098" lon="7.192017"><ele>1138.0</ele><time>2026-04-21T16:08:52.907Z</time></trkpt><trkpt lat="44.9102381" lon="7.1918752"><ele>1127.3333333333333</ele><time>2026-04-21T16:08:53.906Z</time></trkpt><trkpt lat="44.9100727" lon="7.1917457"><ele>1116.6666666666667</ele><time>2026-04-21T16:08:54.907Z</time></trkpt><trkpt lat="44.9099094" lon="7.191621"><ele>1106.0</ele><time>2026-04-21T16:08:55.907Z</time></trkpt><trkpt lat="44.9097536" lon="7.1915093"><ele>1107.75</ele><time>2026-04-21T16:08:56.908Z</time></trkpt><trkpt lat="44.9096168" lon="7.1914065"><ele>1109.5</ele><time>2026-04-21T16:08:57.907Z</time></trkpt><trkpt lat="44.9094911" lon="7.1913162"><ele>1111.25</ele><time>2026-04-21T16:08:58.907Z</time></trkpt><trkpt lat="44.9093864" lon="7.1912059"><ele>1113.0</ele><time>2026-04-21T16:08:59.906Z</time></trkpt><trkpt lat="44.9093076" lon="7.1910636"><ele>1113.0</ele><time>2026-04-21T16:09:00.907Z</time></trkpt><trkpt lat="44.9092524" lon="7.1909053"><ele>1113.0</ele><time>2026-04-21T16:09:01.907Z</time></trkpt><trkpt lat="44.9092382" lon="7.1907249"><ele>1113.0</ele><time>2026-04-21T16:09:02.908Z</time></trkpt><trkpt lat="44.9092411" lon="7.1905233"><ele>1113.0</ele><time>2026-04-21T16:09:03.907Z</time></trkpt><trkpt lat="44.9092428" lon="7.1903142"><ele>1108.0</ele><time>2026-04-21T16:09:04.908Z</time></trkpt><trkpt lat="44.9092184" lon="7.1901072"><ele>1103.0</ele><time>2026-04-21T16:09:05.907Z</time></trkpt><trkpt lat="44.9091809" lon="7.1899041"><ele>1098.0</ele><time>2026-04-21T16:09:06.907Z</time></trkpt><trkpt lat="44.9091512" lon="7.189712"><ele>1093.0</ele><time>2026-04-21T16:09:07.907Z</time></trkpt><trkpt lat="44.9091359" lon="7.1895143"><ele>1093.0</ele><time>2026-04-21T16:09:08.908Z</time></trkpt><trkpt lat="44.909143" lon="7.189305"><ele>1093.0</ele><time>2026-04-21T16:09:09.907Z</time></trkpt><trkpt lat="44.9091564" lon="7.189083"><ele>1093.0</ele><time>2026-04-21T16:09:10.907Z</time></trkpt><trkpt lat="44.909168" lon="7.1888524"><ele>1091.3333333333333</ele><time>2026-04-21T16:09:11.908Z</time></trkpt><trkpt lat="44.9091687" lon="7.1886248"><ele>1089.6666666666667</ele><time>2026-04-21T16:09:12.907Z</time></trkpt><trkpt lat="44.9091511" lon="7.1883992"><ele>1088.0</ele><time>2026-04-21T16:09:13.908Z</time></trkpt><trkpt lat="44.9091374" lon="7.1881803"><ele>1087.5</ele><time>2026-04-21T16:09:14.907Z</time></trkpt><trkpt lat="44.9091509" lon="7.1879683"><ele>1087.0</ele><time>2026-04-21T16:09:15.906Z</time></trkpt><trkpt lat="44.9091417" lon="7.1877554"><ele>1086.5</ele><time>2026-04-21T16:09:16.908Z</time></trkpt><trkpt lat="44.9091131" lon="7.1875549"><ele>1086.0</ele><time>2026-04-21T16:09:17.908Z</time></trkpt><trkpt lat="44.9090989" lon="7.1873741"><ele>1085.5</ele><time>2026-04-21T16:09:18.907Z</time></trkpt><trkpt lat="44.9090949" lon="7.1872075"><ele>1085.0</ele><time>2026-04-21T16:09:19.907Z</time></trkpt><trkpt lat="44.9091029" lon="7.1870608"><ele>1084.5</ele><time>2026-04-21T16:09:20.907Z</time></trkpt><trkpt lat="44.9091003" lon="7.1869443"><ele>1084.0</ele><time>2026-04-21T16:09:21.908Z</time></trkpt><trkpt lat="44.9090648" lon="7.1868598"><ele>1083.5</ele><time>2026-04-21T16:09:22.907Z</time></trkpt><trkpt lat="44.9090015" lon="7.1868447"><ele>1083.0</ele><time>2026-04-21T16:09:23.908Z</time></trkpt><trkpt lat="44.9089408" lon="7.1868943"><ele>1083.0</ele><time>2026-04-21T16:09:24.907Z</time></trkpt><trkpt lat="44.9088993" lon="7.1869825"><ele>1083.0</ele><time>2026-04-21T16:09:25.907Z</time></trkpt><trkpt lat="44.9088702" lon="7.187075"><ele>1083.0</ele><time>2026-04-21T16:09:26.907Z</time></trkpt><trkpt lat="44.9088526" lon="7.1871969"><ele>1083.0</ele><time>2026-04-21T16:09:27.907Z</time></trkpt><trkpt lat="44.9088572" lon="7.1873351"><ele>1083.0</ele><time>2026-04-21T16:09:28.908Z</time></trkpt><trkpt lat="44.90888" lon="7.1874846"><ele>1083.0</ele><time>2026-04-21T16:09:29.906Z</time></trkpt><trkpt lat="44.9089092" lon="7.1876457"><ele>1083.75</ele><time>2026-04-21T16:09:30.908Z</time></trkpt><trkpt lat="44.9089121" lon="7.1878205"><ele>1084.5</ele><time>2026-04-21T16:09:31.906Z</time></trkpt><trkpt lat="44.9088745" lon="7.1879987"><ele>1085.25</ele><time>2026-04-21T16:09:32.906Z</time></trkpt><trkpt lat="44.9088093" lon="7.1881687"><ele>1086.0</ele><time>2026-04-21T16:09:33.907Z</time></trkpt><trkpt lat="44.9087112" lon="7.1883321"><ele>1086.6666666666667</ele><time>2026-04-21T16:09:34.907Z</time></trkpt><trkpt lat="44.9086002" lon="7.1884747"><ele>1087.3333333333335</ele><time>2026-04-21T16:09:35.906Z</time></trkpt><trkpt lat="44.9084934" lon="7.188625"><ele>1088.0</ele><time>2026-04-21T16:09:36.907Z</time></trkpt><trkpt lat="44.9083948" lon="7.1887832"><ele>1079.3333333333335</ele><time>2026-04-21T16:09:37.908Z</time></trkpt><trkpt lat="44.9083143" lon="7.1889804"><ele>1070.6666666666667</ele><time>2026-04-21T16:09:38.908Z</time></trkpt><trkpt lat="44.9082373" lon="7.1892044"><ele>1062.0</ele><time>2026-04-21T16:09:39.908Z</time></trkpt><trkpt lat="44.908154" lon="7.1894465"><ele>1062.0</ele><time>2026-04-21T16:09:40.907Z</time></trkpt><trkpt lat="44.9080689" lon="7.1897064"><ele>1062.0</ele><time>2026-04-21T16:09:41.908Z</time></trkpt><trkpt lat="44.9079857" lon="7.1899708"><ele>1062.0</ele><time>2026-04-21T16:09:42.907Z</time></trkpt><trkpt lat="44.9079031" lon="7.190217"><ele>1064.0</ele><time>2026-04-21T16:09:43.908Z</time></trkpt><trkpt lat="44.9078186" lon="7.1904507"><ele>1066.0</ele><time>2026-04-21T16:09:44.907Z</time></trkpt><trkpt lat="44.9077314" lon="7.1906649"><ele>1068.0</ele><time>2026-04-21T16:09:45.907Z</time></trkpt><trkpt lat="44.9076497" lon="7.1908624"><ele>1069.0</ele><time>2026-04-21T16:09:46.906Z</time></trkpt><trkpt lat="44.9075849" lon="7.1910734"><ele>1070.0</ele><time>2026-04-21T16:09:47.907Z</time></trkpt><trkpt lat="44.9075322" lon="7.1913089"><ele>1071.0</ele><time>2026-04-21T16:09:48.908Z</time></trkpt><trkpt lat="44.907472" lon="7.1915245"><ele>1065.2</ele><time>2026-04-21T16:09:49.907Z</time></trkpt><trkpt lat="44.9074153" lon="7.191712"><ele>1059.3999999999999</ele><time>2026-04-21T16:09:50.906Z</time></trkpt><trkpt lat="44.9073744" lon="7.1918569"><ele>1053.6</ele><time>2026-04-21T16:09:51.907Z</time></trkpt><trkpt lat="44.9073528" lon="7.1919747"><ele>1047.8</ele><time>2026-04-21T16:09:52.907Z</time></trkpt><trkpt lat="44.9073718" lon="7.1920848"><ele>1042.0</ele><time>2026-04-21T16:09:53.908Z</time></trkpt><trkpt lat="44.9074423" lon="7.19219"><ele>1042.0</ele><time>2026-04-21T16:09:54.908Z</time></trkpt><trkpt lat="44.9075511" lon="7.1923081"><ele>1042.0</ele><time>2026-04-21T16:09:55.908Z</time></trkpt><trkpt lat="44.9076898" lon="7.192417"><ele>1042.0</ele><time>2026-04-21T16:09:56.907Z</time></trkpt><trkpt lat="44.9078768" lon="7.1924931"><ele>1043.3333333333333</ele><time>2026-04-21T16:09:57.907Z</time></trkpt><trkpt lat="44.9080611" lon="7.1925811"><ele>1044.6666666666667</ele><time>2026-04-21T16:09:58.907Z</time></trkpt><trkpt lat="44.9082297" lon="7.1926785"><ele>1046.0</ele><time>2026-04-21T16:09:59.906Z</time></trkpt><trkpt lat="44.9083985" lon="7.192779"><ele>1051.6666666666667</ele><time>2026-04-21T16:10:00.908Z</time></trkpt><trkpt lat="44.908557" lon="7.1928874"><ele>1057.3333333333333</ele><time>2026-04-21T16:10:01.907Z</time></trkpt><trkpt lat="44.9087055" lon="7.1930118"><ele>1063.0</ele><time>2026-04-21T16:10:02.908Z</time></trkpt><trkpt lat="44.9088495" lon="7.1931585"><ele>1055.0</ele><time>2026-04-21T16:10:03.908Z</time></trkpt><trkpt lat="44.9089823" lon="7.1933074"><ele>1047.0</ele><time>2026-04-21T16:10:04.907Z</time></trkpt><trkpt lat="44.9091051" lon="7.1934511"><ele>1039.0</ele><time>2026-04-21T16:10:05.906Z</time></trkpt><trkpt lat="44.9092206" lon="7.1935883"><ele>1045.0</ele><time>2026-04-21T16:10:06.908Z</time></trkpt><trkpt lat="44.9093175" lon="7.193712"><ele>1051.0</ele><time>2026-04-21T16:10:07.908Z</time></trkpt><trkpt lat="44.9093961" lon="7.1938618"><ele>1057.0</ele><time>2026-04-21T16:10:08.907Z</time></trkpt><trkpt lat="44.9094314" lon="7.1940398"><ele>1063.0</ele><time>2026-04-21T16:10:09.906Z</time></trkpt><trkpt lat="44.9094488" lon="7.1942114"><ele>1063.0</ele><time>2026-04-21T16:10:10.907Z</time></trkpt><trkpt lat="44.9094469" lon="7.1943619"><ele>1063.0</ele><time>2026-04-21T16:10:11.907Z</time></trkpt><trkpt lat="44.9094099" lon="7.1944797"><ele>1063.0</ele><time>2026-04-21T16:10:12.907Z</time></trkpt><trkpt lat="44.9093178" lon="7.1945523"><ele>1063.0</ele><time>2026-04-21T16:10:13.908Z</time></trkpt><trkpt lat="44.9092021" lon="7.1946095"><ele>1063.0</ele><time>2026-04-21T16:10:14.908Z</time></trkpt><trkpt lat="44.909022" lon="7.1947205"><ele>1050.3333333333333</ele><time>2026-04-21T16:10:15.908Z</time></trkpt><trkpt lat="44.9088554" lon="7.1948523"><ele>1037.6666666666667</ele><time>2026-04-21T16:10:16.907Z</time></trkpt><trkpt lat="44.9086944" lon="7.1949721"><ele>1025.0</ele><time>2026-04-21T16:10:17.907Z</time></trkpt><trkpt lat="44.9085323" lon="7.1950762"><ele>1016.5</ele><time>2026-04-21T16:10:18.908Z</time></trkpt><trkpt lat="44.9083988" lon="7.1951546"><ele>1008.0</ele><time>2026-04-21T16:10:19.906Z</time></trkpt><trkpt lat="44.9082873" lon="7.1952451"><ele>999.5</ele><time>2026-04-21T16:10:20.907Z</time></trkpt><trkpt lat="44.9082099" lon="7.1953546"><ele>991.0</ele><time>2026-04-21T16:10:21.908Z</time></trkpt><trkpt lat="44.908168" lon="7.1954881"><ele>991.0</ele><time>2026-04-21T16:10:22.907Z</time></trkpt><trkpt lat="44.9081556" lon="7.1956629"><ele>991.0</ele><time>2026-04-21T16:10:23.907Z</time></trkpt><trkpt lat="44.9081582" lon="7.1958595"><ele>991.0</ele><time>2026-04-21T16:10:24.907Z</time></trkpt><trkpt lat="44.9081606" lon="7.1960826"><ele>991.0</ele><time>2026-04-21T16:10:25.907Z</time></trkpt><trkpt lat="44.9081646" lon="7.1963247"><ele>993.3333333333333</ele><time>2026-04-21T16:10:26.908Z</time></trkpt><trkpt lat="44.9081745" lon="7.196565"><ele>995.6666666666667</ele><time>2026-04-21T16:10:27.906Z</time></trkpt><trkpt lat="44.9081954" lon="7.196801"><ele>998.0</ele><time>2026-04-21T16:10:28.907Z</time></trkpt><trkpt lat="44.9082348" lon="7.1970322"><ele>998.0</ele><time>2026-04-21T16:10:29.906Z</time></trkpt><trkpt lat="44.9082829" lon="7.1972631"><ele>998.0</ele><time>2026-04-21T16:10:30.908Z</time></trkpt><trkpt lat="44.9083258" lon="7.1974908"><ele>998.0</ele><time>2026-04-21T16:10:31.907Z</time></trkpt><trkpt lat="44.9083532" lon="7.1977194"><ele>994.0</ele><time>2026-04-21T16:10:32.907Z</time></trkpt><trkpt lat="44.9083628" lon="7.197947"><ele>990.0</ele><time>2026-04-21T16:10:33.907Z</time></trkpt><trkpt lat="44.9083713" lon="7.1981738"><ele>986.0</ele><time>2026-04-21T16:10:34.908Z</time></trkpt><trkpt lat="44.9083789" lon="7.1983606"><ele>984.6666666666667</ele><time>2026-04-21T16:10:35.906Z</time></trkpt><trkpt lat="44.9083811" lon="7.1984895"><ele>983.3333333333334</ele><time>2026-04-21T16:10:36.907Z</time></trkpt><trkpt lat="44.9083852" lon="7.1985813"><ele>982.0</ele><time>2026-04-21T16:10:37.908Z</time></trkpt><trkpt lat="44.9083776" lon="7.1986844"><ele>980.6666666666667</ele><time>2026-04-21T16:10:38.907Z</time></trkpt><trkpt lat="44.9083417" lon="7.1987806"><ele>979.3333333333334</ele><time>2026-04-21T16:10:39.907Z</time></trkpt><trkpt lat="44.9082814" lon="7.1988706"><ele>978.0</ele><time>2026-04-21T16:10:40.907Z</time></trkpt><trkpt lat="44.9081932" lon="7.1989133"><ele>978.0</ele><time>2026-04-21T16:10:41.908Z</time></trkpt><trkpt lat="44.9080892" lon="7.1989186"><ele>978.0</ele><time>2026-04-21T16:10:42.907Z</time></trkpt><trkpt lat="44.9079802" lon="7.1988932"><ele>978.0</ele><time>2026-04-21T16:10:43.908Z</time></trkpt><trkpt lat="44.9078647" lon="7.198877"><ele>978.0</ele><time>2026-04-21T16:10:44.907Z</time></trkpt><trkpt lat="44.90775" lon="7.1988685"><ele>978.0</ele><time>2026-04-21T16:10:45.906Z</time></trkpt><trkpt lat="44.907629" lon="7.1988918"><ele>977.25</ele><time>2026-04-21T16:10:46.906Z</time></trkpt><trkpt lat="44.9075006" lon="7.1989348"><ele>976.5</ele><time>2026-04-21T16:10:47.906Z</time></trkpt><trkpt lat="44.9073773" lon="7.1989897"><ele>975.75</ele><time>2026-04-21T16:10:48.907Z</time></trkpt><trkpt lat="44.9072554" lon="7.1990442"><ele>975.0</ele><time>2026-04-21T16:10:49.906Z</time></trkpt><trkpt lat="44.9071463" lon="7.1990977"><ele>975.0</ele><time>2026-04-21T16:10:50.906Z</time></trkpt><trkpt lat="44.9070482" lon="7.1991683"><ele>975.0</ele><time>2026-04-21T16:10:51.906Z</time></trkpt><trkpt lat="44.9069759" lon="7.1992897"><ele>975.0</ele><time>2026-04-21T16:10:52.906Z</time></trkpt><trkpt lat="44.9069251" lon="7.1994429"><ele>975.0</ele><time>2026-04-21T16:10:53.906Z</time></trkpt><trkpt lat="44.9068887" lon="7.1996297"><ele>975.0</ele><time>2026-04-21T16:10:54.906Z</time></trkpt><trkpt lat="44.9068544" lon="7.1998314"><ele>975.0</ele><time>2026-04-21T16:10:55.906Z</time></trkpt><trkpt lat="44.9067943" lon="7.2000376"><ele>975.0</ele><time>2026-04-21T16:10:56.906Z</time></trkpt><trkpt lat="44.9067015" lon="7.2002399"><ele>972.3333333333333</ele><time>2026-04-21T16:10:57.906Z</time></trkpt><trkpt lat="44.9066024" lon="7.2004467"><ele>969.6666666666666</ele><time>2026-04-21T16:10:58.907Z</time></trkpt><trkpt lat="44.9064895" lon="7.2006609"><ele>967.0</ele><time>2026-04-21T16:10:59.907Z</time></trkpt><trkpt lat="44.906374" lon="7.2008801"><ele>967.0</ele><time>2026-04-21T16:11:00.906Z</time></trkpt><trkpt lat="44.9062551" lon="7.2011046"><ele>967.0</ele><time>2026-04-21T16:11:01.906Z</time></trkpt><trkpt lat="44.9061561" lon="7.2013364"><ele>967.0</ele><time>2026-04-21T16:11:02.906Z</time></trkpt><trkpt lat="44.9060622" lon="7.2015708"><ele>973.3333333333333</ele><time>2026-04-21T16:11:03.906Z</time></trkpt><trkpt lat="44.90595" lon="7.2017981"><ele>979.6666666666667</ele><time>2026-04-21T16:11:04.906Z</time></trkpt><trkpt lat="44.9058318" lon="7.2020171"><ele>986.0</ele><time>2026-04-21T16:11:05.907Z</time></trkpt><trkpt lat="44.905707" lon="7.2022265"><ele>973.3333333333334</ele><time>2026-04-21T16:11:06.906Z</time></trkpt><trkpt lat="44.9055865" lon="7.2024322"><ele>960.6666666666667</ele><time>2026-04-21T16:11:07.906Z</time></trkpt><trkpt lat="44.9054789" lon="7.2026223"><ele>948.0</ele><time>2026-04-21T16:11:08.906Z</time></trkpt><trkpt lat="44.9053737" lon="7.2027793"><ele>948.0</ele><time>2026-04-21T16:11:09.906Z</time></trkpt><trkpt lat="44.9052583" lon="7.2028783"><ele>948.0</ele><time>2026-04-21T16:11:10.906Z</time></trkpt><trkpt lat="44.9051501" lon="7.2029572"><ele>948.0</ele><time>2026-04-21T16:11:11.905Z</time></trkpt><trkpt lat="44.9050601" lon="7.203071"><ele>948.0</ele><time>2026-04-21T16:11:12.906Z</time></trkpt><trkpt lat="44.9049956" lon="7.2032173"><ele>951.25</ele><time>2026-04-21T16:11:13.903Z</time></trkpt><trkpt lat="44.904965" lon="7.2033813"><ele>954.5</ele><time>2026-04-21T16:11:14.906Z</time></trkpt><trkpt lat="44.9049742" lon="7.2035496"><ele>957.75</ele><time>2026-04-21T16:11:15.907Z</time></trkpt><trkpt lat="44.9050289" lon="7.2037376"><ele>961.0</ele><time>2026-04-21T16:11:16.906Z</time></trkpt><trkpt lat="44.9050907" lon="7.2039305"><ele>958.75</ele><time>2026-04-21T16:11:17.906Z</time></trkpt><trkpt lat="44.9051531" lon="7.2041116"><ele>956.5</ele><time>2026-04-21T16:11:18.907Z</time></trkpt><trkpt lat="44.9052201" lon="7.2042659"><ele>954.25</ele><time>2026-04-21T16:11:19.906Z</time></trkpt><trkpt lat="44.9053085" lon="7.2043912"><ele>952.0</ele><time>2026-04-21T16:11:20.905Z</time></trkpt><trkpt lat="44.9054116" lon="7.2044997"><ele>952.0</ele><time>2026-04-21T16:11:21.906Z</time></trkpt><trkpt lat="44.9055091" lon="7.2045979"><ele>952.0</ele><time>2026-04-21T16:11:22.906Z</time></trkpt><trkpt lat="44.9055962" lon="7.2046851"><ele>952.0</ele><time>2026-04-21T16:11:23.906Z</time></trkpt><trkpt lat="44.905674" lon="7.2047619"><ele>952.0</ele><time>2026-04-21T16:11:24.906Z</time></trkpt><trkpt lat="44.905741" lon="7.2048442"><ele>952.0</ele><time>2026-04-21T16:11:25.906Z</time></trkpt><trkpt lat="44.9058012" lon="7.2049262"><ele>945.2</ele><time>2026-04-21T16:11:26.906Z</time></trkpt><trkpt lat="44.9058668" lon="7.2049928"><ele>938.4000000000001</ele><time>2026-04-21T16:11:27.907Z</time></trkpt><trkpt lat="44.9059132" lon="7.205057"><ele>931.5999999999999</ele><time>2026-04-21T16:11:28.907Z</time></trkpt><trkpt lat="44.9058817" lon="7.2052043"><ele>924.8</ele><time>2026-04-21T16:11:30.906Z</time></trkpt><trkpt lat="44.90577" lon="7.2051183"><ele>918.0</ele><time>2026-04-21T16:11:32.906Z</time></trkpt><trkpt lat="44.905722" lon="7.2050203"><ele>917.4</ele><time>2026-04-21T16:11:33.906Z</time></trkpt><trkpt lat="44.9056603" lon="7.2049319"><ele>916.8</ele><time>2026-04-21T16:11:34.907Z</time></trkpt><trkpt lat="44.9055833" lon="7.2048574"><ele>916.2</ele><time>2026-04-21T16:11:35.907Z</time></trkpt><trkpt lat="44.9055008" lon="7.2047936"><ele>915.6</ele><time>2026-04-21T16:11:36.906Z</time></trkpt><trkpt lat="44.905407" lon="7.204734"><ele>915.0</ele><time>2026-04-21T16:11:37.906Z</time></trkpt><trkpt lat="44.9053165" lon="7.2046717"><ele>914.0</ele><time>2026-04-21T16:11:38.907Z</time></trkpt><trkpt lat="44.9052232" lon="7.2045942"><ele>913.0</ele><time>2026-04-21T16:11:39.907Z</time></trkpt><trkpt lat="44.9051329" lon="7.2045042"><ele>912.0</ele><time>2026-04-21T16:11:40.906Z</time></trkpt><trkpt lat="44.9050458" lon="7.2043983"><ele>911.0</ele><time>2026-04-21T16:11:41.905Z</time></trkpt><trkpt lat="44.9049615" lon="7.2042804"><ele>911.0</ele><time>2026-04-21T16:11:42.906Z</time></trkpt><trkpt lat="44.9048771" lon="7.2041628"><ele>911.0</ele><time>2026-04-21T16:11:43.906Z</time></trkpt><trkpt lat="44.9047949" lon="7.204052"><ele>911.0</ele><time>2026-04-21T16:11:44.906Z</time></trkpt><trkpt lat="44.9047114" lon="7.2039453"><ele>911.0</ele><time>2026-04-21T16:11:45.906Z</time></trkpt><trkpt lat="44.9046295" lon="7.2038437"><ele>911.5000000000001</ele><time>2026-04-21T16:11:46.907Z</time></trkpt><trkpt lat="44.9045525" lon="7.2037466"><ele>912.0</ele><time>2026-04-21T16:11:47.906Z</time></trkpt><trkpt lat="44.9044919" lon="7.2036499"><ele>912.5</ele><time>2026-04-21T16:11:48.906Z</time></trkpt><trkpt lat="44.9044479" lon="7.2035479"><ele>913.0</ele><time>2026-04-21T16:11:49.905Z</time></trkpt><trkpt lat="44.9044207" lon="7.2034384"><ele>913.5000000000001</ele><time>2026-04-21T16:11:50.907Z</time></trkpt><trkpt lat="44.9044091" lon="7.2033173"><ele>914.0</ele><time>2026-04-21T16:11:51.906Z</time></trkpt><trkpt lat="44.904412" lon="7.2031888"><ele>911.0</ele><time>2026-04-21T16:11:52.906Z</time></trkpt><trkpt lat="44.9044318" lon="7.2030629"><ele>908.0000000000001</ele><time>2026-04-21T16:11:53.906Z</time></trkpt><trkpt lat="44.9044735" lon="7.2029404"><ele>905.0000000000001</ele><time>2026-04-21T16:11:54.906Z</time></trkpt><trkpt lat="44.9045285" lon="7.202832"><ele>902.0</ele><time>2026-04-21T16:11:55.905Z</time></trkpt><trkpt lat="44.9045915" lon="7.2027301"><ele>899.0</ele><time>2026-04-21T16:11:56.907Z</time></trkpt><trkpt lat="44.9046653" lon="7.2026277"><ele>899.0</ele><time>2026-04-21T16:11:57.905Z</time></trkpt><trkpt lat="44.9047405" lon="7.2025202"><ele>899.0000000000001</ele><time>2026-04-21T16:11:58.907Z</time></trkpt><trkpt lat="44.9048169" lon="7.2024068"><ele>899.0000000000001</ele><time>2026-04-21T16:11:59.906Z</time></trkpt><trkpt lat="44.904886" lon="7.2022766"><ele>899.0</ele><time>2026-04-21T16:12:00.907Z</time></trkpt><trkpt lat="44.9049436" lon="7.2021338"><ele>899.0</ele><time>2026-04-21T16:12:01.906Z</time></trkpt><trkpt lat="44.9050001" lon="7.2019869"><ele>900.5</ele><time>2026-04-21T16:12:02.906Z</time></trkpt><trkpt lat="44.9050533" lon="7.2018436"><ele>902.0</ele><time>2026-04-21T16:12:03.905Z</time></trkpt><trkpt lat="44.9050948" lon="7.2016995"><ele>903.5</ele><time>2026-04-21T16:12:04.907Z</time></trkpt><trkpt lat="44.9051288" lon="7.2015382"><ele>905.0</ele><time>2026-04-21T16:12:05.906Z</time></trkpt><trkpt lat="44.9051544" lon="7.2013774"><ele>905.0</ele><time>2026-04-21T16:12:06.906Z</time></trkpt><trkpt lat="44.9051663" lon="7.2012214"><ele>905.0</ele><time>2026-04-21T16:12:07.907Z</time></trkpt><trkpt lat="44.9051723" lon="7.2010742"><ele>905.0</ele><time>2026-04-21T16:12:08.907Z</time></trkpt><trkpt lat="44.9051752" lon="7.2009078"><ele>905.0</ele><time>2026-04-21T16:12:09.906Z</time></trkpt><trkpt lat="44.9051889" lon="7.2007281"><ele>900.5</ele><time>2026-04-21T16:12:10.906Z</time></trkpt><trkpt lat="44.9052068" lon="7.2005535"><ele>896.0</ele><time>2026-04-21T16:12:11.905Z</time></trkpt><trkpt lat="44.9052227" lon="7.2003777"><ele>891.5</ele><time>2026-04-21T16:12:12.906Z</time></trkpt><trkpt lat="44.9052517" lon="7.2002174"><ele>887.0</ele><time>2026-04-21T16:12:13.907Z</time></trkpt><trkpt lat="44.9053108" lon="7.2000819"><ele>887.0</ele><time>2026-04-21T16:12:14.906Z</time></trkpt><trkpt lat="44.9053951" lon="7.1999657"><ele>887.0</ele><time>2026-04-21T16:12:15.906Z</time></trkpt><trkpt lat="44.9054989" lon="7.1998632"><ele>887.0</ele><time>2026-04-21T16:12:16.906Z</time></trkpt><trkpt lat="44.9055889" lon="7.1997419"><ele>887.0</ele><time>2026-04-21T16:12:17.907Z</time></trkpt><trkpt lat="44.9056657" lon="7.1996066"><ele>880.25</ele><time>2026-04-21T16:12:18.906Z</time></trkpt><trkpt lat="44.9057142" lon="7.1994318"><ele>873.5</ele><time>2026-04-21T16:12:19.906Z</time></trkpt><trkpt lat="44.9057296" lon="7.1992306"><ele>866.75</ele><time>2026-04-21T16:12:20.907Z</time></trkpt><trkpt lat="44.9057376" lon="7.1990471"><ele>860.0</ele><time>2026-04-21T16:12:21.907Z</time></trkpt><trkpt lat="44.9057815" lon="7.1988819"><ele>855.8</ele><time>2026-04-21T16:12:22.905Z</time></trkpt><trkpt lat="44.9058399" lon="7.1987399"><ele>851.6</ele><time>2026-04-21T16:12:23.905Z</time></trkpt><trkpt lat="44.9059265" lon="7.1986374"><ele>847.4000000000001</ele><time>2026-04-21T16:12:24.906Z</time></trkpt><trkpt lat="44.9060166" lon="7.1985487"><ele>843.2</ele><time>2026-04-21T16:12:25.906Z</time></trkpt><trkpt lat="44.9060771" lon="7.1984354"><ele>839.0</ele><time>2026-04-21T16:12:26.906Z</time></trkpt><trkpt lat="44.9061015" lon="7.1982961"><ele>839.25</ele><time>2026-04-21T16:12:27.907Z</time></trkpt><trkpt lat="44.9060846" lon="7.1981315"><ele>839.5</ele><time>2026-04-21T16:12:28.905Z</time></trkpt><trkpt lat="44.9060364" lon="7.1979572"><ele>839.75</ele><time>2026-04-21T16:12:29.906Z</time></trkpt><trkpt lat="44.9059703" lon="7.1977676"><ele>840.0</ele><time>2026-04-21T16:12:30.905Z</time></trkpt><trkpt lat="44.9058959" lon="7.1975587"><ele>840.0</ele><time>2026-04-21T16:12:31.905Z</time></trkpt><trkpt lat="44.9058083" lon="7.1973453"><ele>840.0</ele><time>2026-04-21T16:12:32.906Z</time></trkpt><trkpt lat="44.905714" lon="7.1971468"><ele>840.0</ele><time>2026-04-21T16:12:33.906Z</time></trkpt><trkpt lat="44.9056294" lon="7.1969474"><ele>846.6666666666667</ele><time>2026-04-21T16:12:34.907Z</time></trkpt><trkpt lat="44.9055555" lon="7.196743"><ele>853.3333333333334</ele><time>2026-04-21T16:12:35.905Z</time></trkpt><trkpt lat="44.9054774" lon="7.1965481"><ele>860.0</ele><time>2026-04-21T16:12:36.907Z</time></trkpt><trkpt lat="44.9054077" lon="7.1963608"><ele>866.75</ele><time>2026-04-21T16:12:37.907Z</time></trkpt><trkpt lat="44.9053366" lon="7.1961802"><ele>873.5</ele><time>2026-04-21T16:12:38.907Z</time></trkpt><trkpt lat="44.905271" lon="7.1960034"><ele>880.25</ele><time>2026-04-21T16:12:39.906Z</time></trkpt><trkpt lat="44.9052261" lon="7.1958308"><ele>887.0</ele><time>2026-04-21T16:12:40.906Z</time></trkpt><trkpt lat="44.9052077" lon="7.1956754"><ele>887.0</ele><time>2026-04-21T16:12:41.906Z</time></trkpt><trkpt lat="44.9051913" lon="7.1955522"><ele>887.0</ele><time>2026-04-21T16:12:42.906Z</time></trkpt><trkpt lat="44.9051524" lon="7.1954773"><ele>887.0</ele><time>2026-04-21T16:12:43.907Z</time></trkpt><trkpt lat="44.9050571" lon="7.195495"><ele>887.0</ele><time>2026-04-21T16:12:45.907Z</time></trkpt><trkpt lat="44.9050911" lon="7.1956934"><ele>887.0</ele><time>2026-04-21T16:12:47.907Z</time></trkpt><trkpt lat="44.9051449" lon="7.1958586"><ele>887.0</ele><time>2026-04-21T16:12:48.906Z</time></trkpt><trkpt lat="44.9051997" lon="7.1960611"><ele>887.0</ele><time>2026-04-21T16:12:49.906Z</time></trkpt><trkpt lat="44.9052598" lon="7.1962951"><ele>887.0</ele><time>2026-04-21T16:12:50.906Z</time></trkpt><trkpt lat="44.9053033" lon="7.1965353"><ele>878.0</ele><time>2026-04-21T16:12:51.905Z</time></trkpt><trkpt lat="44.9053318" lon="7.1967723"><ele>869.0</ele><time>2026-04-21T16:12:52.906Z</time></trkpt><trkpt lat="44.9053599" lon="7.1970094"><ele>860.0</ele><time>2026-04-21T16:12:53.906Z</time></trkpt><trkpt lat="44.9053877" lon="7.1972406"><ele>853.3333333333334</ele><time>2026-04-21T16:12:54.906Z</time></trkpt><trkpt lat="44.9054041" lon="7.1974655"><ele>846.6666666666667</ele><time>2026-04-21T16:12:55.907Z</time></trkpt><trkpt lat="44.9054205" lon="7.1976846"><ele>840.0</ele><time>2026-04-21T16:12:56.906Z</time></trkpt><trkpt lat="44.9054392" lon="7.1978948"><ele>840.0</ele><time>2026-04-21T16:12:57.906Z</time></trkpt><trkpt lat="44.9054368" lon="7.1980902"><ele>840.0</ele><time>2026-04-21T16:12:58.905Z</time></trkpt><trkpt lat="44.9054062" lon="7.1982717"><ele>840.0</ele><time>2026-04-21T16:12:59.905Z</time></trkpt><trkpt lat="44.9053498" lon="7.198438"><ele>840.0</ele><time>2026-04-21T16:13:00.906Z</time></trkpt><trkpt lat="44.9052455" lon="7.1985983"><ele>839.6666666666667</ele><time>2026-04-21T16:13:01.906Z</time></trkpt><trkpt lat="44.905127" lon="7.1987609"><ele>839.3333333333334</ele><time>2026-04-21T16:13:02.906Z</time></trkpt><trkpt lat="44.9050161" lon="7.1989198"><ele>839.0</ele><time>2026-04-21T16:13:03.905Z</time></trkpt><trkpt lat="44.9049051" lon="7.1990808"><ele>830.6666666666667</ele><time>2026-04-21T16:13:04.907Z</time></trkpt><trkpt lat="44.9047975" lon="7.199225"><ele>822.3333333333333</ele><time>2026-04-21T16:13:05.905Z</time></trkpt><trkpt lat="44.9046923" lon="7.1993954"><ele>814.0</ele><time>2026-04-21T16:13:06.906Z</time></trkpt><trkpt lat="44.9046007" lon="7.1995878"><ele>814.0</ele><time>2026-04-21T16:13:07.906Z</time></trkpt><trkpt lat="44.9045257" lon="7.1997679"><ele>814.0</ele><time>2026-04-21T16:13:08.906Z</time></trkpt><trkpt lat="44.9044167" lon="7.1999211"><ele>814.0</ele><time>2026-04-21T16:13:09.906Z</time></trkpt><trkpt lat="44.9043105" lon="7.2000582"><ele>814.0</ele><time>2026-04-21T16:13:10.905Z</time></trkpt><trkpt lat="44.9042162" lon="7.2001993"><ele>811.0</ele><time>2026-04-21T16:13:11.906Z</time></trkpt><trkpt lat="44.9041427" lon="7.2003716"><ele>808.0</ele><time>2026-04-21T16:13:12.906Z</time></trkpt><trkpt lat="44.9040929" lon="7.2005579"><ele>805.0</ele><time>2026-04-21T16:13:13.907Z</time></trkpt><trkpt lat="44.9040402" lon="7.2007297"><ele>802.0</ele><time>2026-04-21T16:13:14.906Z</time></trkpt><trkpt lat="44.9039384" lon="7.2008523"><ele>802.0</ele><time>2026-04-21T16:13:15.906Z</time></trkpt><trkpt lat="44.9038317" lon="7.2009936"><ele>802.0</ele><time>2026-04-21T16:13:16.907Z</time></trkpt><trkpt lat="44.9037099" lon="7.2011535"><ele>802.0</ele><time>2026-04-21T16:13:17.906Z</time></trkpt><trkpt lat="44.9035926" lon="7.2013616"><ele>808.6666666666666</ele><time>2026-04-21T16:13:18.907Z</time></trkpt><trkpt lat="44.9034664" lon="7.2015768"><ele>815.3333333333333</ele><time>2026-04-21T16:13:19.906Z</time></trkpt><trkpt lat="44.9033385" lon="7.2017746"><ele>822.0</ele><time>2026-04-21T16:13:20.906Z</time></trkpt><trkpt lat="44.9032056" lon="7.2019554"><ele>816.6666666666667</ele><time>2026-04-21T16:13:21.906Z</time></trkpt><trkpt lat="44.9030807" lon="7.2021134"><ele>811.3333333333334</ele><time>2026-04-21T16:13:22.906Z</time></trkpt><trkpt lat="44.902972" lon="7.2022514"><ele>806.0</ele><time>2026-04-21T16:13:23.905Z</time></trkpt><trkpt lat="44.9028676" lon="7.2023769"><ele>806.0</ele><time>2026-04-21T16:13:24.906Z</time></trkpt><trkpt lat="44.9027756" lon="7.2025144"><ele>806.0</ele><time>2026-04-21T16:13:25.906Z</time></trkpt><trkpt lat="44.9027146" lon="7.2026684"><ele>806.0</ele><time>2026-04-21T16:13:26.906Z</time></trkpt><trkpt lat="44.9026785" lon="7.2028294"><ele>806.0</ele><time>2026-04-21T16:13:27.906Z</time></trkpt><trkpt lat="44.9026589" lon="7.2029932"><ele>811.3333333333334</ele><time>2026-04-21T16:13:28.907Z</time></trkpt><trkpt lat="44.9027056" lon="7.2032083"><ele>816.6666666666667</ele><time>2026-04-21T16:13:29.906Z</time></trkpt><trkpt lat="44.9027153" lon="7.2034136"><ele>822.0</ele><time>2026-04-21T16:13:30.905Z</time></trkpt><trkpt lat="44.9026965" lon="7.2036173"><ele>822.0</ele><time>2026-04-21T16:13:31.906Z</time></trkpt><trkpt lat="44.9026979" lon="7.2038217"><ele>822.0</ele><time>2026-04-21T16:13:32.906Z</time></trkpt><trkpt lat="44.9027341" lon="7.2040366"><ele>822.0</ele><time>2026-04-21T16:13:33.907Z</time></trkpt><trkpt lat="44.9027915" lon="7.2042362"><ele>818.0</ele><time>2026-04-21T16:13:34.905Z</time></trkpt><trkpt lat="44.9028564" lon="7.2044343"><ele>814.0</ele><time>2026-04-21T16:13:35.906Z</time></trkpt><trkpt lat="44.9029954" lon="7.2045877"><ele>810.0</ele><time>2026-04-21T16:13:36.905Z</time></trkpt><trkpt lat="44.9031105" lon="7.2047488"><ele>814.0</ele><time>2026-04-21T16:13:37.906Z</time></trkpt><trkpt lat="44.9032359" lon="7.2048827"><ele>818.0</ele><time>2026-04-21T16:13:38.906Z</time></trkpt><trkpt lat="44.9033564" lon="7.2049982"><ele>822.0</ele><time>2026-04-21T16:13:39.906Z</time></trkpt><trkpt lat="44.9034579" lon="7.2051373"><ele>826.0</ele><time>2026-04-21T16:13:40.905Z</time></trkpt><trkpt lat="44.903522" lon="7.205314"><ele>826.0</ele><time>2026-04-21T16:13:41.907Z</time></trkpt><trkpt lat="44.9035762" lon="7.2055021"><ele>826.0</ele><time>2026-04-21T16:13:42.907Z</time></trkpt><trkpt lat="44.9036075" lon="7.2056846"><ele>826.0</ele><time>2026-04-21T16:13:43.906Z</time></trkpt><trkpt lat="44.9036473" lon="7.2058527"><ele>826.0</ele><time>2026-04-21T16:13:44.906Z</time></trkpt><trkpt lat="44.9037137" lon="7.2059973"><ele>818.5</ele><time>2026-04-21T16:13:45.906Z</time></trkpt><trkpt lat="44.9038064" lon="7.2061238"><ele>811.0</ele><time>2026-04-21T16:13:46.907Z</time></trkpt><trkpt lat="44.9038905" lon="7.2062426"><ele>803.5</ele><time>2026-04-21T16:13:47.905Z</time></trkpt><trkpt lat="44.9039475" lon="7.2063908"><ele>796.0</ele><time>2026-04-21T16:13:48.907Z</time></trkpt><trkpt lat="44.9039769" lon="7.2065464"><ele>788.5</ele><time>2026-04-21T16:13:49.905Z</time></trkpt><trkpt lat="44.9040073" lon="7.2067162"><ele>781.0</ele><time>2026-04-21T16:13:50.907Z</time></trkpt><trkpt lat="44.9040595" lon="7.2068831"><ele>773.5</ele><time>2026-04-21T16:13:51.905Z</time></trkpt><trkpt lat="44.9041344" lon="7.2070681"><ele>766.0</ele><time>2026-04-21T16:13:52.906Z</time></trkpt><trkpt lat="44.904207" lon="7.2072576"><ele>776.6666666666667</ele><time>2026-04-21T16:13:53.906Z</time></trkpt><trkpt lat="44.9042552" lon="7.2074816"><ele>787.3333333333334</ele><time>2026-04-21T16:13:54.906Z</time></trkpt><trkpt lat="44.9042824" lon="7.2077128"><ele>798.0</ele><time>2026-04-21T16:13:55.906Z</time></trkpt><trkpt lat="44.9043048" lon="7.2079445"><ele>798.0</ele><time>2026-04-21T16:13:56.906Z</time></trkpt><trkpt lat="44.9043355" lon="7.2081533"><ele>798.0</ele><time>2026-04-21T16:13:57.906Z</time></trkpt><trkpt lat="44.9043866" lon="7.2083361"><ele>798.0</ele><time>2026-04-21T16:13:58.907Z</time></trkpt><trkpt lat="44.9044546" lon="7.2085029"><ele>798.0</ele><time>2026-04-21T16:13:59.907Z</time></trkpt><trkpt lat="44.9045596" lon="7.2086496"><ele>786.3333333333334</ele><time>2026-04-21T16:14:00.906Z</time></trkpt><trkpt lat="44.9046811" lon="7.2087937"><ele>774.6666666666667</ele><time>2026-04-21T16:14:01.906Z</time></trkpt><trkpt lat="44.9048182" lon="7.2089027"><ele>763.0</ele><time>2026-04-21T16:14:02.906Z</time></trkpt><trkpt lat="44.9049434" lon="7.2090114"><ele>755.75</ele><time>2026-04-21T16:14:03.906Z</time></trkpt><trkpt lat="44.9050735" lon="7.2091117"><ele>748.5</ele><time>2026-04-21T16:14:04.906Z</time></trkpt><trkpt lat="44.9052212" lon="7.2091592"><ele>741.25</ele><time>2026-04-21T16:14:05.906Z</time></trkpt><trkpt lat="44.9053672" lon="7.2091968"><ele>734.0</ele><time>2026-04-21T16:14:06.906Z</time></trkpt><trkpt lat="44.9054985" lon="7.2092731"><ele>734.0</ele><time>2026-04-21T16:14:07.906Z</time></trkpt><trkpt lat="44.9056235" lon="7.2093337"><ele>734.0</ele><time>2026-04-21T16:14:08.906Z</time></trkpt><trkpt lat="44.9057383" lon="7.2093767"><ele>734.0</ele><time>2026-04-21T16:14:09.905Z</time></trkpt><trkpt lat="44.9058335" lon="7.2094054"><ele>734.0</ele><time>2026-04-21T16:14:10.906Z</time></trkpt><trkpt lat="44.9058904" lon="7.2094442"><ele>734.0</ele><time>2026-04-21T16:14:11.906Z</time></trkpt><trkpt lat="44.9059089" lon="7.20958"><ele>734.0</ele><time>2026-04-21T16:14:13.906Z</time></trkpt><trkpt lat="44.9057956" lon="7.2095732"><ele>734.0</ele><time>2026-04-21T16:14:15.907Z</time></trkpt><trkpt lat="44.9057149" lon="7.2095184"><ele>734.0</ele><time>2026-04-21T16:14:16.905Z</time></trkpt><trkpt lat="44.9056146" lon="7.2094604"><ele>734.0</ele><time>2026-04-21T16:14:17.906Z</time></trkpt><trkpt lat="44.9054883" lon="7.209425"><ele>734.0</ele><time>2026-04-21T16:14:18.906Z</time></trkpt><trkpt lat="44.9053371" lon="7.2094235"><ele>734.0</ele><time>2026-04-21T16:14:19.905Z</time></trkpt><trkpt lat="44.9051839" lon="7.2094308"><ele>734.0</ele><time>2026-04-21T16:14:20.907Z</time></trkpt><trkpt lat="44.9050359" lon="7.2094112"><ele>734.0</ele><time>2026-04-21T16:14:21.906Z</time></trkpt><trkpt lat="44.9048791" lon="7.2093689"><ele>730.6666666666666</ele><time>2026-04-21T16:14:22.907Z</time></trkpt><trkpt lat="44.90472" lon="7.2093177"><ele>727.3333333333334</ele><time>2026-04-21T16:14:23.906Z</time></trkpt><trkpt lat="44.9045628" lon="7.2092746"><ele>724.0</ele><time>2026-04-21T16:14:24.906Z</time></trkpt><trkpt lat="44.9044079" lon="7.2092304"><ele>724.0</ele><time>2026-04-21T16:14:25.906Z</time></trkpt><trkpt lat="44.9042775" lon="7.2091778"><ele>724.0</ele><time>2026-04-21T16:14:26.906Z</time></trkpt><trkpt lat="44.9041684" lon="7.2090704"><ele>724.0</ele><time>2026-04-21T16:14:27.907Z</time></trkpt><trkpt lat="44.9040813" lon="7.208923"><ele>724.0</ele><time>2026-04-21T16:14:28.907Z</time></trkpt><trkpt lat="44.9040301" lon="7.208744"><ele>722.0</ele><time>2026-04-21T16:14:29.905Z</time></trkpt><trkpt lat="44.9039836" lon="7.2085385"><ele>720.0</ele><time>2026-04-21T16:14:30.906Z</time></trkpt><trkpt lat="44.9039396" lon="7.2083088"><ele>718.0</ele><time>2026-04-21T16:14:31.907Z</time></trkpt><trkpt lat="44.903891" lon="7.2080931"><ele>723.75</ele><time>2026-04-21T16:14:32.906Z</time></trkpt><trkpt lat="44.9038473" lon="7.2079037"><ele>729.5</ele><time>2026-04-21T16:14:33.906Z</time></trkpt><trkpt lat="44.9037972" lon="7.2077387"><ele>735.25</ele><time>2026-04-21T16:14:34.906Z</time></trkpt><trkpt lat="44.9037336" lon="7.2075843"><ele>741.0</ele><time>2026-04-21T16:14:35.906Z</time></trkpt><trkpt lat="44.9036531" lon="7.207424"><ele>749.3333333333334</ele><time>2026-04-21T16:14:36.906Z</time></trkpt><trkpt lat="44.90356" lon="7.2072674"><ele>757.6666666666667</ele><time>2026-04-21T16:14:37.906Z</time></trkpt><trkpt lat="44.9034544" lon="7.2070975"><ele>766.0</ele><time>2026-04-21T16:14:38.907Z</time></trkpt><trkpt lat="44.9033338" lon="7.2069283"><ele>757.6666666666667</ele><time>2026-04-21T16:14:39.907Z</time></trkpt><trkpt lat="44.9032166" lon="7.2067585"><ele>749.3333333333334</ele><time>2026-04-21T16:14:40.906Z</time></trkpt><trkpt lat="44.9031037" lon="7.2065992"><ele>741.0</ele><time>2026-04-21T16:14:41.907Z</time></trkpt><trkpt lat="44.902996" lon="7.206457"><ele>741.0</ele><time>2026-04-21T16:14:42.906Z</time></trkpt><trkpt lat="44.902899" lon="7.2063245"><ele>741.0</ele><time>2026-04-21T16:14:43.906Z</time></trkpt><trkpt lat="44.9028025" lon="7.2062155"><ele>741.0</ele><time>2026-04-21T16:14:44.906Z</time></trkpt><trkpt lat="44.9027142" lon="7.2061271"><ele>741.0</ele><time>2026-04-21T16:14:45.906Z</time></trkpt><trkpt lat="44.9026299" lon="7.2060584"><ele>732.8333333333334</ele><time>2026-04-21T16:14:46.906Z</time></trkpt><trkpt lat="44.9025459" lon="7.2060205"><ele>724.6666666666666</ele><time>2026-04-21T16:14:47.906Z</time></trkpt><trkpt lat="44.9024636" lon="7.206032"><ele>716.5</ele><time>2026-04-21T16:14:48.907Z</time></trkpt><trkpt lat="44.9023981" lon="7.2061059"><ele>708.3333333333333</ele><time>2026-04-21T16:14:49.907Z</time></trkpt><trkpt lat="44.9023753" lon="7.2062208"><ele>700.1666666666666</ele><time>2026-04-21T16:14:50.906Z</time></trkpt><trkpt lat="44.9024101" lon="7.2063556"><ele>692.0</ele><time>2026-04-21T16:14:51.905Z</time></trkpt><trkpt lat="44.9024901" lon="7.2065042"><ele>688.3333333333333</ele><time>2026-04-21T16:14:52.907Z</time></trkpt><trkpt lat="44.9025759" lon="7.2066594"><ele>684.6666666666666</ele><time>2026-04-21T16:14:53.905Z</time></trkpt><trkpt lat="44.9026684" lon="7.2068356"><ele>681.0</ele><time>2026-04-21T16:14:54.906Z</time></trkpt><trkpt lat="44.9027552" lon="7.2070244"><ele>682.0</ele><time>2026-04-21T16:14:55.906Z</time></trkpt><trkpt lat="44.9028264" lon="7.2072181"><ele>683.0</ele><time>2026-04-21T16:14:56.906Z</time></trkpt><trkpt lat="44.9028727" lon="7.2074441"><ele>684.0</ele><time>2026-04-21T16:14:57.907Z</time></trkpt><trkpt lat="44.9028929" lon="7.2076902"><ele>684.0</ele><time>2026-04-21T16:14:58.906Z</time></trkpt><trkpt lat="44.9029054" lon="7.2079343"><ele>684.0</ele><time>2026-04-21T16:14:59.907Z</time></trkpt><trkpt lat="44.9029181" lon="7.2081752"><ele>684.0</ele><time>2026-04-21T16:15:00.906Z</time></trkpt><trkpt lat="44.9029307" lon="7.2084081"><ele>681.6666666666666</ele><time>2026-04-21T16:15:01.907Z</time></trkpt><trkpt lat="44.9029406" lon="7.2086334"><ele>679.3333333333333</ele><time>2026-04-21T16:15:02.906Z</time></trkpt><trkpt lat="44.9029474" lon="7.2088562"><ele>677.0</ele><time>2026-04-21T16:15:03.906Z</time></trkpt><trkpt lat="44.9029583" lon="7.2090774"><ele>673.0</ele><time>2026-04-21T16:15:04.906Z</time></trkpt><trkpt lat="44.9029708" lon="7.209297"><ele>669.0</ele><time>2026-04-21T16:15:05.906Z</time></trkpt><trkpt lat="44.9029819" lon="7.2095143"><ele>665.0</ele><time>2026-04-21T16:15:06.906Z</time></trkpt><trkpt lat="44.902988" lon="7.209728"><ele>662.5</ele><time>2026-04-21T16:15:07.905Z</time></trkpt><trkpt lat="44.9029941" lon="7.2099403"><ele>660.0</ele><time>2026-04-21T16:15:08.907Z</time></trkpt><trkpt lat="44.9030057" lon="7.2101479"><ele>657.5</ele><time>2026-04-21T16:15:09.905Z</time></trkpt><trkpt lat="44.9030177" lon="7.2103537"><ele>655.0</ele><time>2026-04-21T16:15:10.906Z</time></trkpt><trkpt lat="44.9030274" lon="7.2105548"><ele>654.25</ele><time>2026-04-21T16:15:11.905Z</time></trkpt><trkpt lat="44.9030383" lon="7.2107526"><ele>653.5</ele><time>2026-04-21T16:15:12.906Z</time></trkpt><trkpt lat="44.9030445" lon="7.2109482"><ele>652.75</ele><time>2026-04-21T16:15:13.906Z</time></trkpt><trkpt lat="44.9030516" lon="7.2111441"><ele>652.0</ele><time>2026-04-21T16:15:14.907Z</time></trkpt><trkpt lat="44.9030584" lon="7.2113388"><ele>651.25</ele><time>2026-04-21T16:15:15.906Z</time></trkpt><trkpt lat="44.9030645" lon="7.2115353"><ele>650.5</ele><time>2026-04-21T16:15:16.906Z</time></trkpt><trkpt lat="44.9030766" lon="7.2117323"><ele>649.75</ele><time>2026-04-21T16:15:17.907Z</time></trkpt><trkpt lat="44.9030877" lon="7.211931"><ele>649.0</ele><time>2026-04-21T16:15:18.906Z</time></trkpt><trkpt lat="44.9030968" lon="7.2121325"><ele>649.5</ele><time>2026-04-21T16:15:19.906Z</time></trkpt><trkpt lat="44.9031036" lon="7.2123371"><ele>650.0</ele><time>2026-04-21T16:15:20.907Z</time></trkpt><trkpt lat="44.9031102" lon="7.212545"><ele>650.5</ele><time>2026-04-21T16:15:21.905Z</time></trkpt><trkpt lat="44.9031146" lon="7.2127568"><ele>651.0</ele><time>2026-04-21T16:15:22.906Z</time></trkpt><trkpt lat="44.9031093" lon="7.2129732"><ele>651.6666666666666</ele><time>2026-04-21T16:15:23.907Z</time></trkpt><trkpt lat="44.9030927" lon="7.2131898"><ele>652.3333333333333</ele><time>2026-04-21T16:15:24.907Z</time></trkpt><trkpt lat="44.9030589" lon="7.2134051"><ele>653.0</ele><time>2026-04-21T16:15:25.906Z</time></trkpt><trkpt lat="44.9030169" lon="7.2136148"><ele>653.0</ele><time>2026-04-21T16:15:26.906Z</time></trkpt><trkpt lat="44.9029709" lon="7.2138261"><ele>653.0</ele><time>2026-04-21T16:15:27.906Z</time></trkpt><trkpt lat="44.9029194" lon="7.2140408"><ele>653.0</ele><time>2026-04-21T16:15:28.907Z</time></trkpt><trkpt lat="44.9028655" lon="7.2142533"><ele>654.6666666666666</ele><time>2026-04-21T16:15:29.905Z</time></trkpt><trkpt lat="44.9028153" lon="7.2144642"><ele>656.3333333333334</ele><time>2026-04-21T16:15:30.905Z</time></trkpt><trkpt lat="44.9027737" lon="7.2146825"><ele>658.0</ele><time>2026-04-21T16:15:31.907Z</time></trkpt><trkpt lat="44.9027428" lon="7.2149018"><ele>659.3333333333334</ele><time>2026-04-21T16:15:32.906Z</time></trkpt><trkpt lat="44.9027169" lon="7.2151295"><ele>660.6666666666666</ele><time>2026-04-21T16:15:33.907Z</time></trkpt><trkpt lat="44.9026908" lon="7.2153556"><ele>662.0</ele><time>2026-04-21T16:15:34.906Z</time></trkpt><trkpt lat="44.9026647" lon="7.2155818"><ele>662.0</ele><time>2026-04-21T16:15:35.905Z</time></trkpt><trkpt lat="44.9026409" lon="7.2158096"><ele>662.0</ele><time>2026-04-21T16:15:36.905Z</time></trkpt><trkpt lat="44.9026383" lon="7.2160377"><ele>662.0</ele><time>2026-04-21T16:15:37.907Z</time></trkpt><trkpt lat="44.9026553" lon="7.2162647"><ele>662.0</ele><time>2026-04-21T16:15:38.906Z</time></trkpt><trkpt lat="44.9026894" lon="7.2164897"><ele>662.0</ele><time>2026-04-21T16:15:39.906Z</time></trkpt><trkpt lat="44.9027264" lon="7.2167145"><ele>662.0</ele><time>2026-04-21T16:15:40.906Z</time></trkpt><trkpt lat="44.9027397" lon="7.2169443"><ele>662.0</ele><time>2026-04-21T16:15:41.905Z</time></trkpt><trkpt lat="44.9027289" lon="7.2171751"><ele>662.0</ele><time>2026-04-21T16:15:42.906Z</time></trkpt><trkpt lat="44.9027019" lon="7.2174177"><ele>662.0</ele><time>2026-04-21T16:15:43.907Z</time></trkpt><trkpt lat="44.9026687" lon="7.2176708"><ele>660.6666666666666</ele><time>2026-04-21T16:15:44.905Z</time></trkpt><trkpt lat="44.9026383" lon="7.2179204"><ele>659.3333333333334</ele><time>2026-04-21T16:15:45.905Z</time></trkpt><trkpt lat="44.9026118" lon="7.218166"><ele>658.0</ele><time>2026-04-21T16:15:46.907Z</time></trkpt><trkpt lat="44.9025804" lon="7.2184057"><ele>643.6666666666667</ele><time>2026-04-21T16:15:47.906Z</time></trkpt><trkpt lat="44.9025453" lon="7.2186478"><ele>629.3333333333334</ele><time>2026-04-21T16:15:48.907Z</time></trkpt><trkpt lat="44.9024977" lon="7.2188957"><ele>615.0</ele><time>2026-04-21T16:15:49.906Z</time></trkpt><trkpt lat="44.9024369" lon="7.2191445"><ele>615.0</ele><time>2026-04-21T16:15:50.906Z</time></trkpt><trkpt lat="44.9023718" lon="7.2193931"><ele>615.0</ele><time>2026-04-21T16:15:51.906Z</time></trkpt><trkpt lat="44.9022998" lon="7.2196308"><ele>615.0</ele><time>2026-04-21T16:15:52.907Z</time></trkpt><trkpt lat="44.9022082" lon="7.2198459"><ele>617.6666666666666</ele><time>2026-04-21T16:15:53.906Z</time></trkpt><trkpt lat="44.9021016" lon="7.2200464"><ele>620.3333333333333</ele><time>2026-04-21T16:15:54.906Z</time></trkpt><trkpt lat="44.9019819" lon="7.2202361"><ele>623.0</ele><time>2026-04-21T16:15:55.907Z</time></trkpt><trkpt lat="44.9018617" lon="7.2204084"><ele>616.6666666666666</ele><time>2026-04-21T16:15:56.906Z</time></trkpt><trkpt lat="44.9017467" lon="7.2205934"><ele>610.3333333333334</ele><time>2026-04-21T16:15:57.906Z</time></trkpt><trkpt lat="44.9016425" lon="7.2208106"><ele>604.0</ele><time>2026-04-21T16:15:58.907Z</time></trkpt><trkpt lat="44.9015478" lon="7.2210469"><ele>604.0</ele><time>2026-04-21T16:15:59.906Z</time></trkpt><trkpt lat="44.9014644" lon="7.2212814"><ele>604.0</ele><time>2026-04-21T16:16:00.906Z</time></trkpt><trkpt lat="44.9013984" lon="7.221524"><ele>604.0</ele><time>2026-04-21T16:16:01.905Z</time></trkpt><trkpt lat="44.901356" lon="7.2217836"><ele>604.6666666666667</ele><time>2026-04-21T16:16:02.904Z</time></trkpt><trkpt lat="44.9013385" lon="7.2220615"><ele>605.3333333333334</ele><time>2026-04-21T16:16:03.906Z</time></trkpt><trkpt lat="44.9013437" lon="7.2223605"><ele>606.0</ele><time>2026-04-21T16:16:04.906Z</time></trkpt><trkpt lat="44.9013567" lon="7.2226377"><ele>605.6666666666666</ele><time>2026-04-21T16:16:05.905Z</time></trkpt><trkpt lat="44.9013643" lon="7.2228782"><ele>605.3333333333333</ele><time>2026-04-21T16:16:06.905Z</time></trkpt><trkpt lat="44.9013969" lon="7.2230976"><ele>605.0</ele><time>2026-04-21T16:16:07.904Z</time></trkpt><trkpt lat="44.9014721" lon="7.2233056"><ele>605.0</ele><time>2026-04-21T16:16:08.905Z</time></trkpt><trkpt lat="44.9015651" lon="7.223508"><ele>605.0</ele><time>2026-04-21T16:16:09.905Z</time></trkpt><trkpt lat="44.9016342" lon="7.2237176"><ele>605.0</ele><time>2026-04-21T16:16:10.906Z</time></trkpt><trkpt lat="44.9016719" lon="7.2239727"><ele>602.0</ele><time>2026-04-21T16:16:11.905Z</time></trkpt><trkpt lat="44.9016815" lon="7.224256"><ele>599.0</ele><time>2026-04-21T16:16:12.904Z</time></trkpt><trkpt lat="44.901686" lon="7.2245423"><ele>596.0</ele><time>2026-04-21T16:16:13.906Z</time></trkpt><trkpt lat="44.9016993" lon="7.2248115"><ele>595.3333333333333</ele><time>2026-04-21T16:16:14.905Z</time></trkpt><trkpt lat="44.9017032" lon="7.2250771"><ele>594.6666666666666</ele><time>2026-04-21T16:16:15.904Z</time></trkpt><trkpt lat="44.9016874" lon="7.2253354"><ele>594.0</ele><time>2026-04-21T16:16:16.905Z</time></trkpt><trkpt lat="44.901648" lon="7.2255604"><ele>593.0</ele><time>2026-04-21T16:16:17.906Z</time></trkpt><trkpt lat="44.9016096" lon="7.2257553"><ele>592.0</ele><time>2026-04-21T16:16:18.905Z</time></trkpt><trkpt lat="44.9016082" lon="7.2259307"><ele>591.0</ele><time>2026-04-21T16:16:19.905Z</time></trkpt><trkpt lat="44.90165" lon="7.2261183"><ele>590.0</ele><time>2026-04-21T16:16:20.906Z</time></trkpt><trkpt lat="44.9017198" lon="7.2263256"><ele>600.6666666666666</ele><time>2026-04-21T16:16:21.905Z</time></trkpt><trkpt lat="44.9017881" lon="7.2265703"><ele>611.3333333333334</ele><time>2026-04-21T16:16:22.906Z</time></trkpt><trkpt lat="44.9018452" lon="7.2268459"><ele>622.0</ele><time>2026-04-21T16:16:23.905Z</time></trkpt><trkpt lat="44.9019008" lon="7.2271429"><ele>622.6666666666667</ele><time>2026-04-21T16:16:24.906Z</time></trkpt><trkpt lat="44.9019442" lon="7.2274304"><ele>623.3333333333334</ele><time>2026-04-21T16:16:25.905Z</time></trkpt><trkpt lat="44.9019773" lon="7.2277074"><ele>624.0</ele><time>2026-04-21T16:16:26.905Z</time></trkpt><trkpt lat="44.9019875" lon="7.2279772"><ele>624.6666666666666</ele><time>2026-04-21T16:16:27.906Z</time></trkpt><trkpt lat="44.9019741" lon="7.2282493"><ele>625.3333333333333</ele><time>2026-04-21T16:16:28.905Z</time></trkpt><trkpt lat="44.9019589" lon="7.2285044"><ele>626.0</ele><time>2026-04-21T16:16:29.906Z</time></trkpt><trkpt lat="44.9019406" lon="7.2287408"><ele>626.0</ele><time>2026-04-21T16:16:30.904Z</time></trkpt><trkpt lat="44.901927" lon="7.2289486"><ele>626.0</ele><time>2026-04-21T16:16:31.905Z</time></trkpt><trkpt lat="44.9019281" lon="7.2291233"><ele>626.0</ele><time>2026-04-21T16:16:32.906Z</time></trkpt><trkpt lat="44.9019548" lon="7.2292631"><ele>626.0</ele><time>2026-04-21T16:16:33.905Z</time></trkpt><trkpt lat="44.9020148" lon="7.2293721"><ele>623.6</ele><time>2026-04-21T16:16:34.905Z</time></trkpt><trkpt lat="44.9021012" lon="7.2294488"><ele>621.2</ele><time>2026-04-21T16:16:35.906Z</time></trkpt><trkpt lat="44.9021994" lon="7.2295088"><ele>618.8</ele><time>2026-04-21T16:16:36.905Z</time></trkpt><trkpt lat="44.9022683" lon="7.2296054"><ele>616.4</ele><time>2026-04-21T16:16:37.905Z</time></trkpt><trkpt lat="44.9022901" lon="7.2297285"><ele>614.0</ele><time>2026-04-21T16:16:38.905Z</time></trkpt><trkpt lat="44.9022625" lon="7.2298578"><ele>612.4</ele><time>2026-04-21T16:16:39.906Z</time></trkpt><trkpt lat="44.9021823" lon="7.2299592"><ele>610.8</ele><time>2026-04-21T16:16:40.906Z</time></trkpt><trkpt lat="44.902099" lon="7.2300388"><ele>609.2</ele><time>2026-04-21T16:16:41.905Z</time></trkpt><trkpt lat="44.9020429" lon="7.2301567"><ele>607.6</ele><time>2026-04-21T16:16:42.906Z</time></trkpt><trkpt lat="44.9020096" lon="7.2303152"><ele>606.0</ele><time>2026-04-21T16:16:43.904Z</time></trkpt><trkpt lat="44.9020128" lon="7.2304885"><ele>605.25</ele><time>2026-04-21T16:16:44.906Z</time></trkpt><trkpt lat="44.9020299" lon="7.2306795"><ele>604.5</ele><time>2026-04-21T16:16:45.905Z</time></trkpt><trkpt lat="44.9020467" lon="7.2308762"><ele>603.75</ele><time>2026-04-21T16:16:46.905Z</time></trkpt><trkpt lat="44.9020574" lon="7.2310595"><ele>603.0</ele><time>2026-04-21T16:16:47.905Z</time></trkpt><trkpt lat="44.9020449" lon="7.2312314"><ele>603.0</ele><time>2026-04-21T16:16:48.906Z</time></trkpt><trkpt lat="44.9019981" lon="7.2313859"><ele>603.0</ele><time>2026-04-21T16:16:49.904Z</time></trkpt><trkpt lat="44.9019218" lon="7.2315095"><ele>603.0</ele><time>2026-04-21T16:16:50.905Z</time></trkpt><trkpt lat="44.9018238" lon="7.2315873"><ele>603.0</ele><time>2026-04-21T16:16:51.905Z</time></trkpt><trkpt lat="44.9017416" lon="7.2316642"><ele>603.0</ele><time>2026-04-21T16:16:52.904Z</time></trkpt><trkpt lat="44.9016839" lon="7.2317757"><ele>595.0</ele><time>2026-04-21T16:16:53.905Z</time></trkpt><trkpt lat="44.901666" lon="7.2319252"><ele>587.0</ele><time>2026-04-21T16:16:54.905Z</time></trkpt><trkpt lat="44.9016593" lon="7.2321094"><ele>579.0</ele><time>2026-04-21T16:16:55.904Z</time></trkpt><trkpt lat="44.9016337" lon="7.2323191"><ele>571.0</ele><time>2026-04-21T16:16:56.906Z</time></trkpt><trkpt lat="44.9015852" lon="7.2325097"><ele>571.0</ele><time>2026-04-21T16:16:57.906Z</time></trkpt><trkpt lat="44.9015267" lon="7.2326869"><ele>571.0</ele><time>2026-04-21T16:16:58.905Z</time></trkpt><trkpt lat="44.9014714" lon="7.2328535"><ele>571.0</ele><time>2026-04-21T16:16:59.905Z</time></trkpt><trkpt lat="44.90143" lon="7.2330145"><ele>571.0</ele><time>2026-04-21T16:17:00.905Z</time></trkpt><trkpt lat="44.9014117" lon="7.2331752"><ele>570.75</ele><time>2026-04-21T16:17:01.905Z</time></trkpt><trkpt lat="44.9014247" lon="7.233334"><ele>570.5</ele><time>2026-04-21T16:17:02.905Z</time></trkpt><trkpt lat="44.9014671" lon="7.2334976"><ele>570.25</ele><time>2026-04-21T16:17:03.905Z</time></trkpt><trkpt lat="44.9015159" lon="7.233672"><ele>570.0</ele><time>2026-04-21T16:17:04.905Z</time></trkpt><trkpt lat="44.9015716" lon="7.2338585"><ele>565.6666666666666</ele><time>2026-04-21T16:17:05.906Z</time></trkpt><trkpt lat="44.901635" lon="7.2340626"><ele>561.3333333333333</ele><time>2026-04-21T16:17:06.905Z</time></trkpt><trkpt lat="44.9017019" lon="7.2342737"><ele>557.0</ele><time>2026-04-21T16:17:07.904Z</time></trkpt><trkpt lat="44.9017693" lon="7.2344841"><ele>558.6666666666666</ele><time>2026-04-21T16:17:08.905Z</time></trkpt><trkpt lat="44.9018362" lon="7.2346902"><ele>560.3333333333334</ele><time>2026-04-21T16:17:09.904Z</time></trkpt><trkpt lat="44.9019063" lon="7.2348847"><ele>562.0</ele><time>2026-04-21T16:17:10.904Z</time></trkpt><trkpt lat="44.9019813" lon="7.2350735"><ele>562.0</ele><time>2026-04-21T16:17:11.904Z</time></trkpt><trkpt lat="44.9020494" lon="7.2352375"><ele>562.0</ele><time>2026-04-21T16:17:12.905Z</time></trkpt><trkpt lat="44.9021044" lon="7.2353677"><ele>562.0</ele><time>2026-04-21T16:17:13.904Z</time></trkpt><trkpt lat="44.9021475" lon="7.2354727"><ele>562.0</ele><time>2026-04-21T16:17:14.906Z</time></trkpt><trkpt lat="44.9021817" lon="7.2355629"><ele>562.0</ele><time>2026-04-21T16:17:15.904Z</time></trkpt><trkpt lat="44.9022179" lon="7.2356578"><ele>560.1666666666667</ele><time>2026-04-21T16:17:16.905Z</time></trkpt><trkpt lat="44.9022583" lon="7.2357571"><ele>558.3333333333334</ele><time>2026-04-21T16:17:17.904Z</time></trkpt><trkpt lat="44.9022986" lon="7.2358569"><ele>556.5</ele><time>2026-04-21T16:17:18.906Z</time></trkpt><trkpt lat="44.9023424" lon="7.2359603"><ele>554.6666666666666</ele><time>2026-04-21T16:17:19.906Z</time></trkpt><trkpt lat="44.9023871" lon="7.2360671"><ele>552.8333333333333</ele><time>2026-04-21T16:17:20.906Z</time></trkpt><trkpt lat="44.9024345" lon="7.2361739"><ele>551.0</ele><time>2026-04-21T16:17:21.906Z</time></trkpt><trkpt lat="44.9024846" lon="7.2362942"><ele>551.0</ele><time>2026-04-21T16:17:22.905Z</time></trkpt><trkpt lat="44.9025404" lon="7.2364206"><ele>551.0</ele><time>2026-04-21T16:17:23.904Z</time></trkpt><trkpt lat="44.902616" lon="7.2365529"><ele>551.0</ele><time>2026-04-21T16:17:24.906Z</time></trkpt><trkpt lat="44.9027092" lon="7.2366899"><ele>551.0</ele><time>2026-04-21T16:17:25.905Z</time></trkpt><trkpt lat="44.902812" lon="7.236836"><ele>551.3333333333333</ele><time>2026-04-21T16:17:26.906Z</time></trkpt><trkpt lat="44.9029204" lon="7.2369961"><ele>551.6666666666666</ele><time>2026-04-21T16:17:27.904Z</time></trkpt><trkpt lat="44.9030383" lon="7.23716"><ele>552.0</ele><time>2026-04-21T16:17:28.904Z</time></trkpt><trkpt lat="44.9031503" lon="7.2373148"><ele>548.3333333333334</ele><time>2026-04-21T16:17:29.905Z</time></trkpt><trkpt lat="44.9032563" lon="7.2374656"><ele>544.6666666666667</ele><time>2026-04-21T16:17:30.904Z</time></trkpt><trkpt lat="44.9033593" lon="7.2376189"><ele>541.0</ele><time>2026-04-21T16:17:31.904Z</time></trkpt><trkpt lat="44.9034675" lon="7.2377746"><ele>541.0</ele><time>2026-04-21T16:17:32.905Z</time></trkpt><trkpt lat="44.9035834" lon="7.2379222"><ele>541.0</ele><time>2026-04-21T16:17:33.905Z</time></trkpt><trkpt lat="44.9037111" lon="7.238057"><ele>541.0</ele><time>2026-04-21T16:17:34.904Z</time></trkpt><trkpt lat="44.9038512" lon="7.2381638"><ele>535.6666666666667</ele><time>2026-04-21T16:17:35.906Z</time></trkpt><trkpt lat="44.9040089" lon="7.2382403"><ele>530.3333333333334</ele><time>2026-04-21T16:17:36.906Z</time></trkpt><trkpt lat="44.9041768" lon="7.2383021"><ele>525.0</ele><time>2026-04-21T16:17:37.905Z</time></trkpt><trkpt lat="44.9043431" lon="7.2383611"><ele>525.0</ele><time>2026-04-21T16:17:38.904Z</time></trkpt><trkpt lat="44.9045061" lon="7.2384167"><ele>525.0</ele><time>2026-04-21T16:17:39.905Z</time></trkpt><trkpt lat="44.9046677" lon="7.2384705"><ele>525.0</ele><time>2026-04-21T16:17:40.906Z</time></trkpt><trkpt lat="44.9048212" lon="7.2385266"><ele>525.0</ele><time>2026-04-21T16:17:41.905Z</time></trkpt><trkpt lat="44.9049569" lon="7.2385745"><ele>525.0</ele><time>2026-04-21T16:17:42.904Z</time></trkpt><trkpt lat="44.9050761" lon="7.2386136"><ele>525.0</ele><time>2026-04-21T16:17:43.906Z</time></trkpt><trkpt lat="44.9051725" lon="7.2386575"><ele>525.0</ele><time>2026-04-21T16:17:44.904Z</time></trkpt><trkpt lat="44.9052341" lon="7.2387359"><ele>525.0</ele><time>2026-04-21T16:17:45.904Z</time></trkpt><trkpt lat="44.9052599" lon="7.2388446"><ele>526.4</ele><time>2026-04-21T16:17:46.905Z</time></trkpt><trkpt lat="44.9052419" lon="7.2389559"><ele>527.8</ele><time>2026-04-21T16:17:47.905Z</time></trkpt><trkpt lat="44.9051885" lon="7.2390367"><ele>529.2</ele><time>2026-04-21T16:17:48.905Z</time></trkpt><trkpt lat="44.905101" lon="7.2390674"><ele>530.6</ele><time>2026-04-21T16:17:49.905Z</time></trkpt><trkpt lat="44.9050017" lon="7.2390431"><ele>532.0</ele><time>2026-04-21T16:17:50.905Z</time></trkpt><trkpt lat="44.9048953" lon="7.2389867"><ele>530.25</ele><time>2026-04-21T16:17:51.906Z</time></trkpt><trkpt lat="44.9047696" lon="7.2389546"><ele>528.5</ele><time>2026-04-21T16:17:52.904Z</time></trkpt><trkpt lat="44.9046392" lon="7.2389295"><ele>526.75</ele><time>2026-04-21T16:17:53.906Z</time></trkpt><trkpt lat="44.9045103" lon="7.2389045"><ele>525.0</ele><time>2026-04-21T16:17:54.905Z</time></trkpt><trkpt lat="44.904379" lon="7.2388918"><ele>525.0</ele><time>2026-04-21T16:17:55.905Z</time></trkpt><trkpt lat="44.9042509" lon="7.2388954"><ele>525.0</ele><time>2026-04-21T16:17:56.906Z</time></trkpt><trkpt lat="44.904129" lon="7.2389067"><ele>525.0</ele><time>2026-04-21T16:17:57.905Z</time></trkpt><trkpt lat="44.9040102" lon="7.2389195"><ele>525.0</ele><time>2026-04-21T16:17:58.904Z</time></trkpt><trkpt lat="44.9038989" lon="7.2389306"><ele>524.2</ele><time>2026-04-21T16:17:59.905Z</time></trkpt><trkpt lat="44.9037959" lon="7.2389446"><ele>523.4</ele><time>2026-04-21T16:18:00.904Z</time></trkpt><trkpt lat="44.9037034" lon="7.2389591"><ele>522.6</ele><time>2026-04-21T16:18:01.905Z</time></trkpt><trkpt lat="44.9036123" lon="7.2389697"><ele>521.8</ele><time>2026-04-21T16:18:02.905Z</time></trkpt><trkpt lat="44.9035224" lon="7.2389782"><ele>521.0</ele><time>2026-04-21T16:18:03.905Z</time></trkpt><trkpt lat="44.9034337" lon="7.2389887"><ele>517.4</ele><time>2026-04-21T16:18:04.905Z</time></trkpt><trkpt lat="44.9033455" lon="7.2390002"><ele>513.8</ele><time>2026-04-21T16:18:05.905Z</time></trkpt><trkpt lat="44.9032498" lon="7.2390134"><ele>510.19999999999993</ele><time>2026-04-21T16:18:06.906Z</time></trkpt><trkpt lat="44.9031537" lon="7.2390328"><ele>506.59999999999997</ele><time>2026-04-21T16:18:07.906Z</time></trkpt><trkpt lat="44.9030603" lon="7.239046"><ele>503.0</ele><time>2026-04-21T16:18:08.904Z</time></trkpt><trkpt lat="44.9029751" lon="7.2390595"><ele>502.99999999999994</ele><time>2026-04-21T16:18:09.906Z</time></trkpt><trkpt lat="44.9028923" lon="7.2390612"><ele>503.0</ele><time>2026-04-21T16:18:10.904Z</time></trkpt><trkpt lat="44.9028121" lon="7.2390593"><ele>503.0</ele><time>2026-04-21T16:18:11.905Z</time></trkpt><trkpt lat="44.9027366" lon="7.2390491"><ele>503.0</ele><time>2026-04-21T16:18:12.905Z</time></trkpt><trkpt lat="44.9026626" lon="7.239038"><ele>502.99999999999994</ele><time>2026-04-21T16:18:13.905Z</time></trkpt><trkpt lat="44.9025875" lon="7.2390186"><ele>503.0</ele><time>2026-04-21T16:18:14.905Z</time></trkpt><trkpt lat="44.9025078" lon="7.2389987"><ele>503.16666666666663</ele><time>2026-04-21T16:18:15.904Z</time></trkpt><trkpt lat="44.9024229" lon="7.2389714"><ele>503.3333333333333</ele><time>2026-04-21T16:18:16.904Z</time></trkpt><trkpt lat="44.9023425" lon="7.2389433"><ele>503.5</ele><time>2026-04-21T16:18:17.906Z</time></trkpt><trkpt lat="44.9022655" lon="7.2389121"><ele>503.66666666666663</ele><time>2026-04-21T16:18:18.905Z</time></trkpt><trkpt lat="44.9021917" lon="7.2388796"><ele>503.8333333333333</ele><time>2026-04-21T16:18:19.904Z</time></trkpt><trkpt lat="44.9021168" lon="7.2388491"><ele>504.0</ele><time>2026-04-21T16:18:20.905Z</time></trkpt><trkpt lat="44.9020351" lon="7.2388321"><ele>506.2</ele><time>2026-04-21T16:18:21.905Z</time></trkpt><trkpt lat="44.9019475" lon="7.2388238"><ele>508.4</ele><time>2026-04-21T16:18:22.905Z</time></trkpt><trkpt lat="44.9018547" lon="7.2388191"><ele>510.6</ele><time>2026-04-21T16:18:23.906Z</time></trkpt><trkpt lat="44.9017601" lon="7.2388202"><ele>512.8</ele><time>2026-04-21T16:18:24.904Z</time></trkpt><trkpt lat="44.9016638" lon="7.2388338"><ele>515.0</ele><time>2026-04-21T16:18:25.905Z</time></trkpt><trkpt lat="44.90156" lon="7.2388548"><ele>515.2</ele><time>2026-04-21T16:18:26.905Z</time></trkpt><trkpt lat="44.9014626" lon="7.2388831"><ele>515.4</ele><time>2026-04-21T16:18:27.905Z</time></trkpt><trkpt lat="44.9013583" lon="7.2389119"><ele>515.6</ele><time>2026-04-21T16:18:28.905Z</time></trkpt><trkpt lat="44.9012571" lon="7.238943"><ele>515.8</ele><time>2026-04-21T16:18:29.905Z</time></trkpt><trkpt lat="44.9011612" lon="7.2389689"><ele>516.0</ele><time>2026-04-21T16:18:30.905Z</time></trkpt><trkpt lat="44.9010699" lon="7.238995"><ele>513.4</ele><time>2026-04-21T16:18:31.905Z</time></trkpt><trkpt lat="44.9009876" lon="7.2390119"><ele>510.8</ele><time>2026-04-21T16:18:32.905Z</time></trkpt><trkpt lat="44.900919" lon="7.2390313"><ele>508.19999999999993</ele><time>2026-04-21T16:18:33.905Z</time></trkpt><trkpt lat="44.9008061" lon="7.2390582"><ele>505.59999999999997</ele><time>2026-04-21T16:18:35.906Z</time></trkpt><trkpt lat="44.9007131" lon="7.2390849"><ele>503.0</ele><time>2026-04-21T16:18:37.905Z</time></trkpt><trkpt lat="44.9006173" lon="7.2391122"><ele>502.16666666666663</ele><time>2026-04-21T16:18:39.905Z</time></trkpt><trkpt lat="44.9005344" lon="7.2391277"><ele>501.3333333333333</ele><time>2026-04-21T16:18:41.906Z</time></trkpt><trkpt lat="44.9004651" lon="7.239139"><ele>500.5</ele><time>2026-04-21T16:18:44.905Z</time></trkpt><trkpt lat="44.9004001" lon="7.239152"><ele>499.66666666666663</ele><time>2026-04-21T16:18:56.905Z</time></trkpt><trkpt lat="44.9003186" lon="7.2391672"><ele>498.8333333333333</ele><time>2026-04-21T16:18:58.906Z</time></trkpt><trkpt lat="44.9002158" lon="7.2391775"><ele>498.0</ele><time>2026-04-21T16:19:00.905Z</time></trkpt><trkpt lat="44.9001095" lon="7.2391809"><ele>497.1666666666667</ele><time>2026-04-21T16:19:02.904Z</time></trkpt><trkpt lat="44.9000268" lon="7.2392016"><ele>496.33333333333337</ele><time>2026-04-21T16:19:04.906Z</time></trkpt><trkpt lat="44.899948" lon="7.2392159"><ele>495.5</ele><time>2026-04-21T16:19:06.906Z</time></trkpt><trkpt lat="44.899862" lon="7.2392734"><ele>494.6666666666667</ele><time>2026-04-21T16:19:09.905Z</time></trkpt><trkpt lat="44.89978" lon="7.2392777"><ele>493.83333333333337</ele><time>2026-04-21T16:19:11.906Z</time></trkpt><trkpt lat="44.8996851" lon="7.2392833"><ele>493.0</ele><time>2026-04-21T16:19:13.905Z</time></trkpt><trkpt lat="44.8995675" lon="7.2392508"><ele>493.0</ele><time>2026-04-21T16:19:15.904Z</time></trkpt><trkpt lat="44.8994519" lon="7.2392204"><ele>493.0</ele><time>2026-04-21T16:19:17.906Z</time></trkpt><trkpt lat="44.8993301" lon="7.2392034"><ele>493.0</ele><time>2026-04-21T16:19:19.904Z</time></trkpt><trkpt lat="44.8992194" lon="7.239243"><ele>493.0</ele><time>2026-04-21T16:19:21.905Z</time></trkpt><trkpt lat="44.8991109" lon="7.239286"><ele>492.6666666666667</ele><time>2026-04-21T16:19:23.905Z</time></trkpt><trkpt lat="44.8990289" lon="7.2393181"><ele>492.33333333333337</ele><time>2026-04-21T16:19:25.906Z</time></trkpt><trkpt lat="44.8989613" lon="7.2393566"><ele>492.0</ele><time>2026-04-21T16:19:27.905Z</time></trkpt><trkpt lat="44.8988686" lon="7.2394038"><ele>491.66666666666663</ele><time>2026-04-21T16:19:29.904Z</time></trkpt><trkpt lat="44.8988087" lon="7.2394391"><ele>491.3333333333333</ele><time>2026-04-21T16:19:30.906Z</time></trkpt><trkpt lat="44.8987447" lon="7.2394768"><ele>491.0</ele><time>2026-04-21T16:19:31.905Z</time></trkpt><trkpt lat="44.8986763" lon="7.2395043"><ele>491.0</ele><time>2026-04-21T16:19:32.905Z</time></trkpt><trkpt lat="44.8986126" lon="7.2395305"><ele>490.99999999999994</ele><time>2026-04-21T16:19:33.905Z</time></trkpt><trkpt lat="44.8985469" lon="7.2395631"><ele>491.0</ele><time>2026-04-21T16:19:34.905Z</time></trkpt><trkpt lat="44.8984801" lon="7.239591"><ele>491.0</ele><time>2026-04-21T16:19:35.905Z</time></trkpt><trkpt lat="44.898407" lon="7.2396026"><ele>490.99999999999994</ele><time>2026-04-21T16:19:36.906Z</time></trkpt><trkpt lat="44.8983333" lon="7.2396005"><ele>491.0</ele><time>2026-04-21T16:19:37.905Z</time></trkpt><trkpt lat="44.8982554" lon="7.239602"><ele>491.0</ele><time>2026-04-21T16:19:38.905Z</time></trkpt><trkpt lat="44.8981806" lon="7.2396338"><ele>489.6</ele><time>2026-04-21T16:19:39.905Z</time></trkpt><trkpt lat="44.8981164" lon="7.2397091"><ele>488.20000000000005</ele><time>2026-04-21T16:19:40.905Z</time></trkpt><trkpt lat="44.8980615" lon="7.239816"><ele>486.79999999999995</ele><time>2026-04-21T16:19:41.904Z</time></trkpt><trkpt lat="44.8980055" lon="7.2399394"><ele>485.4</ele><time>2026-04-21T16:19:42.906Z</time></trkpt><trkpt lat="44.8979482" lon="7.2400778"><ele>484.0</ele><time>2026-04-21T16:19:43.905Z</time></trkpt><trkpt lat="44.897893" lon="7.2402199"><ele>484.0</ele><time>2026-04-21T16:19:44.905Z</time></trkpt><trkpt lat="44.8978337" lon="7.2403632"><ele>484.0</ele><time>2026-04-21T16:19:45.905Z</time></trkpt><trkpt lat="44.8977757" lon="7.2405047"><ele>484.0</ele><time>2026-04-21T16:19:46.905Z</time></trkpt><trkpt lat="44.8977224" lon="7.2406488"><ele>484.0</ele><time>2026-04-21T16:19:47.905Z</time></trkpt><trkpt lat="44.8976785" lon="7.2408012"><ele>483.75</ele><time>2026-04-21T16:19:48.905Z</time></trkpt><trkpt lat="44.8976479" lon="7.2409611"><ele>483.5</ele><time>2026-04-21T16:19:49.904Z</time></trkpt><trkpt lat="44.8976288" lon="7.2411254"><ele>483.25</ele><time>2026-04-21T16:19:50.906Z</time></trkpt><trkpt lat="44.8976126" lon="7.241286"><ele>483.0</ele><time>2026-04-21T16:19:51.905Z</time></trkpt><trkpt lat="44.8975992" lon="7.2414473"><ele>482.4</ele><time>2026-04-21T16:19:52.906Z</time></trkpt><trkpt lat="44.8975867" lon="7.2416021"><ele>481.79999999999995</ele><time>2026-04-21T16:19:53.905Z</time></trkpt><trkpt lat="44.8975722" lon="7.241745"><ele>481.2</ele><time>2026-04-21T16:19:54.906Z</time></trkpt><trkpt lat="44.8975632" lon="7.2418852"><ele>480.6</ele><time>2026-04-21T16:19:55.904Z</time></trkpt><trkpt lat="44.8975529" lon="7.2420124"><ele>480.0</ele><time>2026-04-21T16:19:56.906Z</time></trkpt><trkpt lat="44.8975415" lon="7.2421413"><ele>478.3333333333333</ele><time>2026-04-21T16:19:57.905Z</time></trkpt><trkpt lat="44.897529" lon="7.242265"><ele>476.66666666666663</ele><time>2026-04-21T16:19:58.904Z</time></trkpt><trkpt lat="44.8975204" lon="7.2423927"><ele>475.0</ele><time>2026-04-21T16:19:59.906Z</time></trkpt><trkpt lat="44.8975054" lon="7.2425136"><ele>473.3333333333333</ele><time>2026-04-21T16:20:00.905Z</time></trkpt><trkpt lat="44.8974864" lon="7.2426287"><ele>471.66666666666663</ele><time>2026-04-21T16:20:01.904Z</time></trkpt><trkpt lat="44.8974588" lon="7.2427327"><ele>470.0</ele><time>2026-04-21T16:20:02.905Z</time></trkpt><trkpt lat="44.8974313" lon="7.242825"><ele>469.71428571428567</ele><time>2026-04-21T16:20:03.906Z</time></trkpt><trkpt lat="44.8974007" lon="7.2429122"><ele>469.4285714285714</ele><time>2026-04-21T16:20:04.904Z</time></trkpt><trkpt lat="44.8973803" lon="7.2430098"><ele>469.1428571428571</ele><time>2026-04-21T16:20:05.905Z</time></trkpt><trkpt lat="44.8973669" lon="7.2431046"><ele>468.8571428571429</ele><time>2026-04-21T16:20:06.906Z</time></trkpt><trkpt lat="44.8973582" lon="7.2431987"><ele>468.5714285714286</ele><time>2026-04-21T16:20:07.904Z</time></trkpt><trkpt lat="44.8973548" lon="7.2432894"><ele>468.28571428571433</ele><time>2026-04-21T16:20:08.905Z</time></trkpt><trkpt lat="44.8973507" lon="7.2433788"><ele>468.0</ele><time>2026-04-21T16:20:09.906Z</time></trkpt><trkpt lat="44.8973274" lon="7.2435181"><ele>463.0</ele><time>2026-04-21T16:20:11.904Z</time></trkpt></trkseg></trk></gpx>